<?xml version='1.0' encoding='UTF-8'?><gpx version="1.1" creator="JPX - https://github.com/jenetics/jpx" xmlns="http://www.topografix.com/GPX/1/1"><trk><trkseg><trkpt lat="42.59298642996883" lon="13.17238323885877"><ele>831.0</ele><time>2026-04-29T08:15:08Z</time></trkpt><trkpt lat="42.593018314895204" lon="13.1724634898222"><ele>831.0</ele><time>2026-04-29T08:15:14Z</time></trkpt><trkpt lat="42.59312447514431" lon="13.172524153411228"><ele>831.0</ele><time>2026-04-29T08:16:44Z</time></trkpt><trkpt lat="42.593243111390564" lon="13.172545352623022"><ele>831.0</ele><time>2026-04-29T08:16:46Z</time></trkpt><trkpt lat="42.59332029701247" lon="13.17257161731059"><ele>831.0</ele><time>2026-04-29T08:16:47Z</time></trkpt><trkpt lat="42.59336400934592" lon="13.17263542921752"><ele>831.0</ele><time>2026-04-29T08:16:48Z</time></trkpt><trkpt lat="42.59336105700219" lon="13.172729420448752"><ele>831.0</ele><time>2026-04-29T08:16:49Z</time></trkpt><trkpt lat="42.593347010451026" lon="13.172853594758102"><ele>831.0</ele><time>2026-04-29T08:16:50Z</time></trkpt><trkpt lat="42.59335820968387" lon="13.172987550438249"><ele>831.0</ele><time>2026-04-29T08:16:51Z</time></trkpt><trkpt lat="42.59339996915798" lon="13.17311214294864"><ele>831.0</ele><time>2026-04-29T08:16:52Z</time></trkpt><trkpt lat="42.593448766239725" lon="13.17319624606117"><ele>831.0</ele><time>2026-04-29T08:16:53Z</time></trkpt><trkpt lat="42.593512201130174" lon="13.17330090313083"><ele>832.4</ele><time>2026-04-29T08:16:54Z</time></trkpt><trkpt lat="42.59356805455923" lon="13.173385810155816"><ele>833.8</ele><time>2026-04-29T08:16:55Z</time></trkpt><trkpt lat="42.59365559584373" lon="13.173478898305122"><ele>835.1999999999999</ele><time>2026-04-29T08:16:56Z</time></trkpt><trkpt lat="42.59374365715375" lon="13.173574417987753"><ele>836.5999999999999</ele><time>2026-04-29T08:16:57Z</time></trkpt><trkpt lat="42.59385415036571" lon="13.173651793079026"><ele>838.0</ele><time>2026-04-29T08:16:58Z</time></trkpt><trkpt lat="42.593967473929325" lon="13.173736455314295"><ele>841.25</ele><time>2026-04-29T08:16:59Z</time></trkpt><trkpt lat="42.5940742925968" lon="13.173815900855613"><ele>844.5</ele><time>2026-04-29T08:17:00Z</time></trkpt><trkpt lat="42.59417076079988" lon="13.173891881205224"><ele>847.75</ele><time>2026-04-29T08:17:01Z</time></trkpt><trkpt lat="42.594273805542535" lon="13.173969910300984"><ele>851.0</ele><time>2026-04-29T08:17:02Z</time></trkpt><trkpt lat="42.5943688143143" lon="13.174043859388055"><ele>851.75</ele><time>2026-04-29T08:17:03Z</time></trkpt><trkpt lat="42.59445915252999" lon="13.174100837864085"><ele>852.5</ele><time>2026-04-29T08:17:04Z</time></trkpt><trkpt lat="42.5945640275829" lon="13.17412171253369"><ele>853.25</ele><time>2026-04-29T08:17:05Z</time></trkpt><trkpt lat="42.59471518295002" lon="13.174126878238775"><ele>854.0</ele><time>2026-04-29T08:17:06Z</time></trkpt><trkpt lat="42.5948631309899" lon="13.174168610084173"><ele>857.75</ele><time>2026-04-29T08:17:07Z</time></trkpt><trkpt lat="42.59498631152264" lon="13.174212425917467"><ele>861.5</ele><time>2026-04-29T08:17:08Z</time></trkpt><trkpt lat="42.59511428978628" lon="13.174253767147507"><ele>865.25</ele><time>2026-04-29T08:17:09Z</time></trkpt><trkpt lat="42.59524876018612" lon="13.174319214491259"><ele>869.0</ele><time>2026-04-29T08:17:10Z</time></trkpt><trkpt lat="42.59537072557398" lon="13.174367285696121"><ele>870.75</ele><time>2026-04-29T08:17:11Z</time></trkpt><trkpt lat="42.59549396604454" lon="13.174419172774401"><ele>872.5</ele><time>2026-04-29T08:17:12Z</time></trkpt><trkpt lat="42.59561475784936" lon="13.174494835629615"><ele>874.25</ele><time>2026-04-29T08:17:13Z</time></trkpt><trkpt lat="42.59573687957961" lon="13.174587081833115"><ele>876.0</ele><time>2026-04-29T08:17:14Z</time></trkpt><trkpt lat="42.59587178209804" lon="13.174671606846168"><ele>876.0</ele><time>2026-04-29T08:17:15Z</time></trkpt><trkpt lat="42.59601205574446" lon="13.174740570017768"><ele>876.0</ele><time>2026-04-29T08:17:16Z</time></trkpt><trkpt lat="42.59615046944668" lon="13.174800312801661"><ele>876.0</ele><time>2026-04-29T08:17:17Z</time></trkpt><trkpt lat="42.59628749207707" lon="13.174860293625741"><ele>876.0</ele><time>2026-04-29T08:17:18Z</time></trkpt><trkpt lat="42.5964053748546" lon="13.174915058762975"><ele>880.75</ele><time>2026-04-29T08:17:19Z</time></trkpt><trkpt lat="42.59652830316752" lon="13.174930016194809"><ele>885.5</ele><time>2026-04-29T08:17:20Z</time></trkpt><trkpt lat="42.596649350684324" lon="13.17492107401236"><ele>890.25</ele><time>2026-04-29T08:17:21Z</time></trkpt><trkpt lat="42.59684289453805" lon="13.174917976355715"><ele>895.0</ele><time>2026-04-29T08:17:23Z</time></trkpt><trkpt lat="42.596901268867036" lon="13.174953375568611"><ele>895.0</ele><time>2026-04-29T08:17:24Z</time></trkpt><trkpt lat="42.59696231573655" lon="13.174999380021067"><ele>895.0</ele><time>2026-04-29T08:17:25Z</time></trkpt><trkpt lat="42.59704010357378" lon="13.175073032688696"><ele>895.0</ele><time>2026-04-29T08:17:26Z</time></trkpt><trkpt lat="42.59714063205602" lon="13.175124715714132"><ele>895.0</ele><time>2026-04-29T08:17:27Z</time></trkpt><trkpt lat="42.597247617923244" lon="13.175163677022026"><ele>895.0</ele><time>2026-04-29T08:17:28Z</time></trkpt><trkpt lat="42.597346000258256" lon="13.175184210704074"><ele>897.6</ele><time>2026-04-29T08:17:29Z</time></trkpt><trkpt lat="42.5974559985903" lon="13.175188575971205"><ele>900.2</ele><time>2026-04-29T08:17:30.001Z</time></trkpt><trkpt lat="42.5975461365796" lon="13.17520891261942"><ele>902.8</ele><time>2026-04-29T08:17:31.001Z</time></trkpt><trkpt lat="42.59764019745371" lon="13.175254284956976"><ele>905.4</ele><time>2026-04-29T08:17:32.001Z</time></trkpt><trkpt lat="42.59772717506696" lon="13.175304674499898"><ele>908.0</ele><time>2026-04-29T08:17:33.001Z</time></trkpt><trkpt lat="42.59781487706872" lon="13.1753571064584"><ele>911.8</ele><time>2026-04-29T08:17:34.001Z</time></trkpt><trkpt lat="42.59790622966594" lon="13.17539637198302"><ele>915.5999999999999</ele><time>2026-04-29T08:17:35.001Z</time></trkpt><trkpt lat="42.59799337959624" lon="13.175404852148157"><ele>919.4000000000001</ele><time>2026-04-29T08:17:36.001Z</time></trkpt><trkpt lat="42.59808269482903" lon="13.17538697984925"><ele>923.2</ele><time>2026-04-29T08:17:37.001Z</time></trkpt><trkpt lat="42.5981793077575" lon="13.175338503718157"><ele>927.0</ele><time>2026-04-29T08:17:38.001Z</time></trkpt><trkpt lat="42.59827719706855" lon="13.175278359275246"><ele>927.0</ele><time>2026-04-29T08:17:39.001Z</time></trkpt><trkpt lat="42.5983738853509" lon="13.175221931039466"><ele>927.0</ele><time>2026-04-29T08:17:40.001Z</time></trkpt><trkpt lat="42.59846949946192" lon="13.175171086726188"><ele>927.0</ele><time>2026-04-29T08:17:41.001Z</time></trkpt><trkpt lat="42.59856165035516" lon="13.175131560465937"><ele>927.0</ele><time>2026-04-29T08:17:42.001Z</time></trkpt><trkpt lat="42.598644589111174" lon="13.175100562293338"><ele>927.0</ele><time>2026-04-29T08:17:43.001Z</time></trkpt><trkpt lat="42.59873525454729" lon="13.175076218501502"><ele>931.4000000000001</ele><time>2026-04-29T08:17:44.001Z</time></trkpt><trkpt lat="42.598813166937155" lon="13.175068366085387"><ele>935.8000000000001</ele><time>2026-04-29T08:17:45.001Z</time></trkpt><trkpt lat="42.59889045079608" lon="13.175049953359913"><ele>940.2</ele><time>2026-04-29T08:17:46.001Z</time></trkpt><trkpt lat="42.59889129514447" lon="13.17515782094291"><ele>944.6</ele><time>2026-04-29T08:17:52.001Z</time></trkpt><trkpt lat="42.59883643704091" lon="13.17541376563212"><ele>949.0</ele><time>2026-04-29T08:17:54.001Z</time></trkpt><trkpt lat="42.59882246494263" lon="13.175503782102389"><ele>949.0</ele><time>2026-04-29T08:17:55.001Z</time></trkpt><trkpt lat="42.59881600011809" lon="13.17560271258344"><ele>949.0000000000001</ele><time>2026-04-29T08:17:56.001Z</time></trkpt><trkpt lat="42.59880456084167" lon="13.175691635196575"><ele>949.0000000000001</ele><time>2026-04-29T08:17:57.001Z</time></trkpt><trkpt lat="42.59880175903419" lon="13.175810792614978"><ele>949.0</ele><time>2026-04-29T08:17:58.001Z</time></trkpt><trkpt lat="42.59880031848347" lon="13.17593799233567"><ele>949.0</ele><time>2026-04-29T08:17:59.001Z</time></trkpt><trkpt lat="42.59879913373066" lon="13.176123308326652"><ele>959.0</ele><time>2026-04-29T08:18:00.001Z</time></trkpt><trkpt lat="42.59878484304192" lon="13.17635560581072"><ele>969.0</ele><time>2026-04-29T08:18:01.001Z</time></trkpt><trkpt lat="42.59877065375453" lon="13.176567282677494"><ele>979.0</ele><time>2026-04-29T08:18:02.001Z</time></trkpt><trkpt lat="42.59874877644281" lon="13.176749245901796"><ele>983.25</ele><time>2026-04-29T08:18:03.001Z</time></trkpt><trkpt lat="42.598737331479384" lon="13.176914030964257"><ele>987.5</ele><time>2026-04-29T08:18:04.001Z</time></trkpt><trkpt lat="42.59872816524388" lon="13.1770708556748"><ele>991.75</ele><time>2026-04-29T08:18:05.001Z</time></trkpt><trkpt lat="42.59871682676887" lon="13.177230379853025"><ele>996.0</ele><time>2026-04-29T08:18:06.001Z</time></trkpt><trkpt lat="42.59870855255119" lon="13.177361557739008"><ele>996.6666666666666</ele><time>2026-04-29T08:18:07.001Z</time></trkpt><trkpt lat="42.59871482763911" lon="13.177465797012985"><ele>997.3333333333333</ele><time>2026-04-29T08:18:08.001Z</time></trkpt><trkpt lat="42.59873238646667" lon="13.17755378529978"><ele>998.0</ele><time>2026-04-29T08:18:09.001Z</time></trkpt><trkpt lat="42.598768219805336" lon="13.17764384147529"><ele>998.6666666666666</ele><time>2026-04-29T08:18:10.001Z</time></trkpt><trkpt lat="42.59882370615957" lon="13.177712728972837"><ele>999.3333333333333</ele><time>2026-04-29T08:18:11.001Z</time></trkpt><trkpt lat="42.59889583625643" lon="13.17778065033847"><ele>1000.0</ele><time>2026-04-29T08:18:12.001Z</time></trkpt><trkpt lat="42.59899094670868" lon="13.177845712097113"><ele>1000.0</ele><time>2026-04-29T08:18:14.001Z</time></trkpt><trkpt lat="42.59904463416351" lon="13.17794624112172"><ele>1000.0</ele><time>2026-04-29T08:18:15.001Z</time></trkpt><trkpt lat="42.59909162573113" lon="13.178069622667213"><ele>1000.0</ele><time>2026-04-29T08:18:16.001Z</time></trkpt><trkpt lat="42.59918335931798" lon="13.178143149550536"><ele>1000.0</ele><time>2026-04-29T08:18:17.001Z</time></trkpt><trkpt lat="42.59922148567935" lon="13.178300387338016"><ele>1000.0</ele><time>2026-04-29T08:18:19.001Z</time></trkpt><trkpt lat="42.599349422023224" lon="13.17843409658952"><ele>997.2</ele><time>2026-04-29T08:18:20.001Z</time></trkpt><trkpt lat="42.59943640876367" lon="13.178495603557622"><ele>994.4</ele><time>2026-04-29T08:18:21.001Z</time></trkpt><trkpt lat="42.59952841892579" lon="13.178553280147577"><ele>991.5999999999999</ele><time>2026-04-29T08:18:22.001Z</time></trkpt><trkpt lat="42.5995990419198" lon="13.178599096107618"><ele>988.8</ele><time>2026-04-29T08:18:24.001Z</time></trkpt><trkpt lat="42.59966412341285" lon="13.178650844574275"><ele>986.0</ele><time>2026-04-29T08:18:28.001Z</time></trkpt><trkpt lat="42.59976998971319" lon="13.178681178752857"><ele>989.1999999999999</ele><time>2026-04-29T08:18:30.001Z</time></trkpt><trkpt lat="42.59986799873154" lon="13.178748803678195"><ele>992.3999999999999</ele><time>2026-04-29T08:18:31.001Z</time></trkpt><trkpt lat="42.59994008625288" lon="13.178798328937825"><ele>995.6</ele><time>2026-04-29T08:18:32.001Z</time></trkpt><trkpt lat="42.60000892857747" lon="13.178843620544974"><ele>998.8</ele><time>2026-04-29T08:18:33.001Z</time></trkpt><trkpt lat="42.60005783380777" lon="13.178909605240065"><ele>1002.0</ele><time>2026-04-29T08:18:34.001Z</time></trkpt><trkpt lat="42.60009522464167" lon="13.179069594760833"><ele>1002.0</ele><time>2026-04-29T08:18:36.001Z</time></trkpt><trkpt lat="42.600086463035396" lon="13.179180634171429"><ele>1002.0</ele><time>2026-04-29T08:18:37.001Z</time></trkpt><trkpt lat="42.600053881248" lon="13.179292104201176"><ele>1002.0</ele><time>2026-04-29T08:18:38.001Z</time></trkpt><trkpt lat="42.60000221283343" lon="13.179376572025424"><ele>1002.0</ele><time>2026-04-29T08:18:39.001Z</time></trkpt><trkpt lat="42.59992957098438" lon="13.179390252398008"><ele>1002.0</ele><time>2026-04-29T08:18:40.001Z</time></trkpt><trkpt lat="42.5998434519678" lon="13.17941278384732"><ele>1002.0</ele><time>2026-04-29T08:18:41.001Z</time></trkpt><trkpt lat="42.59974166235557" lon="13.179506983264005"><ele>1002.0</ele><time>2026-04-29T08:18:42.001Z</time></trkpt><trkpt lat="42.59962528346236" lon="13.179600187761126"><ele>1002.0</ele><time>2026-04-29T08:18:43.001Z</time></trkpt><trkpt lat="42.59954501836791" lon="13.179694250722003"><ele>1002.0</ele><time>2026-04-29T08:18:44.001Z</time></trkpt><trkpt lat="42.59943264412878" lon="13.179779173240915"><ele>1002.0</ele><time>2026-04-29T08:18:45.001Z</time></trkpt><trkpt lat="42.59933687868857" lon="13.179860300628407"><ele>1002.8</ele><time>2026-04-29T08:18:46.001Z</time></trkpt><trkpt lat="42.59926163967867" lon="13.179935559338286"><ele>1003.6</ele><time>2026-04-29T08:18:47.001Z</time></trkpt><trkpt lat="42.59919559075984" lon="13.179995856797502"><ele>1004.3999999999999</ele><time>2026-04-29T08:18:48.001Z</time></trkpt><trkpt lat="42.59919260201519" lon="13.180124125521143"><ele>1005.1999999999999</ele><time>2026-04-29T08:18:50.001Z</time></trkpt><trkpt lat="42.59927677212352" lon="13.180250797362381"><ele>1006.0</ele><time>2026-04-29T08:18:52.001Z</time></trkpt><trkpt lat="42.59933939625305" lon="13.180268682904687"><ele>1006.0</ele><time>2026-04-29T08:18:53.001Z</time></trkpt><trkpt lat="42.599430303876545" lon="13.180254559411578"><ele>1006.0</ele><time>2026-04-29T08:18:54.001Z</time></trkpt><trkpt lat="42.59954296011526" lon="13.180251320258824"><ele>1006.0</ele><time>2026-04-29T08:18:55.001Z</time></trkpt><trkpt lat="42.599687646674205" lon="13.180265152189865"><ele>1006.0</ele><time>2026-04-29T08:18:56.001Z</time></trkpt><trkpt lat="42.599825458142085" lon="13.180276798307995"><ele>1009.0</ele><time>2026-04-29T08:18:57.001Z</time></trkpt><trkpt lat="42.59994593981034" lon="13.180289478545363"><ele>1011.9999999999999</ele><time>2026-04-29T08:18:58.001Z</time></trkpt><trkpt lat="42.6000610863979" lon="13.180310996072386"><ele>1014.9999999999999</ele><time>2026-04-29T08:18:59.001Z</time></trkpt><trkpt lat="42.600170888059026" lon="13.180342547043699"><ele>1018.0</ele><time>2026-04-29T08:19:00.001Z</time></trkpt><trkpt lat="42.60025793454429" lon="13.180372274806185"><ele>1021.0</ele><time>2026-04-29T08:19:01.001Z</time></trkpt><trkpt lat="42.600339092482805" lon="13.180397550403507"><ele>1025.2</ele><time>2026-04-29T08:19:02.001Z</time></trkpt><trkpt lat="42.60044480996676" lon="13.18043553706627"><ele>1029.3999999999999</ele><time>2026-04-29T08:19:03.001Z</time></trkpt><trkpt lat="42.6005597278933" lon="13.18047179264826"><ele>1033.6</ele><time>2026-04-29T08:19:04.001Z</time></trkpt><trkpt lat="42.60065307640717" lon="13.180519616164673"><ele>1037.8</ele><time>2026-04-29T08:19:05.001Z</time></trkpt><trkpt lat="42.60073008100237" lon="13.18056496062757"><ele>1042.0</ele><time>2026-04-29T08:19:06.001Z</time></trkpt><trkpt lat="42.60081460007881" lon="13.180611282540172"><ele>1042.0</ele><time>2026-04-29T08:19:07.001Z</time></trkpt><trkpt lat="42.600910394691766" lon="13.180653421141594"><ele>1042.0</ele><time>2026-04-29T08:19:08.001Z</time></trkpt><trkpt lat="42.60098761145661" lon="13.180684516576079"><ele>1042.0</ele><time>2026-04-29T08:19:09.001Z</time></trkpt><trkpt lat="42.60105849350011" lon="13.18071061051366"><ele>1042.0</ele><time>2026-04-29T08:19:10.001Z</time></trkpt><trkpt lat="42.60116321711265" lon="13.180738293887194"><ele>1042.0</ele><time>2026-04-29T08:19:12.001Z</time></trkpt><trkpt lat="42.60123830648519" lon="13.180757068208557"><ele>1042.0</ele><time>2026-04-29T08:19:13.001Z</time></trkpt><trkpt lat="42.601332688970686" lon="13.180783081225481"><ele>1040.5</ele><time>2026-04-29T08:19:14.001Z</time></trkpt><trkpt lat="42.601466749567805" lon="13.18080430059556"><ele>1039.0</ele><time>2026-04-29T08:19:15.001Z</time></trkpt><trkpt lat="42.60157287588369" lon="13.180848573608673"><ele>1037.5</ele><time>2026-04-29T08:19:16.001Z</time></trkpt><trkpt lat="42.60167575340549" lon="13.180881554708762"><ele>1036.0</ele><time>2026-04-29T08:19:17.001Z</time></trkpt><trkpt lat="42.60177142381673" lon="13.18091605885971"><ele>1036.0</ele><time>2026-04-29T08:19:18.001Z</time></trkpt><trkpt lat="42.60183698326374" lon="13.18093943355411"><ele>1036.0</ele><time>2026-04-29T08:19:19.001Z</time></trkpt><trkpt lat="42.601898592633496" lon="13.180980644419845"><ele>1036.0</ele><time>2026-04-29T08:19:22.001Z</time></trkpt><trkpt lat="42.60203191648135" lon="13.181077777508087"><ele>1036.0</ele><time>2026-04-29T08:19:24.001Z</time></trkpt><trkpt lat="42.602118839710045" lon="13.181153696444898"><ele>1036.0</ele><time>2026-04-29T08:19:25.001Z</time></trkpt><trkpt lat="42.60220304895549" lon="13.1812262046662"><ele>1034.8</ele><time>2026-04-29T08:19:26.001Z</time></trkpt><trkpt lat="42.60226446828522" lon="13.181322902430443"><ele>1033.6</ele><time>2026-04-29T08:19:27.001Z</time></trkpt><trkpt lat="42.60232049190179" lon="13.181390698404108"><ele>1032.4</ele><time>2026-04-29T08:19:28.001Z</time></trkpt><trkpt lat="42.6023785591968" lon="13.181497105093321"><ele>1031.2</ele><time>2026-04-29T08:19:29.001Z</time></trkpt><trkpt lat="42.60245728250272" lon="13.181639619409092"><ele>1030.0</ele><time>2026-04-29T08:19:31.001Z</time></trkpt><trkpt lat="42.60248187050863" lon="13.181728752145883"><ele>1030.0</ele><time>2026-04-29T08:19:32.001Z</time></trkpt><trkpt lat="42.602515490904224" lon="13.181851224493355"><ele>1030.0</ele><time>2026-04-29T08:19:33.001Z</time></trkpt><trkpt lat="42.60255806674021" lon="13.181982511453594"><ele>1030.0</ele><time>2026-04-29T08:19:34.001Z</time></trkpt><trkpt lat="42.602606722339694" lon="13.182107377145536"><ele>1030.0</ele><time>2026-04-29T08:19:35.001Z</time></trkpt><trkpt lat="42.602666089925535" lon="13.182226203596178"><ele>1030.0</ele><time>2026-04-29T08:19:36.001Z</time></trkpt><trkpt lat="42.602713941880296" lon="13.182337214452913"><ele>1030.3333333333333</ele><time>2026-04-29T08:19:37.001Z</time></trkpt><trkpt lat="42.60280117656317" lon="13.182419123604472"><ele>1030.6666666666665</ele><time>2026-04-29T08:19:39.001Z</time></trkpt><trkpt lat="42.60285929591329" lon="13.182476680128989"><ele>1031.0</ele><time>2026-04-29T08:19:40.001Z</time></trkpt><trkpt lat="42.602921646065994" lon="13.182540751417562"><ele>1031.3333333333333</ele><time>2026-04-29T08:19:41.001Z</time></trkpt><trkpt lat="42.60298466674357" lon="13.182614311902453"><ele>1031.6666666666667</ele><time>2026-04-29T08:19:42.001Z</time></trkpt><trkpt lat="42.60304397305855" lon="13.18267603068465"><ele>1032.0</ele><time>2026-04-29T08:19:43.001Z</time></trkpt><trkpt lat="42.603124899046634" lon="13.182748355593324"><ele>1032.0</ele><time>2026-04-29T08:19:45.001Z</time></trkpt><trkpt lat="42.60323658706786" lon="13.182821130094249"><ele>1032.0</ele><time>2026-04-29T08:19:47.001Z</time></trkpt><trkpt lat="42.60332102907215" lon="13.182880027906146"><ele>1032.0</ele><time>2026-04-29T08:19:48.001Z</time></trkpt><trkpt lat="42.60339006449962" lon="13.182970454369851"><ele>1032.0</ele><time>2026-04-29T08:19:49.001Z</time></trkpt><trkpt lat="42.603440267938765" lon="13.183045860643233"><ele>1032.0</ele><time>2026-04-29T08:19:50.001Z</time></trkpt><trkpt lat="42.603490022127524" lon="13.18311212372056"><ele>1032.6666666666667</ele><time>2026-04-29T08:19:51.001Z</time></trkpt><trkpt lat="42.603548169868965" lon="13.183192672299091"><ele>1033.3333333333333</ele><time>2026-04-29T08:19:52.001Z</time></trkpt><trkpt lat="42.603595078243856" lon="13.183251825237189"><ele>1034.0</ele><time>2026-04-29T08:19:53.001Z</time></trkpt><trkpt lat="42.60364632118602" lon="13.183319269233898"><ele>1034.6666666666665</ele><time>2026-04-29T08:19:54.001Z</time></trkpt><trkpt lat="42.60371155585062" lon="13.183365033631015"><ele>1035.3333333333333</ele><time>2026-04-29T08:19:55.001Z</time></trkpt><trkpt lat="42.603785243559514" lon="13.183421172318035"><ele>1036.0</ele><time>2026-04-29T08:19:56.001Z</time></trkpt><trkpt lat="42.60386664665134" lon="13.183459228169212"><ele>1036.0</ele><time>2026-04-29T08:19:57.001Z</time></trkpt><trkpt lat="42.60394614974674" lon="13.183463003313689"><ele>1036.0</ele><time>2026-04-29T08:19:58.001Z</time></trkpt><trkpt lat="42.60403529949253" lon="13.183446378566137"><ele>1036.0</ele><time>2026-04-29T08:19:59.001Z</time></trkpt><trkpt lat="42.60413901113555" lon="13.183442762629896"><ele>1036.0</ele><time>2026-04-29T08:20:00.001Z</time></trkpt><trkpt lat="42.604232437755385" lon="13.183450126027244"><ele>1036.0</ele><time>2026-04-29T08:20:01.001Z</time></trkpt><trkpt lat="42.6043195191642" lon="13.18345291501815"><ele>1036.0</ele><time>2026-04-29T08:20:02.001Z</time></trkpt><trkpt lat="42.60441311473678" lon="13.18347101522225"><ele>1036.0</ele><time>2026-04-29T08:20:03.001Z</time></trkpt><trkpt lat="42.60449902858165" lon="13.183518651941492"><ele>1036.0</ele><time>2026-04-29T08:20:04.001Z</time></trkpt><trkpt lat="42.604584109349524" lon="13.183587431437106"><ele>1036.0</ele><time>2026-04-29T08:20:05.001Z</time></trkpt><trkpt lat="42.6046538259747" lon="13.18368023404584"><ele>1036.0</ele><time>2026-04-29T08:20:06.001Z</time></trkpt><trkpt lat="42.60473509258028" lon="13.183777283684433"><ele>1036.6</ele><time>2026-04-29T08:20:07.001Z</time></trkpt><trkpt lat="42.604799937157466" lon="13.183861809041131"><ele>1037.1999999999998</ele><time>2026-04-29T08:20:08.001Z</time></trkpt><trkpt lat="42.60485982571195" lon="13.183945310815083"><ele>1037.8000000000002</ele><time>2026-04-29T08:20:09.001Z</time></trkpt><trkpt lat="42.604919150241194" lon="13.184051056263616"><ele>1038.4</ele><time>2026-04-29T08:20:10.001Z</time></trkpt><trkpt lat="42.60497839076834" lon="13.184145852185571"><ele>1039.0</ele><time>2026-04-29T08:20:11.001Z</time></trkpt><trkpt lat="42.60503235130888" lon="13.184244577600145"><ele>1039.0</ele><time>2026-04-29T08:20:12.001Z</time></trkpt><trkpt lat="42.60508867959198" lon="13.184354614146901"><ele>1039.0</ele><time>2026-04-29T08:20:13.001Z</time></trkpt><trkpt lat="42.605151194119024" lon="13.184449163331934"><ele>1039.0</ele><time>2026-04-29T08:20:14.001Z</time></trkpt><trkpt lat="42.605228563184696" lon="13.184553975614076"><ele>1039.0</ele><time>2026-04-29T08:20:15.001Z</time></trkpt><trkpt lat="42.60531709930322" lon="13.18465912124093"><ele>1039.0</ele><time>2026-04-29T08:20:16.001Z</time></trkpt><trkpt lat="42.60543045385669" lon="13.184746683163286"><ele>1038.0</ele><time>2026-04-29T08:20:17.001Z</time></trkpt><trkpt lat="42.60555196478226" lon="13.18481727495941"><ele>1037.0</ele><time>2026-04-29T08:20:18.001Z</time></trkpt><trkpt lat="42.60567038148338" lon="13.18486318680312"><ele>1036.0</ele><time>2026-04-29T08:20:19.001Z</time></trkpt><trkpt lat="42.605786724796154" lon="13.184885955339668"><ele>1035.0</ele><time>2026-04-29T08:20:20.001Z</time></trkpt><trkpt lat="42.60592184463785" lon="13.184882236308065"><ele>1038.0</ele><time>2026-04-29T08:20:21.001Z</time></trkpt><trkpt lat="42.60607410132862" lon="13.184868831851759"><ele>1041.0</ele><time>2026-04-29T08:20:22.001Z</time></trkpt><trkpt lat="42.606214335898514" lon="13.184900376447686"><ele>1044.0</ele><time>2026-04-29T08:20:23.001Z</time></trkpt><trkpt lat="42.606307351732546" lon="13.184915590413992"><ele>1047.0</ele><time>2026-04-29T08:20:24.001Z</time></trkpt><trkpt lat="42.60637222468786" lon="13.184957880113998"><ele>1048.6</ele><time>2026-04-29T08:20:25.001Z</time></trkpt><trkpt lat="42.60642991157223" lon="13.185001407737609"><ele>1050.2</ele><time>2026-04-29T08:20:26.001Z</time></trkpt><trkpt lat="42.60649861240454" lon="13.185094707060028"><ele>1051.8</ele><time>2026-04-29T08:20:27.001Z</time></trkpt><trkpt lat="42.60657404084004" lon="13.185203006365692"><ele>1053.4</ele><time>2026-04-29T08:20:28.001Z</time></trkpt><trkpt lat="42.60664508993702" lon="13.185263131127899"><ele>1055.0</ele><time>2026-04-29T08:20:29.001Z</time></trkpt><trkpt lat="42.60674975675752" lon="13.185273328226145"><ele>1055.0</ele><time>2026-04-29T08:20:30.001Z</time></trkpt><trkpt lat="42.60688373500693" lon="13.185264804350354"><ele>1055.0</ele><time>2026-04-29T08:20:31.001Z</time></trkpt><trkpt lat="42.60701613912633" lon="13.185267095879524"><ele>1055.0</ele><time>2026-04-29T08:20:32.001Z</time></trkpt><trkpt lat="42.60718714062296" lon="13.185303290071705"><ele>1055.0</ele><time>2026-04-29T08:20:33.001Z</time></trkpt><trkpt lat="42.60731358461579" lon="13.185335461719724"><ele>1056.4</ele><time>2026-04-29T08:20:34.001Z</time></trkpt><trkpt lat="42.607414367402455" lon="13.185362982739086"><ele>1057.8</ele><time>2026-04-29T08:20:35.001Z</time></trkpt><trkpt lat="42.60751860043063" lon="13.185404285810268"><ele>1059.2</ele><time>2026-04-29T08:20:36.001Z</time></trkpt><trkpt lat="42.607638667252104" lon="13.185465872425413"><ele>1060.6</ele><time>2026-04-29T08:20:37.001Z</time></trkpt><trkpt lat="42.607735012388204" lon="13.185498116038834"><ele>1062.0</ele><time>2026-04-29T08:20:38.001Z</time></trkpt><trkpt lat="42.60780780158301" lon="13.185533929812275"><ele>1061.4</ele><time>2026-04-29T08:20:39.001Z</time></trkpt><trkpt lat="42.60785467453752" lon="13.185656274899895"><ele>1060.8000000000002</ele><time>2026-04-29T08:20:41.001Z</time></trkpt><trkpt lat="42.607786530913316" lon="13.185794554490034"><ele>1060.2</ele><time>2026-04-29T08:20:43.001Z</time></trkpt><trkpt lat="42.60771940064824" lon="13.185858934096956"><ele>1059.6000000000001</ele><time>2026-04-29T08:20:44.001Z</time></trkpt><trkpt lat="42.60763459306448" lon="13.185893412285449"><ele>1059.0</ele><time>2026-04-29T08:20:45.001Z</time></trkpt><trkpt lat="42.607559688366244" lon="13.18595116974114"><ele>1062.3333333333333</ele><time>2026-04-29T08:20:46.001Z</time></trkpt><trkpt lat="42.607459943411826" lon="13.186005780867589"><ele>1065.6666666666667</ele><time>2026-04-29T08:20:47.001Z</time></trkpt><trkpt lat="42.607383290514704" lon="13.186045220653522"><ele>1069.0</ele><time>2026-04-29T08:20:48.002Z</time></trkpt><trkpt lat="42.60731652028139" lon="13.186110522090994"><ele>1072.3333333333335</ele><time>2026-04-29T08:20:49.002Z</time></trkpt><trkpt lat="42.60725706239434" lon="13.186186661551394"><ele>1075.6666666666667</ele><time>2026-04-29T08:20:50.002Z</time></trkpt><trkpt lat="42.60717842443808" lon="13.186251986161867"><ele>1079.0</ele><time>2026-04-29T08:20:51.002Z</time></trkpt><trkpt lat="42.607066798675014" lon="13.186328465800488"><ele>1080.75</ele><time>2026-04-29T08:20:52.002Z</time></trkpt><trkpt lat="42.60693372976095" lon="13.186428401423456"><ele>1082.5</ele><time>2026-04-29T08:20:53.002Z</time></trkpt><trkpt lat="42.606795046048795" lon="13.186526976880682"><ele>1084.25</ele><time>2026-04-29T08:20:54.002Z</time></trkpt><trkpt lat="42.60667429253183" lon="13.186619290824794"><ele>1086.0</ele><time>2026-04-29T08:20:55.002Z</time></trkpt><trkpt lat="42.606577526622665" lon="13.186730535355032"><ele>1086.0</ele><time>2026-04-29T08:20:56.002Z</time></trkpt><trkpt lat="42.606490757976424" lon="13.186875615474179"><ele>1086.0</ele><time>2026-04-29T08:20:57.002Z</time></trkpt><trkpt lat="42.606432862240595" lon="13.187000547719125"><ele>1086.0</ele><time>2026-04-29T08:20:58.002Z</time></trkpt><trkpt lat="42.60640024790457" lon="13.187128039490247"><ele>1086.0</ele><time>2026-04-29T08:21:00.002Z</time></trkpt><trkpt lat="42.60635293095072" lon="13.18719309874272"><ele>1086.0</ele><time>2026-04-29T08:21:03.002Z</time></trkpt><trkpt lat="42.60635634305663" lon="13.187312689353531"><ele>1086.0</ele><time>2026-04-29T08:21:05.002Z</time></trkpt><trkpt lat="42.60644075355542" lon="13.187293179720571"><ele>1086.0</ele><time>2026-04-29T08:21:07.002Z</time></trkpt><trkpt lat="42.60649670958624" lon="13.187206551711322"><ele>1086.0</ele><time>2026-04-29T08:21:08.002Z</time></trkpt><trkpt lat="42.60658502236476" lon="13.187130391532781"><ele>1086.0</ele><time>2026-04-29T08:21:09.002Z</time></trkpt><trkpt lat="42.60664626418809" lon="13.187081634085345"><ele>1086.0</ele><time>2026-04-29T08:21:10.002Z</time></trkpt><trkpt lat="42.6067602142174" lon="13.187082576017367"><ele>1086.0</ele><time>2026-04-29T08:21:12.002Z</time></trkpt><trkpt lat="42.606873857243116" lon="13.1870848553288"><ele>1086.0</ele><time>2026-04-29T08:21:14.002Z</time></trkpt><trkpt lat="42.606966092803475" lon="13.187048955629905"><ele>1086.0</ele><time>2026-04-29T08:21:16.002Z</time></trkpt><trkpt lat="42.60706368508101" lon="13.187017985477274"><ele>1086.0</ele><time>2026-04-29T08:21:17.002Z</time></trkpt><trkpt lat="42.60716139496094" lon="13.186955916769636"><ele>1086.0</ele><time>2026-04-29T08:21:18.002Z</time></trkpt><trkpt lat="42.60724101106513" lon="13.186939012734408"><ele>1087.6</ele><time>2026-04-29T08:21:19.002Z</time></trkpt><trkpt lat="42.60730477453031" lon="13.18692852251546"><ele>1089.1999999999998</ele><time>2026-04-29T08:21:20.002Z</time></trkpt><trkpt lat="42.60743470508844" lon="13.18689834507351"><ele>1090.8000000000002</ele><time>2026-04-29T08:21:22.002Z</time></trkpt><trkpt lat="42.607504203278076" lon="13.186876583995685"><ele>1092.4</ele><time>2026-04-29T08:21:23.002Z</time></trkpt><trkpt lat="42.60763959523595" lon="13.186852824166554"><ele>1094.0</ele><time>2026-04-29T08:21:25.002Z</time></trkpt><trkpt lat="42.60772293408981" lon="13.186849374190194"><ele>1094.0</ele><time>2026-04-29T08:21:26.002Z</time></trkpt><trkpt lat="42.60779603310544" lon="13.186855641143993"><ele>1094.0</ele><time>2026-04-29T08:21:27.002Z</time></trkpt><trkpt lat="42.60787197953506" lon="13.186882237410355"><ele>1094.0</ele><time>2026-04-29T08:21:29.002Z</time></trkpt><trkpt lat="42.60794937497245" lon="13.186944086110298"><ele>1094.0</ele><time>2026-04-29T08:21:30.002Z</time></trkpt><trkpt lat="42.60802633061813" lon="13.18702115989932"><ele>1094.0</ele><time>2026-04-29T08:21:31.002Z</time></trkpt><trkpt lat="42.60812756169127" lon="13.18710162192158"><ele>1092.6000000000001</ele><time>2026-04-29T08:21:32.002Z</time></trkpt><trkpt lat="42.608232686043856" lon="13.187200403676293"><ele>1091.2</ele><time>2026-04-29T08:21:33.002Z</time></trkpt><trkpt lat="42.60829519293318" lon="13.187309408048307"><ele>1089.8000000000002</ele><time>2026-04-29T08:21:34.002Z</time></trkpt><trkpt lat="42.608341237986956" lon="13.18737044419084"><ele>1088.4</ele><time>2026-04-29T08:21:35.002Z</time></trkpt><trkpt lat="42.608395126311954" lon="13.18747411206259"><ele>1087.0</ele><time>2026-04-29T08:21:36.002Z</time></trkpt><trkpt lat="42.608443320773766" lon="13.187557523769096"><ele>1086.8</ele><time>2026-04-29T08:21:37.002Z</time></trkpt><trkpt lat="42.60853389010102" lon="13.187677704731524"><ele>1086.6</ele><time>2026-04-29T08:21:39.002Z</time></trkpt><trkpt lat="42.60859864696234" lon="13.187734276949916"><ele>1086.3999999999999</ele><time>2026-04-29T08:21:40.002Z</time></trkpt><trkpt lat="42.60867004212836" lon="13.187794417120067"><ele>1086.2</ele><time>2026-04-29T08:21:41.002Z</time></trkpt><trkpt lat="42.60873475754565" lon="13.18783081074869"><ele>1086.0</ele><time>2026-04-29T08:21:42.002Z</time></trkpt><trkpt lat="42.60881872087728" lon="13.187883284672012"><ele>1086.0</ele><time>2026-04-29T08:21:44.002Z</time></trkpt><trkpt lat="42.60889099648374" lon="13.187952223174998"><ele>1086.0</ele><time>2026-04-29T08:21:45.002Z</time></trkpt><trkpt lat="42.60896702378334" lon="13.18801704124223"><ele>1086.0</ele><time>2026-04-29T08:21:46.002Z</time></trkpt><trkpt lat="42.60905443043173" lon="13.188080440588033"><ele>1086.0</ele><time>2026-04-29T08:21:47.002Z</time></trkpt><trkpt lat="42.60911142981471" lon="13.188135142691731"><ele>1086.0</ele><time>2026-04-29T08:21:48.002Z</time></trkpt><trkpt lat="42.609189657462814" lon="13.188186508094937"><ele>1086.0</ele><time>2026-04-29T08:21:50.002Z</time></trkpt><trkpt lat="42.60924901487844" lon="13.188252988557863"><ele>1087.0</ele><time>2026-04-29T08:21:51.002Z</time></trkpt><trkpt lat="42.60935569276189" lon="13.188355719177938"><ele>1088.0</ele><time>2026-04-29T08:21:53.002Z</time></trkpt><trkpt lat="42.60941010279896" lon="13.188403977021164"><ele>1089.0</ele><time>2026-04-29T08:21:54.002Z</time></trkpt><trkpt lat="42.60951620860984" lon="13.188502841539167"><ele>1090.0</ele><time>2026-04-29T08:21:56.002Z</time></trkpt><trkpt lat="42.60955475178575" lon="13.188581862192175"><ele>1091.0</ele><time>2026-04-29T08:21:57.002Z</time></trkpt><trkpt lat="42.60959588891859" lon="13.188663276974076"><ele>1091.0</ele><time>2026-04-29T08:21:58.002Z</time></trkpt><trkpt lat="42.60963845424274" lon="13.188727917153896"><ele>1091.0</ele><time>2026-04-29T08:21:59.002Z</time></trkpt><trkpt lat="42.609655990022034" lon="13.188833805063606"><ele>1091.0</ele><time>2026-04-29T08:22:02.002Z</time></trkpt><trkpt lat="42.60969506320606" lon="13.188901536381064"><ele>1091.0</ele><time>2026-04-29T08:22:09.002Z</time></trkpt><trkpt lat="42.60969779176646" lon="13.188988571661563"><ele>1091.0</ele><time>2026-04-29T08:22:19.002Z</time></trkpt><trkpt lat="42.60970240871945" lon="13.189098948771287"><ele>1091.0</ele><time>2026-04-29T08:22:32.002Z</time></trkpt><trkpt lat="42.60971362711487" lon="13.189207049751502"><ele>1091.0</ele><time>2026-04-29T08:22:34.002Z</time></trkpt><trkpt lat="42.60973272505579" lon="13.189296561770933"><ele>1093.8</ele><time>2026-04-29T08:22:36.002Z</time></trkpt><trkpt lat="42.60976089902813" lon="13.18946327626696"><ele>1096.6</ele><time>2026-04-29T08:22:38.002Z</time></trkpt><trkpt lat="42.609772790980955" lon="13.18956691492226"><ele>1099.4</ele><time>2026-04-29T08:22:39.002Z</time></trkpt><trkpt lat="42.60980957390959" lon="13.18970360193027"><ele>1102.2</ele><time>2026-04-29T08:22:41.002Z</time></trkpt><trkpt lat="42.609790668734554" lon="13.189798591876"><ele>1105.0</ele><time>2026-04-29T08:22:43.002Z</time></trkpt><trkpt lat="42.60978635841547" lon="13.189891939901614"><ele>1108.8333333333333</ele><time>2026-04-29T08:22:45.002Z</time></trkpt><trkpt lat="42.60976370341441" lon="13.189991974575518"><ele>1112.6666666666665</ele><time>2026-04-29T08:22:48.002Z</time></trkpt><trkpt lat="42.609812494388756" lon="13.190130505154105"><ele>1116.5</ele><time>2026-04-29T08:22:50.002Z</time></trkpt><trkpt lat="42.60987252471406" lon="13.190195366225195"><ele>1120.3333333333333</ele><time>2026-04-29T08:22:52.002Z</time></trkpt><trkpt lat="42.60993695536917" lon="13.190274322124559"><ele>1124.1666666666667</ele><time>2026-04-29T08:22:57.002Z</time></trkpt><trkpt lat="42.61000438333118" lon="13.190283846376355"><ele>1128.0</ele><time>2026-04-29T08:22:58.002Z</time></trkpt><trkpt lat="42.61008307796469" lon="13.190368492999918"><ele>1128.0</ele><time>2026-04-29T08:22:59.002Z</time></trkpt><trkpt lat="42.61021416369277" lon="13.190480646776301"><ele>1128.0</ele><time>2026-04-29T08:23:01.002Z</time></trkpt><trkpt lat="42.61028791051081" lon="13.19053468765855"><ele>1128.0</ele><time>2026-04-29T08:23:02.002Z</time></trkpt><trkpt lat="42.610368561793194" lon="13.19061206240286"><ele>1128.0</ele><time>2026-04-29T08:23:04.002Z</time></trkpt><trkpt lat="42.610781367151816" lon="13.19067341395202"><ele>1132.6</ele><time>2026-04-29T08:23:09.002Z</time></trkpt><trkpt lat="42.61087042243967" lon="13.190713199127307"><ele>1137.1999999999998</ele><time>2026-04-29T08:23:10.002Z</time></trkpt><trkpt lat="42.610954155867134" lon="13.190776123844296"><ele>1141.8</ele><time>2026-04-29T08:23:11.002Z</time></trkpt><trkpt lat="42.611034004718704" lon="13.190839545351405"><ele>1146.3999999999999</ele><time>2026-04-29T08:23:12.002Z</time></trkpt><trkpt lat="42.6111333536626" lon="13.190910124808719"><ele>1151.0</ele><time>2026-04-29T08:23:13.002Z</time></trkpt><trkpt lat="42.61122430274825" lon="13.190960709353078"><ele>1154.3333333333335</ele><time>2026-04-29T08:23:14.002Z</time></trkpt><trkpt lat="42.611290358527434" lon="13.190971768082242"><ele>1157.6666666666667</ele><time>2026-04-29T08:23:15.002Z</time></trkpt><trkpt lat="42.61159458860021" lon="13.190976357877428"><ele>1161.0</ele><time>2026-04-29T08:23:20.002Z</time></trkpt><trkpt lat="42.61169153784294" lon="13.190960243073018"><ele>1161.0</ele><time>2026-04-29T08:23:21.002Z</time></trkpt><trkpt lat="42.611801125189146" lon="13.190928441849932"><ele>1161.0</ele><time>2026-04-29T08:23:22.002Z</time></trkpt><trkpt lat="42.61187735605856" lon="13.190920139735045"><ele>1161.0</ele><time>2026-04-29T08:23:23.002Z</time></trkpt><trkpt lat="42.61197931305777" lon="13.190895349565876"><ele>1161.0</ele><time>2026-04-29T08:23:24.002Z</time></trkpt><trkpt lat="42.61205121197976" lon="13.190874354652157"><ele>1161.0</ele><time>2026-04-29T08:23:25.002Z</time></trkpt><trkpt lat="42.612288553382456" lon="13.190921727632936"><ele>1163.5</ele><time>2026-04-29T08:23:29.002Z</time></trkpt><trkpt lat="42.61241393159346" lon="13.190951708174754"><ele>1166.0</ele><time>2026-04-29T08:23:31.002Z</time></trkpt><trkpt lat="42.612522764647686" lon="13.19094492121735"><ele>1168.5</ele><time>2026-04-29T08:23:33.002Z</time></trkpt><trkpt lat="42.61261747151407" lon="13.190968586555766"><ele>1171.0</ele><time>2026-04-29T08:23:35.002Z</time></trkpt><trkpt lat="42.61273817835098" lon="13.190984122810876"><ele>1171.0</ele><time>2026-04-29T08:23:37.002Z</time></trkpt><trkpt lat="42.61280584024241" lon="13.191015263609518"><ele>1171.0</ele><time>2026-04-29T08:23:38.002Z</time></trkpt><trkpt lat="42.61286509652783" lon="13.191044996917416"><ele>1171.0</ele><time>2026-04-29T08:23:39.002Z</time></trkpt><trkpt lat="42.61292992124084" lon="13.191068637114691"><ele>1171.0</ele><time>2026-04-29T08:23:40.002Z</time></trkpt><trkpt lat="42.61303528845117" lon="13.191131635983618"><ele>1171.0</ele><time>2026-04-29T08:23:42.002Z</time></trkpt><trkpt lat="42.61309308472979" lon="13.191168852575299"><ele>1171.0</ele><time>2026-04-29T08:23:43.002Z</time></trkpt><trkpt lat="42.61326300206529" lon="13.191194789253515"><ele>1169.2</ele><time>2026-04-29T08:23:48.002Z</time></trkpt><trkpt lat="42.61335090924334" lon="13.191207867589767"><ele>1167.3999999999999</ele><time>2026-04-29T08:23:49.002Z</time></trkpt><trkpt lat="42.613458455703714" lon="13.191249031258128"><ele>1165.6</ele><time>2026-04-29T08:23:50.002Z</time></trkpt><trkpt lat="42.613577879188924" lon="13.191262150503665"><ele>1163.8</ele><time>2026-04-29T08:23:52.002Z</time></trkpt><trkpt lat="42.61364447422869" lon="13.191264878708175"><ele>1162.0</ele><time>2026-04-29T08:23:53.002Z</time></trkpt><trkpt lat="42.61372373573216" lon="13.191275168489339"><ele>1161.75</ele><time>2026-04-29T08:23:54.002Z</time></trkpt><trkpt lat="42.61383532592355" lon="13.191324887307026"><ele>1161.5</ele><time>2026-04-29T08:23:56.002Z</time></trkpt><trkpt lat="42.613968992708145" lon="13.191443763826907"><ele>1161.25</ele><time>2026-04-29T08:23:58.002Z</time></trkpt><trkpt lat="42.61406595399573" lon="13.191491214055981"><ele>1161.0</ele><time>2026-04-29T08:24:00.002Z</time></trkpt><trkpt lat="42.61414456061174" lon="13.191526952805503"><ele>1166.0</ele><time>2026-04-29T08:24:01.002Z</time></trkpt><trkpt lat="42.61421800992255" lon="13.1915630208621"><ele>1171.0</ele><time>2026-04-29T08:24:02.002Z</time></trkpt><trkpt lat="42.61430074556188" lon="13.19159153278788"><ele>1176.0</ele><time>2026-04-29T08:24:03.002Z</time></trkpt><trkpt lat="42.61438010683205" lon="13.191613027217223"><ele>1181.0</ele><time>2026-04-29T08:24:04.002Z</time></trkpt><trkpt lat="42.61446017094266" lon="13.191633975868513"><ele>1186.0</ele><time>2026-04-29T08:24:05.002Z</time></trkpt><trkpt lat="42.614543417848935" lon="13.19166253875223"><ele>1191.0</ele><time>2026-04-29T08:24:06.003Z</time></trkpt><trkpt lat="42.61469643578638" lon="13.191662007581202"><ele>1191.8333333333333</ele><time>2026-04-29T08:24:08.003Z</time></trkpt><trkpt lat="42.614778998304196" lon="13.191655311160128"><ele>1192.6666666666667</ele><time>2026-04-29T08:24:09.003Z</time></trkpt><trkpt lat="42.61488021611868" lon="13.19168551094408"><ele>1193.5</ele><time>2026-04-29T08:24:11.003Z</time></trkpt><trkpt lat="42.61494701493479" lon="13.191709299775582"><ele>1194.3333333333335</ele><time>2026-04-29T08:24:13.003Z</time></trkpt><trkpt lat="42.61505659182784" lon="13.191756987136195"><ele>1195.1666666666667</ele><time>2026-04-29T08:24:17.003Z</time></trkpt><trkpt lat="42.61512366091396" lon="13.191782477216918"><ele>1196.0</ele><time>2026-04-29T08:24:18.003Z</time></trkpt><trkpt lat="42.61520458989718" lon="13.191842875526131"><ele>1196.0</ele><time>2026-04-29T08:24:19.003Z</time></trkpt><trkpt lat="42.61527139775211" lon="13.191880733916669"><ele>1196.0</ele><time>2026-04-29T08:24:20.003Z</time></trkpt><trkpt lat="42.61533876271161" lon="13.191937581643806"><ele>1196.0</ele><time>2026-04-29T08:24:21.003Z</time></trkpt><trkpt lat="42.61545365338177" lon="13.191985274615151"><ele>1196.0</ele><time>2026-04-29T08:24:23.003Z</time></trkpt><trkpt lat="42.6155262363283" lon="13.192022805397066"><ele>1196.0</ele><time>2026-04-29T08:24:24.003Z</time></trkpt><trkpt lat="42.61559684246489" lon="13.192040896847997"><ele>1196.0</ele><time>2026-04-29T08:24:25.003Z</time></trkpt><trkpt lat="42.61569009665892" lon="13.192075860973704"><ele>1197.8</ele><time>2026-04-29T08:24:27.003Z</time></trkpt><trkpt lat="42.61578492776004" lon="13.192120641472979"><ele>1199.6</ele><time>2026-04-29T08:24:28.003Z</time></trkpt><trkpt lat="42.615876535069695" lon="13.19210925511501"><ele>1201.4</ele><time>2026-04-29T08:24:29.003Z</time></trkpt><trkpt lat="42.615960163838224" lon="13.192097984932852"><ele>1203.2</ele><time>2026-04-29T08:24:30.003Z</time></trkpt><trkpt lat="42.61605377023322" lon="13.19208895690235"><ele>1205.0</ele><time>2026-04-29T08:24:31.003Z</time></trkpt><trkpt lat="42.616302029992546" lon="13.192060790896742"><ele>1207.1666666666667</ele><time>2026-04-29T08:24:35.003Z</time></trkpt><trkpt lat="42.6163753437091" lon="13.192025136232436"><ele>1209.3333333333335</ele><time>2026-04-29T08:24:36.003Z</time></trkpt><trkpt lat="42.61642746538184" lon="13.191974532432544"><ele>1211.5</ele><time>2026-04-29T08:24:37.003Z</time></trkpt><trkpt lat="42.61649638345828" lon="13.19194697274087"><ele>1213.6666666666667</ele><time>2026-04-29T08:24:38.003Z</time></trkpt><trkpt lat="42.61659655002055" lon="13.191915074236409"><ele>1215.8333333333333</ele><time>2026-04-29T08:24:41.003Z</time></trkpt><trkpt lat="42.61665829704034" lon="13.191945939582961"><ele>1218.0</ele><time>2026-04-29T08:24:42.003Z</time></trkpt><trkpt lat="42.61675448909074" lon="13.19198046307788"><ele>1218.0</ele><time>2026-04-29T08:24:44.003Z</time></trkpt><trkpt lat="42.61685905276736" lon="13.192023000571368"><ele>1218.0</ele><time>2026-04-29T08:24:45.003Z</time></trkpt><trkpt lat="42.61693889666077" lon="13.19201689511022"><ele>1218.0</ele><time>2026-04-29T08:24:46.003Z</time></trkpt><trkpt lat="42.61700319549877" lon="13.191987539575676"><ele>1218.0</ele><time>2026-04-29T08:24:47.003Z</time></trkpt><trkpt lat="42.617074828503085" lon="13.191964246406211"><ele>1218.0</ele><time>2026-04-29T08:24:48.003Z</time></trkpt><trkpt lat="42.617151591652906" lon="13.191952490351543"><ele>1218.0</ele><time>2026-04-29T08:24:49.003Z</time></trkpt><trkpt lat="42.61722801456576" lon="13.191959897048688"><ele>1222.1666666666667</ele><time>2026-04-29T08:24:50.003Z</time></trkpt><trkpt lat="42.61730344412281" lon="13.191984186289853"><ele>1226.3333333333333</ele><time>2026-04-29T08:24:51.003Z</time></trkpt><trkpt lat="42.61736642640379" lon="13.19202397658567"><ele>1230.5</ele><time>2026-04-29T08:24:52.003Z</time></trkpt><trkpt lat="42.6174449036389" lon="13.192056830996687"><ele>1234.6666666666665</ele><time>2026-04-29T08:24:53.003Z</time></trkpt><trkpt lat="42.617527582923856" lon="13.192087237860687"><ele>1238.8333333333333</ele><time>2026-04-29T08:24:54.003Z</time></trkpt><trkpt lat="42.61760661250088" lon="13.192114042794364"><ele>1243.0</ele><time>2026-04-29T08:24:55.003Z</time></trkpt><trkpt lat="42.61766776481604" lon="13.192155487403864"><ele>1243.0</ele><time>2026-04-29T08:24:56.003Z</time></trkpt><trkpt lat="42.617743115506606" lon="13.192199644234197"><ele>1243.0</ele><time>2026-04-29T08:24:57.003Z</time></trkpt><trkpt lat="42.61781377793907" lon="13.192248065369458"><ele>1243.0</ele><time>2026-04-29T08:24:58.003Z</time></trkpt><trkpt lat="42.617881777289064" lon="13.192297893560411"><ele>1243.0</ele><time>2026-04-29T08:24:59.003Z</time></trkpt><trkpt lat="42.61794478287366" lon="13.19233700354274"><ele>1243.0</ele><time>2026-04-29T08:25:00.003Z</time></trkpt><trkpt lat="42.61802680927649" lon="13.192386770326557"><ele>1243.0</ele><time>2026-04-29T08:25:02.003Z</time></trkpt><trkpt lat="42.61814149064253" lon="13.192394791952015"><ele>1250.3333333333333</ele><time>2026-04-29T08:25:05.003Z</time></trkpt><trkpt lat="42.618215477045375" lon="13.19243091762191"><ele>1257.6666666666665</ele><time>2026-04-29T08:25:09.003Z</time></trkpt><trkpt lat="42.61832337992165" lon="13.192480631930573"><ele>1265.0</ele><time>2026-04-29T08:26:08.003Z</time></trkpt><trkpt lat="42.61837142716943" lon="13.19252207996532"><ele>1272.3333333333333</ele><time>2026-04-29T08:33:01.005Z</time></trkpt><trkpt lat="42.61840907242975" lon="13.192615696168629"><ele>1279.6666666666667</ele><time>2026-04-29T08:33:03.005Z</time></trkpt><trkpt lat="42.61845045497572" lon="13.192712021887273"><ele>1287.0</ele><time>2026-04-29T08:33:05.005Z</time></trkpt><trkpt lat="42.61850178255602" lon="13.192789964682003"><ele>1287.0</ele><time>2026-04-29T08:33:07.005Z</time></trkpt><trkpt lat="42.61857065572228" lon="13.192872171906785"><ele>1287.0</ele><time>2026-04-29T08:33:09.005Z</time></trkpt><trkpt lat="42.61864392722992" lon="13.192999521737608"><ele>1287.0</ele><time>2026-04-29T08:33:11.005Z</time></trkpt><trkpt lat="42.618717161896505" lon="13.193116064401606"><ele>1287.0</ele><time>2026-04-29T08:33:13.005Z</time></trkpt><trkpt lat="42.6187956291951" lon="13.193240067559909"><ele>1287.0</ele><time>2026-04-29T08:33:15.005Z</time></trkpt><trkpt lat="42.6188777789627" lon="13.193352708170723"><ele>1290.6666666666667</ele><time>2026-04-29T08:33:17.005Z</time></trkpt><trkpt lat="42.618930723547265" lon="13.193423471183026"><ele>1294.3333333333333</ele><time>2026-04-29T08:33:18.005Z</time></trkpt><trkpt lat="42.619009835882814" lon="13.193543865163068"><ele>1298.0</ele><time>2026-04-29T08:33:20.005Z</time></trkpt><trkpt lat="42.61904531061332" lon="13.193623873452218"><ele>1301.6666666666665</ele><time>2026-04-29T08:33:21.005Z</time></trkpt><trkpt lat="42.61907036918452" lon="13.19371476368602"><ele>1305.3333333333333</ele><time>2026-04-29T08:33:22.005Z</time></trkpt><trkpt lat="42.61909678020396" lon="13.193802905709898"><ele>1309.0</ele><time>2026-04-29T08:33:23.005Z</time></trkpt><trkpt lat="42.61912012997602" lon="13.193885371556645"><ele>1310.2</ele><time>2026-04-29T08:33:24.005Z</time></trkpt><trkpt lat="42.619162199290386" lon="13.194047243544722"><ele>1311.4</ele><time>2026-04-29T08:33:26.005Z</time></trkpt><trkpt lat="42.6191852484534" lon="13.19421365247299"><ele>1312.6</ele><time>2026-04-29T08:33:28.005Z</time></trkpt><trkpt lat="42.6191860857187" lon="13.194304717273639"><ele>1313.8</ele><time>2026-04-29T08:33:29.005Z</time></trkpt><trkpt lat="42.61917986315175" lon="13.19439713619997"><ele>1315.0</ele><time>2026-04-29T08:33:30.005Z</time></trkpt><trkpt lat="42.61917773354059" lon="13.194556345237705"><ele>1315.0</ele><time>2026-04-29T08:33:32.005Z</time></trkpt><trkpt lat="42.61921853801713" lon="13.194689158846854"><ele>1315.0</ele><time>2026-04-29T08:33:34.005Z</time></trkpt><trkpt lat="42.61925432015706" lon="13.194767118343641"><ele>1315.0</ele><time>2026-04-29T08:33:35.005Z</time></trkpt><trkpt lat="42.619298537098736" lon="13.194840412327435"><ele>1315.0</ele><time>2026-04-29T08:33:37.005Z</time></trkpt><trkpt lat="42.61936937343929" lon="13.194916791852474"><ele>1315.0</ele><time>2026-04-29T08:33:39.005Z</time></trkpt><trkpt lat="42.61943296104347" lon="13.195004407876018"><ele>1315.0</ele><time>2026-04-29T08:33:41.005Z</time></trkpt><trkpt lat="42.619503694410454" lon="13.195115293710113"><ele>1317.2857142857142</ele><time>2026-04-29T08:33:44.005Z</time></trkpt><trkpt lat="42.61953927746399" lon="13.195187704093529"><ele>1319.5714285714287</ele><time>2026-04-29T08:33:45.005Z</time></trkpt><trkpt lat="42.61957408723056" lon="13.195260864183668"><ele>1321.857142857143</ele><time>2026-04-29T08:33:46.005Z</time></trkpt><trkpt lat="42.61961683577538" lon="13.195334352351564"><ele>1324.142857142857</ele><time>2026-04-29T08:33:47.005Z</time></trkpt><trkpt lat="42.619663827406114" lon="13.195407224073053"><ele>1326.4285714285713</ele><time>2026-04-29T08:33:48.005Z</time></trkpt><trkpt lat="42.619715106557194" lon="13.19546464365109"><ele>1328.7142857142858</ele><time>2026-04-29T08:33:49.005Z</time></trkpt><trkpt lat="42.61977107496107" lon="13.19552230416976"><ele>1331.0</ele><time>2026-04-29T08:33:50.005Z</time></trkpt><trkpt lat="42.61983101122208" lon="13.195576058339855"><ele>1331.0</ele><time>2026-04-29T08:33:51.005Z</time></trkpt><trkpt lat="42.61991445261796" lon="13.195685866393232"><ele>1331.0</ele><time>2026-04-29T08:33:53.006Z</time></trkpt><trkpt lat="42.619967870534886" lon="13.19580707033185"><ele>1331.0</ele><time>2026-04-29T08:33:55.006Z</time></trkpt><trkpt lat="42.62003868828136" lon="13.195839370872676"><ele>1331.0</ele><time>2026-04-29T08:33:57.006Z</time></trkpt><trkpt lat="42.620097375551644" lon="13.19576981689467"><ele>1331.0</ele><time>2026-04-29T08:33:59.006Z</time></trkpt><trkpt lat="42.62018380913378" lon="13.195641957485627"><ele>1331.0</ele><time>2026-04-29T08:34:01.006Z</time></trkpt><trkpt lat="42.62024898363313" lon="13.19552185577451"><ele>1331.0</ele><time>2026-04-29T08:34:03.006Z</time></trkpt><trkpt lat="42.62030675005383" lon="13.195427841746243"><ele>1331.0</ele><time>2026-04-29T08:34:05.006Z</time></trkpt><trkpt lat="42.62039979734578" lon="13.19529750928841"><ele>1331.0</ele><time>2026-04-29T08:34:07.006Z</time></trkpt><trkpt lat="42.62047032802688" lon="13.195182362737249"><ele>1331.0</ele><time>2026-04-29T08:34:09.006Z</time></trkpt><trkpt lat="42.62054679892541" lon="13.195056783463611"><ele>1333.1666666666667</ele><time>2026-04-29T08:34:11.006Z</time></trkpt><trkpt lat="42.62061439990619" lon="13.194952132433588"><ele>1335.3333333333335</ele><time>2026-04-29T08:34:13.006Z</time></trkpt><trkpt lat="42.62066543722058" lon="13.194868995807715"><ele>1337.5</ele><time>2026-04-29T08:34:14.006Z</time></trkpt><trkpt lat="42.62071880192178" lon="13.194787678175311"><ele>1339.6666666666667</ele><time>2026-04-29T08:34:15.006Z</time></trkpt><trkpt lat="42.620774619718254" lon="13.194707260532926"><ele>1341.8333333333333</ele><time>2026-04-29T08:34:16.006Z</time></trkpt><trkpt lat="42.620831350992475" lon="13.194623775726278"><ele>1344.0</ele><time>2026-04-29T08:34:17.006Z</time></trkpt><trkpt lat="42.62090142604256" lon="13.194511963122208"><ele>1344.6</ele><time>2026-04-29T08:34:18.006Z</time></trkpt><trkpt lat="42.62096170264837" lon="13.194408967131286"><ele>1345.2</ele><time>2026-04-29T08:34:19.006Z</time></trkpt><trkpt lat="42.621008176495025" lon="13.194325209363491"><ele>1345.8</ele><time>2026-04-29T08:34:20.006Z</time></trkpt><trkpt lat="42.62105293964165" lon="13.194208809817377"><ele>1346.3999999999999</ele><time>2026-04-29T08:34:21.006Z</time></trkpt><trkpt lat="42.62111311734019" lon="13.194095724702725"><ele>1347.0</ele><time>2026-04-29T08:34:22.006Z</time></trkpt><trkpt lat="42.6211580413159" lon="13.193984849461415"><ele>1347.8</ele><time>2026-04-29T08:34:23.006Z</time></trkpt><trkpt lat="42.621207703471626" lon="13.19389129316209"><ele>1348.6</ele><time>2026-04-29T08:34:24.006Z</time></trkpt><trkpt lat="42.6212725960416" lon="13.19381198230827"><ele>1349.3999999999999</ele><time>2026-04-29T08:34:25.006Z</time></trkpt><trkpt lat="42.621362573646046" lon="13.19373268415629"><ele>1350.1999999999998</ele><time>2026-04-29T08:34:26.006Z</time></trkpt><trkpt lat="42.62143715775382" lon="13.193641370913921"><ele>1351.0</ele><time>2026-04-29T08:34:27.006Z</time></trkpt><trkpt lat="42.62150324539926" lon="13.193567825836032"><ele>1351.0</ele><time>2026-04-29T08:34:28.006Z</time></trkpt><trkpt lat="42.62156176399365" lon="13.193497527741918"><ele>1351.0</ele><time>2026-04-29T08:34:29.006Z</time></trkpt><trkpt lat="42.62162187536927" lon="13.193427951685194"><ele>1351.0</ele><time>2026-04-29T08:34:30.006Z</time></trkpt><trkpt lat="42.621706080208185" lon="13.19331912223356"><ele>1351.0</ele><time>2026-04-29T08:34:32.006Z</time></trkpt><trkpt lat="42.6217616983441" lon="13.193247746736493"><ele>1351.0</ele><time>2026-04-29T08:34:33.006Z</time></trkpt><trkpt lat="42.62180965811651" lon="13.193177798393585"><ele>1351.0</ele><time>2026-04-29T08:34:34.006Z</time></trkpt><trkpt lat="42.621845905400015" lon="13.193107517587888"><ele>1349.5</ele><time>2026-04-29T08:34:35.006Z</time></trkpt><trkpt lat="42.621895738185515" lon="13.193045173052855"><ele>1348.0</ele><time>2026-04-29T08:34:36.006Z</time></trkpt><trkpt lat="42.62193887430997" lon="13.192975619677577"><ele>1346.5</ele><time>2026-04-29T08:34:37.006Z</time></trkpt><trkpt lat="42.62202054802004" lon="13.192862616543945"><ele>1345.0</ele><time>2026-04-29T08:34:39.006Z</time></trkpt><trkpt lat="42.622065206909426" lon="13.192793658273386"><ele>1343.5</ele><time>2026-04-29T08:34:40.006Z</time></trkpt><trkpt lat="42.62211215860296" lon="13.192723962128147"><ele>1342.0</ele><time>2026-04-29T08:34:41.006Z</time></trkpt><trkpt lat="42.6222112004621" lon="13.192625166756242"><ele>1341.3333333333333</ele><time>2026-04-29T08:34:43.006Z</time></trkpt><trkpt lat="42.62226974306516" lon="13.192576141196142"><ele>1340.6666666666665</ele><time>2026-04-29T08:34:44.006Z</time></trkpt><trkpt lat="42.62232247630693" lon="13.192527740474622"><ele>1340.0</ele><time>2026-04-29T08:34:45.006Z</time></trkpt><trkpt lat="42.62238536790803" lon="13.192489546083781"><ele>1339.3333333333333</ele><time>2026-04-29T08:34:46.006Z</time></trkpt><trkpt lat="42.62249376687218" lon="13.192431264043712"><ele>1338.6666666666667</ele><time>2026-04-29T08:34:48.006Z</time></trkpt><trkpt lat="42.62256860700985" lon="13.192319686375479"><ele>1338.0</ele><time>2026-04-29T08:34:50.006Z</time></trkpt><trkpt lat="42.622619457248625" lon="13.192265877407449"><ele>1338.0</ele><time>2026-04-29T08:34:51.006Z</time></trkpt><trkpt lat="42.622693089400826" lon="13.192211802873853"><ele>1338.0</ele><time>2026-04-29T08:34:53.006Z</time></trkpt><trkpt lat="42.622717616250355" lon="13.19207956538675"><ele>1338.0</ele><time>2026-04-29T08:34:56.006Z</time></trkpt><trkpt lat="42.6227297122094" lon="13.191922176431945"><ele>1338.0</ele><time>2026-04-29T08:34:58.006Z</time></trkpt><trkpt lat="42.622745684884464" lon="13.191834941158232"><ele>1338.0</ele><time>2026-04-29T08:35:00.006Z</time></trkpt><trkpt lat="42.62282978252859" lon="13.191699166570551"><ele>1337.857142857143</ele><time>2026-04-29T08:35:02.006Z</time></trkpt><trkpt lat="42.62289596509576" lon="13.191614102676327"><ele>1337.7142857142858</ele><time>2026-04-29T08:35:03.006Z</time></trkpt><trkpt lat="42.6229474714653" lon="13.191551994825673"><ele>1337.5714285714284</ele><time>2026-04-29T08:35:04.023Z</time></trkpt><trkpt lat="42.62301566078795" lon="13.191498455067475"><ele>1337.4285714285716</ele><time>2026-04-29T08:35:05.023Z</time></trkpt><trkpt lat="42.6230633786861" lon="13.191420736476593"><ele>1337.2857142857142</ele><time>2026-04-29T08:35:07.022Z</time></trkpt><trkpt lat="42.623107268846624" lon="13.191353757371097"><ele>1337.142857142857</ele><time>2026-04-29T08:35:08.022Z</time></trkpt><trkpt lat="42.62315281676926" lon="13.191292891736653"><ele>1337.0</ele><time>2026-04-29T08:35:09.022Z</time></trkpt><trkpt lat="42.623194026566814" lon="13.191226515937872"><ele>1338.5</ele><time>2026-04-29T08:35:10.022Z</time></trkpt><trkpt lat="42.6232402380539" lon="13.19114813809309"><ele>1340.0</ele><time>2026-04-29T08:35:11.022Z</time></trkpt><trkpt lat="42.623278029571175" lon="13.19107864004735"><ele>1341.5</ele><time>2026-04-29T08:35:12.022Z</time></trkpt><trkpt lat="42.62331520439358" lon="13.191000527928024"><ele>1343.0</ele><time>2026-04-29T08:35:13.022Z</time></trkpt><trkpt lat="42.623404596627815" lon="13.190882921536446"><ele>1344.5</ele><time>2026-04-29T08:35:15.022Z</time></trkpt><trkpt lat="42.62345446483815" lon="13.19080897552548"><ele>1346.0</ele><time>2026-04-29T08:35:16.022Z</time></trkpt><trkpt lat="42.623498914938295" lon="13.19074717720904"><ele>1347.4285714285716</ele><time>2026-04-29T08:35:17.022Z</time></trkpt><trkpt lat="42.623550245035716" lon="13.190667843103984"><ele>1348.8571428571427</ele><time>2026-04-29T08:35:18.022Z</time></trkpt><trkpt lat="42.62359077029287" lon="13.190592694453892"><ele>1350.2857142857142</ele><time>2026-04-29T08:35:19.022Z</time></trkpt><trkpt lat="42.623630560899144" lon="13.190518843107169"><ele>1351.7142857142858</ele><time>2026-04-29T08:35:20.022Z</time></trkpt><trkpt lat="42.62367370445298" lon="13.190444546613838"><ele>1353.1428571428573</ele><time>2026-04-29T08:35:21.022Z</time></trkpt><trkpt lat="42.62372901683093" lon="13.190377867951982"><ele>1354.5714285714284</ele><time>2026-04-29T08:35:22.022Z</time></trkpt><trkpt lat="42.62379512762924" lon="13.190305676372002"><ele>1356.0</ele><time>2026-04-29T08:35:23.022Z</time></trkpt><trkpt lat="42.62385135802543" lon="13.190237309745653"><ele>1357.4</ele><time>2026-04-29T08:35:24.022Z</time></trkpt><trkpt lat="42.62390399042675" lon="13.1901688826219"><ele>1358.8</ele><time>2026-04-29T08:35:25.022Z</time></trkpt><trkpt lat="42.62397857476121" lon="13.190090627674312"><ele>1360.2</ele><time>2026-04-29T08:35:27.022Z</time></trkpt><trkpt lat="42.62406825928037" lon="13.189981495212962"><ele>1361.6000000000001</ele><time>2026-04-29T08:35:29.022Z</time></trkpt><trkpt lat="42.62414537295068" lon="13.189869554881682"><ele>1363.0</ele><time>2026-04-29T08:35:31.022Z</time></trkpt><trkpt lat="42.62423291748977" lon="13.189821255869202"><ele>1365.0</ele><time>2026-04-29T08:35:34.022Z</time></trkpt><trkpt lat="42.624283573567915" lon="13.189766314220869"><ele>1367.0</ele><time>2026-04-29T08:35:35.022Z</time></trkpt><trkpt lat="42.624305157968095" lon="13.189661927838708"><ele>1369.0</ele><time>2026-04-29T08:35:37.022Z</time></trkpt><trkpt lat="42.624344083110266" lon="13.18954716897614"><ele>1371.0</ele><time>2026-04-29T08:35:39.022Z</time></trkpt><trkpt lat="42.62433735336917" lon="13.189435654768012"><ele>1373.0</ele><time>2026-04-29T08:35:40.022Z</time></trkpt><trkpt lat="42.62434553031755" lon="13.189322541269531"><ele>1375.0</ele><time>2026-04-29T08:35:41.022Z</time></trkpt><trkpt lat="42.62436969979481" lon="13.18922962543809"><ele>1375.0</ele><time>2026-04-29T08:35:42.022Z</time></trkpt><trkpt lat="42.62446860452151" lon="13.18910349800019"><ele>1375.0</ele><time>2026-04-29T08:35:44.022Z</time></trkpt><trkpt lat="42.62452270202395" lon="13.189039095248646"><ele>1375.0</ele><time>2026-04-29T08:35:45.022Z</time></trkpt><trkpt lat="42.62456578728367" lon="13.188970980113366"><ele>1375.0</ele><time>2026-04-29T08:35:46.022Z</time></trkpt><trkpt lat="42.624644201298224" lon="13.18883145214871"><ele>1375.0</ele><time>2026-04-29T08:35:48.022Z</time></trkpt><trkpt lat="42.62471548872694" lon="13.188704382536269"><ele>1377.5</ele><time>2026-04-29T08:35:50.022Z</time></trkpt><trkpt lat="42.62477152781604" lon="13.18862735631942"><ele>1380.0</ele><time>2026-04-29T08:35:51.022Z</time></trkpt><trkpt lat="42.62486493294361" lon="13.18850091332176"><ele>1382.5</ele><time>2026-04-29T08:35:53.022Z</time></trkpt><trkpt lat="42.624918012088266" lon="13.18842666275449"><ele>1385.0</ele><time>2026-04-29T08:35:54.022Z</time></trkpt><trkpt lat="42.62497705359899" lon="13.188352978788235"><ele>1387.5</ele><time>2026-04-29T08:35:55.022Z</time></trkpt><trkpt lat="42.625029769598086" lon="13.188275511257695"><ele>1390.0</ele><time>2026-04-29T08:35:56.022Z</time></trkpt><trkpt lat="42.62508893309839" lon="13.188188213264615"><ele>1390.4</ele><time>2026-04-29T08:35:57.022Z</time></trkpt><trkpt lat="42.62514664781522" lon="13.188094046384863"><ele>1390.8</ele><time>2026-04-29T08:35:58.022Z</time></trkpt><trkpt lat="42.625203716625556" lon="13.187997789029348"><ele>1391.1999999999998</ele><time>2026-04-29T08:35:59.022Z</time></trkpt><trkpt lat="42.625258745661085" lon="13.187903400288814"><ele>1391.6</ele><time>2026-04-29T08:36:00.022Z</time></trkpt><trkpt lat="42.625312984509904" lon="13.187792876617994"><ele>1392.0</ele><time>2026-04-29T08:36:01.022Z</time></trkpt><trkpt lat="42.62536774540614" lon="13.187689942763493"><ele>1392.0</ele><time>2026-04-29T08:36:02.022Z</time></trkpt><trkpt lat="42.625426495677075" lon="13.187583370268328"><ele>1392.0</ele><time>2026-04-29T08:36:03.022Z</time></trkpt><trkpt lat="42.62547117774673" lon="13.187487074734543"><ele>1392.0</ele><time>2026-04-29T08:36:04.022Z</time></trkpt><trkpt lat="42.62552662867994" lon="13.18738290030477"><ele>1392.0</ele><time>2026-04-29T08:36:05.022Z</time></trkpt><trkpt lat="42.62557884765062" lon="13.187286957270958"><ele>1392.0</ele><time>2026-04-29T08:36:06.022Z</time></trkpt><trkpt lat="42.62563485143017" lon="13.187190037321056"><ele>1392.1999999999998</ele><time>2026-04-29T08:36:07.022Z</time></trkpt><trkpt lat="42.62569790464532" lon="13.187081365651036"><ele>1392.4</ele><time>2026-04-29T08:36:08.022Z</time></trkpt><trkpt lat="42.62576539992301" lon="13.186965097435795"><ele>1392.6</ele><time>2026-04-29T08:36:09.022Z</time></trkpt><trkpt lat="42.62582075840748" lon="13.186864031152933"><ele>1392.8000000000002</ele><time>2026-04-29T08:36:10.022Z</time></trkpt><trkpt lat="42.62588541600249" lon="13.186768667329382"><ele>1393.0</ele><time>2026-04-29T08:36:11.022Z</time></trkpt><trkpt lat="42.62594902585652" lon="13.186668189978098"><ele>1393.0</ele><time>2026-04-29T08:36:12.022Z</time></trkpt><trkpt lat="42.625991339700334" lon="13.186571168722104"><ele>1393.0</ele><time>2026-04-29T08:36:13.022Z</time></trkpt><trkpt lat="42.62602624797419" lon="13.186476121432612"><ele>1393.0</ele><time>2026-04-29T08:36:14.022Z</time></trkpt><trkpt lat="42.6260657324371" lon="13.186356959803062"><ele>1393.0</ele><time>2026-04-29T08:36:15.022Z</time></trkpt><trkpt lat="42.62610085334203" lon="13.186243002523964"><ele>1393.0</ele><time>2026-04-29T08:36:16.022Z</time></trkpt><trkpt lat="42.62613896137816" lon="13.18613500610996"><ele>1393.0</ele><time>2026-04-29T08:36:17.022Z</time></trkpt><trkpt lat="42.62617329961951" lon="13.186032928596164"><ele>1393.0</ele><time>2026-04-29T08:36:18.022Z</time></trkpt><trkpt lat="42.62621010642194" lon="13.185944194121896"><ele>1393.0</ele><time>2026-04-29T08:36:19.022Z</time></trkpt><trkpt lat="42.62624135661062" lon="13.185849460649354"><ele>1393.0</ele><time>2026-04-29T08:36:20.022Z</time></trkpt><trkpt lat="42.62629088587122" lon="13.185751853784058"><ele>1393.0</ele><time>2026-04-29T08:36:21.022Z</time></trkpt><trkpt lat="42.626361620729625" lon="13.185651343192385"><ele>1393.0</ele><time>2026-04-29T08:36:22.022Z</time></trkpt><trkpt lat="42.62645182238584" lon="13.185522013573916"><ele>1393.0</ele><time>2026-04-29T08:36:23.022Z</time></trkpt><trkpt lat="42.62652531836111" lon="13.185392240295077"><ele>1393.0</ele><time>2026-04-29T08:36:24.022Z</time></trkpt><trkpt lat="42.62657551940737" lon="13.185281881110622"><ele>1393.0</ele><time>2026-04-29T08:36:25.022Z</time></trkpt><trkpt lat="42.62664298652629" lon="13.185174361783181"><ele>1393.0</ele><time>2026-04-29T08:36:26.022Z</time></trkpt><trkpt lat="42.62672405098274" lon="13.18505569233934"><ele>1393.0</ele><time>2026-04-29T08:36:27.022Z</time></trkpt><trkpt lat="42.626787187110295" lon="13.184943328723291"><ele>1392.8000000000002</ele><time>2026-04-29T08:36:28.022Z</time></trkpt><trkpt lat="42.626829522847764" lon="13.18482093059867"><ele>1392.6</ele><time>2026-04-29T08:36:29.022Z</time></trkpt><trkpt lat="42.626878267421276" lon="13.184668463058541"><ele>1392.4</ele><time>2026-04-29T08:36:30.022Z</time></trkpt><trkpt lat="42.62692894621212" lon="13.184564978729563"><ele>1392.1999999999998</ele><time>2026-04-29T08:36:31.022Z</time></trkpt><trkpt lat="42.62697244117067" lon="13.184478486759605"><ele>1392.0</ele><time>2026-04-29T08:36:32.022Z</time></trkpt><trkpt lat="42.62701258461464" lon="13.18439340373741"><ele>1392.0</ele><time>2026-04-29T08:36:33.023Z</time></trkpt><trkpt lat="42.627035622778436" lon="13.184301000806453"><ele>1392.0</ele><time>2026-04-29T08:36:34.023Z</time></trkpt><trkpt lat="42.62707049944158" lon="13.184122186320604"><ele>1392.0</ele><time>2026-04-29T08:36:36.023Z</time></trkpt><trkpt lat="42.62708775021527" lon="13.18402079089696"><ele>1392.0</ele><time>2026-04-29T08:36:37.023Z</time></trkpt><trkpt lat="42.62712419263265" lon="13.183929829919888"><ele>1392.0</ele><time>2026-04-29T08:36:38.023Z</time></trkpt><trkpt lat="42.627159381747234" lon="13.183837399557422"><ele>1392.0</ele><time>2026-04-29T08:36:39.023Z</time></trkpt><trkpt lat="42.62716738877121" lon="13.183679393259483"><ele>1393.5</ele><time>2026-04-29T08:36:41.023Z</time></trkpt><trkpt lat="42.627159591947944" lon="13.18352032670802"><ele>1395.0</ele><time>2026-04-29T08:36:43.023Z</time></trkpt><trkpt lat="42.62717907679453" lon="13.183436976894015"><ele>1396.5</ele><time>2026-04-29T08:36:44.023Z</time></trkpt><trkpt lat="42.627201973989955" lon="13.183356408351905"><ele>1398.0</ele><time>2026-04-29T08:36:45.023Z</time></trkpt><trkpt lat="42.62724313872777" lon="13.183204361769814"><ele>1399.5</ele><time>2026-04-29T08:36:47.023Z</time></trkpt><trkpt lat="42.62726340615311" lon="13.183118227147022"><ele>1401.0</ele><time>2026-04-29T08:36:48.023Z</time></trkpt><trkpt lat="42.62729856461852" lon="13.182964824252918"><ele>1403.6666666666667</ele><time>2026-04-29T08:36:50.023Z</time></trkpt><trkpt lat="42.62731009709444" lon="13.182875504719336"><ele>1406.3333333333333</ele><time>2026-04-29T08:36:51.023Z</time></trkpt><trkpt lat="42.627325789561446" lon="13.182787624611093"><ele>1409.0</ele><time>2026-04-29T08:36:52.023Z</time></trkpt><trkpt lat="42.627349945653314" lon="13.182689897413077"><ele>1411.6666666666665</ele><time>2026-04-29T08:36:53.023Z</time></trkpt><trkpt lat="42.62737940980235" lon="13.182591665916666"><ele>1414.3333333333333</ele><time>2026-04-29T08:36:54.023Z</time></trkpt><trkpt lat="42.62741388131643" lon="13.182503716656797"><ele>1417.0</ele><time>2026-04-29T08:36:55.023Z</time></trkpt><trkpt lat="42.62749589009974" lon="13.182392548943875"><ele>1420.3333333333333</ele><time>2026-04-29T08:36:57.023Z</time></trkpt><trkpt lat="42.62758417860521" lon="13.182282493379317"><ele>1423.6666666666665</ele><time>2026-04-29T08:36:59.023Z</time></trkpt><trkpt lat="42.62763124627821" lon="13.182219835706286"><ele>1427.0</ele><time>2026-04-29T08:37:00.025Z</time></trkpt><trkpt lat="42.62768216694407" lon="13.182153912912904"><ele>1430.3333333333333</ele><time>2026-04-29T08:37:01.025Z</time></trkpt><trkpt lat="42.62773868856135" lon="13.182082490895773"><ele>1433.6666666666667</ele><time>2026-04-29T08:37:02.025Z</time></trkpt><trkpt lat="42.62778813713594" lon="13.182012392597587"><ele>1437.0</ele><time>2026-04-29T08:37:03.025Z</time></trkpt><trkpt lat="42.62784282039075" lon="13.181925156826187"><ele>1437.0</ele><time>2026-04-29T08:37:04.024Z</time></trkpt><trkpt lat="42.62790132321036" lon="13.181863202831245"><ele>1437.0</ele><time>2026-04-29T08:37:05.024Z</time></trkpt><trkpt lat="42.627958683568075" lon="13.181821224620538"><ele>1437.0</ele><time>2026-04-29T08:37:06.025Z</time></trkpt><trkpt lat="42.62806750259641" lon="13.181733906601922"><ele>1437.0</ele><time>2026-04-29T08:37:08.025Z</time></trkpt><trkpt lat="42.62813071327941" lon="13.181690325465945"><ele>1437.0</ele><time>2026-04-29T08:37:09.025Z</time></trkpt><trkpt lat="42.62819524233833" lon="13.181640378315809"><ele>1437.0</ele><time>2026-04-29T08:37:10.025Z</time></trkpt><trkpt lat="42.62826457022163" lon="13.181571034351656"><ele>1441.1999999999998</ele><time>2026-04-29T08:37:11.025Z</time></trkpt><trkpt lat="42.628337302737044" lon="13.181500633131531"><ele>1445.4</ele><time>2026-04-29T08:37:12.025Z</time></trkpt><trkpt lat="42.62840868831458" lon="13.181450396594382"><ele>1449.6</ele><time>2026-04-29T08:37:13.025Z</time></trkpt><trkpt lat="42.628482282277616" lon="13.181416017538538"><ele>1453.8000000000002</ele><time>2026-04-29T08:37:14.025Z</time></trkpt><trkpt lat="42.62857484951221" lon="13.181381590113899"><ele>1458.0</ele><time>2026-04-29T08:37:15.025Z</time></trkpt><trkpt lat="42.6286785490743" lon="13.181327360348142"><ele>1458.0</ele><time>2026-04-29T08:37:16.025Z</time></trkpt><trkpt lat="42.628786017809205" lon="13.181243159328917"><ele>1458.0</ele><time>2026-04-29T08:37:17.025Z</time></trkpt><trkpt lat="42.628876512724695" lon="13.181170331364221"><ele>1458.0</ele><time>2026-04-29T08:37:18.025Z</time></trkpt><trkpt lat="42.628952978382145" lon="13.181093310179994"><ele>1458.0</ele><time>2026-04-29T08:37:19.025Z</time></trkpt><trkpt lat="42.62903184508043" lon="13.181013607533835"><ele>1458.0</ele><time>2026-04-29T08:37:20.025Z</time></trkpt><trkpt lat="42.62911407508473" lon="13.180926359540448"><ele>1458.0</ele><time>2026-04-29T08:37:21.025Z</time></trkpt><trkpt lat="42.629192508202294" lon="13.180830476464138"><ele>1458.0</ele><time>2026-04-29T08:37:22.025Z</time></trkpt><trkpt lat="42.62927478347861" lon="13.18073136440729"><ele>1458.0</ele><time>2026-04-29T08:37:23.025Z</time></trkpt><trkpt lat="42.62935233753228" lon="13.180617985740318"><ele>1458.0</ele><time>2026-04-29T08:37:24.025Z</time></trkpt><trkpt lat="42.62942406369612" lon="13.18052357654099"><ele>1458.0</ele><time>2026-04-29T08:37:25.025Z</time></trkpt><trkpt lat="42.62948902216736" lon="13.180441763631839"><ele>1460.0</ele><time>2026-04-29T08:37:26.025Z</time></trkpt><trkpt lat="42.629567800642285" lon="13.18035524753283"><ele>1462.0</ele><time>2026-04-29T08:37:27.025Z</time></trkpt><trkpt lat="42.62965103853375" lon="13.180255379853486"><ele>1464.0</ele><time>2026-04-29T08:37:28.025Z</time></trkpt><trkpt lat="42.62972404058914" lon="13.180137817790767"><ele>1466.0</ele><time>2026-04-29T08:37:29.025Z</time></trkpt><trkpt lat="42.629807696460645" lon="13.18002760394219"><ele>1468.0</ele><time>2026-04-29T08:37:30.025Z</time></trkpt><trkpt lat="42.629880121605964" lon="13.179945870417596"><ele>1468.0</ele><time>2026-04-29T08:37:31.025Z</time></trkpt><trkpt lat="42.629958558169264" lon="13.17987121530304"><ele>1468.0</ele><time>2026-04-29T08:37:32.025Z</time></trkpt><trkpt lat="42.63003695609664" lon="13.179796611394067"><ele>1468.0</ele><time>2026-04-29T08:37:33.025Z</time></trkpt><trkpt lat="42.630103933877294" lon="13.17973407110799"><ele>1468.0</ele><time>2026-04-29T08:37:34.025Z</time></trkpt><trkpt lat="42.63017768347493" lon="13.179691569404273"><ele>1468.0</ele><time>2026-04-29T08:37:35.025Z</time></trkpt><trkpt lat="42.630244157429495" lon="13.179650727060029"><ele>1468.0</ele><time>2026-04-29T08:37:36.025Z</time></trkpt><trkpt lat="42.63030013374774" lon="13.17957532919962"><ele>1470.5</ele><time>2026-04-29T08:37:37.025Z</time></trkpt><trkpt lat="42.630362955846714" lon="13.179448571146535"><ele>1473.0</ele><time>2026-04-29T08:37:38.025Z</time></trkpt><trkpt lat="42.63042182196722" lon="13.17929549509198"><ele>1475.5</ele><time>2026-04-29T08:37:39.025Z</time></trkpt><trkpt lat="42.63047230883205" lon="13.17916245806646"><ele>1478.0</ele><time>2026-04-29T08:37:40.025Z</time></trkpt><trkpt lat="42.63051397192644" lon="13.1790317541724"><ele>1478.0</ele><time>2026-04-29T08:37:41.025Z</time></trkpt><trkpt lat="42.63054020333126" lon="13.17889729639548"><ele>1478.0</ele><time>2026-04-29T08:37:42.025Z</time></trkpt><trkpt lat="42.63055920676913" lon="13.178777910532897"><ele>1478.0</ele><time>2026-04-29T08:37:43.025Z</time></trkpt><trkpt lat="42.630603380795755" lon="13.178689578732406"><ele>1478.0</ele><time>2026-04-29T08:37:44.025Z</time></trkpt><trkpt lat="42.630667880803344" lon="13.178641076222195"><ele>1478.0</ele><time>2026-04-29T08:37:45.025Z</time></trkpt><trkpt lat="42.630736311887105" lon="13.178617528600826"><ele>1478.0</ele><time>2026-04-29T08:37:46.025Z</time></trkpt><trkpt lat="42.630819336591045" lon="13.178600061040012"><ele>1478.0</ele><time>2026-04-29T08:37:47.025Z</time></trkpt><trkpt lat="42.63091112388391" lon="13.178576917273354"><ele>1478.0</ele><time>2026-04-29T08:37:48.025Z</time></trkpt><trkpt lat="42.630998913937006" lon="13.178550384473233"><ele>1478.0</ele><time>2026-04-29T08:37:49.025Z</time></trkpt><trkpt lat="42.63110285712171" lon="13.178509555890235"><ele>1478.0</ele><time>2026-04-29T08:37:50.025Z</time></trkpt><trkpt lat="42.63120297083312" lon="13.178475073102113"><ele>1478.0</ele><time>2026-04-29T08:37:51.025Z</time></trkpt><trkpt lat="42.6313125607998" lon="13.178433890238255"><ele>1479.2</ele><time>2026-04-29T08:37:52.025Z</time></trkpt><trkpt lat="42.63144170814375" lon="13.178385833990149"><ele>1480.4</ele><time>2026-04-29T08:37:53.025Z</time></trkpt><trkpt lat="42.63154595705447" lon="13.178341666931777"><ele>1481.6000000000001</ele><time>2026-04-29T08:37:54.025Z</time></trkpt><trkpt lat="42.63162976023126" lon="13.178313951908681"><ele>1482.8000000000002</ele><time>2026-04-29T08:37:55.025Z</time></trkpt><trkpt lat="42.631727322228954" lon="13.178285110799909"><ele>1484.0</ele><time>2026-04-29T08:37:56.025Z</time></trkpt><trkpt lat="42.63182081259218" lon="13.178248377279692"><ele>1484.0</ele><time>2026-04-29T08:37:57.025Z</time></trkpt><trkpt lat="42.63191933374234" lon="13.17821664784225"><ele>1484.0</ele><time>2026-04-29T08:37:58.025Z</time></trkpt><trkpt lat="42.63201594350512" lon="13.178187159734637"><ele>1484.0</ele><time>2026-04-29T08:37:59.025Z</time></trkpt><trkpt lat="42.632107567160475" lon="13.178156579661035"><ele>1484.0</ele><time>2026-04-29T08:38:00.025Z</time></trkpt><trkpt lat="42.63219438652855" lon="13.178124188017906"><ele>1484.0</ele><time>2026-04-29T08:38:01.026Z</time></trkpt><trkpt lat="42.63227397519987" lon="13.178095068351563"><ele>1486.1666666666667</ele><time>2026-04-29T08:38:02.026Z</time></trkpt><trkpt lat="42.63235191122145" lon="13.178070790874328"><ele>1488.3333333333335</ele><time>2026-04-29T08:38:03.026Z</time></trkpt><trkpt lat="42.63243385900968" lon="13.178043812248292"><ele>1490.5</ele><time>2026-04-29T08:38:04.026Z</time></trkpt><trkpt lat="42.63251658334297" lon="13.178018072939691"><ele>1492.6666666666667</ele><time>2026-04-29T08:38:05.026Z</time></trkpt><trkpt lat="42.63259603288685" lon="13.177991586442277"><ele>1494.8333333333333</ele><time>2026-04-29T08:38:06.026Z</time></trkpt><trkpt lat="42.63267717763352" lon="13.177949776930879"><ele>1497.0</ele><time>2026-04-29T08:38:07.026Z</time></trkpt><trkpt lat="42.632764882067924" lon="13.177886753687435"><ele>1499.8333333333333</ele><time>2026-04-29T08:38:08.026Z</time></trkpt><trkpt lat="42.6328525013414" lon="13.177819538336182"><ele>1502.6666666666667</ele><time>2026-04-29T08:38:09.026Z</time></trkpt><trkpt lat="42.632923143702904" lon="13.17775521436118"><ele>1505.5</ele><time>2026-04-29T08:38:10.026Z</time></trkpt><trkpt lat="42.63298064934135" lon="13.177690561031202"><ele>1508.3333333333335</ele><time>2026-04-29T08:38:11.026Z</time></trkpt><trkpt lat="42.63304247957514" lon="13.1776107293215"><ele>1511.1666666666667</ele><time>2026-04-29T08:38:12.026Z</time></trkpt><trkpt lat="42.63309814511815" lon="13.177520365591427"><ele>1514.0</ele><time>2026-04-29T08:38:13.026Z</time></trkpt><trkpt lat="42.63315029677855" lon="13.177423430586606"><ele>1514.3333333333335</ele><time>2026-04-29T08:38:14.026Z</time></trkpt><trkpt lat="42.63321945710989" lon="13.177294353565992"><ele>1514.6666666666667</ele><time>2026-04-29T08:38:15.026Z</time></trkpt><trkpt lat="42.633269705061956" lon="13.177200324606158"><ele>1515.0</ele><time>2026-04-29T08:38:16.026Z</time></trkpt><trkpt lat="42.633316912857175" lon="13.177116554567094"><ele>1515.3333333333333</ele><time>2026-04-29T08:38:17.026Z</time></trkpt><trkpt lat="42.63337354441532" lon="13.177028939811354"><ele>1515.6666666666665</ele><time>2026-04-29T08:38:18.026Z</time></trkpt><trkpt lat="42.63341872305115" lon="13.17695152966772"><ele>1516.0</ele><time>2026-04-29T08:38:19.026Z</time></trkpt><trkpt lat="42.633497916057216" lon="13.176820473369027"><ele>1516.0000000000002</ele><time>2026-04-29T08:38:21.026Z</time></trkpt><trkpt lat="42.63353731560158" lon="13.176751276219138"><ele>1516.0</ele><time>2026-04-29T08:38:22.026Z</time></trkpt><trkpt lat="42.633582522797376" lon="13.176672867746595"><ele>1516.0</ele><time>2026-04-29T08:38:23.026Z</time></trkpt><trkpt lat="42.63363231309793" lon="13.176596685621206"><ele>1516.0</ele><time>2026-04-29T08:38:24.026Z</time></trkpt><trkpt lat="42.633679899206214" lon="13.17652914007229"><ele>1516.0</ele><time>2026-04-29T08:38:25.026Z</time></trkpt><trkpt lat="42.63372617891663" lon="13.176461561706509"><ele>1516.0000000000002</ele><time>2026-04-29T08:38:26.026Z</time></trkpt><trkpt lat="42.63377167133529" lon="13.17639454222808"><ele>1516.0</ele><time>2026-04-29T08:38:27.026Z</time></trkpt><trkpt lat="42.63385366829175" lon="13.176278682199463"><ele>1521.8333333333333</ele><time>2026-04-29T08:38:29.026Z</time></trkpt><trkpt lat="42.6339515516784" lon="13.176179961245916"><ele>1527.6666666666665</ele><time>2026-04-29T08:38:31.026Z</time></trkpt><trkpt lat="42.63402816731093" lon="13.176100384470104"><ele>1533.5</ele><time>2026-04-29T08:38:33.026Z</time></trkpt><trkpt lat="42.63406811643925" lon="13.176013933079293"><ele>1539.3333333333333</ele><time>2026-04-29T08:38:34.026Z</time></trkpt><trkpt lat="42.634112079609224" lon="13.175946141716317"><ele>1545.1666666666667</ele><time>2026-04-29T08:38:35.026Z</time></trkpt><trkpt lat="42.63417339853698" lon="13.175895537746474"><ele>1551.0</ele><time>2026-04-29T08:38:36.026Z</time></trkpt><trkpt lat="42.63427935321772" lon="13.175865776272463"><ele>1551.0</ele><time>2026-04-29T08:38:38.026Z</time></trkpt><trkpt lat="42.634398222560854" lon="13.17584412853205"><ele>1551.0</ele><time>2026-04-29T08:38:40.026Z</time></trkpt><trkpt lat="42.634465216752226" lon="13.175835069924535"><ele>1551.0</ele><time>2026-04-29T08:38:41.026Z</time></trkpt><trkpt lat="42.63458230684967" lon="13.17580934827115"><ele>1551.0</ele><time>2026-04-29T08:38:43.026Z</time></trkpt><trkpt lat="42.634700693448075" lon="13.175735217791908"><ele>1551.0</ele><time>2026-04-29T08:38:45.026Z</time></trkpt><trkpt lat="42.63482497404154" lon="13.1756734442804"><ele>1557.5</ele><time>2026-04-29T08:38:47.026Z</time></trkpt><trkpt lat="42.63493692776406" lon="13.175609995570255"><ele>1564.0</ele><time>2026-04-29T08:38:49.026Z</time></trkpt><trkpt lat="42.635005080885655" lon="13.175559589866772"><ele>1570.5</ele><time>2026-04-29T08:38:50.026Z</time></trkpt><trkpt lat="42.635060277643525" lon="13.175513399953354"><ele>1577.0</ele><time>2026-04-29T08:38:51.026Z</time></trkpt><trkpt lat="42.635118381469866" lon="13.175467333847685"><ele>1583.5</ele><time>2026-04-29T08:38:52.026Z</time></trkpt><trkpt lat="42.63517464691846" lon="13.175419707342899"><ele>1590.0</ele><time>2026-04-29T08:38:53.026Z</time></trkpt><trkpt lat="42.63522906506253" lon="13.175373081742109"><ele>1590.4</ele><time>2026-04-29T08:38:54.026Z</time></trkpt><trkpt lat="42.63533482216587" lon="13.17527766625047"><ele>1590.8</ele><time>2026-04-29T08:38:56.026Z</time></trkpt><trkpt lat="42.63539760598292" lon="13.175241320293777"><ele>1591.1999999999998</ele><time>2026-04-29T08:38:57.026Z</time></trkpt><trkpt lat="42.63552059230878" lon="13.175191919753132"><ele>1591.6</ele><time>2026-04-29T08:38:59.026Z</time></trkpt><trkpt lat="42.63558609540328" lon="13.175164016598774"><ele>1592.0</ele><time>2026-04-29T08:39:00.026Z</time></trkpt><trkpt lat="42.6356505839606" lon="13.175139186727339"><ele>1591.9999999999998</ele><time>2026-04-29T08:39:01.026Z</time></trkpt><trkpt lat="42.63571245647358" lon="13.175114755928014"><ele>1592.0</ele><time>2026-04-29T08:39:02.026Z</time></trkpt><trkpt lat="42.63582963015261" lon="13.17507580334164"><ele>1592.0</ele><time>2026-04-29T08:39:04.026Z</time></trkpt><trkpt lat="42.63589332632636" lon="13.17505032315941"><ele>1592.0</ele><time>2026-04-29T08:39:05.026Z</time></trkpt><trkpt lat="42.63595825282632" lon="13.175021261544497"><ele>1591.9999999999998</ele><time>2026-04-29T08:39:06.028Z</time></trkpt><trkpt lat="42.63602195810072" lon="13.174978586887985"><ele>1592.0</ele><time>2026-04-29T08:39:07.027Z</time></trkpt><trkpt lat="42.636085860196644" lon="13.174944253580477"><ele>1592.0</ele><time>2026-04-29T08:39:08.027Z</time></trkpt><trkpt lat="42.63614870316781" lon="13.174916119132206"><ele>1592.0</ele><time>2026-04-29T08:39:09.028Z</time></trkpt><trkpt lat="42.63621046852967" lon="13.174883192339601"><ele>1592.0</ele><time>2026-04-29T08:39:10.027Z</time></trkpt><trkpt lat="42.636275823235415" lon="13.174849680109162"><ele>1592.0</ele><time>2026-04-29T08:39:11.027Z</time></trkpt><trkpt lat="42.636381645951325" lon="13.174772684137045"><ele>1592.0</ele><time>2026-04-29T08:39:13.028Z</time></trkpt><trkpt lat="42.6364953391438" lon="13.17468977796644"><ele>1596.3333333333333</ele><time>2026-04-29T08:39:15.028Z</time></trkpt><trkpt lat="42.636554964034424" lon="13.174643744286014"><ele>1600.6666666666665</ele><time>2026-04-29T08:39:16.027Z</time></trkpt><trkpt lat="42.63661631665473" lon="13.17460063165529"><ele>1605.0</ele><time>2026-04-29T08:39:17.027Z</time></trkpt><trkpt lat="42.636669498421035" lon="13.174554199919887"><ele>1609.3333333333335</ele><time>2026-04-29T08:39:18.027Z</time></trkpt><trkpt lat="42.63677745783421" lon="13.17448260095822"><ele>1613.6666666666667</ele><time>2026-04-29T08:39:20.027Z</time></trkpt><trkpt lat="42.63683586894576" lon="13.174444133142476"><ele>1618.0</ele><time>2026-04-29T08:39:21.027Z</time></trkpt><trkpt lat="42.63689453160086" lon="13.174401293987202"><ele>1618.0</ele><time>2026-04-29T08:39:22.027Z</time></trkpt><trkpt lat="42.63694944192101" lon="13.174354972796898"><ele>1618.0</ele><time>2026-04-29T08:39:23.027Z</time></trkpt><trkpt lat="42.63703836644932" lon="13.174251661678202"><ele>1618.0</ele><time>2026-04-29T08:39:25.027Z</time></trkpt><trkpt lat="42.63709260299507" lon="13.174183671187205"><ele>1618.0</ele><time>2026-04-29T08:39:26.027Z</time></trkpt><trkpt lat="42.63714383598693" lon="13.174030377652887"><ele>1618.0</ele><time>2026-04-29T08:39:28.027Z</time></trkpt><trkpt lat="42.637192940997046" lon="13.17387897871661"><ele>1616.75</ele><time>2026-04-29T08:39:30.027Z</time></trkpt><trkpt lat="42.63727204212523" lon="13.173787396095705"><ele>1615.5</ele><time>2026-04-29T08:39:32.027Z</time></trkpt><trkpt lat="42.637382896918766" lon="13.173726416682385"><ele>1614.25</ele><time>2026-04-29T08:39:34.027Z</time></trkpt><trkpt lat="42.63749156035391" lon="13.173659800426874"><ele>1613.0</ele><time>2026-04-29T08:39:36.027Z</time></trkpt><trkpt lat="42.63759959688103" lon="13.173594668259579"><ele>1612.9999999999998</ele><time>2026-04-29T08:39:38.027Z</time></trkpt><trkpt lat="42.63765823987384" lon="13.1735559509288"><ele>1613.0</ele><time>2026-04-29T08:39:39.027Z</time></trkpt><trkpt lat="42.63772227862585" lon="13.173527399649023"><ele>1613.0</ele><time>2026-04-29T08:39:40.027Z</time></trkpt><trkpt lat="42.63778757801983" lon="13.173498563859315"><ele>1613.0</ele><time>2026-04-29T08:39:41.027Z</time></trkpt><trkpt lat="42.63790542038513" lon="13.173459067229135"><ele>1612.9999999999998</ele><time>2026-04-29T08:39:43.027Z</time></trkpt><trkpt lat="42.6380310112713" lon="13.173448501957226"><ele>1613.0</ele><time>2026-04-29T08:39:45.027Z</time></trkpt><trkpt lat="42.638093580820566" lon="13.173459639156212"><ele>1614.9999999999998</ele><time>2026-04-29T08:39:46.027Z</time></trkpt><trkpt lat="42.63816966395796" lon="13.17347779883564"><ele>1617.0</ele><time>2026-04-29T08:39:47.027Z</time></trkpt><trkpt lat="42.63823704070702" lon="13.173496854732644"><ele>1619.0</ele><time>2026-04-29T08:39:48.027Z</time></trkpt><trkpt lat="42.63835780740358" lon="13.173537958160084"><ele>1621.0</ele><time>2026-04-29T08:39:50.027Z</time></trkpt><trkpt lat="42.63842600093344" lon="13.173557897332666"><ele>1622.9999999999998</ele><time>2026-04-29T08:39:51.027Z</time></trkpt><trkpt lat="42.638492417561174" lon="13.173570205843333"><ele>1625.0</ele><time>2026-04-29T08:39:52.027Z</time></trkpt><trkpt lat="42.63861380461323" lon="13.17358604604032"><ele>1628.0</ele><time>2026-04-29T08:39:54.027Z</time></trkpt><trkpt lat="42.63867441531195" lon="13.173615147884597"><ele>1631.0</ele><time>2026-04-29T08:39:55.027Z</time></trkpt><trkpt lat="42.63873134664904" lon="13.173654948513413"><ele>1634.0</ele><time>2026-04-29T08:39:56.027Z</time></trkpt><trkpt lat="42.6387849064017" lon="13.173708939714134"><ele>1637.0</ele><time>2026-04-29T08:39:57.027Z</time></trkpt><trkpt lat="42.63884282418831" lon="13.173770913815233"><ele>1640.0</ele><time>2026-04-29T08:39:58.027Z</time></trkpt><trkpt lat="42.63887886221812" lon="13.173844667318232"><ele>1643.0</ele><time>2026-04-29T08:39:59.027Z</time></trkpt><trkpt lat="42.63891628153513" lon="13.173918876244413"><ele>1646.0</ele><time>2026-04-29T08:40:00.027Z</time></trkpt><trkpt lat="42.63895404373932" lon="13.173992723059046"><ele>1648.6</ele><time>2026-04-29T08:40:01.027Z</time></trkpt><trkpt lat="42.63899814738159" lon="13.174066167136163"><ele>1651.1999999999998</ele><time>2026-04-29T08:40:02.027Z</time></trkpt><trkpt lat="42.639073494302195" lon="13.174157586001732"><ele>1653.8000000000002</ele><time>2026-04-29T08:40:04.027Z</time></trkpt><trkpt lat="42.63917178328911" lon="13.174183582359783"><ele>1656.4</ele><time>2026-04-29T08:40:06.027Z</time></trkpt><trkpt lat="42.63926484778796" lon="13.174185917483237"><ele>1659.0</ele><time>2026-04-29T08:40:08.027Z</time></trkpt><trkpt lat="42.639371721458154" lon="13.174218799158565"><ele>1659.0</ele><time>2026-04-29T08:40:10.027Z</time></trkpt><trkpt lat="42.639436555217785" lon="13.174228647010745"><ele>1659.0</ele><time>2026-04-29T08:40:11.027Z</time></trkpt><trkpt lat="42.63950326267152" lon="13.174248034649025"><ele>1659.0</ele><time>2026-04-29T08:40:12.027Z</time></trkpt><trkpt lat="42.63959270325283" lon="13.174281238828986"><ele>1659.0</ele><time>2026-04-29T08:40:14.027Z</time></trkpt><trkpt lat="42.63968357944735" lon="13.17428264205983"><ele>1659.0</ele><time>2026-04-29T08:40:16.027Z</time></trkpt><trkpt lat="42.63978534824444" lon="13.17426833469614"><ele>1659.0</ele><time>2026-04-29T08:40:18.027Z</time></trkpt><trkpt lat="42.63986942571028" lon="13.174264130699978"><ele>1665.4</ele><time>2026-04-29T08:40:20.027Z</time></trkpt><trkpt lat="42.639951841773026" lon="13.17425773204337"><ele>1671.8000000000002</ele><time>2026-04-29T08:40:22.027Z</time></trkpt><trkpt lat="42.64006014429417" lon="13.174285551953266"><ele>1678.1999999999998</ele><time>2026-04-29T08:40:24.027Z</time></trkpt><trkpt lat="42.640160165656766" lon="13.174307044178295"><ele>1684.6</ele><time>2026-04-29T08:40:26.027Z</time></trkpt><trkpt lat="42.64025085765788" lon="13.174368781889807"><ele>1691.0</ele><time>2026-04-29T08:40:28.027Z</time></trkpt><trkpt lat="42.64034015148497" lon="13.174417796381764"><ele>1699.6</ele><time>2026-04-29T08:40:30.027Z</time></trkpt><trkpt lat="42.64041906350215" lon="13.174516727448433"><ele>1708.1999999999998</ele><time>2026-04-29T08:40:32.027Z</time></trkpt><trkpt lat="42.64046815319832" lon="13.174624591037375"><ele>1716.8000000000002</ele><time>2026-04-29T08:40:34.027Z</time></trkpt><trkpt lat="42.64052368275766" lon="13.174728435479642"><ele>1725.4</ele><time>2026-04-29T08:40:36.027Z</time></trkpt><trkpt lat="42.64061444211004" lon="13.174750488209833"><ele>1734.0</ele><time>2026-04-29T08:40:38.027Z</time></trkpt><trkpt lat="42.640707326939" lon="13.174781715722242"><ele>1734.0</ele><time>2026-04-29T08:40:40.027Z</time></trkpt><trkpt lat="42.64080313809794" lon="13.17483595121773"><ele>1734.0</ele><time>2026-04-29T08:40:42.027Z</time></trkpt><trkpt lat="42.64086806945298" lon="13.17485521329342"><ele>1734.0</ele><time>2026-04-29T08:40:43.027Z</time></trkpt><trkpt lat="42.64097221918832" lon="13.174919146210563"><ele>1734.0</ele><time>2026-04-29T08:40:45.027Z</time></trkpt><trkpt lat="42.6410601361959" lon="13.175028587432013"><ele>1734.0</ele><time>2026-04-29T08:40:47.027Z</time></trkpt><trkpt lat="42.64117285103103" lon="13.175064582815251"><ele>1733.2</ele><time>2026-04-29T08:40:49.027Z</time></trkpt><trkpt lat="42.641281759867915" lon="13.175128550488491"><ele>1732.4</ele><time>2026-04-29T08:40:51.027Z</time></trkpt><trkpt lat="42.64133857460986" lon="13.175184703635841"><ele>1731.6</ele><time>2026-04-29T08:40:52.027Z</time></trkpt><trkpt lat="42.641438326051095" lon="13.175244433148745"><ele>1730.8</ele><time>2026-04-29T08:40:54.027Z</time></trkpt><trkpt lat="42.64154677344272" lon="13.1752995635585"><ele>1730.0</ele><time>2026-04-29T08:40:56.027Z</time></trkpt><trkpt lat="42.641656231867735" lon="13.175368932804952"><ele>1729.9999999999998</ele><time>2026-04-29T08:40:58.028Z</time></trkpt><trkpt lat="42.64172325595765" lon="13.175372190076729"><ele>1730.0</ele><time>2026-04-29T08:40:59.028Z</time></trkpt><trkpt lat="42.64183111574959" lon="13.175369152819023"><ele>1730.0</ele><time>2026-04-29T08:41:01.028Z</time></trkpt><trkpt lat="42.64193849155066" lon="13.175428713656137"><ele>1730.0</ele><time>2026-04-29T08:41:03.028Z</time></trkpt><trkpt lat="42.64200036505426" lon="13.17546079770398"><ele>1729.9999999999998</ele><time>2026-04-29T08:41:04.028Z</time></trkpt><trkpt lat="42.64206974894707" lon="13.175470134328055"><ele>1730.0</ele><time>2026-04-29T08:41:05.028Z</time></trkpt><trkpt lat="42.64217628003244" lon="13.17549508087147"><ele>1731.0</ele><time>2026-04-29T08:41:07.028Z</time></trkpt><trkpt lat="42.64223950291589" lon="13.175503878097537"><ele>1732.0</ele><time>2026-04-29T08:41:08.028Z</time></trkpt><trkpt lat="42.64235072092282" lon="13.175541926131212"><ele>1733.0</ele><time>2026-04-29T08:41:10.028Z</time></trkpt><trkpt lat="42.642459933877674" lon="13.17552317069575"><ele>1734.0</ele><time>2026-04-29T08:41:12.03Z</time></trkpt><trkpt lat="42.642551002216486" lon="13.175440936517907"><ele>1735.0</ele><time>2026-04-29T08:41:14.03Z</time></trkpt><trkpt lat="42.64265500651746" lon="13.175408333245496"><ele>1735.0</ele><time>2026-04-29T08:41:16.03Z</time></trkpt><trkpt lat="42.6427598008032" lon="13.175458429107435"><ele>1735.0</ele><time>2026-04-29T08:41:18.03Z</time></trkpt><trkpt lat="42.64286553562052" lon="13.175439313064471"><ele>1735.0</ele><time>2026-04-29T08:41:20.03Z</time></trkpt><trkpt lat="42.64293839639445" lon="13.175352363090086"><ele>1735.0</ele><time>2026-04-29T08:41:22.03Z</time></trkpt><trkpt lat="42.64302008582044" lon="13.175275301081854"><ele>1735.0</ele><time>2026-04-29T08:41:24.03Z</time></trkpt><trkpt lat="42.64312670517718" lon="13.175217808110103"><ele>1735.2</ele><time>2026-04-29T08:41:26.031Z</time></trkpt><trkpt lat="42.643230694117825" lon="13.175178933313973"><ele>1735.4</ele><time>2026-04-29T08:41:28.031Z</time></trkpt><trkpt lat="42.64333722800074" lon="13.17513814447544"><ele>1735.6</ele><time>2026-04-29T08:41:30.031Z</time></trkpt><trkpt lat="42.64344397628295" lon="13.17508085042429"><ele>1735.8</ele><time>2026-04-29T08:41:32.031Z</time></trkpt><trkpt lat="42.64350446385269" lon="13.175051907886514"><ele>1736.0</ele><time>2026-04-29T08:41:33.031Z</time></trkpt><trkpt lat="42.64356671766323" lon="13.17503296052784"><ele>1735.9999999999998</ele><time>2026-04-29T08:41:34.031Z</time></trkpt><trkpt lat="42.643628033350836" lon="13.174999939670318"><ele>1736.0</ele><time>2026-04-29T08:41:35.031Z</time></trkpt><trkpt lat="42.64370725293015" lon="13.174918134553351"><ele>1736.0</ele><time>2026-04-29T08:41:37.031Z</time></trkpt><trkpt lat="42.64381600324679" lon="13.174838468113755"><ele>1736.0</ele><time>2026-04-29T08:41:39.031Z</time></trkpt><trkpt lat="42.64388603226793" lon="13.174769162940697"><ele>1735.9999999999998</ele><time>2026-04-29T08:41:41.031Z</time></trkpt><trkpt lat="42.643917238889244" lon="13.174690417380155"><ele>1736.0</ele><time>2026-04-29T08:41:42.031Z</time></trkpt><trkpt lat="42.643956313251394" lon="13.174583441905538"><ele>1736.1666666666665</ele><time>2026-04-29T08:41:43.031Z</time></trkpt><trkpt lat="42.64398212829685" lon="13.174470655475616"><ele>1736.3333333333333</ele><time>2026-04-29T08:41:44.031Z</time></trkpt><trkpt lat="42.64399210846641" lon="13.174382244561565"><ele>1736.5</ele><time>2026-04-29T08:41:45.031Z</time></trkpt><trkpt lat="42.64402653359961" lon="13.174274114746447"><ele>1736.6666666666665</ele><time>2026-04-29T08:41:47.031Z</time></trkpt><trkpt lat="42.64410690892949" lon="13.174186552408592"><ele>1736.8333333333333</ele><time>2026-04-29T08:41:49.031Z</time></trkpt><trkpt lat="42.644175873643334" lon="13.17415499121099"><ele>1737.0</ele><time>2026-04-29T08:41:50.031Z</time></trkpt><trkpt lat="42.64425221202769" lon="13.174043813419008"><ele>1739.5</ele><time>2026-04-29T08:41:52.031Z</time></trkpt><trkpt lat="42.64429773633988" lon="13.173909755563502"><ele>1742.0</ele><time>2026-04-29T08:41:54.031Z</time></trkpt><trkpt lat="42.64437250353031" lon="13.173780158115049"><ele>1744.5</ele><time>2026-04-29T08:41:56.031Z</time></trkpt><trkpt lat="42.64443945985596" lon="13.173661944214091"><ele>1747.0</ele><time>2026-04-29T08:41:58.031Z</time></trkpt><trkpt lat="42.644521942447405" lon="13.173527607064008"><ele>1747.0</ele><time>2026-04-29T08:42:00.031Z</time></trkpt><trkpt lat="42.64458211141126" lon="13.173397350830925"><ele>1746.9999999999998</ele><time>2026-04-29T08:42:02.031Z</time></trkpt><trkpt lat="42.644643124766674" lon="13.173249427004812"><ele>1746.9999999999998</ele><time>2026-04-29T08:42:04.031Z</time></trkpt><trkpt lat="42.64468341666557" lon="13.173181017581166"><ele>1747.0</ele><time>2026-04-29T08:42:05.031Z</time></trkpt><trkpt lat="42.644741457088216" lon="13.173034870902343"><ele>1747.0</ele><time>2026-04-29T08:42:07.031Z</time></trkpt><trkpt lat="42.64476332924889" lon="13.172952521674537"><ele>1745.8333333333335</ele><time>2026-04-29T08:42:08.031Z</time></trkpt><trkpt lat="42.64476198089883" lon="13.172851923612505"><ele>1744.6666666666667</ele><time>2026-04-29T08:42:09.031Z</time></trkpt><trkpt lat="42.64479300028786" lon="13.17266304683422"><ele>1743.5</ele><time>2026-04-29T08:42:11.031Z</time></trkpt><trkpt lat="42.64482120394107" lon="13.1725546569929"><ele>1742.3333333333335</ele><time>2026-04-29T08:42:12.031Z</time></trkpt><trkpt lat="42.64482714685793" lon="13.172450659522205"><ele>1741.1666666666667</ele><time>2026-04-29T08:42:13.031Z</time></trkpt><trkpt lat="42.64482803764669" lon="13.172362264540032"><ele>1740.0</ele><time>2026-04-29T08:42:14.031Z</time></trkpt><trkpt lat="42.64485890455151" lon="13.172278450155765"><ele>1740.0</ele><time>2026-04-29T08:42:15.031Z</time></trkpt><trkpt lat="42.64490561819134" lon="13.172204952135937"><ele>1740.0</ele><time>2026-04-29T08:42:16.031Z</time></trkpt><trkpt lat="42.644957827940864" lon="13.172149781010477"><ele>1740.0</ele><time>2026-04-29T08:42:17.031Z</time></trkpt><trkpt lat="42.645030756597045" lon="13.172048086316371"><ele>1740.0</ele><time>2026-04-29T08:42:19.031Z</time></trkpt><trkpt lat="42.6451227473593" lon="13.17199558624118"><ele>1740.0</ele><time>2026-04-29T08:42:21.031Z</time></trkpt><trkpt lat="42.64522073705402" lon="13.171953615527823"><ele>1740.0</ele><time>2026-04-29T08:42:23.031Z</time></trkpt><trkpt lat="42.6453250754018" lon="13.171914329778366"><ele>1739.0</ele><time>2026-04-29T08:42:25.031Z</time></trkpt><trkpt lat="42.6454238548765" lon="13.171865458396862"><ele>1738.0</ele><time>2026-04-29T08:42:27.031Z</time></trkpt><trkpt lat="42.64553377079933" lon="13.171836738156943"><ele>1737.0</ele><time>2026-04-29T08:42:29.031Z</time></trkpt><trkpt lat="42.645636039896125" lon="13.171788809371908"><ele>1736.0</ele><time>2026-04-29T08:42:31.031Z</time></trkpt><trkpt lat="42.64573453291688" lon="13.171735306747033"><ele>1735.0</ele><time>2026-04-29T08:42:33.031Z</time></trkpt><trkpt lat="42.64583059166371" lon="13.171678677804344"><ele>1735.0000000000002</ele><time>2026-04-29T08:42:35.031Z</time></trkpt><trkpt lat="42.64589460856227" lon="13.171641584836603"><ele>1735.0</ele><time>2026-04-29T08:42:36.031Z</time></trkpt><trkpt lat="42.64599830117045" lon="13.171573255296973"><ele>1735.0</ele><time>2026-04-29T08:42:38.031Z</time></trkpt><trkpt lat="42.646054225061185" lon="13.171532525022624"><ele>1735.0</ele><time>2026-04-29T08:42:39.031Z</time></trkpt><trkpt lat="42.64615498733795" lon="13.171453613600079"><ele>1735.0000000000002</ele><time>2026-04-29T08:42:41.031Z</time></trkpt><trkpt lat="42.646216891908985" lon="13.171417643638241"><ele>1735.0</ele><time>2026-04-29T08:42:42.031Z</time></trkpt><trkpt lat="42.64632979816563" lon="13.171349883590898"><ele>1737.0</ele><time>2026-04-29T08:42:44.031Z</time></trkpt><trkpt lat="42.64644156874476" lon="13.171290623583094"><ele>1739.0</ele><time>2026-04-29T08:42:46.031Z</time></trkpt><trkpt lat="42.64652301829" lon="13.171203823757205"><ele>1741.0</ele><time>2026-04-29T08:42:48.031Z</time></trkpt><trkpt lat="42.646621756280354" lon="13.171130663830729"><ele>1743.0</ele><time>2026-04-29T08:42:50.031Z</time></trkpt><trkpt lat="42.64674012082551" lon="13.171108875418764"><ele>1743.0</ele><time>2026-04-29T08:42:52.031Z</time></trkpt><trkpt lat="42.646861287786145" lon="13.171110402276783"><ele>1743.0</ele><time>2026-04-29T08:42:54.031Z</time></trkpt><trkpt lat="42.64692539440678" lon="13.171112574658174"><ele>1743.0</ele><time>2026-04-29T08:42:55.031Z</time></trkpt><trkpt lat="42.64699296949031" lon="13.171110458589162"><ele>1743.0</ele><time>2026-04-29T08:42:56.031Z</time></trkpt><trkpt lat="42.64705761936182" lon="13.171118794844242"><ele>1743.0</ele><time>2026-04-29T08:42:57.031Z</time></trkpt><trkpt lat="42.64717476811753" lon="13.171136159780346"><ele>1743.0</ele><time>2026-04-29T08:42:59.031Z</time></trkpt><trkpt lat="42.647239762509706" lon="13.17113864322358"><ele>1744.0</ele><time>2026-04-29T08:43:00.031Z</time></trkpt><trkpt lat="42.64730299660401" lon="13.171123338370005"><ele>1745.0</ele><time>2026-04-29T08:43:01.031Z</time></trkpt><trkpt lat="42.64737084159135" lon="13.171114636327394"><ele>1746.0</ele><time>2026-04-29T08:43:02.031Z</time></trkpt><trkpt lat="42.6474391868205" lon="13.171111751530692"><ele>1747.0</ele><time>2026-04-29T08:43:03.031Z</time></trkpt><trkpt lat="42.64756376510712" lon="13.171119350724652"><ele>1748.0</ele><time>2026-04-29T08:43:05.031Z</time></trkpt><trkpt lat="42.647677452698964" lon="13.171117842300744"><ele>1749.0</ele><time>2026-04-29T08:43:07.031Z</time></trkpt><trkpt lat="42.647798091647026" lon="13.171109862659431"><ele>1750.1666666666667</ele><time>2026-04-29T08:43:09.031Z</time></trkpt><trkpt lat="42.64791196121043" lon="13.171091590417246"><ele>1751.3333333333335</ele><time>2026-04-29T08:43:11.031Z</time></trkpt><trkpt lat="42.64797623875468" lon="13.171083436496467"><ele>1752.5</ele><time>2026-04-29T08:43:12.031Z</time></trkpt><trkpt lat="42.648047421075226" lon="13.171069263791138"><ele>1753.6666666666667</ele><time>2026-04-29T08:43:13.031Z</time></trkpt><trkpt lat="42.64811461433532" lon="13.171053055266905"><ele>1754.8333333333335</ele><time>2026-04-29T08:43:14.031Z</time></trkpt><trkpt lat="42.6482191984226" lon="13.17103845617465"><ele>1756.0</ele><time>2026-04-29T08:43:16.031Z</time></trkpt><trkpt lat="42.648327705517055" lon="13.171055610156259"><ele>1756.0000000000002</ele><time>2026-04-29T08:43:18.033Z</time></trkpt><trkpt lat="42.648393271156216" lon="13.171058562417604"><ele>1756.0</ele><time>2026-04-29T08:43:19.033Z</time></trkpt><trkpt lat="42.648503896478296" lon="13.171058896833667"><ele>1756.0</ele><time>2026-04-29T08:43:21.033Z</time></trkpt><trkpt lat="42.648622510565794" lon="13.171026421380333"><ele>1756.0</ele><time>2026-04-29T08:43:23.033Z</time></trkpt><trkpt lat="42.648697447995936" lon="13.171012973115246"><ele>1756.0000000000002</ele><time>2026-04-29T08:43:24.033Z</time></trkpt><trkpt lat="42.6487645722849" lon="13.17099877284063"><ele>1756.0</ele><time>2026-04-29T08:43:25.033Z</time></trkpt><trkpt lat="42.64888667998681" lon="13.170985582300073"><ele>1758.0</ele><time>2026-04-29T08:43:27.033Z</time></trkpt><trkpt lat="42.64895033134027" lon="13.170977038841421"><ele>1760.0</ele><time>2026-04-29T08:43:28.033Z</time></trkpt><trkpt lat="42.64907924214333" lon="13.17098895828814"><ele>1762.0</ele><time>2026-04-29T08:43:30.033Z</time></trkpt><trkpt lat="42.64914710096543" lon="13.170979988397944"><ele>1764.0</ele><time>2026-04-29T08:43:31.033Z</time></trkpt><trkpt lat="42.64927821565093" lon="13.170953504513783"><ele>1766.0</ele><time>2026-04-29T08:43:33.033Z</time></trkpt><trkpt lat="42.6493512823868" lon="13.170938716956886"><ele>1766.0</ele><time>2026-04-29T08:43:34.033Z</time></trkpt><trkpt lat="42.649419191911406" lon="13.170935018019273"><ele>1766.0</ele><time>2026-04-29T08:43:35.033Z</time></trkpt><trkpt lat="42.64954507456942" lon="13.170941796100713"><ele>1766.0</ele><time>2026-04-29T08:43:37.033Z</time></trkpt><trkpt lat="42.64961372939015" lon="13.170936697847845"><ele>1766.0</ele><time>2026-04-29T08:43:38.033Z</time></trkpt><trkpt lat="42.649740476330884" lon="13.170903045170773"><ele>1766.0</ele><time>2026-04-29T08:43:40.033Z</time></trkpt><trkpt lat="42.649808441930006" lon="13.170885011452635"><ele>1766.1666666666665</ele><time>2026-04-29T08:43:41.033Z</time></trkpt><trkpt lat="42.64987499475036" lon="13.17086523653113"><ele>1766.3333333333333</ele><time>2026-04-29T08:43:42.033Z</time></trkpt><trkpt lat="42.649937653897496" lon="13.170847722048107"><ele>1766.5</ele><time>2026-04-29T08:43:43.033Z</time></trkpt><trkpt lat="42.65005850497109" lon="13.170815818690668"><ele>1766.6666666666665</ele><time>2026-04-29T08:43:45.033Z</time></trkpt><trkpt lat="42.65012157939403" lon="13.170802073360807"><ele>1766.8333333333333</ele><time>2026-04-29T08:43:46.033Z</time></trkpt><trkpt lat="42.65018821468273" lon="13.17078182395739"><ele>1767.0</ele><time>2026-04-29T08:43:47.033Z</time></trkpt><trkpt lat="42.65025018671894" lon="13.170764432759247"><ele>1767.25</ele><time>2026-04-29T08:43:48.033Z</time></trkpt><trkpt lat="42.6503711378596" lon="13.17073498805161"><ele>1767.5</ele><time>2026-04-29T08:43:50.033Z</time></trkpt><trkpt lat="42.65048914162849" lon="13.170704502494319"><ele>1767.75</ele><time>2026-04-29T08:43:52.033Z</time></trkpt><trkpt lat="42.6505859190839" lon="13.170666197104168"><ele>1768.0</ele><time>2026-04-29T08:43:54.033Z</time></trkpt><trkpt lat="42.650700564313034" lon="13.17064068652285"><ele>1768.4</ele><time>2026-04-29T08:43:56.033Z</time></trkpt><trkpt lat="42.65076974272747" lon="13.170641164197074"><ele>1768.8000000000002</ele><time>2026-04-29T08:43:57.033Z</time></trkpt><trkpt lat="42.65083356796141" lon="13.170622154793842"><ele>1769.2</ele><time>2026-04-29T08:43:58.033Z</time></trkpt><trkpt lat="42.650948515850274" lon="13.170591879675463"><ele>1769.6</ele><time>2026-04-29T08:44:00.033Z</time></trkpt><trkpt lat="42.65107203122233" lon="13.170558649886512"><ele>1770.0</ele><time>2026-04-29T08:44:02.033Z</time></trkpt><trkpt lat="42.65119214520081" lon="13.170518713873165"><ele>1770.0</ele><time>2026-04-29T08:44:04.033Z</time></trkpt><trkpt lat="42.65130196848103" lon="13.170474075216102"><ele>1770.0</ele><time>2026-04-29T08:44:06.033Z</time></trkpt><trkpt lat="42.651421288705485" lon="13.170446615362703"><ele>1770.0</ele><time>2026-04-29T08:44:08.033Z</time></trkpt><trkpt lat="42.65153953002435" lon="13.17044716233851"><ele>1770.0</ele><time>2026-04-29T08:44:10.033Z</time></trkpt><trkpt lat="42.65166113102005" lon="13.17042323139436"><ele>1770.0</ele><time>2026-04-29T08:44:12.033Z</time></trkpt><trkpt lat="42.65178689679869" lon="13.17041085891096"><ele>1770.0</ele><time>2026-04-29T08:44:14.033Z</time></trkpt><trkpt lat="42.651896662852614" lon="13.170386930971071"><ele>1770.0</ele><time>2026-04-29T08:44:16.033Z</time></trkpt><trkpt lat="42.652010288496015" lon="13.170351400642618"><ele>1770.0</ele><time>2026-04-29T08:44:18.033Z</time></trkpt><trkpt lat="42.65207237780916" lon="13.170331529487404"><ele>1770.0</ele><time>2026-04-29T08:44:19.033Z</time></trkpt><trkpt lat="42.652185119935915" lon="13.170294527066199"><ele>1769.3333333333333</ele><time>2026-04-29T08:44:21.033Z</time></trkpt><trkpt lat="42.652294720752394" lon="13.170269807744019"><ele>1768.6666666666665</ele><time>2026-04-29T08:44:23.033Z</time></trkpt><trkpt lat="42.65235697210399" lon="13.170251311535559"><ele>1768.0</ele><time>2026-04-29T08:44:24.033Z</time></trkpt><trkpt lat="42.652421842506364" lon="13.17024876219537"><ele>1767.3333333333333</ele><time>2026-04-29T08:44:25.033Z</time></trkpt><trkpt lat="42.652487799137766" lon="13.17023680030824"><ele>1766.6666666666665</ele><time>2026-04-29T08:44:26.033Z</time></trkpt><trkpt lat="42.65260800626042" lon="13.170203341815094"><ele>1766.0</ele><time>2026-04-29T08:44:28.033Z</time></trkpt><trkpt lat="42.65267491743384" lon="13.170186423659178"><ele>1765.9999999999998</ele><time>2026-04-29T08:44:29.033Z</time></trkpt><trkpt lat="42.652738396035716" lon="13.17018233144754"><ele>1766.0</ele><time>2026-04-29T08:44:30.033Z</time></trkpt><trkpt lat="42.652803394636756" lon="13.17018757267469"><ele>1766.0</ele><time>2026-04-29T08:44:31.033Z</time></trkpt><trkpt lat="42.65292126796935" lon="13.17016357936196"><ele>1766.0</ele><time>2026-04-29T08:44:33.033Z</time></trkpt><trkpt lat="42.65303904079315" lon="13.170142300487335"><ele>1765.9999999999998</ele><time>2026-04-29T08:44:35.033Z</time></trkpt><trkpt lat="42.653105686458346" lon="13.170141115847182"><ele>1766.0</ele><time>2026-04-29T08:44:36.033Z</time></trkpt><trkpt lat="42.65323398392864" lon="13.170160485106575"><ele>1766.1999999999998</ele><time>2026-04-29T08:44:38.033Z</time></trkpt><trkpt lat="42.65334957531219" lon="13.170209733683663"><ele>1766.3999999999999</ele><time>2026-04-29T08:44:40.033Z</time></trkpt><trkpt lat="42.653411031345996" lon="13.170232358380892"><ele>1766.6</ele><time>2026-04-29T08:44:41.033Z</time></trkpt><trkpt lat="42.65347622588078" lon="13.170247608910417"><ele>1766.8</ele><time>2026-04-29T08:44:42.033Z</time></trkpt><trkpt lat="42.653594962947174" lon="13.17029249554865"><ele>1767.0</ele><time>2026-04-29T08:44:44.033Z</time></trkpt><trkpt lat="42.65369601613358" lon="13.17033918443387"><ele>1768.8</ele><time>2026-04-29T08:44:46.033Z</time></trkpt><trkpt lat="42.653814705467205" lon="13.170367974266808"><ele>1770.6</ele><time>2026-04-29T08:44:48.033Z</time></trkpt><trkpt lat="42.65387505524331" lon="13.170404619824694"><ele>1772.3999999999999</ele><time>2026-04-29T08:44:49.033Z</time></trkpt><trkpt lat="42.65396381764621" lon="13.170429582368756"><ele>1774.1999999999998</ele><time>2026-04-29T08:44:51.033Z</time></trkpt><trkpt lat="42.6540592080304" lon="13.170467629121022"><ele>1776.0</ele><time>2026-04-29T08:44:53.033Z</time></trkpt><trkpt lat="42.65416019505298" lon="13.170495930649373"><ele>1776.0</ele><time>2026-04-29T08:44:55.033Z</time></trkpt><trkpt lat="42.65427089216882" lon="13.170467850192406"><ele>1776.0</ele><time>2026-04-29T08:44:57.034Z</time></trkpt><trkpt lat="42.65438323715927" lon="13.170422048091197"><ele>1776.0</ele><time>2026-04-29T08:44:59.034Z</time></trkpt><trkpt lat="42.6544818595679" lon="13.170358507189462"><ele>1776.0</ele><time>2026-04-29T08:45:01.034Z</time></trkpt><trkpt lat="42.65458471398896" lon="13.170343108266405"><ele>1776.0</ele><time>2026-04-29T08:45:03.034Z</time></trkpt><trkpt lat="42.65464840241024" lon="13.170424102546797"><ele>1775.0</ele><time>2026-04-29T08:45:05.034Z</time></trkpt><trkpt lat="42.65469831247962" lon="13.170535039530142"><ele>1774.0</ele><time>2026-04-29T08:45:07.034Z</time></trkpt><trkpt lat="42.65473514536597" lon="13.17063900912928"><ele>1773.0</ele><time>2026-04-29T08:45:09.034Z</time></trkpt><trkpt lat="42.6547247212074" lon="13.170733164234804"><ele>1772.0</ele><time>2026-04-29T08:45:11.034Z</time></trkpt><trkpt lat="42.65464555784329" lon="13.170734691474067"><ele>1771.0</ele><time>2026-04-29T08:47:31.037Z</time></trkpt><trkpt lat="42.65464146501988" lon="13.170608303523203"><ele>1770.0</ele><time>2026-04-29T08:47:33.038Z</time></trkpt><trkpt lat="42.654650782295725" lon="13.170478596310309"><ele>1770.0</ele><time>2026-04-29T08:47:35.037Z</time></trkpt><trkpt lat="42.65464307615896" lon="13.170352472763794"><ele>1770.0</ele><time>2026-04-29T08:47:37.038Z</time></trkpt><trkpt lat="42.654622895757456" lon="13.170237398683263"><ele>1770.0</ele><time>2026-04-29T08:47:39.038Z</time></trkpt><trkpt lat="42.65459415871854" lon="13.170115684709323"><ele>1770.0</ele><time>2026-04-29T08:47:41.037Z</time></trkpt><trkpt lat="42.654543983002334" lon="13.169995071973386"><ele>1770.0</ele><time>2026-04-29T08:47:43.038Z</time></trkpt><trkpt lat="42.65445735885877" lon="13.169886711305463"><ele>1776.2</ele><time>2026-04-29T08:47:45.038Z</time></trkpt><trkpt lat="42.65435220180828" lon="13.169787380475693"><ele>1782.4</ele><time>2026-04-29T08:47:47.038Z</time></trkpt><trkpt lat="42.65429525591073" lon="13.169728801840566"><ele>1788.6</ele><time>2026-04-29T08:47:48.038Z</time></trkpt><trkpt lat="42.6542419418153" lon="13.169670715382383"><ele>1794.8</ele><time>2026-04-29T08:47:49.038Z</time></trkpt><trkpt lat="42.65416595902028" lon="13.169548089721111"><ele>1801.0</ele><time>2026-04-29T08:47:51.038Z</time></trkpt><trkpt lat="42.65412585664167" lon="13.169479794049947"><ele>1801.0</ele><time>2026-04-29T08:47:52.038Z</time></trkpt><trkpt lat="42.65408692253561" lon="13.169409678608956"><ele>1801.0</ele><time>2026-04-29T08:47:53.038Z</time></trkpt><trkpt lat="42.65405248206302" lon="13.169336201776089"><ele>1801.0</ele><time>2026-04-29T08:47:54.038Z</time></trkpt><trkpt lat="42.65397210187288" lon="13.169250049958814"><ele>1801.0</ele><time>2026-04-29T08:47:56.038Z</time></trkpt><trkpt lat="42.65391399794689" lon="13.169194698959773"><ele>1801.0</ele><time>2026-04-29T08:47:57.038Z</time></trkpt><trkpt lat="42.6538646099067" lon="13.169131772190127"><ele>1801.0</ele><time>2026-04-29T08:47:58.038Z</time></trkpt><trkpt lat="42.653810202154055" lon="13.169080179651077"><ele>1801.0</ele><time>2026-04-29T08:47:59.038Z</time></trkpt><trkpt lat="42.653755558985836" lon="13.169035114939733"><ele>1804.1999999999998</ele><time>2026-04-29T08:48:00.038Z</time></trkpt><trkpt lat="42.65369971614007" lon="13.168974584512693"><ele>1807.3999999999999</ele><time>2026-04-29T08:48:01.038Z</time></trkpt><trkpt lat="42.65364592523267" lon="13.168912846916465"><ele>1810.6</ele><time>2026-04-29T08:48:02.038Z</time></trkpt><trkpt lat="42.65355610763157" lon="13.16879899229143"><ele>1813.8</ele><time>2026-04-29T08:48:04.038Z</time></trkpt><trkpt lat="42.65350125910044" lon="13.168685852728183"><ele>1817.0</ele><time>2026-04-29T08:48:06.038Z</time></trkpt><trkpt lat="42.65345501888452" lon="13.168545158360132"><ele>1816.9999999999998</ele><time>2026-04-29T08:48:08.038Z</time></trkpt><trkpt lat="42.653385090450804" lon="13.168430848464778"><ele>1817.0</ele><time>2026-04-29T08:48:10.038Z</time></trkpt><trkpt lat="42.65332915180008" lon="13.168337777950848"><ele>1817.0</ele><time>2026-04-29T08:48:12.038Z</time></trkpt><trkpt lat="42.65328913383247" lon="13.16825035414808"><ele>1817.0</ele><time>2026-04-29T08:48:19.038Z</time></trkpt><trkpt lat="42.6532468375893" lon="13.1681531739888"><ele>1816.9999999999998</ele><time>2026-04-29T08:48:22.038Z</time></trkpt><trkpt lat="42.65327944621341" lon="13.168047371632667"><ele>1817.0</ele><time>2026-04-29T08:48:28.038Z</time></trkpt><trkpt lat="42.65333704231547" lon="13.167939791454955"><ele>1819.6666666666665</ele><time>2026-04-29T08:48:30.038Z</time></trkpt><trkpt lat="42.65332771871772" lon="13.167839656286487"><ele>1822.3333333333333</ele><time>2026-04-29T08:48:32.038Z</time></trkpt><trkpt lat="42.65329709966085" lon="13.167715466447984"><ele>1825.0</ele><time>2026-04-29T08:48:34.038Z</time></trkpt><trkpt lat="42.653316509127414" lon="13.167629263500125"><ele>1827.6666666666665</ele><time>2026-04-29T08:48:36.038Z</time></trkpt><trkpt lat="42.6533751497143" lon="13.167557198850742"><ele>1830.3333333333333</ele><time>2026-04-29T08:48:38.038Z</time></trkpt><trkpt lat="42.653432479306076" lon="13.167515796268361"><ele>1833.0</ele><time>2026-04-29T08:48:39.038Z</time></trkpt><trkpt lat="42.653508599799686" lon="13.167486481848576"><ele>1833.0</ele><time>2026-04-29T08:48:40.038Z</time></trkpt><trkpt lat="42.653569419937675" lon="13.167457293924349"><ele>1833.0000000000002</ele><time>2026-04-29T08:48:41.038Z</time></trkpt><trkpt lat="42.65368312417751" lon="13.167394012887623"><ele>1833.0000000000002</ele><time>2026-04-29T08:48:43.038Z</time></trkpt><trkpt lat="42.653785129662246" lon="13.167358781066067"><ele>1833.0</ele><time>2026-04-29T08:48:45.038Z</time></trkpt><trkpt lat="42.65391821067485" lon="13.167306716879722"><ele>1833.0</ele><time>2026-04-29T08:48:47.038Z</time></trkpt><trkpt lat="42.65398243015566" lon="13.167280032351806"><ele>1832.8333333333333</ele><time>2026-04-29T08:48:48.038Z</time></trkpt><trkpt lat="42.65402397640897" lon="13.167205833638487"><ele>1832.6666666666665</ele><time>2026-04-29T08:48:50.038Z</time></trkpt><trkpt lat="42.6540134825793" lon="13.167084598392616"><ele>1832.5</ele><time>2026-04-29T08:48:53.038Z</time></trkpt><trkpt lat="42.65404613927431" lon="13.167007933835237"><ele>1832.3333333333333</ele><time>2026-04-29T08:48:55.038Z</time></trkpt><trkpt lat="42.654131655838405" lon="13.166967931525235"><ele>1832.1666666666665</ele><time>2026-04-29T08:48:59.038Z</time></trkpt><trkpt lat="42.654192206613274" lon="13.166928294715541"><ele>1832.0</ele><time>2026-04-29T08:49:01.038Z</time></trkpt><trkpt lat="42.65426865193761" lon="13.166903692093337"><ele>1832.0</ele><time>2026-04-29T08:49:03.038Z</time></trkpt><trkpt lat="42.654335842220334" lon="13.166881750145123"><ele>1832.0</ele><time>2026-04-29T08:49:05.038Z</time></trkpt><trkpt lat="42.65441253037616" lon="13.166890798494016"><ele>1832.0</ele><time>2026-04-29T08:49:07.038Z</time></trkpt><trkpt lat="42.654483682289595" lon="13.166925621237638"><ele>1832.0</ele><time>2026-04-29T08:49:10.038Z</time></trkpt><trkpt lat="42.65455754170431" lon="13.166943054328781"><ele>1832.0</ele><time>2026-04-29T08:49:13.038Z</time></trkpt><trkpt lat="42.65462499647668" lon="13.166931658643701"><ele>1832.0</ele><time>2026-04-29T08:49:16.038Z</time></trkpt><trkpt lat="42.65470833848053" lon="13.166939970651429"><ele>1832.0</ele><time>2026-04-29T08:49:20.038Z</time></trkpt><trkpt lat="42.65478423568243" lon="13.166922012844191"><ele>1829.4999999999998</ele><time>2026-04-29T08:49:25.039Z</time></trkpt><trkpt lat="42.65488291484451" lon="13.166878318568205"><ele>1827.0</ele><time>2026-04-29T08:49:29.039Z</time></trkpt><trkpt lat="42.65497580316006" lon="13.166834580893548"><ele>1824.5</ele><time>2026-04-29T08:49:31.039Z</time></trkpt><trkpt lat="42.65502133725914" lon="13.166768826923288"><ele>1822.0</ele><time>2026-04-29T08:49:33.039Z</time></trkpt><trkpt lat="42.655087648546996" lon="13.166722099494075"><ele>1819.4999999999998</ele><time>2026-04-29T08:49:37.04Z</time></trkpt><trkpt lat="42.65515196180207" lon="13.166689147543618"><ele>1817.0</ele><time>2026-04-29T08:49:46.041Z</time></trkpt><trkpt lat="42.65522155971392" lon="13.166682082532056"><ele>1815.0</ele><time>2026-04-29T08:49:50.04Z</time></trkpt><trkpt lat="42.65528970577561" lon="13.166563126097914"><ele>1812.9999999999998</ele><time>2026-04-29T08:49:52.04Z</time></trkpt><trkpt lat="42.65533889701909" lon="13.16645771962058"><ele>1810.9999999999998</ele><time>2026-04-29T08:49:54.04Z</time></trkpt><trkpt lat="42.655384882160064" lon="13.166360079525187"><ele>1809.0</ele><time>2026-04-29T08:49:56.04Z</time></trkpt><trkpt lat="42.65544224821488" lon="13.166281226430542"><ele>1807.0</ele><time>2026-04-29T08:49:58.04Z</time></trkpt><trkpt lat="42.65550072897579" lon="13.166194066883273"><ele>1807.0</ele><time>2026-04-29T08:50:00.04Z</time></trkpt><trkpt lat="42.65559208436332" lon="13.166139747462035"><ele>1806.9999999999998</ele><time>2026-04-29T08:50:02.04Z</time></trkpt><trkpt lat="42.65570039002077" lon="13.166108927399849"><ele>1806.9999999999998</ele><time>2026-04-29T08:50:04.04Z</time></trkpt><trkpt lat="42.655810143968644" lon="13.166043684747423"><ele>1807.0</ele><time>2026-04-29T08:50:06.04Z</time></trkpt><trkpt lat="42.655898788602535" lon="13.165959512412682"><ele>1807.0</ele><time>2026-04-29T08:50:08.04Z</time></trkpt><trkpt lat="42.655950364540445" lon="13.165871779375681"><ele>1807.0000000000002</ele><time>2026-04-29T08:50:10.04Z</time></trkpt><trkpt lat="42.65599642913261" lon="13.165798175210739"><ele>1807.0</ele><time>2026-04-29T08:50:12.04Z</time></trkpt><trkpt lat="42.65604123170811" lon="13.165735151677218"><ele>1807.0000000000002</ele><time>2026-04-29T08:50:14.04Z</time></trkpt><trkpt lat="42.65610589198556" lon="13.165707179071358"><ele>1807.0000000000002</ele><time>2026-04-29T08:50:17.04Z</time></trkpt><trkpt lat="42.65615356250371" lon="13.165644775551849"><ele>1807.0</ele><time>2026-04-29T08:50:21.04Z</time></trkpt><trkpt lat="42.656198467113946" lon="13.165579816545643"><ele>1807.0000000000002</ele><time>2026-04-29T08:50:28.04Z</time></trkpt><trkpt lat="42.65624378227255" lon="13.165494661819086"><ele>1807.0000000000002</ele><time>2026-04-29T08:50:42.04Z</time></trkpt><trkpt lat="42.65623646788556" lon="13.165408614875048"><ele>1805.1666666666667</ele><time>2026-04-29T08:50:46.04Z</time></trkpt><trkpt lat="42.656192877237046" lon="13.165337237945517"><ele>1803.3333333333335</ele><time>2026-04-29T08:50:50.04Z</time></trkpt><trkpt lat="42.656139349383125" lon="13.165286795268699"><ele>1801.5</ele><time>2026-04-29T08:50:57.04Z</time></trkpt><trkpt lat="42.656085228852206" lon="13.165237184736725"><ele>1799.6666666666665</ele><time>2026-04-29T08:51:06.04Z</time></trkpt><trkpt lat="42.65617699387611" lon="13.16519264446074"><ele>1797.8333333333333</ele><time>2026-04-29T08:51:17.04Z</time></trkpt><trkpt lat="42.656267235901446" lon="13.165162120460113"><ele>1796.0</ele><time>2026-04-29T08:51:19.04Z</time></trkpt><trkpt lat="42.65633239740647" lon="13.165104050449028"><ele>1796.0</ele><time>2026-04-29T08:51:21.04Z</time></trkpt><trkpt lat="42.65638940984382" lon="13.165002607324677"><ele>1796.0</ele><time>2026-04-29T08:51:23.041Z</time></trkpt><trkpt lat="42.65644286270536" lon="13.164914996607271"><ele>1796.0</ele><time>2026-04-29T08:51:25.041Z</time></trkpt><trkpt lat="42.65650102767454" lon="13.164824544887589"><ele>1796.0</ele><time>2026-04-29T08:51:27.041Z</time></trkpt><trkpt lat="42.65656798450157" lon="13.164727175441561"><ele>1796.0</ele><time>2026-04-29T08:51:29.041Z</time></trkpt><trkpt lat="42.65661697075595" lon="13.164618235296913"><ele>1793.3333333333333</ele><time>2026-04-29T08:51:31.041Z</time></trkpt><trkpt lat="42.65666054316358" lon="13.164506902942994"><ele>1790.6666666666665</ele><time>2026-04-29T08:51:33.041Z</time></trkpt><trkpt lat="42.656713751021535" lon="13.164416054567939"><ele>1788.0</ele><time>2026-04-29T08:51:35.041Z</time></trkpt><trkpt lat="42.656739813180046" lon="13.164317467131879"><ele>1785.3333333333335</ele><time>2026-04-29T08:51:37.041Z</time></trkpt><trkpt lat="42.65675005292798" lon="13.164211274362314"><ele>1782.6666666666667</ele><time>2026-04-29T08:51:39.041Z</time></trkpt><trkpt lat="42.656742536991686" lon="13.164118876290033"><ele>1780.0</ele><time>2026-04-29T08:51:41.041Z</time></trkpt><trkpt lat="42.65671580151495" lon="13.163987975134514"><ele>1777.2</ele><time>2026-04-29T08:51:43.042Z</time></trkpt><trkpt lat="42.65668257563009" lon="13.163869517889339"><ele>1774.4</ele><time>2026-04-29T08:51:45.043Z</time></trkpt><trkpt lat="42.65659208885692" lon="13.16379648178161"><ele>1771.6</ele><time>2026-04-29T08:51:48.043Z</time></trkpt><trkpt lat="42.656514408544645" lon="13.163830451524712"><ele>1768.8</ele><time>2026-04-29T08:51:50.043Z</time></trkpt><trkpt lat="42.656425237365674" lon="13.163834047173834"><ele>1766.0</ele><time>2026-04-29T08:51:52.043Z</time></trkpt><trkpt lat="42.65633447253336" lon="13.163851914646346"><ele>1766.0</ele><time>2026-04-29T08:51:54.043Z</time></trkpt><trkpt lat="42.656234041536074" lon="13.163868529426052"><ele>1766.0</ele><time>2026-04-29T08:51:56.043Z</time></trkpt><trkpt lat="42.65616903443564" lon="13.1638576653079"><ele>1766.0</ele><time>2026-04-29T08:51:57.043Z</time></trkpt><trkpt lat="42.656093594034964" lon="13.163889155626512"><ele>1766.0</ele><time>2026-04-29T08:51:58.043Z</time></trkpt><trkpt lat="42.655973734246864" lon="13.163905199902993"><ele>1766.0</ele><time>2026-04-29T08:52:00.043Z</time></trkpt><trkpt lat="42.65588695598673" lon="13.163924492388563"><ele>1749.0</ele><time>2026-04-29T08:52:02.043Z</time></trkpt><trkpt lat="42.655800088373276" lon="13.163953934355861"><ele>1749.0</ele><time>2026-04-29T08:52:06.043Z</time></trkpt></trkseg><trkseg><trkpt lat="42.655887995068774" lon="13.164025075229008"><ele>1749.0</ele><time>2026-04-29T09:02:58.04Z</time></trkpt><trkpt lat="42.65593660896413" lon="13.163918363716077"><ele>1749.0</ele><time>2026-04-29T09:03:00.04Z</time></trkpt><trkpt lat="42.656010428610806" lon="13.163885053383655"><ele>1749.0</ele><time>2026-04-29T09:03:02.04Z</time></trkpt><trkpt lat="42.65609571026876" lon="13.163870457634081"><ele>1749.0</ele><time>2026-04-29T09:03:05.04Z</time></trkpt><trkpt lat="42.65616829723631" lon="13.163853199294628"><ele>1749.0</ele><time>2026-04-29T09:03:07.04Z</time></trkpt><trkpt lat="42.65625482956548" lon="13.163809257376247"><ele>1749.0</ele><time>2026-04-29T09:03:09.04Z</time></trkpt><trkpt lat="42.656305701085614" lon="13.163725008807276"><ele>1749.3333333333333</ele><time>2026-04-29T09:03:11.04Z</time></trkpt><trkpt lat="42.65635611326241" lon="13.163628316921425"><ele>1749.6666666666665</ele><time>2026-04-29T09:03:13.04Z</time></trkpt><trkpt lat="42.65640266360056" lon="13.163555223259223"><ele>1750.0</ele><time>2026-04-29T09:03:14.04Z</time></trkpt><trkpt lat="42.65645226477633" lon="13.163450283409404"><ele>1750.3333333333333</ele><time>2026-04-29T09:03:15.04Z</time></trkpt><trkpt lat="42.65648828798403" lon="13.16337302512644"><ele>1750.6666666666665</ele><time>2026-04-29T09:03:16.04Z</time></trkpt><trkpt lat="42.65654466941692" lon="13.163260996023526"><ele>1751.0</ele><time>2026-04-29T09:03:18.04Z</time></trkpt><trkpt lat="42.656597977247124" lon="13.163175869944766"><ele>1750.9999999999998</ele><time>2026-04-29T09:03:20.04Z</time></trkpt><trkpt lat="42.65664663608874" lon="13.163108519975387"><ele>1751.0</ele><time>2026-04-29T09:03:21.04Z</time></trkpt><trkpt lat="42.656687618304346" lon="13.163014004327101"><ele>1751.0</ele><time>2026-04-29T09:03:22.04Z</time></trkpt><trkpt lat="42.656714625527925" lon="13.162928790046099"><ele>1751.0</ele><time>2026-04-29T09:03:23.04Z</time></trkpt><trkpt lat="42.65673871448484" lon="13.162837278698873"><ele>1750.9999999999998</ele><time>2026-04-29T09:03:24.04Z</time></trkpt><trkpt lat="42.656774390016245" lon="13.162758575346942"><ele>1751.0</ele><time>2026-04-29T09:03:25.04Z</time></trkpt><trkpt lat="42.656873396159355" lon="13.162641698736715"><ele>1751.0</ele><time>2026-04-29T09:03:27.04Z</time></trkpt><trkpt lat="42.65693108274086" lon="13.162512910592854"><ele>1751.0</ele><time>2026-04-29T09:03:29.042Z</time></trkpt><trkpt lat="42.6569684611646" lon="13.162373478898504"><ele>1751.0</ele><time>2026-04-29T09:03:31.041Z</time></trkpt><trkpt lat="42.65703579810202" lon="13.162238042068095"><ele>1751.0</ele><time>2026-04-29T09:03:33.042Z</time></trkpt><trkpt lat="42.65708591877856" lon="13.162153979223794"><ele>1751.0</ele><time>2026-04-29T09:03:34.042Z</time></trkpt><trkpt lat="42.65713416621622" lon="13.162046895401392"><ele>1753.4999999999998</ele><time>2026-04-29T09:03:35.042Z</time></trkpt><trkpt lat="42.65718644728811" lon="13.161955874682175"><ele>1756.0</ele><time>2026-04-29T09:03:36.042Z</time></trkpt><trkpt lat="42.65723620142122" lon="13.161877278916833"><ele>1758.5</ele><time>2026-04-29T09:03:37.042Z</time></trkpt><trkpt lat="42.657275064396586" lon="13.161788823898695"><ele>1761.0</ele><time>2026-04-29T09:03:38.042Z</time></trkpt><trkpt lat="42.65729895377839" lon="13.161697183376269"><ele>1763.4999999999998</ele><time>2026-04-29T09:03:39.042Z</time></trkpt><trkpt lat="42.65731623151565" lon="13.161606424002384"><ele>1766.0</ele><time>2026-04-29T09:03:40.041Z</time></trkpt><trkpt lat="42.657334349980495" lon="13.161494736993928"><ele>1765.9999999999998</ele><time>2026-04-29T09:03:41.042Z</time></trkpt><trkpt lat="42.657351853588764" lon="13.161363385277848"><ele>1766.0</ele><time>2026-04-29T09:03:42.042Z</time></trkpt><trkpt lat="42.65735017214716" lon="13.161268736175302"><ele>1766.0</ele><time>2026-04-29T09:03:43.042Z</time></trkpt><trkpt lat="42.65733162067165" lon="13.161152834331125"><ele>1766.0</ele><time>2026-04-29T09:03:44.042Z</time></trkpt><trkpt lat="42.65730808093268" lon="13.161033875110553"><ele>1765.9999999999998</ele><time>2026-04-29T09:03:45.042Z</time></trkpt><trkpt lat="42.6573152850967" lon="13.16093750575811"><ele>1766.0</ele><time>2026-04-29T09:03:46.042Z</time></trkpt><trkpt lat="42.65735886463005" lon="13.160807321465601"><ele>1765.9999999999998</ele><time>2026-04-29T09:03:48.042Z</time></trkpt><trkpt lat="42.6573962001758" lon="13.160718221752079"><ele>1766.0</ele><time>2026-04-29T09:03:49.042Z</time></trkpt><trkpt lat="42.65743904765835" lon="13.160618523847143"><ele>1766.0</ele><time>2026-04-29T09:03:50.042Z</time></trkpt><trkpt lat="42.65745282583284" lon="13.160520214906494"><ele>1766.0</ele><time>2026-04-29T09:03:51.042Z</time></trkpt><trkpt lat="42.657440158403745" lon="13.1604089038307"><ele>1765.9999999999998</ele><time>2026-04-29T09:03:52.042Z</time></trkpt><trkpt lat="42.657405345492684" lon="13.16030944263214"><ele>1766.0</ele><time>2026-04-29T09:03:53.042Z</time></trkpt><trkpt lat="42.65738639695115" lon="13.160211356109883"><ele>1766.6</ele><time>2026-04-29T09:03:54.042Z</time></trkpt><trkpt lat="42.65735533177522" lon="13.160112198346113"><ele>1767.1999999999998</ele><time>2026-04-29T09:03:55.042Z</time></trkpt><trkpt lat="42.657311656797624" lon="13.159995908727549"><ele>1767.8000000000002</ele><time>2026-04-29T09:03:56.042Z</time></trkpt><trkpt lat="42.657259160214636" lon="13.159869197467817"><ele>1768.4</ele><time>2026-04-29T09:03:57.042Z</time></trkpt><trkpt lat="42.65722157124028" lon="13.159735610550223"><ele>1769.0</ele><time>2026-04-29T09:03:58.042Z</time></trkpt><trkpt lat="42.65718839979264" lon="13.159644476008744"><ele>1770.0</ele><time>2026-04-29T09:03:59.042Z</time></trkpt><trkpt lat="42.65712419032225" lon="13.15956473137214"><ele>1771.0</ele><time>2026-04-29T09:04:01.042Z</time></trkpt><trkpt lat="42.65699661869574" lon="13.159560381589246"><ele>1772.0</ele><time>2026-04-29T09:04:03.042Z</time></trkpt><trkpt lat="42.65690213767135" lon="13.159479917315373"><ele>1773.0</ele><time>2026-04-29T09:04:05.042Z</time></trkpt><trkpt lat="42.656874994738814" lon="13.15939657514976"><ele>1774.0</ele><time>2026-04-29T09:04:06.042Z</time></trkpt><trkpt lat="42.65683441966802" lon="13.159301741698673"><ele>1770.1666666666667</ele><time>2026-04-29T09:04:07.042Z</time></trkpt><trkpt lat="42.65679929363067" lon="13.159229730539943"><ele>1766.3333333333335</ele><time>2026-04-29T09:04:08.042Z</time></trkpt><trkpt lat="42.65674286288846" lon="13.159140818576098"><ele>1762.5</ele><time>2026-04-29T09:04:10.042Z</time></trkpt><trkpt lat="42.6567093277183" lon="13.159048148685049"><ele>1758.6666666666665</ele><time>2026-04-29T09:04:14.042Z</time></trkpt><trkpt lat="42.656644214424645" lon="13.158963182985216"><ele>1754.8333333333333</ele><time>2026-04-29T09:04:16.042Z</time></trkpt><trkpt lat="42.656569537074915" lon="13.158908795067623"><ele>1751.0</ele><time>2026-04-29T09:04:18.042Z</time></trkpt><trkpt lat="42.65650076842139" lon="13.158816779172335"><ele>1751.0</ele><time>2026-04-29T09:04:20.042Z</time></trkpt><trkpt lat="42.65644546161654" lon="13.158703844912404"><ele>1751.0</ele><time>2026-04-29T09:04:22.042Z</time></trkpt><trkpt lat="42.65637995674366" lon="13.158595275073326"><ele>1751.0</ele><time>2026-04-29T09:04:24.042Z</time></trkpt><trkpt lat="42.65630832774935" lon="13.158447081531751"><ele>1751.0</ele><time>2026-04-29T09:04:26.042Z</time></trkpt><trkpt lat="42.65626873947212" lon="13.158341401568418"><ele>1751.0</ele><time>2026-04-29T09:04:27.042Z</time></trkpt><trkpt lat="42.65624909843008" lon="13.158220069910083"><ele>1753.4999999999998</ele><time>2026-04-29T09:04:28.042Z</time></trkpt><trkpt lat="42.65621729542419" lon="13.158111641003444"><ele>1756.0</ele><time>2026-04-29T09:04:29.042Z</time></trkpt><trkpt lat="42.65618195145353" lon="13.158000914633945"><ele>1758.5</ele><time>2026-04-29T09:04:30.042Z</time></trkpt><trkpt lat="42.65615258419587" lon="13.157901849157577"><ele>1761.0</ele><time>2026-04-29T09:04:31.042Z</time></trkpt><trkpt lat="42.65612687568412" lon="13.15780630886405"><ele>1763.4999999999998</ele><time>2026-04-29T09:04:32.042Z</time></trkpt><trkpt lat="42.65610366398801" lon="13.157712922988287"><ele>1766.0</ele><time>2026-04-29T09:04:33.042Z</time></trkpt><trkpt lat="42.65608625744032" lon="13.157581549093951"><ele>1765.9999999999998</ele><time>2026-04-29T09:04:35.042Z</time></trkpt><trkpt lat="42.65610516546687" lon="13.15746150986095"><ele>1766.0</ele><time>2026-04-29T09:04:37.042Z</time></trkpt><trkpt lat="42.65615050462267" lon="13.157380268321058"><ele>1766.0</ele><time>2026-04-29T09:04:38.042Z</time></trkpt><trkpt lat="42.65621065863264" lon="13.157291892134175"><ele>1766.0</ele><time>2026-04-29T09:04:39.042Z</time></trkpt><trkpt lat="42.656298195393184" lon="13.157214309849703"><ele>1765.9999999999998</ele><time>2026-04-29T09:04:41.042Z</time></trkpt><trkpt lat="42.65634295408667" lon="13.157122605988434"><ele>1766.0</ele><time>2026-04-29T09:04:43.042Z</time></trkpt><trkpt lat="42.65639633389305" lon="13.15702028823217"><ele>1766.6666666666665</ele><time>2026-04-29T09:04:45.042Z</time></trkpt><trkpt lat="42.65642813365118" lon="13.156920926506979"><ele>1767.3333333333333</ele><time>2026-04-29T09:04:47.042Z</time></trkpt><trkpt lat="42.656377481338495" lon="13.156815934323605"><ele>1768.0</ele><time>2026-04-29T09:04:49.042Z</time></trkpt><trkpt lat="42.65630377682239" lon="13.156751024862487"><ele>1768.6666666666665</ele><time>2026-04-29T09:04:51.042Z</time></trkpt><trkpt lat="42.65623352257937" lon="13.156680050523176"><ele>1769.3333333333333</ele><time>2026-04-29T09:04:53.042Z</time></trkpt><trkpt lat="42.65615365345505" lon="13.156622176065943"><ele>1770.0</ele><time>2026-04-29T09:04:55.042Z</time></trkpt><trkpt lat="42.65607332082148" lon="13.15658305755795"><ele>1770.0</ele><time>2026-04-29T09:04:57.042Z</time></trkpt><trkpt lat="42.656004297699795" lon="13.156541961047154"><ele>1770.0</ele><time>2026-04-29T09:04:59.042Z</time></trkpt><trkpt lat="42.65593300874292" lon="13.156496299488717"><ele>1770.0</ele><time>2026-04-29T09:05:01.042Z</time></trkpt><trkpt lat="42.65585582092562" lon="13.156443124800838"><ele>1770.0</ele><time>2026-04-29T09:05:03.042Z</time></trkpt><trkpt lat="42.655790270343324" lon="13.156396512210845"><ele>1770.0</ele><time>2026-04-29T09:05:05.042Z</time></trkpt><trkpt lat="42.65572221243224" lon="13.156363250272205"><ele>1770.0</ele><time>2026-04-29T09:05:07.042Z</time></trkpt><trkpt lat="42.65564245529837" lon="13.156316678531706"><ele>1767.6666666666667</ele><time>2026-04-29T09:05:09.042Z</time></trkpt><trkpt lat="42.65555678039293" lon="13.156277718004707"><ele>1765.3333333333335</ele><time>2026-04-29T09:05:11.042Z</time></trkpt><trkpt lat="42.65550343014631" lon="13.15618072352407"><ele>1763.0</ele><time>2026-04-29T09:05:14.042Z</time></trkpt><trkpt lat="42.65545867115874" lon="13.156087740102516"><ele>1760.6666666666667</ele><time>2026-04-29T09:05:17.042Z</time></trkpt><trkpt lat="42.65541929565862" lon="13.155973755356051"><ele>1758.3333333333335</ele><time>2026-04-29T09:05:20.042Z</time></trkpt><trkpt lat="42.655405087327" lon="13.155886483510905"><ele>1756.0</ele><time>2026-04-29T09:05:22.042Z</time></trkpt><trkpt lat="42.655405717764374" lon="13.155766019090327"><ele>1753.3333333333335</ele><time>2026-04-29T09:05:25.042Z</time></trkpt><trkpt lat="42.65538793442535" lon="13.155670631940673"><ele>1750.6666666666667</ele><time>2026-04-29T09:05:27.042Z</time></trkpt><trkpt lat="42.655408246370044" lon="13.155566287954551"><ele>1748.0</ele><time>2026-04-29T09:05:30.042Z</time></trkpt><trkpt lat="42.655452942744525" lon="13.15549752605231"><ele>1745.3333333333335</ele><time>2026-04-29T09:05:32.042Z</time></trkpt><trkpt lat="42.655510505854146" lon="13.155402380304372"><ele>1742.6666666666667</ele><time>2026-04-29T09:05:35.044Z</time></trkpt><trkpt lat="42.65555173831352" lon="13.155332803005352"><ele>1740.0</ele><time>2026-04-29T09:05:37.043Z</time></trkpt><trkpt lat="42.65559386080161" lon="13.155201164062277"><ele>1740.0</ele><time>2026-04-29T09:05:39.043Z</time></trkpt><trkpt lat="42.65562280771664" lon="13.155049021502919"><ele>1740.0</ele><time>2026-04-29T09:05:41.044Z</time></trkpt><trkpt lat="42.655622812718434" lon="13.154961322393211"><ele>1740.0</ele><time>2026-04-29T09:05:42.044Z</time></trkpt><trkpt lat="42.65562195697422" lon="13.154808718903585"><ele>1740.0</ele><time>2026-04-29T09:05:44.044Z</time></trkpt><trkpt lat="42.65563019608223" lon="13.154664650186449"><ele>1740.0</ele><time>2026-04-29T09:05:46.043Z</time></trkpt><trkpt lat="42.6556628182776" lon="13.15452206733548"><ele>1739.8333333333333</ele><time>2026-04-29T09:05:48.044Z</time></trkpt><trkpt lat="42.65571186747533" lon="13.154393737619783"><ele>1739.6666666666665</ele><time>2026-04-29T09:05:50.044Z</time></trkpt><trkpt lat="42.65577175183952" lon="13.154278813165392"><ele>1739.5</ele><time>2026-04-29T09:05:52.044Z</time></trkpt><trkpt lat="42.65582975652841" lon="13.154244490525429"><ele>1739.3333333333333</ele><time>2026-04-29T09:05:53.044Z</time></trkpt><trkpt lat="42.65589902375523" lon="13.154212529312936"><ele>1739.1666666666665</ele><time>2026-04-29T09:05:54.044Z</time></trkpt><trkpt lat="42.6559667342735" lon="13.154182610850729"><ele>1739.0</ele><time>2026-04-29T09:05:55.044Z</time></trkpt><trkpt lat="42.6560322292959" lon="13.154157078170106"><ele>1739.0</ele><time>2026-04-29T09:05:56.044Z</time></trkpt><trkpt lat="42.6560927084236" lon="13.154126690185539"><ele>1739.0</ele><time>2026-04-29T09:05:57.044Z</time></trkpt><trkpt lat="42.65619809205869" lon="13.154065586723437"><ele>1739.0</ele><time>2026-04-29T09:05:59.044Z</time></trkpt><trkpt lat="42.6563091785169" lon="13.154033057239976"><ele>1739.0</ele><time>2026-04-29T09:06:01.044Z</time></trkpt><trkpt lat="42.656417971013845" lon="13.15400497199618"><ele>1739.0</ele><time>2026-04-29T09:06:03.044Z</time></trkpt><trkpt lat="42.6565230836565" lon="13.153953852492226"><ele>1740.0</ele><time>2026-04-29T09:06:05.044Z</time></trkpt><trkpt lat="42.656629194334315" lon="13.153911357747315"><ele>1741.0</ele><time>2026-04-29T09:06:07.044Z</time></trkpt><trkpt lat="42.656735333571746" lon="13.15388171786022"><ele>1742.0</ele><time>2026-04-29T09:06:09.044Z</time></trkpt><trkpt lat="42.6568400710336" lon="13.153830201280739"><ele>1743.0</ele><time>2026-04-29T09:06:11.044Z</time></trkpt><trkpt lat="42.656938800942896" lon="13.15373548586235"><ele>1744.6000000000001</ele><time>2026-04-29T09:06:13.044Z</time></trkpt><trkpt lat="42.65704784355329" lon="13.153662725331678"><ele>1746.2000000000003</ele><time>2026-04-29T09:06:15.044Z</time></trkpt><trkpt lat="42.657147846136176" lon="13.153602186051433"><ele>1747.8</ele><time>2026-04-29T09:06:17.044Z</time></trkpt><trkpt lat="42.657242767387274" lon="13.153537069936142"><ele>1749.4</ele><time>2026-04-29T09:06:19.044Z</time></trkpt><trkpt lat="42.65731782515812" lon="13.15347346237139"><ele>1751.0</ele><time>2026-04-29T09:06:21.044Z</time></trkpt><trkpt lat="42.65738104571464" lon="13.15339450360851"><ele>1750.9999999999998</ele><time>2026-04-29T09:06:23.044Z</time></trkpt><trkpt lat="42.65744321930047" lon="13.15331919798951"><ele>1751.0</ele><time>2026-04-29T09:06:25.044Z</time></trkpt><trkpt lat="42.65750169730537" lon="13.153250881501334"><ele>1751.0</ele><time>2026-04-29T09:06:27.044Z</time></trkpt><trkpt lat="42.657555658404384" lon="13.153194803855872"><ele>1751.0</ele><time>2026-04-29T09:06:29.044Z</time></trkpt><trkpt lat="42.65762565156111" lon="13.153130938195298"><ele>1750.9999999999998</ele><time>2026-04-29T09:06:31.044Z</time></trkpt><trkpt lat="42.6576991039133" lon="13.153062078624266"><ele>1751.0</ele><time>2026-04-29T09:06:33.044Z</time></trkpt><trkpt lat="42.657761931748034" lon="13.1529972755578"><ele>1747.4999999999998</ele><time>2026-04-29T09:06:35.044Z</time></trkpt><trkpt lat="42.657821076831084" lon="13.152932236951944"><ele>1744.0</ele><time>2026-04-29T09:06:37.044Z</time></trkpt><trkpt lat="42.657879261431" lon="13.152883510817947"><ele>1740.5</ele><time>2026-04-29T09:06:39.044Z</time></trkpt><trkpt lat="42.65793840682715" lon="13.152840022685307"><ele>1737.0</ele><time>2026-04-29T09:06:41.044Z</time></trkpt><trkpt lat="42.65801093592337" lon="13.15279010991816"><ele>1733.4999999999998</ele><time>2026-04-29T09:06:43.044Z</time></trkpt><trkpt lat="42.658111551499715" lon="13.152721699222948"><ele>1730.0</ele><time>2026-04-29T09:06:45.044Z</time></trkpt><trkpt lat="42.65819923808237" lon="13.152637865070542"><ele>1730.0</ele><time>2026-04-29T09:06:47.044Z</time></trkpt><trkpt lat="42.65829952313568" lon="13.152596167537123"><ele>1730.0</ele><time>2026-04-29T09:06:49.044Z</time></trkpt><trkpt lat="42.6583956892746" lon="13.15252859348197"><ele>1730.0</ele><time>2026-04-29T09:06:51.044Z</time></trkpt><trkpt lat="42.65850091294289" lon="13.15246234972229"><ele>1730.0</ele><time>2026-04-29T09:06:53.044Z</time></trkpt><trkpt lat="42.658611463341316" lon="13.152416005086277"><ele>1730.0</ele><time>2026-04-29T09:06:55.044Z</time></trkpt><trkpt lat="42.65871991544057" lon="13.15237325030893"><ele>1726.1666666666665</ele><time>2026-04-29T09:06:57.044Z</time></trkpt><trkpt lat="42.65881627761718" lon="13.15230895245442"><ele>1722.3333333333333</ele><time>2026-04-29T09:06:59.044Z</time></trkpt><trkpt lat="42.658924794271464" lon="13.15225201973012"><ele>1718.5</ele><time>2026-04-29T09:07:01.044Z</time></trkpt><trkpt lat="42.6589920484337" lon="13.152226397584853"><ele>1714.6666666666665</ele><time>2026-04-29T09:07:02.044Z</time></trkpt><trkpt lat="42.65906568692925" lon="13.152193358190596"><ele>1710.8333333333333</ele><time>2026-04-29T09:07:03.044Z</time></trkpt><trkpt lat="42.6591324632228" lon="13.152142331495426"><ele>1707.0</ele><time>2026-04-29T09:07:04.044Z</time></trkpt><trkpt lat="42.659178095321735" lon="13.152057236376548"><ele>1707.0</ele><time>2026-04-29T09:07:05.044Z</time></trkpt><trkpt lat="42.659226926972075" lon="13.151979709775285"><ele>1706.9999999999998</ele><time>2026-04-29T09:07:06.044Z</time></trkpt><trkpt lat="42.6593066757864" lon="13.151865071650299"><ele>1706.9999999999998</ele><time>2026-04-29T09:07:08.044Z</time></trkpt><trkpt lat="42.65938176243469" lon="13.151766380607208"><ele>1707.0</ele><time>2026-04-29T09:07:10.044Z</time></trkpt><trkpt lat="42.65946495124717" lon="13.151673249307695"><ele>1707.0</ele><time>2026-04-29T09:07:12.044Z</time></trkpt><trkpt lat="42.659552637074114" lon="13.151580157967905"><ele>1704.3999999999999</ele><time>2026-04-29T09:07:14.044Z</time></trkpt><trkpt lat="42.65962865749379" lon="13.15147932011961"><ele>1701.7999999999997</ele><time>2026-04-29T09:07:16.044Z</time></trkpt><trkpt lat="42.65970105515151" lon="13.15134903188282"><ele>1699.2</ele><time>2026-04-29T09:07:18.044Z</time></trkpt><trkpt lat="42.65979053389139" lon="13.151242168887709"><ele>1696.6</ele><time>2026-04-29T09:07:20.044Z</time></trkpt><trkpt lat="42.65984828887434" lon="13.15113013340251"><ele>1694.0</ele><time>2026-04-29T09:07:22.044Z</time></trkpt><trkpt lat="42.65990899808109" lon="13.15103454744304"><ele>1693.9999999999998</ele><time>2026-04-29T09:07:24.044Z</time></trkpt><trkpt lat="42.65995615972166" lon="13.15096813930189"><ele>1694.0</ele><time>2026-04-29T09:07:26.044Z</time></trkpt><trkpt lat="42.66000420909492" lon="13.150871291512214"><ele>1694.0</ele><time>2026-04-29T09:07:28.044Z</time></trkpt><trkpt lat="42.660079217173674" lon="13.150784370914243"><ele>1694.0</ele><time>2026-04-29T09:07:30.044Z</time></trkpt><trkpt lat="42.66017952375588" lon="13.150687891506665"><ele>1693.9999999999998</ele><time>2026-04-29T09:07:32.044Z</time></trkpt><trkpt lat="42.66023275214019" lon="13.150638977500478"><ele>1694.0</ele><time>2026-04-29T09:07:33.044Z</time></trkpt><trkpt lat="42.66029257683622" lon="13.150585808309565"><ele>1691.6666666666665</ele><time>2026-04-29T09:07:34.044Z</time></trkpt><trkpt lat="42.660348858268456" lon="13.150530866455282"><ele>1689.3333333333333</ele><time>2026-04-29T09:07:35.044Z</time></trkpt><trkpt lat="42.66040484533058" lon="13.15047432236017"><ele>1687.0</ele><time>2026-04-29T09:07:36.044Z</time></trkpt><trkpt lat="42.660458926079556" lon="13.150412413518252"><ele>1684.6666666666665</ele><time>2026-04-29T09:07:37.044Z</time></trkpt><trkpt lat="42.66051491037034" lon="13.150336901048172"><ele>1682.3333333333333</ele><time>2026-04-29T09:07:38.044Z</time></trkpt><trkpt lat="42.66057866447561" lon="13.150240167163618"><ele>1680.0</ele><time>2026-04-29T09:07:39.044Z</time></trkpt><trkpt lat="42.66063855505304" lon="13.150139694978032"><ele>1680.0</ele><time>2026-04-29T09:07:40.046Z</time></trkpt><trkpt lat="42.66069013665644" lon="13.15004847584893"><ele>1680.0</ele><time>2026-04-29T09:07:41.046Z</time></trkpt><trkpt lat="42.66074105448469" lon="13.14996314380203"><ele>1680.0</ele><time>2026-04-29T09:07:42.046Z</time></trkpt><trkpt lat="42.66078656650072" lon="13.14987902402318"><ele>1680.0</ele><time>2026-04-29T09:07:43.046Z</time></trkpt><trkpt lat="42.66083614758186" lon="13.149791969859637"><ele>1680.0</ele><time>2026-04-29T09:07:44.046Z</time></trkpt><trkpt lat="42.66088321768697" lon="13.149700742070268"><ele>1680.0</ele><time>2026-04-29T09:07:45.046Z</time></trkpt><trkpt lat="42.66092105875605" lon="13.14960448020384"><ele>1679.6666666666667</ele><time>2026-04-29T09:07:46.046Z</time></trkpt><trkpt lat="42.66095398696227" lon="13.149505633004948"><ele>1679.3333333333335</ele><time>2026-04-29T09:07:47.046Z</time></trkpt><trkpt lat="42.66099444241919" lon="13.149407992362455"><ele>1679.0</ele><time>2026-04-29T09:07:48.046Z</time></trkpt><trkpt lat="42.66104960776032" lon="13.149328342270191"><ele>1678.6666666666667</ele><time>2026-04-29T09:07:49.046Z</time></trkpt><trkpt lat="42.66112172011413" lon="13.14926001031779"><ele>1678.3333333333335</ele><time>2026-04-29T09:07:50.046Z</time></trkpt><trkpt lat="42.66119720531182" lon="13.149202543663538"><ele>1678.0</ele><time>2026-04-29T09:07:51.046Z</time></trkpt><trkpt lat="42.661264829853465" lon="13.149144646553248"><ele>1677.1666666666667</ele><time>2026-04-29T09:07:52.046Z</time></trkpt><trkpt lat="42.66133574209256" lon="13.149076330762272"><ele>1676.3333333333335</ele><time>2026-04-29T09:07:53.046Z</time></trkpt><trkpt lat="42.66140523070101" lon="13.149003983803409"><ele>1675.5</ele><time>2026-04-29T09:07:54.046Z</time></trkpt><trkpt lat="42.661473930065604" lon="13.148938519235701"><ele>1674.6666666666665</ele><time>2026-04-29T09:07:55.046Z</time></trkpt><trkpt lat="42.66153139904076" lon="13.1488823690193"><ele>1673.8333333333333</ele><time>2026-04-29T09:07:56.046Z</time></trkpt><trkpt lat="42.66158291750118" lon="13.148826344045533"><ele>1673.0</ele><time>2026-04-29T09:07:57.046Z</time></trkpt><trkpt lat="42.661624081332896" lon="13.148719997898148"><ele>1672.1666666666665</ele><time>2026-04-29T09:07:59.046Z</time></trkpt><trkpt lat="42.66160635578332" lon="13.1485936558894"><ele>1671.3333333333333</ele><time>2026-04-29T09:08:01.046Z</time></trkpt><trkpt lat="42.66155758628169" lon="13.148480586195829"><ele>1670.5</ele><time>2026-04-29T09:08:03.046Z</time></trkpt><trkpt lat="42.66153227827268" lon="13.14840083367875"><ele>1669.6666666666665</ele><time>2026-04-29T09:08:05.046Z</time></trkpt><trkpt lat="42.66149502331747" lon="13.148292925865377"><ele>1668.8333333333333</ele><time>2026-04-29T09:08:08.046Z</time></trkpt><trkpt lat="42.66146210435954" lon="13.14821256856753"><ele>1668.0</ele><time>2026-04-29T09:08:10.046Z</time></trkpt><trkpt lat="42.661428437072004" lon="13.14813845786734"><ele>1665.1666666666667</ele><time>2026-04-29T09:08:12.046Z</time></trkpt><trkpt lat="42.66138656400348" lon="13.148058165254092"><ele>1662.3333333333335</ele><time>2026-04-29T09:08:15.046Z</time></trkpt><trkpt lat="42.66137926510075" lon="13.14795287178021"><ele>1659.5</ele><time>2026-04-29T09:08:19.046Z</time></trkpt><trkpt lat="42.66135388473263" lon="13.147849900288499"><ele>1656.6666666666667</ele><time>2026-04-29T09:08:22.046Z</time></trkpt><trkpt lat="42.66140154557262" lon="13.147753455713318"><ele>1653.8333333333335</ele><time>2026-04-29T09:08:25.046Z</time></trkpt><trkpt lat="42.661449693381655" lon="13.147688167056781"><ele>1651.0</ele><time>2026-04-29T09:08:27.046Z</time></trkpt><trkpt lat="42.66149483275815" lon="13.14761144464446"><ele>1651.0</ele><time>2026-04-29T09:08:29.046Z</time></trkpt><trkpt lat="42.66153773143997" lon="13.14753286494977"><ele>1651.0</ele><time>2026-04-29T09:08:31.046Z</time></trkpt><trkpt lat="42.66157402399183" lon="13.147452993050777"><ele>1651.0</ele><time>2026-04-29T09:08:33.046Z</time></trkpt><trkpt lat="42.661610709083824" lon="13.147368420868398"><ele>1651.0</ele><time>2026-04-29T09:08:35.046Z</time></trkpt><trkpt lat="42.661658984059585" lon="13.147274446098857"><ele>1651.0</ele><time>2026-04-29T09:08:38.046Z</time></trkpt><trkpt lat="42.66168971431401" lon="13.147194815742797"><ele>1651.0</ele><time>2026-04-29T09:08:40.046Z</time></trkpt><trkpt lat="42.66171150241998" lon="13.147097844204431"><ele>1651.0</ele><time>2026-04-29T09:08:42.046Z</time></trkpt><trkpt lat="42.66173262375846" lon="13.147012877750722"><ele>1647.0</ele><time>2026-04-29T09:08:45.046Z</time></trkpt><trkpt lat="42.661767144367616" lon="13.146867782710917"><ele>1643.0</ele><time>2026-04-29T09:08:48.046Z</time></trkpt><trkpt lat="42.661815616991554" lon="13.146718832196305"><ele>1639.0</ele><time>2026-04-29T09:08:50.046Z</time></trkpt><trkpt lat="42.66186428968596" lon="13.146575424758083"><ele>1635.0</ele><time>2026-04-29T09:08:52.046Z</time></trkpt><trkpt lat="42.66191340955149" lon="13.146468742192567"><ele>1631.0</ele><time>2026-04-29T09:08:54.046Z</time></trkpt><trkpt lat="42.66198708194366" lon="13.146379549331117"><ele>1627.0</ele><time>2026-04-29T09:08:56.046Z</time></trkpt><trkpt lat="42.662086004902996" lon="13.146267517236492"><ele>1623.0</ele><time>2026-04-29T09:08:58.046Z</time></trkpt><trkpt lat="42.66215744453157" lon="13.146170619139138"><ele>1619.0</ele><time>2026-04-29T09:09:00.046Z</time></trkpt><trkpt lat="42.662209572992694" lon="13.146057081021551"><ele>1615.0</ele><time>2026-04-29T09:09:02.046Z</time></trkpt><trkpt lat="42.6622527092375" lon="13.145928322260813"><ele>1611.0</ele><time>2026-04-29T09:09:04.046Z</time></trkpt><trkpt lat="42.66232180267888" lon="13.145808479487288"><ele>1611.0</ele><time>2026-04-29T09:09:06.046Z</time></trkpt><trkpt lat="42.662425805760975" lon="13.1457343197056"><ele>1611.0</ele><time>2026-04-29T09:09:08.046Z</time></trkpt><trkpt lat="42.66253446598123" lon="13.145653222765452"><ele>1611.0</ele><time>2026-04-29T09:09:10.046Z</time></trkpt><trkpt lat="42.662585227060845" lon="13.145600128425594"><ele>1611.0</ele><time>2026-04-29T09:09:11.046Z</time></trkpt><trkpt lat="42.66263358541892" lon="13.145541476229369"><ele>1611.0</ele><time>2026-04-29T09:09:12.046Z</time></trkpt><trkpt lat="42.66270423825627" lon="13.145408577144373"><ele>1609.0</ele><time>2026-04-29T09:09:14.046Z</time></trkpt><trkpt lat="42.66274848254736" lon="13.145340742159883"><ele>1607.0</ele><time>2026-04-29T09:09:15.046Z</time></trkpt><trkpt lat="42.66280602361701" lon="13.145285649114502"><ele>1605.0</ele><time>2026-04-29T09:09:16.046Z</time></trkpt><trkpt lat="42.66286325754859" lon="13.145225647224922"><ele>1603.0</ele><time>2026-04-29T09:09:17.046Z</time></trkpt><trkpt lat="42.662939743811386" lon="13.145157788030243"><ele>1601.0</ele><time>2026-04-29T09:09:18.046Z</time></trkpt><trkpt lat="42.66301346476825" lon="13.145109896987359"><ele>1599.0</ele><time>2026-04-29T09:09:19.046Z</time></trkpt><trkpt lat="42.66307627766797" lon="13.145064672981697"><ele>1598.9999999999998</ele><time>2026-04-29T09:09:20.046Z</time></trkpt><trkpt lat="42.66313807919689" lon="13.145011711259134"><ele>1599.0</ele><time>2026-04-29T09:09:21.046Z</time></trkpt><trkpt lat="42.66319648920821" lon="13.144955981251599"><ele>1599.0</ele><time>2026-04-29T09:09:22.046Z</time></trkpt><trkpt lat="42.66325304160927" lon="13.144897334770585"><ele>1599.0</ele><time>2026-04-29T09:09:23.046Z</time></trkpt><trkpt lat="42.66330292406675" lon="13.144836245369229"><ele>1599.0</ele><time>2026-04-29T09:09:24.046Z</time></trkpt><trkpt lat="42.66333729267469" lon="13.144738009822152"><ele>1598.9999999999998</ele><time>2026-04-29T09:09:25.046Z</time></trkpt><trkpt lat="42.66335925605217" lon="13.144636030541063"><ele>1599.0</ele><time>2026-04-29T09:09:26.046Z</time></trkpt><trkpt lat="42.663367047744785" lon="13.144520117304577"><ele>1598.6666666666667</ele><time>2026-04-29T09:09:27.046Z</time></trkpt><trkpt lat="42.66336480117373" lon="13.144410933203309"><ele>1598.3333333333335</ele><time>2026-04-29T09:09:28.046Z</time></trkpt><trkpt lat="42.66336710936668" lon="13.144296775688238"><ele>1598.0</ele><time>2026-04-29T09:09:29.046Z</time></trkpt><trkpt lat="42.66338852994359" lon="13.14417780853364"><ele>1597.6666666666667</ele><time>2026-04-29T09:09:30.046Z</time></trkpt><trkpt lat="42.66343203613856" lon="13.144060809523001"><ele>1597.3333333333335</ele><time>2026-04-29T09:09:31.046Z</time></trkpt><trkpt lat="42.66345367335983" lon="13.143957014530283"><ele>1597.0</ele><time>2026-04-29T09:09:32.046Z</time></trkpt><trkpt lat="42.66348036531414" lon="13.143867484732128"><ele>1596.0</ele><time>2026-04-29T09:09:33.046Z</time></trkpt><trkpt lat="42.66352630299306" lon="13.14377285059321"><ele>1595.0</ele><time>2026-04-29T09:09:34.046Z</time></trkpt><trkpt lat="42.66356994298542" lon="13.143670357841355"><ele>1594.0</ele><time>2026-04-29T09:09:35.046Z</time></trkpt><trkpt lat="42.66361446885098" lon="13.14355907118574"><ele>1593.0</ele><time>2026-04-29T09:09:36.046Z</time></trkpt><trkpt lat="42.66366383445741" lon="13.143444612542437"><ele>1592.0</ele><time>2026-04-29T09:09:37.046Z</time></trkpt><trkpt lat="42.663713627322835" lon="13.143324145584192"><ele>1592.6666666666665</ele><time>2026-04-29T09:09:38.046Z</time></trkpt><trkpt lat="42.66375226471871" lon="13.143212307478583"><ele>1593.3333333333333</ele><time>2026-04-29T09:09:39.046Z</time></trkpt><trkpt lat="42.66380337808442" lon="13.143097811334984"><ele>1594.0</ele><time>2026-04-29T09:09:40.046Z</time></trkpt><trkpt lat="42.66385221438898" lon="13.142986162793612"><ele>1594.6666666666665</ele><time>2026-04-29T09:09:41.046Z</time></trkpt><trkpt lat="42.66389566960078" lon="13.142882999489101"><ele>1595.3333333333333</ele><time>2026-04-29T09:09:42.046Z</time></trkpt><trkpt lat="42.663936418538604" lon="13.142807579787954"><ele>1596.0</ele><time>2026-04-29T09:09:43.046Z</time></trkpt><trkpt lat="42.663981941877594" lon="13.142748096690527"><ele>1596.0</ele><time>2026-04-29T09:09:44.046Z</time></trkpt><trkpt lat="42.66404103969839" lon="13.14270698624132"><ele>1596.0</ele><time>2026-04-29T09:09:45.046Z</time></trkpt><trkpt lat="42.66411223844948" lon="13.142683474025429"><ele>1596.0</ele><time>2026-04-29T09:09:46.049Z</time></trkpt><trkpt lat="42.6642035697539" lon="13.142677474830936"><ele>1596.0</ele><time>2026-04-29T09:09:47.048Z</time></trkpt><trkpt lat="42.664297853017715" lon="13.1426578173031"><ele>1596.0</ele><time>2026-04-29T09:09:48.048Z</time></trkpt><trkpt lat="42.664377236364146" lon="13.142620659162304"><ele>1596.0</ele><time>2026-04-29T09:09:49.049Z</time></trkpt><trkpt lat="42.66443990345551" lon="13.142588090522256"><ele>1593.0</ele><time>2026-04-29T09:09:50.049Z</time></trkpt><trkpt lat="42.664490643152575" lon="13.142536126023993"><ele>1590.0</ele><time>2026-04-29T09:09:51.049Z</time></trkpt><trkpt lat="42.664540968073396" lon="13.14247447190185"><ele>1587.0</ele><time>2026-04-29T09:09:52.049Z</time></trkpt><trkpt lat="42.66457748180434" lon="13.142397252464201"><ele>1584.0</ele><time>2026-04-29T09:09:53.048Z</time></trkpt><trkpt lat="42.66463507987909" lon="13.142257283774905"><ele>1581.0</ele><time>2026-04-29T09:09:55.049Z</time></trkpt><trkpt lat="42.66471510977928" lon="13.142138051579524"><ele>1578.0</ele><time>2026-04-29T09:09:57.048Z</time></trkpt><trkpt lat="42.66476629194177" lon="13.142069707441548"><ele>1578.0</ele><time>2026-04-29T09:09:59.049Z</time></trkpt><trkpt lat="42.66480922272227" lon="13.141971292868392"><ele>1578.0</ele><time>2026-04-29T09:10:01.049Z</time></trkpt><trkpt lat="42.66484026051274" lon="13.141831308632256"><ele>1578.0</ele><time>2026-04-29T09:10:03.049Z</time></trkpt><trkpt lat="42.664871435098156" lon="13.141756729098088"><ele>1578.0</ele><time>2026-04-29T09:10:04.049Z</time></trkpt><trkpt lat="42.66489828656224" lon="13.141670443340184"><ele>1578.0</ele><time>2026-04-29T09:10:05.049Z</time></trkpt><trkpt lat="42.6649246349388" lon="13.141583905418653"><ele>1578.0</ele><time>2026-04-29T09:10:06.049Z</time></trkpt><trkpt lat="42.66493981098428" lon="13.141419901670163"><ele>1576.2857142857142</ele><time>2026-04-29T09:10:08.049Z</time></trkpt><trkpt lat="42.66492656419244" lon="13.14131516002767"><ele>1574.5714285714284</ele><time>2026-04-29T09:10:09.049Z</time></trkpt><trkpt lat="42.664900274740816" lon="13.141210601350675"><ele>1572.8571428571427</ele><time>2026-04-29T09:10:10.049Z</time></trkpt><trkpt lat="42.66487874057306" lon="13.141114345182089"><ele>1571.142857142857</ele><time>2026-04-29T09:10:11.049Z</time></trkpt><trkpt lat="42.6648466188154" lon="13.141029883546711"><ele>1569.4285714285716</ele><time>2026-04-29T09:10:12.049Z</time></trkpt><trkpt lat="42.664801337207905" lon="13.14094946571511"><ele>1567.7142857142856</ele><time>2026-04-29T09:10:13.049Z</time></trkpt><trkpt lat="42.66474659958406" lon="13.140895718332477"><ele>1566.0</ele><time>2026-04-29T09:10:14.049Z</time></trkpt><trkpt lat="42.66468477870329" lon="13.140839978289307"><ele>1566.0</ele><time>2026-04-29T09:10:15.049Z</time></trkpt><trkpt lat="42.66464889018574" lon="13.140750551924764"><ele>1566.0</ele><time>2026-04-29T09:10:16.049Z</time></trkpt><trkpt lat="42.66461493071219" lon="13.14065132153029"><ele>1566.0</ele><time>2026-04-29T09:10:17.049Z</time></trkpt><trkpt lat="42.66453836641598" lon="13.140498451138482"><ele>1566.0</ele><time>2026-04-29T09:10:19.049Z</time></trkpt><trkpt lat="42.66449371416674" lon="13.140412848142361"><ele>1566.0</ele><time>2026-04-29T09:10:20.049Z</time></trkpt><trkpt lat="42.66445755870612" lon="13.140331642399904"><ele>1566.0</ele><time>2026-04-29T09:10:21.049Z</time></trkpt><trkpt lat="42.66442892262462" lon="13.140240657904783"><ele>1563.7142857142856</ele><time>2026-04-29T09:10:22.049Z</time></trkpt><trkpt lat="42.664394030480956" lon="13.140163179171445"><ele>1561.4285714285716</ele><time>2026-04-29T09:10:23.049Z</time></trkpt><trkpt lat="42.664355991728335" lon="13.140074157229074"><ele>1559.142857142857</ele><time>2026-04-29T09:10:24.049Z</time></trkpt><trkpt lat="42.664318803357325" lon="13.140002779673745"><ele>1556.8571428571427</ele><time>2026-04-29T09:10:25.049Z</time></trkpt><trkpt lat="42.664294944792616" lon="13.139900045610116"><ele>1554.5714285714284</ele><time>2026-04-29T09:10:27.049Z</time></trkpt><trkpt lat="42.66430066845621" lon="13.139783365012427"><ele>1552.2857142857142</ele><time>2026-04-29T09:10:29.049Z</time></trkpt><trkpt lat="42.66428139065075" lon="13.139693231142834"><ele>1550.0</ele><time>2026-04-29T09:10:31.049Z</time></trkpt><trkpt lat="42.66424942696306" lon="13.139612257921245"><ele>1546.8333333333333</ele><time>2026-04-29T09:10:33.049Z</time></trkpt><trkpt lat="42.66421446111918" lon="13.139521055474116"><ele>1543.6666666666665</ele><time>2026-04-29T09:10:36.049Z</time></trkpt><trkpt lat="42.664183816228494" lon="13.139424762027756"><ele>1540.5</ele><time>2026-04-29T09:10:40.049Z</time></trkpt><trkpt lat="42.664149220287094" lon="13.139337918941164"><ele>1537.3333333333333</ele><time>2026-04-29T09:10:43.049Z</time></trkpt><trkpt lat="42.66410919768456" lon="13.139252580028602"><ele>1534.1666666666665</ele><time>2026-04-29T09:10:46.049Z</time></trkpt><trkpt lat="42.66406926049922" lon="13.139178452622136"><ele>1531.0</ele><time>2026-04-29T09:10:48.049Z</time></trkpt><trkpt lat="42.66401437892388" lon="13.139070493016845"><ele>1527.8333333333333</ele><time>2026-04-29T09:10:50.049Z</time></trkpt><trkpt lat="42.66397887057135" lon="13.138997891914276"><ele>1524.6666666666665</ele><time>2026-04-29T09:10:51.049Z</time></trkpt><trkpt lat="42.663935098611056" lon="13.13891495847167"><ele>1521.5</ele><time>2026-04-29T09:10:52.049Z</time></trkpt><trkpt lat="42.66387083577965" lon="13.13882575813489"><ele>1518.3333333333333</ele><time>2026-04-29T09:10:53.049Z</time></trkpt><trkpt lat="42.6638150868483" lon="13.138738428249848"><ele>1515.1666666666667</ele><time>2026-04-29T09:10:54.049Z</time></trkpt><trkpt lat="42.66376342895533" lon="13.13866152814767"><ele>1512.0</ele><time>2026-04-29T09:10:55.049Z</time></trkpt><trkpt lat="42.663717811769125" lon="13.138579066415387"><ele>1512.0</ele><time>2026-04-29T09:10:56.049Z</time></trkpt><trkpt lat="42.66367491531714" lon="13.138493415738868"><ele>1512.0</ele><time>2026-04-29T09:10:57.049Z</time></trkpt><trkpt lat="42.66362309704913" lon="13.138413911183212"><ele>1512.0</ele><time>2026-04-29T09:10:58.049Z</time></trkpt><trkpt lat="42.66357535493359" lon="13.138337481988218"><ele>1512.0</ele><time>2026-04-29T09:10:59.049Z</time></trkpt><trkpt lat="42.66352575885318" lon="13.138266851713775"><ele>1512.0</ele><time>2026-04-29T09:11:00.049Z</time></trkpt><trkpt lat="42.663474335364775" lon="13.138205004050526"><ele>1512.0</ele><time>2026-04-29T09:11:01.049Z</time></trkpt><trkpt lat="42.66340922681427" lon="13.138145595001367"><ele>1512.0</ele><time>2026-04-29T09:11:02.049Z</time></trkpt><trkpt lat="42.66334641908602" lon="13.138091256175585"><ele>1510.3333333333333</ele><time>2026-04-29T09:11:03.049Z</time></trkpt><trkpt lat="42.663280908348476" lon="13.138039873487456"><ele>1508.6666666666667</ele><time>2026-04-29T09:11:04.049Z</time></trkpt><trkpt lat="42.66321418888581" lon="13.13799059961049"><ele>1507.0</ele><time>2026-04-29T09:11:05.049Z</time></trkpt><trkpt lat="42.663147515931456" lon="13.137960684812112"><ele>1505.3333333333335</ele><time>2026-04-29T09:11:06.049Z</time></trkpt><trkpt lat="42.66305452099488" lon="13.137907280117783"><ele>1503.6666666666667</ele><time>2026-04-29T09:11:08.049Z</time></trkpt><trkpt lat="42.66296882449486" lon="13.137842565091328"><ele>1502.0</ele><time>2026-04-29T09:11:10.049Z</time></trkpt><trkpt lat="42.66284611696001" lon="13.137809078297122"><ele>1500.6666666666667</ele><time>2026-04-29T09:11:12.049Z</time></trkpt><trkpt lat="42.66277543331396" lon="13.137835236015627"><ele>1499.3333333333335</ele><time>2026-04-29T09:11:13.049Z</time></trkpt><trkpt lat="42.66271892564563" lon="13.137897360660817"><ele>1498.0</ele><time>2026-04-29T09:11:14.049Z</time></trkpt><trkpt lat="42.662669227951376" lon="13.137980478330451"><ele>1496.6666666666667</ele><time>2026-04-29T09:11:15.049Z</time></trkpt><trkpt lat="42.6626363530803" lon="13.138063618518013"><ele>1495.3333333333333</ele><time>2026-04-29T09:11:16.049Z</time></trkpt><trkpt lat="42.66260645485112" lon="13.138152909351794"><ele>1494.0</ele><time>2026-04-29T09:11:17.049Z</time></trkpt><trkpt lat="42.66257050660515" lon="13.138307879409036"><ele>1493.1666666666667</ele><time>2026-04-29T09:11:19.049Z</time></trkpt><trkpt lat="42.6625548972979" lon="13.138390953805937"><ele>1492.3333333333333</ele><time>2026-04-29T09:11:20.049Z</time></trkpt><trkpt lat="42.66252232194736" lon="13.138483790778368"><ele>1491.5</ele><time>2026-04-29T09:11:21.049Z</time></trkpt><trkpt lat="42.662468322443445" lon="13.13857655635395"><ele>1490.6666666666665</ele><time>2026-04-29T09:11:22.049Z</time></trkpt><trkpt lat="42.66241002328006" lon="13.138687420014627"><ele>1489.8333333333333</ele><time>2026-04-29T09:11:23.049Z</time></trkpt><trkpt lat="42.66235218091348" lon="13.138797421228467"><ele>1489.0</ele><time>2026-04-29T09:11:24.049Z</time></trkpt><trkpt lat="42.66229290190224" lon="13.138915137196522"><ele>1489.0</ele><time>2026-04-29T09:11:25.049Z</time></trkpt><trkpt lat="42.662220642633976" lon="13.139028813943513"><ele>1489.0</ele><time>2026-04-29T09:11:26.049Z</time></trkpt><trkpt lat="42.66215058197863" lon="13.139113594279284"><ele>1489.0</ele><time>2026-04-29T09:11:27.049Z</time></trkpt><trkpt lat="42.662071334524605" lon="13.13919066780434"><ele>1489.0</ele><time>2026-04-29T09:11:28.049Z</time></trkpt><trkpt lat="42.66198157341445" lon="13.139269845962371"><ele>1489.0</ele><time>2026-04-29T09:11:29.049Z</time></trkpt><trkpt lat="42.661858018202466" lon="13.139330993774687"><ele>1484.2</ele><time>2026-04-29T09:11:30.049Z</time></trkpt><trkpt lat="42.66174591939391" lon="13.139382923585258"><ele>1479.4</ele><time>2026-04-29T09:11:31.049Z</time></trkpt><trkpt lat="42.66164885320501" lon="13.139409963716213"><ele>1474.6</ele><time>2026-04-29T09:11:32.049Z</time></trkpt><trkpt lat="42.661562009268884" lon="13.1394327114545"><ele>1469.8</ele><time>2026-04-29T09:11:33.049Z</time></trkpt><trkpt lat="42.6614711115441" lon="13.139456587648105"><ele>1465.0</ele><time>2026-04-29T09:11:34.049Z</time></trkpt><trkpt lat="42.66137929008112" lon="13.139482445236586"><ele>1465.0</ele><time>2026-04-29T09:11:35.049Z</time></trkpt><trkpt lat="42.661298904041686" lon="13.139518634555541"><ele>1465.0</ele><time>2026-04-29T09:11:36.049Z</time></trkpt><trkpt lat="42.66123351693965" lon="13.139551388941385"><ele>1465.0</ele><time>2026-04-29T09:11:37.049Z</time></trkpt><trkpt lat="42.66114824798896" lon="13.139657348314712"><ele>1465.0</ele><time>2026-04-29T09:11:39.049Z</time></trkpt><trkpt lat="42.66109006366157" lon="13.139694405050713"><ele>1465.0</ele><time>2026-04-29T09:11:40.049Z</time></trkpt><trkpt lat="42.660961197797434" lon="13.139682324452949"><ele>1461.8333333333333</ele><time>2026-04-29T09:11:42.049Z</time></trkpt><trkpt lat="42.66088638662847" lon="13.139654931533357"><ele>1458.6666666666665</ele><time>2026-04-29T09:11:43.049Z</time></trkpt><trkpt lat="42.660807370086175" lon="13.139631656406651"><ele>1455.5</ele><time>2026-04-29T09:11:44.049Z</time></trkpt><trkpt lat="42.66073345721987" lon="13.13960664530106"><ele>1452.3333333333333</ele><time>2026-04-29T09:11:45.049Z</time></trkpt><trkpt lat="42.660659667456976" lon="13.139596529792511"><ele>1449.1666666666667</ele><time>2026-04-29T09:11:46.049Z</time></trkpt><trkpt lat="42.660579404370075" lon="13.13960008235901"><ele>1446.0</ele><time>2026-04-29T09:11:47.049Z</time></trkpt><trkpt lat="42.66049893273799" lon="13.139609295384526"><ele>1446.0</ele><time>2026-04-29T09:11:48.049Z</time></trkpt><trkpt lat="42.66040950430438" lon="13.139619966591889"><ele>1446.0</ele><time>2026-04-29T09:11:49.049Z</time></trkpt><trkpt lat="42.660322465190845" lon="13.139643912758729"><ele>1446.0</ele><time>2026-04-29T09:11:50.049Z</time></trkpt><trkpt lat="42.66024562764402" lon="13.139694430957181"><ele>1446.0</ele><time>2026-04-29T09:11:51.051Z</time></trkpt><trkpt lat="42.66017941509306" lon="13.13977948289569"><ele>1446.0</ele><time>2026-04-29T09:11:52.051Z</time></trkpt><trkpt lat="42.660130817693705" lon="13.139890189102303"><ele>1442.6666666666667</ele><time>2026-04-29T09:11:53.051Z</time></trkpt><trkpt lat="42.66008397897647" lon="13.140000511133916"><ele>1439.3333333333333</ele><time>2026-04-29T09:11:54.05Z</time></trkpt><trkpt lat="42.66004633699326" lon="13.140115972615876"><ele>1436.0</ele><time>2026-04-29T09:11:55.051Z</time></trkpt><trkpt lat="42.660013638159896" lon="13.140209946139539"><ele>1432.6666666666665</ele><time>2026-04-29T09:11:56.051Z</time></trkpt><trkpt lat="42.65998440989325" lon="13.140370260195388"><ele>1429.3333333333333</ele><time>2026-04-29T09:11:58.051Z</time></trkpt><trkpt lat="42.65998962169279" lon="13.140455847325212"><ele>1426.0</ele><time>2026-04-29T09:11:59.051Z</time></trkpt><trkpt lat="42.65997225231241" lon="13.140544605025156"><ele>1426.0</ele><time>2026-04-29T09:12:00.05Z</time></trkpt><trkpt lat="42.659927114369886" lon="13.140635128398673"><ele>1426.0</ele><time>2026-04-29T09:12:01.051Z</time></trkpt><trkpt lat="42.659856718510916" lon="13.140706789222456"><ele>1426.0</ele><time>2026-04-29T09:12:02.051Z</time></trkpt><trkpt lat="42.65976870997491" lon="13.140749792689032"><ele>1426.0</ele><time>2026-04-29T09:12:03.051Z</time></trkpt><trkpt lat="42.65968041954045" lon="13.140760153094117"><ele>1426.0</ele><time>2026-04-29T09:12:04.05Z</time></trkpt><trkpt lat="42.659604469308434" lon="13.140795469638459"><ele>1426.0</ele><time>2026-04-29T09:12:05.05Z</time></trkpt><trkpt lat="42.659533900010466" lon="13.140831705010328"><ele>1427.3333333333333</ele><time>2026-04-29T09:12:06.05Z</time></trkpt><trkpt lat="42.6594557830206" lon="13.140887845493955"><ele>1428.6666666666665</ele><time>2026-04-29T09:12:07.05Z</time></trkpt><trkpt lat="42.659377202725516" lon="13.14096675583216"><ele>1430.0</ele><time>2026-04-29T09:12:08.05Z</time></trkpt><trkpt lat="42.659297205909354" lon="13.141014333291153"><ele>1431.3333333333333</ele><time>2026-04-29T09:12:09.05Z</time></trkpt><trkpt lat="42.65922261645097" lon="13.14106215692013"><ele>1432.6666666666667</ele><time>2026-04-29T09:12:10.05Z</time></trkpt><trkpt lat="42.659161619895265" lon="13.141102512180769"><ele>1434.0</ele><time>2026-04-29T09:12:11.05Z</time></trkpt><trkpt lat="42.659068886262745" lon="13.141213336297385"><ele>1433.2</ele><time>2026-04-29T09:12:13.05Z</time></trkpt><trkpt lat="42.65902421896346" lon="13.141284872833511"><ele>1432.4</ele><time>2026-04-29T09:12:14.05Z</time></trkpt><trkpt lat="42.6589891339236" lon="13.141403735295563"><ele>1431.6</ele><time>2026-04-29T09:12:15.05Z</time></trkpt><trkpt lat="42.65895687471903" lon="13.141546514387406"><ele>1430.8</ele><time>2026-04-29T09:12:16.05Z</time></trkpt><trkpt lat="42.6589317310955" lon="13.141720960222928"><ele>1430.0</ele><time>2026-04-29T09:12:17.05Z</time></trkpt><trkpt lat="42.65891180020632" lon="13.141857442165092"><ele>1430.0</ele><time>2026-04-29T09:12:18.05Z</time></trkpt><trkpt lat="42.65892000411492" lon="13.141959990341936"><ele>1430.0</ele><time>2026-04-29T09:12:19.05Z</time></trkpt><trkpt lat="42.65895178678845" lon="13.14210347553836"><ele>1430.0</ele><time>2026-04-29T09:12:21.05Z</time></trkpt><trkpt lat="42.65882819425312" lon="13.142213616875685"><ele>1430.0</ele><time>2026-04-29T09:12:23.05Z</time></trkpt><trkpt lat="42.658742691099924" lon="13.142272343461503"><ele>1430.0</ele><time>2026-04-29T09:12:24.05Z</time></trkpt><trkpt lat="42.658636084353056" lon="13.142354023957571"><ele>1429.0</ele><time>2026-04-29T09:12:25.05Z</time></trkpt><trkpt lat="42.6585258241347" lon="13.142458001040337"><ele>1428.0</ele><time>2026-04-29T09:12:26.05Z</time></trkpt><trkpt lat="42.6584013948223" lon="13.14258465149832"><ele>1427.0</ele><time>2026-04-29T09:12:27.05Z</time></trkpt><trkpt lat="42.65828148830782" lon="13.142707861152662"><ele>1426.0</ele><time>2026-04-29T09:12:28.05Z</time></trkpt><trkpt lat="42.65822503099436" lon="13.14285692673821"><ele>1426.0</ele><time>2026-04-29T09:12:29.05Z</time></trkpt><trkpt lat="42.658136462587784" lon="13.142953964844853"><ele>1426.0</ele><time>2026-04-29T09:12:30.05Z</time></trkpt><trkpt lat="42.65805327478001" lon="13.143047653999481"><ele>1426.0</ele><time>2026-04-29T09:12:31.05Z</time></trkpt><trkpt lat="42.65796999057864" lon="13.143107874088377"><ele>1426.0</ele><time>2026-04-29T09:12:32.05Z</time></trkpt><trkpt lat="42.65787625056082" lon="13.14315853381876"><ele>1426.0</ele><time>2026-04-29T09:12:33.05Z</time></trkpt><trkpt lat="42.657730411449286" lon="13.143194437567495"><ele>1427.5</ele><time>2026-04-29T09:12:34.05Z</time></trkpt><trkpt lat="42.65759648576841" lon="13.14324888620587"><ele>1429.0</ele><time>2026-04-29T09:12:35.05Z</time></trkpt><trkpt lat="42.65748582564994" lon="13.143341717924505"><ele>1430.5</ele><time>2026-04-29T09:12:36.05Z</time></trkpt><trkpt lat="42.6573879196177" lon="13.143430918062965"><ele>1432.0</ele><time>2026-04-29T09:12:37.05Z</time></trkpt><trkpt lat="42.657266957146774" lon="13.143511729972657"><ele>1432.0</ele><time>2026-04-29T09:12:38.05Z</time></trkpt><trkpt lat="42.65715488917574" lon="13.143583164686621"><ele>1432.0</ele><time>2026-04-29T09:12:39.05Z</time></trkpt><trkpt lat="42.657053197397644" lon="13.14367036951222"><ele>1432.0</ele><time>2026-04-29T09:12:40.05Z</time></trkpt><trkpt lat="42.65693956310562" lon="13.143744707519222"><ele>1432.0</ele><time>2026-04-29T09:12:41.05Z</time></trkpt><trkpt lat="42.65682872782479" lon="13.143842841051235"><ele>1432.75</ele><time>2026-04-29T09:12:42.05Z</time></trkpt><trkpt lat="42.65672744069247" lon="13.14393251681294"><ele>1433.5</ele><time>2026-04-29T09:12:43.05Z</time></trkpt><trkpt lat="42.65662279600633" lon="13.144037627643792"><ele>1434.25</ele><time>2026-04-29T09:12:44.05Z</time></trkpt><trkpt lat="42.656536339469234" lon="13.144153465810895"><ele>1435.0</ele><time>2026-04-29T09:12:45.05Z</time></trkpt><trkpt lat="42.65645962857936" lon="13.144279666828703"><ele>1435.0</ele><time>2026-04-29T09:12:46.05Z</time></trkpt><trkpt lat="42.65638139157909" lon="13.144418412332014"><ele>1435.0</ele><time>2026-04-29T09:12:47.05Z</time></trkpt><trkpt lat="42.65628978105733" lon="13.144553564365584"><ele>1435.0</ele><time>2026-04-29T09:12:48.05Z</time></trkpt><trkpt lat="42.65619819061783" lon="13.144673216622664"><ele>1435.0</ele><time>2026-04-29T09:12:49.05Z</time></trkpt><trkpt lat="42.65609834531894" lon="13.144791171790839"><ele>1434.5</ele><time>2026-04-29T09:12:50.05Z</time></trkpt><trkpt lat="42.65600490138732" lon="13.144911182103987"><ele>1434.0</ele><time>2026-04-29T09:12:51.05Z</time></trkpt><trkpt lat="42.65591673857071" lon="13.145036401084052"><ele>1433.5</ele><time>2026-04-29T09:12:52.05Z</time></trkpt><trkpt lat="42.655830645522244" lon="13.1451491152036"><ele>1433.0</ele><time>2026-04-29T09:12:53.05Z</time></trkpt><trkpt lat="42.65575193985794" lon="13.145238691863531"><ele>1433.0</ele><time>2026-04-29T09:12:54.05Z</time></trkpt><trkpt lat="42.655668947546225" lon="13.145323431861845"><ele>1433.0</ele><time>2026-04-29T09:12:55.05Z</time></trkpt><trkpt lat="42.65557404454877" lon="13.145386477493071"><ele>1433.0</ele><time>2026-04-29T09:12:56.05Z</time></trkpt><trkpt lat="42.65547478416942" lon="13.145460752409015"><ele>1433.0</ele><time>2026-04-29T09:12:57.05Z</time></trkpt><trkpt lat="42.65536393475683" lon="13.14552899207501"><ele>1433.0</ele><time>2026-04-29T09:12:58.05Z</time></trkpt><trkpt lat="42.65524748299432" lon="13.1455949750479"><ele>1434.0</ele><time>2026-04-29T09:12:59.05Z</time></trkpt><trkpt lat="42.65512822121488" lon="13.145653461395455"><ele>1435.0</ele><time>2026-04-29T09:13:00.05Z</time></trkpt><trkpt lat="42.65502561453904" lon="13.145705908138707"><ele>1436.0</ele><time>2026-04-29T09:13:01.05Z</time></trkpt><trkpt lat="42.6549317140288" lon="13.145755974631056"><ele>1437.0</ele><time>2026-04-29T09:13:02.05Z</time></trkpt><trkpt lat="42.654837530858515" lon="13.14580934455724"><ele>1438.0</ele><time>2026-04-29T09:13:03.05Z</time></trkpt><trkpt lat="42.65473425509864" lon="13.145893496715585"><ele>1438.0</ele><time>2026-04-29T09:13:04.05Z</time></trkpt><trkpt lat="42.654636628008895" lon="13.146002552711838"><ele>1438.0</ele><time>2026-04-29T09:13:05.05Z</time></trkpt><trkpt lat="42.65456689874756" lon="13.146125162108904"><ele>1438.0</ele><time>2026-04-29T09:13:06.05Z</time></trkpt><trkpt lat="42.654506532966266" lon="13.14623803222104"><ele>1438.0</ele><time>2026-04-29T09:13:07.05Z</time></trkpt><trkpt lat="42.65442788621748" lon="13.146291890027854"><ele>1438.0</ele><time>2026-04-29T09:13:08.05Z</time></trkpt><trkpt lat="42.65433709777898" lon="13.146321311203938"><ele>1439.5</ele><time>2026-04-29T09:13:09.05Z</time></trkpt><trkpt lat="42.65423969293659" lon="13.146368821857468"><ele>1441.0</ele><time>2026-04-29T09:13:10.05Z</time></trkpt><trkpt lat="42.6541548980827" lon="13.146402731767157"><ele>1442.5</ele><time>2026-04-29T09:13:11.05Z</time></trkpt><trkpt lat="42.654071240054215" lon="13.146405252300754"><ele>1444.0</ele><time>2026-04-29T09:13:12.05Z</time></trkpt><trkpt lat="42.65399245090657" lon="13.146382282244037"><ele>1445.5</ele><time>2026-04-29T09:13:13.05Z</time></trkpt><trkpt lat="42.653931612715176" lon="13.146332402264413"><ele>1447.0</ele><time>2026-04-29T09:13:14.05Z</time></trkpt><trkpt lat="42.65382244527131" lon="13.146268833444275"><ele>1447.0</ele><time>2026-04-29T09:13:16.05Z</time></trkpt><trkpt lat="42.653735460046164" lon="13.146258593245998"><ele>1447.0</ele><time>2026-04-29T09:13:17.05Z</time></trkpt><trkpt lat="42.65361965130191" lon="13.146271462785448"><ele>1447.0</ele><time>2026-04-29T09:13:18.05Z</time></trkpt><trkpt lat="42.65348523304113" lon="13.146272672249658"><ele>1447.0</ele><time>2026-04-29T09:13:19.05Z</time></trkpt><trkpt lat="42.65337731429973" lon="13.146287167514814"><ele>1447.0</ele><time>2026-04-29T09:13:20.05Z</time></trkpt><trkpt lat="42.65328020971709" lon="13.146319833894037"><ele>1448.75</ele><time>2026-04-29T09:13:21.05Z</time></trkpt><trkpt lat="42.65317661597963" lon="13.146376478623768"><ele>1450.5</ele><time>2026-04-29T09:13:22.05Z</time></trkpt><trkpt lat="42.653063208625" lon="13.14643596234584"><ele>1452.25</ele><time>2026-04-29T09:13:23.05Z</time></trkpt><trkpt lat="42.65295750678168" lon="13.146471134443772"><ele>1454.0</ele><time>2026-04-29T09:13:24.05Z</time></trkpt><trkpt lat="42.652843087018326" lon="13.146523305732446"><ele>1454.75</ele><time>2026-04-29T09:13:25.05Z</time></trkpt><trkpt lat="42.652702335098525" lon="13.146600716339027"><ele>1455.5</ele><time>2026-04-29T09:13:26.05Z</time></trkpt><trkpt lat="42.65256994429972" lon="13.146656881499188"><ele>1456.25</ele><time>2026-04-29T09:13:27.05Z</time></trkpt><trkpt lat="42.652485649433366" lon="13.14672765400337"><ele>1457.0</ele><time>2026-04-29T09:13:28.05Z</time></trkpt><trkpt lat="42.652412969894975" lon="13.146819426555627"><ele>1457.0</ele><time>2026-04-29T09:13:29.05Z</time></trkpt><trkpt lat="42.6523512990501" lon="13.14691852721869"><ele>1457.0</ele><time>2026-04-29T09:13:30.05Z</time></trkpt><trkpt lat="42.652293077140605" lon="13.147018926799154"><ele>1457.0</ele><time>2026-04-29T09:13:31.05Z</time></trkpt><trkpt lat="42.652231310650556" lon="13.14711153057846"><ele>1457.0</ele><time>2026-04-29T09:13:32.05Z</time></trkpt><trkpt lat="42.652140821395484" lon="13.147199915066969"><ele>1457.0</ele><time>2026-04-29T09:13:33.05Z</time></trkpt><trkpt lat="42.65201969395813" lon="13.147296668804769"><ele>1456.0</ele><time>2026-04-29T09:13:34.05Z</time></trkpt><trkpt lat="42.65189018602866" lon="13.147394937064755"><ele>1455.0</ele><time>2026-04-29T09:13:35.05Z</time></trkpt><trkpt lat="42.651771131968474" lon="13.147491160286101"><ele>1454.0</ele><time>2026-04-29T09:13:36.05Z</time></trkpt><trkpt lat="42.651688919951575" lon="13.147581971984968"><ele>1453.0</ele><time>2026-04-29T09:13:37.05Z</time></trkpt><trkpt lat="42.651608216630635" lon="13.147670477586713"><ele>1453.0</ele><time>2026-04-29T09:13:38.05Z</time></trkpt><trkpt lat="42.65154570983389" lon="13.147768610253005"><ele>1453.0</ele><time>2026-04-29T09:13:39.05Z</time></trkpt><trkpt lat="42.651478621720756" lon="13.147907790769349"><ele>1453.0</ele><time>2026-04-29T09:13:40.05Z</time></trkpt><trkpt lat="42.65141328832627" lon="13.148064852904085"><ele>1453.0</ele><time>2026-04-29T09:13:41.05Z</time></trkpt><trkpt lat="42.65134530831886" lon="13.148213673698242"><ele>1452.25</ele><time>2026-04-29T09:13:42.05Z</time></trkpt><trkpt lat="42.651262068924034" lon="13.148355925230469"><ele>1451.5</ele><time>2026-04-29T09:13:43.05Z</time></trkpt><trkpt lat="42.65116996896467" lon="13.148500926315666"><ele>1450.75</ele><time>2026-04-29T09:13:44.05Z</time></trkpt><trkpt lat="42.65107598650387" lon="13.148628733608575"><ele>1450.0</ele><time>2026-04-29T09:13:45.05Z</time></trkpt><trkpt lat="42.65099191526132" lon="13.148744560028454"><ele>1450.0</ele><time>2026-04-29T09:13:46.05Z</time></trkpt><trkpt lat="42.65090532736904" lon="13.148873426606404"><ele>1450.0</ele><time>2026-04-29T09:13:47.05Z</time></trkpt><trkpt lat="42.65082320377759" lon="13.149014256260697"><ele>1450.0</ele><time>2026-04-29T09:13:48.05Z</time></trkpt><trkpt lat="42.65073057378124" lon="13.149157467156742"><ele>1450.0</ele><time>2026-04-29T09:13:49.05Z</time></trkpt><trkpt lat="42.65064635983534" lon="13.149311572007317"><ele>1452.5</ele><time>2026-04-29T09:13:50.05Z</time></trkpt><trkpt lat="42.650571181974904" lon="13.149425993319436"><ele>1455.0</ele><time>2026-04-29T09:13:51.05Z</time></trkpt><trkpt lat="42.650497783599945" lon="13.1495242800843"><ele>1457.5</ele><time>2026-04-29T09:13:52.05Z</time></trkpt><trkpt lat="42.65041506476848" lon="13.149630919542858"><ele>1460.0</ele><time>2026-04-29T09:13:53.05Z</time></trkpt><trkpt lat="42.65031547157746" lon="13.149739694185932"><ele>1459.0</ele><time>2026-04-29T09:13:54.05Z</time></trkpt><trkpt lat="42.65022971796391" lon="13.149842028699625"><ele>1458.0</ele><time>2026-04-29T09:13:55.05Z</time></trkpt><trkpt lat="42.65016710182515" lon="13.1499382463523"><ele>1457.0</ele><time>2026-04-29T09:13:56.05Z</time></trkpt><trkpt lat="42.65010826405988" lon="13.150055367437117"><ele>1456.0</ele><time>2026-04-29T09:13:57.053Z</time></trkpt><trkpt lat="42.650044634665456" lon="13.150188519738718"><ele>1455.0</ele><time>2026-04-29T09:13:58.053Z</time></trkpt><trkpt lat="42.649981236298245" lon="13.150320589803629"><ele>1455.0</ele><time>2026-04-29T09:13:59.053Z</time></trkpt><trkpt lat="42.64993265785304" lon="13.150445252489119"><ele>1455.0</ele><time>2026-04-29T09:14:00.053Z</time></trkpt><trkpt lat="42.64988835287481" lon="13.150542717235842"><ele>1455.0</ele><time>2026-04-29T09:14:01.053Z</time></trkpt><trkpt lat="42.64984846146703" lon="13.150629597001082"><ele>1455.0</ele><time>2026-04-29T09:14:02.053Z</time></trkpt><trkpt lat="42.64981073117236" lon="13.150699393535419"><ele>1455.0</ele><time>2026-04-29T09:14:03.053Z</time></trkpt><trkpt lat="42.6497587227512" lon="13.150759067678484"><ele>1455.0</ele><time>2026-04-29T09:14:04.053Z</time></trkpt><trkpt lat="42.64969441013333" lon="13.150883935900634"><ele>1456.6666666666667</ele><time>2026-04-29T09:14:06.053Z</time></trkpt><trkpt lat="42.6497133611535" lon="13.151033295754205"><ele>1458.3333333333333</ele><time>2026-04-29T09:14:08.053Z</time></trkpt><trkpt lat="42.649695285136445" lon="13.151141020540848"><ele>1460.0</ele><time>2026-04-29T09:14:10.053Z</time></trkpt><trkpt lat="42.64964069797406" lon="13.151189449812811"><ele>1461.6666666666665</ele><time>2026-04-29T09:14:14.053Z</time></trkpt><trkpt lat="42.64965342285637" lon="13.151297173304"><ele>1463.3333333333333</ele><time>2026-04-29T09:14:20.053Z</time></trkpt><trkpt lat="42.649736642613924" lon="13.15133123589018"><ele>1465.0</ele><time>2026-04-29T09:14:24.053Z</time></trkpt><trkpt lat="42.64979454982932" lon="13.151261353708284"><ele>1465.0</ele><time>2026-04-29T09:14:26.053Z</time></trkpt><trkpt lat="42.6498611216341" lon="13.151302153947766"><ele>1465.0</ele><time>2026-04-29T09:14:29.053Z</time></trkpt><trkpt lat="42.649865355422826" lon="13.151424870554283"><ele>1465.0</ele><time>2026-04-29T09:14:31.053Z</time></trkpt><trkpt lat="42.64984372347404" lon="13.151518550944537"><ele>1465.0</ele><time>2026-04-29T09:14:33.053Z</time></trkpt><trkpt lat="42.64983144032424" lon="13.151621466278561"><ele>1465.0</ele><time>2026-04-29T09:14:35.053Z</time></trkpt><trkpt lat="42.64983368088606" lon="13.151719020947496"><ele>1465.0</ele><time>2026-04-29T09:14:38.053Z</time></trkpt><trkpt lat="42.649777793819986" lon="13.151807933202921"><ele>1467.2857142857144</ele><time>2026-04-29T09:14:43.053Z</time></trkpt><trkpt lat="42.649759645495855" lon="13.151907463323173"><ele>1469.5714285714284</ele><time>2026-04-29T09:14:51.053Z</time></trkpt><trkpt lat="42.64970189076505" lon="13.151949703123687"><ele>1471.857142857143</ele><time>2026-04-29T09:14:57.053Z</time></trkpt><trkpt lat="42.64961921557013" lon="13.151959287430119"><ele>1474.1428571428573</ele><time>2026-04-29T09:15:00.053Z</time></trkpt><trkpt lat="42.64956637690836" lon="13.151905643805417"><ele>1476.4285714285716</ele><time>2026-04-29T09:15:03.053Z</time></trkpt><trkpt lat="42.64949822453753" lon="13.151859810978781"><ele>1478.7142857142858</ele><time>2026-04-29T09:15:06.053Z</time></trkpt><trkpt lat="42.64944679427371" lon="13.151779367159431"><ele>1481.0</ele><time>2026-04-29T09:15:09.053Z</time></trkpt><trkpt lat="42.649372247726966" lon="13.15175324110555"><ele>1481.0000000000002</ele><time>2026-04-29T09:15:15.053Z</time></trkpt><trkpt lat="42.64935163410311" lon="13.151665680458876"><ele>1481.0</ele><time>2026-04-29T09:15:19.053Z</time></trkpt><trkpt lat="42.64934271856805" lon="13.151577156864295"><ele>1481.0</ele><time>2026-04-29T09:15:23.053Z</time></trkpt><trkpt lat="42.64932663914764" lon="13.151479270523692"><ele>1481.0</ele><time>2026-04-29T09:15:26.053Z</time></trkpt><trkpt lat="42.6493086820972" lon="13.15137344344821"><ele>1481.0</ele><time>2026-04-29T09:15:30.053Z</time></trkpt><trkpt lat="42.64928823936687" lon="13.15126747495929"><ele>1481.0000000000002</ele><time>2026-04-29T09:15:33.053Z</time></trkpt><trkpt lat="42.64925969395264" lon="13.15116356952306"><ele>1481.0</ele><time>2026-04-29T09:15:37.053Z</time></trkpt><trkpt lat="42.64917323942088" lon="13.151131369085366"><ele>1476.8</ele><time>2026-04-29T09:15:39.053Z</time></trkpt><trkpt lat="42.6491139850581" lon="13.15107218126166"><ele>1472.6</ele><time>2026-04-29T09:15:40.053Z</time></trkpt><trkpt lat="42.64906684291493" lon="13.151014206745188"><ele>1468.4</ele><time>2026-04-29T09:15:41.053Z</time></trkpt><trkpt lat="42.64897039786373" lon="13.150915025049848"><ele>1464.2</ele><time>2026-04-29T09:15:43.053Z</time></trkpt><trkpt lat="42.64890736435249" lon="13.150813801803817"><ele>1460.0</ele><time>2026-04-29T09:15:44.053Z</time></trkpt><trkpt lat="42.648828748470855" lon="13.150706917380383"><ele>1459.6666666666667</ele><time>2026-04-29T09:15:45.053Z</time></trkpt><trkpt lat="42.648779765074394" lon="13.150611356997704"><ele>1459.3333333333335</ele><time>2026-04-29T09:15:46.053Z</time></trkpt><trkpt lat="42.64873414927257" lon="13.150519251244782"><ele>1459.0</ele><time>2026-04-29T09:15:47.053Z</time></trkpt><trkpt lat="42.648699903526506" lon="13.15040831477176"><ele>1458.6666666666667</ele><time>2026-04-29T09:15:48.053Z</time></trkpt><trkpt lat="42.64866574124862" lon="13.150290202487145"><ele>1458.3333333333333</ele><time>2026-04-29T09:15:49.053Z</time></trkpt><trkpt lat="42.64863143254018" lon="13.150212410992136"><ele>1458.0</ele><time>2026-04-29T09:15:50.053Z</time></trkpt><trkpt lat="42.6485866083439" lon="13.150096029598982"><ele>1458.0</ele><time>2026-04-29T09:15:52.053Z</time></trkpt><trkpt lat="42.64851111372142" lon="13.150026858135343"><ele>1458.0</ele><time>2026-04-29T09:15:54.053Z</time></trkpt><trkpt lat="42.648441842376826" lon="13.149967843294608"><ele>1458.0</ele><time>2026-04-29T09:15:55.053Z</time></trkpt><trkpt lat="42.64835730835627" lon="13.149921177284055"><ele>1458.0</ele><time>2026-04-29T09:15:56.053Z</time></trkpt><trkpt lat="42.6482992217877" lon="13.149884496739979"><ele>1458.0</ele><time>2026-04-29T09:15:57.053Z</time></trkpt><trkpt lat="42.648219900403895" lon="13.149757758157513"><ele>1455.5</ele><time>2026-04-29T09:15:59.053Z</time></trkpt><trkpt lat="42.64811808313762" lon="13.149676121908255"><ele>1453.0</ele><time>2026-04-29T09:16:01.053Z</time></trkpt><trkpt lat="42.64803647099723" lon="13.149688559095626"><ele>1450.5</ele><time>2026-04-29T09:16:03.055Z</time></trkpt><trkpt lat="42.64797621085835" lon="13.149751613352915"><ele>1448.0</ele><time>2026-04-29T09:16:05.055Z</time></trkpt><trkpt lat="42.64793021503727" lon="13.149812608159314"><ele>1445.5</ele><time>2026-04-29T09:16:07.055Z</time></trkpt><trkpt lat="42.64783244733216" lon="13.149800400120103"><ele>1443.0</ele><time>2026-04-29T09:16:09.056Z</time></trkpt><trkpt lat="42.647724552018076" lon="13.149786120151647"><ele>1443.0</ele><time>2026-04-29T09:16:11.056Z</time></trkpt><trkpt lat="42.64760457890387" lon="13.149795674348098"><ele>1443.0</ele><time>2026-04-29T09:16:13.056Z</time></trkpt><trkpt lat="42.64752599240717" lon="13.1497442288327"><ele>1443.0</ele><time>2026-04-29T09:16:15.056Z</time></trkpt><trkpt lat="42.647478301507576" lon="13.1496415147664"><ele>1443.0</ele><time>2026-04-29T09:16:17.056Z</time></trkpt><trkpt lat="42.64749074676319" lon="13.149507295713665"><ele>1443.0</ele><time>2026-04-29T09:16:19.056Z</time></trkpt><trkpt lat="42.64742609946645" lon="13.149402328284722"><ele>1443.0</ele><time>2026-04-29T09:16:21.056Z</time></trkpt><trkpt lat="42.647316549401936" lon="13.149344171684543"><ele>1443.0</ele><time>2026-04-29T09:16:23.056Z</time></trkpt><trkpt lat="42.647236962503676" lon="13.149270227534895"><ele>1443.0</ele><time>2026-04-29T09:16:25.056Z</time></trkpt><trkpt lat="42.64714797559607" lon="13.149179962910983"><ele>1443.0</ele><time>2026-04-29T09:16:27.056Z</time></trkpt><trkpt lat="42.64704855758541" lon="13.149125640192883"><ele>1443.0</ele><time>2026-04-29T09:16:29.056Z</time></trkpt><trkpt lat="42.64694359225134" lon="13.149050608008865"><ele>1438.4</ele><time>2026-04-29T09:16:31.056Z</time></trkpt><trkpt lat="42.64683990343856" lon="13.148968815649775"><ele>1433.8000000000002</ele><time>2026-04-29T09:16:32.056Z</time></trkpt><trkpt lat="42.64672997501697" lon="13.148869976781066"><ele>1429.2</ele><time>2026-04-29T09:16:33.056Z</time></trkpt><trkpt lat="42.64663067983331" lon="13.148807205937775"><ele>1424.6</ele><time>2026-04-29T09:16:34.056Z</time></trkpt><trkpt lat="42.64656499618249" lon="13.148750922446322"><ele>1420.0</ele><time>2026-04-29T09:16:35.056Z</time></trkpt><trkpt lat="42.64649635127009" lon="13.148708993622142"><ele>1420.0</ele><time>2026-04-29T09:16:36.056Z</time></trkpt><trkpt lat="42.646421870345065" lon="13.148657941402407"><ele>1420.0</ele><time>2026-04-29T09:16:37.056Z</time></trkpt><trkpt lat="42.646357306468985" lon="13.148600561250083"><ele>1420.0</ele><time>2026-04-29T09:16:38.056Z</time></trkpt><trkpt lat="42.646280773043856" lon="13.148546249886888"><ele>1420.0</ele><time>2026-04-29T09:16:39.056Z</time></trkpt><trkpt lat="42.64620883391272" lon="13.148475782072062"><ele>1420.0</ele><time>2026-04-29T09:16:40.056Z</time></trkpt><trkpt lat="42.64616068049011" lon="13.148415974574139"><ele>1420.0</ele><time>2026-04-29T09:16:41.056Z</time></trkpt><trkpt lat="42.646071967625296" lon="13.148308280580887"><ele>1419.8</ele><time>2026-04-29T09:16:43.056Z</time></trkpt><trkpt lat="42.64601542182482" lon="13.148266164417052"><ele>1419.6</ele><time>2026-04-29T09:16:44.056Z</time></trkpt><trkpt lat="42.64592294978146" lon="13.14818231313175"><ele>1419.4</ele><time>2026-04-29T09:16:46.056Z</time></trkpt><trkpt lat="42.64581816870865" lon="13.148137431806976"><ele>1419.2</ele><time>2026-04-29T09:16:48.056Z</time></trkpt><trkpt lat="42.64574056500102" lon="13.14819184708915"><ele>1419.0</ele><time>2026-04-29T09:16:50.056Z</time></trkpt><trkpt lat="42.645673644978494" lon="13.148307701589346"><ele>1419.0</ele><time>2026-04-29T09:16:52.056Z</time></trkpt><trkpt lat="42.645604736828524" lon="13.148427512099609"><ele>1419.0</ele><time>2026-04-29T09:16:54.056Z</time></trkpt><trkpt lat="42.64550180905756" lon="13.148499880625327"><ele>1419.0</ele><time>2026-04-29T09:16:56.056Z</time></trkpt><trkpt lat="42.64538852342989" lon="13.148489561826803"><ele>1419.0</ele><time>2026-04-29T09:16:58.056Z</time></trkpt><trkpt lat="42.645267928449805" lon="13.148454819571741"><ele>1417.5</ele><time>2026-04-29T09:17:00.056Z</time></trkpt><trkpt lat="42.64523171233802" lon="13.148351143520735"><ele>1416.0</ele><time>2026-04-29T09:17:02.056Z</time></trkpt><trkpt lat="42.645290829820695" lon="13.14821925910995"><ele>1414.5</ele><time>2026-04-29T09:17:04.056Z</time></trkpt><trkpt lat="42.64531040082296" lon="13.148135665252523"><ele>1413.0</ele><time>2026-04-29T09:17:05.056Z</time></trkpt><trkpt lat="42.64529887437442" lon="13.148048413212713"><ele>1411.5</ele><time>2026-04-29T09:17:06.056Z</time></trkpt><trkpt lat="42.645267571635245" lon="13.147957139292656"><ele>1410.0</ele><time>2026-04-29T09:17:07.056Z</time></trkpt><trkpt lat="42.64523029766338" lon="13.147870185929696"><ele>1406.9999999999998</ele><time>2026-04-29T09:17:08.056Z</time></trkpt><trkpt lat="42.64519105453662" lon="13.14778203623958"><ele>1404.0</ele><time>2026-04-29T09:17:09.056Z</time></trkpt><trkpt lat="42.64515934869768" lon="13.147699052995018"><ele>1401.0</ele><time>2026-04-29T09:17:10.056Z</time></trkpt><trkpt lat="42.645128623145354" lon="13.147606526780933"><ele>1398.0</ele><time>2026-04-29T09:17:11.056Z</time></trkpt><trkpt lat="42.64509362905661" lon="13.147522039944787"><ele>1395.0</ele><time>2026-04-29T09:17:12.056Z</time></trkpt><trkpt lat="42.6450589918735" lon="13.147428954440235"><ele>1391.9999999999998</ele><time>2026-04-29T09:17:13.056Z</time></trkpt><trkpt lat="42.6450305983363" lon="13.14734779564693"><ele>1389.0</ele><time>2026-04-29T09:17:14.056Z</time></trkpt><trkpt lat="42.64499477702471" lon="13.1472738892095"><ele>1387.0</ele><time>2026-04-29T09:17:15.056Z</time></trkpt><trkpt lat="42.644919398773226" lon="13.14714348112314"><ele>1385.0</ele><time>2026-04-29T09:17:17.056Z</time></trkpt><trkpt lat="42.64485771894454" lon="13.147020847772446"><ele>1383.0</ele><time>2026-04-29T09:17:19.056Z</time></trkpt><trkpt lat="42.64476933812328" lon="13.146979665847176"><ele>1381.0</ele><time>2026-04-29T09:17:21.056Z</time></trkpt><trkpt lat="42.644656103863035" lon="13.146941082744457"><ele>1379.0</ele><time>2026-04-29T09:17:23.056Z</time></trkpt><trkpt lat="42.64462387508356" lon="13.146858524722079"><ele>1379.0</ele><time>2026-04-29T09:17:24.056Z</time></trkpt><trkpt lat="42.64461140112217" lon="13.146753543335246"><ele>1379.0</ele><time>2026-04-29T09:17:25.056Z</time></trkpt><trkpt lat="42.64462333616843" lon="13.146652515540751"><ele>1379.0</ele><time>2026-04-29T09:17:26.056Z</time></trkpt><trkpt lat="42.644639948095566" lon="13.146541692848707"><ele>1379.0</ele><time>2026-04-29T09:17:27.056Z</time></trkpt><trkpt lat="42.64465775330265" lon="13.146391663306831"><ele>1379.0</ele><time>2026-04-29T09:17:29.056Z</time></trkpt><trkpt lat="42.64457916678642" lon="13.146289919653702"><ele>1377.1666666666667</ele><time>2026-04-29T09:17:31.056Z</time></trkpt><trkpt lat="42.644497565622444" lon="13.146274011023698"><ele>1375.3333333333335</ele><time>2026-04-29T09:17:32.056Z</time></trkpt><trkpt lat="42.644413016114974" lon="13.146288807842453"><ele>1373.5</ele><time>2026-04-29T09:17:33.056Z</time></trkpt><trkpt lat="42.64433264148159" lon="13.14629524588182"><ele>1371.6666666666667</ele><time>2026-04-29T09:17:34.056Z</time></trkpt><trkpt lat="42.644236529799244" lon="13.146294680317805"><ele>1369.8333333333333</ele><time>2026-04-29T09:17:35.056Z</time></trkpt><trkpt lat="42.64414561587103" lon="13.146286241332668"><ele>1368.0</ele><time>2026-04-29T09:17:36.056Z</time></trkpt><trkpt lat="42.64405737236918" lon="13.146292234361278"><ele>1367.3333333333333</ele><time>2026-04-29T09:17:37.056Z</time></trkpt><trkpt lat="42.643977689052626" lon="13.146307685518506"><ele>1366.6666666666667</ele><time>2026-04-29T09:17:38.056Z</time></trkpt><trkpt lat="42.64389654007216" lon="13.146333847058674"><ele>1366.0</ele><time>2026-04-29T09:17:39.056Z</time></trkpt><trkpt lat="42.64381040936516" lon="13.146341292574599"><ele>1365.3333333333335</ele><time>2026-04-29T09:17:40.056Z</time></trkpt><trkpt lat="42.64372665598451" lon="13.146356225515234"><ele>1364.6666666666667</ele><time>2026-04-29T09:17:41.056Z</time></trkpt><trkpt lat="42.64364790786623" lon="13.14637708870783"><ele>1364.0</ele><time>2026-04-29T09:17:42.056Z</time></trkpt><trkpt lat="42.64356206696709" lon="13.146406047716907"><ele>1364.0</ele><time>2026-04-29T09:17:43.056Z</time></trkpt><trkpt lat="42.64347473945886" lon="13.146422161330742"><ele>1364.0</ele><time>2026-04-29T09:17:44.056Z</time></trkpt><trkpt lat="42.643386367918694" lon="13.146434337116185"><ele>1364.0</ele><time>2026-04-29T09:17:45.056Z</time></trkpt><trkpt lat="42.643284230008305" lon="13.14645083180741"><ele>1364.0</ele><time>2026-04-29T09:17:46.056Z</time></trkpt><trkpt lat="42.643188110839624" lon="13.146463379599796"><ele>1364.0</ele><time>2026-04-29T09:17:47.056Z</time></trkpt><trkpt lat="42.643098521659205" lon="13.146474542251019"><ele>1364.0</ele><time>2026-04-29T09:17:48.056Z</time></trkpt><trkpt lat="42.64300326191606" lon="13.146467650378083"><ele>1364.0</ele><time>2026-04-29T09:17:49.056Z</time></trkpt><trkpt lat="42.64291085715819" lon="13.14646805507829"><ele>1364.0</ele><time>2026-04-29T09:17:50.056Z</time></trkpt><trkpt lat="42.64282011903584" lon="13.146473810928592"><ele>1364.0</ele><time>2026-04-29T09:17:51.056Z</time></trkpt><trkpt lat="42.64273389693487" lon="13.146475150971229"><ele>1364.0</ele><time>2026-04-29T09:17:52.056Z</time></trkpt><trkpt lat="42.64266173654797" lon="13.146476071122525"><ele>1364.0</ele><time>2026-04-29T09:17:53.056Z</time></trkpt><trkpt lat="42.64258826159096" lon="13.146459231169668"><ele>1362.4</ele><time>2026-04-29T09:17:54.056Z</time></trkpt><trkpt lat="42.64252620073187" lon="13.146520248259424"><ele>1360.8000000000002</ele><time>2026-04-29T09:17:57.056Z</time></trkpt><trkpt lat="42.64256293886316" lon="13.146651131851073"><ele>1359.1999999999998</ele><time>2026-04-29T09:17:59.056Z</time></trkpt><trkpt lat="42.642574047471456" lon="13.146827900385953"><ele>1357.6</ele><time>2026-04-29T09:18:01.056Z</time></trkpt><trkpt lat="42.642584114127445" lon="13.146930083336605"><ele>1356.0</ele><time>2026-04-29T09:18:02.056Z</time></trkpt><trkpt lat="42.64258676419938" lon="13.147029334621912"><ele>1356.0</ele><time>2026-04-29T09:18:03.056Z</time></trkpt><trkpt lat="42.64258125379995" lon="13.147121686557986"><ele>1356.0</ele><time>2026-04-29T09:18:04.056Z</time></trkpt><trkpt lat="42.642552046238364" lon="13.147216271807025"><ele>1356.0</ele><time>2026-04-29T09:18:05.056Z</time></trkpt><trkpt lat="42.64253140265556" lon="13.147310836615853"><ele>1356.0</ele><time>2026-04-29T09:18:06.056Z</time></trkpt><trkpt lat="42.64250336534123" lon="13.147408999862561"><ele>1356.0</ele><time>2026-04-29T09:18:07.056Z</time></trkpt><trkpt lat="42.64245818900317" lon="13.147550338689067"><ele>1356.0</ele><time>2026-04-29T09:18:09.058Z</time></trkpt><trkpt lat="42.64246388942017" lon="13.147699602545929"><ele>1356.0</ele><time>2026-04-29T09:18:11.058Z</time></trkpt><trkpt lat="42.64244804706851" lon="13.147851373782938"><ele>1356.0</ele><time>2026-04-29T09:18:13.058Z</time></trkpt><trkpt lat="42.64239503534478" lon="13.147955677123031"><ele>1356.0</ele><time>2026-04-29T09:18:15.058Z</time></trkpt><trkpt lat="42.64250553385253" lon="13.147912784793192"><ele>1356.0</ele><time>2026-04-29T09:18:21.059Z</time></trkpt><trkpt lat="42.64247490575199" lon="13.147826990443331"><ele>1356.0</ele><time>2026-04-29T09:18:22.058Z</time></trkpt><trkpt lat="42.64245183020584" lon="13.14773994493971"><ele>1356.0</ele><time>2026-04-29T09:18:23.058Z</time></trkpt><trkpt lat="42.64243874937855" lon="13.147648822256016"><ele>1356.0</ele><time>2026-04-29T09:18:24.058Z</time></trkpt><trkpt lat="42.64244833368894" lon="13.14746807585115"><ele>1356.0</ele><time>2026-04-29T09:18:26.058Z</time></trkpt><trkpt lat="42.64249866128479" lon="13.147316838443551"><ele>1356.0</ele><time>2026-04-29T09:18:28.058Z</time></trkpt><trkpt lat="42.64254424134105" lon="13.147155743381136"><ele>1355.1999999999998</ele><time>2026-04-29T09:18:30.058Z</time></trkpt><trkpt lat="42.642552036030644" lon="13.147064111751574"><ele>1354.3999999999999</ele><time>2026-04-29T09:18:31.058Z</time></trkpt><trkpt lat="42.642562347945145" lon="13.146860809217443"><ele>1353.6</ele><time>2026-04-29T09:18:33.058Z</time></trkpt><trkpt lat="42.64255884862453" lon="13.14674545180459"><ele>1352.8</ele><time>2026-04-29T09:18:34.058Z</time></trkpt><trkpt lat="42.64254367746067" lon="13.146640608490365"><ele>1352.0</ele><time>2026-04-29T09:18:35.058Z</time></trkpt><trkpt lat="42.64249819302925" lon="13.14656401632186"><ele>1352.6666666666667</ele><time>2026-04-29T09:18:36.058Z</time></trkpt><trkpt lat="42.64244037791016" lon="13.146503519969054"><ele>1353.3333333333335</ele><time>2026-04-29T09:18:37.058Z</time></trkpt><trkpt lat="42.64236638713481" lon="13.146469474798081"><ele>1354.0</ele><time>2026-04-29T09:18:38.058Z</time></trkpt><trkpt lat="42.642294720419706" lon="13.14644511264913"><ele>1354.6666666666667</ele><time>2026-04-29T09:18:39.058Z</time></trkpt><trkpt lat="42.64221890894676" lon="13.146452849282607"><ele>1355.3333333333333</ele><time>2026-04-29T09:18:40.058Z</time></trkpt><trkpt lat="42.642151591988274" lon="13.146463618330197"><ele>1356.0</ele><time>2026-04-29T09:18:41.058Z</time></trkpt><trkpt lat="42.64207133212307" lon="13.146495148734903"><ele>1356.0</ele><time>2026-04-29T09:18:42.058Z</time></trkpt><trkpt lat="42.641996770083004" lon="13.146488028824313"><ele>1356.0</ele><time>2026-04-29T09:18:43.058Z</time></trkpt><trkpt lat="42.6419272211423" lon="13.146438234806345"><ele>1356.0</ele><time>2026-04-29T09:18:44.058Z</time></trkpt><trkpt lat="42.641848575817576" lon="13.146401177812654"><ele>1356.0</ele><time>2026-04-29T09:18:45.058Z</time></trkpt><trkpt lat="42.64176748031851" lon="13.146373947200304"><ele>1356.0</ele><time>2026-04-29T09:18:46.058Z</time></trkpt><trkpt lat="42.64170342597312" lon="13.146353574619624"><ele>1356.0</ele><time>2026-04-29T09:18:47.058Z</time></trkpt><trkpt lat="42.641597635405276" lon="13.14634831263164"><ele>1354.6</ele><time>2026-04-29T09:18:49.058Z</time></trkpt><trkpt lat="42.64150408386677" lon="13.146362199627712"><ele>1353.1999999999998</ele><time>2026-04-29T09:18:52.058Z</time></trkpt><trkpt lat="42.64139129775205" lon="13.146398070473682"><ele>1351.8000000000002</ele><time>2026-04-29T09:18:54.058Z</time></trkpt><trkpt lat="42.64132901029803" lon="13.146416900984264"><ele>1350.4</ele><time>2026-04-29T09:18:55.058Z</time></trkpt><trkpt lat="42.64123501850136" lon="13.14646308249944"><ele>1349.0</ele><time>2026-04-29T09:18:57.058Z</time></trkpt><trkpt lat="42.64113976561458" lon="13.146457909056998"><ele>1348.5</ele><time>2026-04-29T09:18:59.058Z</time></trkpt><trkpt lat="42.6410779086189" lon="13.146388525485413"><ele>1348.0</ele><time>2026-04-29T09:19:01.058Z</time></trkpt><trkpt lat="42.64105617888803" lon="13.146286946834506"><ele>1347.5</ele><time>2026-04-29T09:19:03.058Z</time></trkpt><trkpt lat="42.64102584216003" lon="13.146190624866746"><ele>1347.0</ele><time>2026-04-29T09:19:05.058Z</time></trkpt><trkpt lat="42.64099457471475" lon="13.146073475982071"><ele>1346.5</ele><time>2026-04-29T09:19:07.058Z</time></trkpt><trkpt lat="42.64097493159491" lon="13.145947839798167"><ele>1346.0</ele><time>2026-04-29T09:19:09.058Z</time></trkpt><trkpt lat="42.64094531782583" lon="13.145825047132599"><ele>1346.0</ele><time>2026-04-29T09:19:11.058Z</time></trkpt><trkpt lat="42.64096317096577" lon="13.145695399596399"><ele>1346.0</ele><time>2026-04-29T09:19:13.058Z</time></trkpt><trkpt lat="42.640976335353805" lon="13.14557363195284"><ele>1346.0</ele><time>2026-04-29T09:19:15.058Z</time></trkpt><trkpt lat="42.64100791584076" lon="13.14547726137283"><ele>1346.0</ele><time>2026-04-29T09:19:17.058Z</time></trkpt><trkpt lat="42.64108382700952" lon="13.145485788181505"><ele>1346.0</ele><time>2026-04-29T09:19:20.058Z</time></trkpt><trkpt lat="42.64114453738192" lon="13.145594532373943"><ele>1346.0</ele><time>2026-04-29T09:19:22.058Z</time></trkpt><trkpt lat="42.64118968226846" lon="13.145715385688336"><ele>1346.0</ele><time>2026-04-29T09:19:24.058Z</time></trkpt><trkpt lat="42.64121417043047" lon="13.14581726900743"><ele>1346.0</ele><time>2026-04-29T09:19:26.058Z</time></trkpt><trkpt lat="42.64122941145552" lon="13.145923080003136"><ele>1346.0</ele><time>2026-04-29T09:19:28.058Z</time></trkpt><trkpt lat="42.641213459123" lon="13.146044961866686"><ele>1346.0</ele><time>2026-04-29T09:19:30.058Z</time></trkpt><trkpt lat="42.64117093420095" lon="13.146153998745733"><ele>1346.0</ele><time>2026-04-29T09:19:32.058Z</time></trkpt><trkpt lat="42.64113894554578" lon="13.146269435217164"><ele>1346.0</ele><time>2026-04-29T09:19:34.058Z</time></trkpt><trkpt lat="42.64111005619221" lon="13.14636850769053"><ele>1346.0</ele><time>2026-04-29T09:19:36.058Z</time></trkpt><trkpt lat="42.6411229373591" lon="13.146458057945477"><ele>1346.0</ele><time>2026-04-29T09:19:38.058Z</time></trkpt><trkpt lat="42.6412135503369" lon="13.146492074560603"><ele>1346.0</ele><time>2026-04-29T09:19:40.058Z</time></trkpt><trkpt lat="42.64133328628344" lon="13.146420389618456"><ele>1346.0</ele><time>2026-04-29T09:19:42.058Z</time></trkpt><trkpt lat="42.64141428926194" lon="13.1463758445579"><ele>1346.0</ele><time>2026-04-29T09:19:43.058Z</time></trkpt><trkpt lat="42.64149381042248" lon="13.146350134010927"><ele>1346.4285714285716</ele><time>2026-04-29T09:19:44.058Z</time></trkpt><trkpt lat="42.64156085482048" lon="13.146331957289718"><ele>1346.8571428571427</ele><time>2026-04-29T09:19:45.058Z</time></trkpt><trkpt lat="42.64162801694151" lon="13.146321309120788"><ele>1347.2857142857142</ele><time>2026-04-29T09:19:46.058Z</time></trkpt><trkpt lat="42.64169726443854" lon="13.146329977775054"><ele>1347.7142857142858</ele><time>2026-04-29T09:19:47.058Z</time></trkpt><trkpt lat="42.641762991994604" lon="13.146347248927416"><ele>1348.1428571428573</ele><time>2026-04-29T09:19:48.058Z</time></trkpt><trkpt lat="42.64183091002505" lon="13.146371218458361"><ele>1348.5714285714284</ele><time>2026-04-29T09:19:49.058Z</time></trkpt><trkpt lat="42.641902195493785" lon="13.146392888966261"><ele>1349.0</ele><time>2026-04-29T09:19:50.058Z</time></trkpt><trkpt lat="42.64200011005158" lon="13.146402087907259"><ele>1349.0</ele><time>2026-04-29T09:19:52.058Z</time></trkpt><trkpt lat="42.642038391423746" lon="13.146309128607845"><ele>1349.0</ele><time>2026-04-29T09:19:55.058Z</time></trkpt><trkpt lat="42.64199847991837" lon="13.146198061470763"><ele>1349.0</ele><time>2026-04-29T09:19:57.058Z</time></trkpt><trkpt lat="42.64193834393344" lon="13.146123058132806"><ele>1349.0</ele><time>2026-04-29T09:19:59.058Z</time></trkpt><trkpt lat="42.64188596345256" lon="13.146072649893027"><ele>1349.0</ele><time>2026-04-29T09:20:01.058Z</time></trkpt><trkpt lat="42.64184641349621" lon="13.145979577219851"><ele>1349.0</ele><time>2026-04-29T09:20:03.058Z</time></trkpt><trkpt lat="42.641819667030454" lon="13.1458988553597"><ele>1349.0</ele><time>2026-04-29T09:20:05.058Z</time></trkpt><trkpt lat="42.641790192366656" lon="13.145985058153862"><ele>1349.0</ele><time>2026-04-29T09:20:18.061Z</time></trkpt><trkpt lat="42.6418355245735" lon="13.146057298734249"><ele>1349.0</ele><time>2026-04-29T09:20:20.061Z</time></trkpt><trkpt lat="42.6419126226749" lon="13.145990879624623"><ele>1349.0</ele><time>2026-04-29T09:20:23.061Z</time></trkpt><trkpt lat="42.64194204398751" lon="13.145912313022933"><ele>1349.0</ele><time>2026-04-29T09:20:26.061Z</time></trkpt><trkpt lat="42.6420029541392" lon="13.145855964872583"><ele>1349.0</ele><time>2026-04-29T09:20:29.061Z</time></trkpt><trkpt lat="42.64194298274454" lon="13.145779540972663"><ele>1349.0</ele><time>2026-04-29T09:20:33.061Z</time></trkpt><trkpt lat="42.64187145468738" lon="13.145775100611454"><ele>1349.0</ele><time>2026-04-29T09:20:36.061Z</time></trkpt><trkpt lat="42.64178010117009" lon="13.145773703571077"><ele>1349.0</ele><time>2026-04-29T09:20:41.061Z</time></trkpt><trkpt lat="42.64171695856192" lon="13.145671938987054"><ele>1349.0</ele><time>2026-04-29T09:20:43.061Z</time></trkpt><trkpt lat="42.641702417615214" lon="13.145580880874004"><ele>1349.0</ele><time>2026-04-29T09:20:46.061Z</time></trkpt><trkpt lat="42.64171916126689" lon="13.145492129261406"><ele>1349.0</ele><time>2026-04-29T09:20:53.061Z</time></trkpt><trkpt lat="42.64172227550793" lon="13.145388195395434"><ele>1348.5</ele><time>2026-04-29T09:20:57.061Z</time></trkpt><trkpt lat="42.6416987611217" lon="13.145284608739281"><ele>1348.0</ele><time>2026-04-29T09:21:00.061Z</time></trkpt><trkpt lat="42.64168473018656" lon="13.145180895956125"><ele>1347.5</ele><time>2026-04-29T09:21:04.061Z</time></trkpt><trkpt lat="42.64164380463764" lon="13.145103021969794"><ele>1347.0</ele><time>2026-04-29T09:21:07.061Z</time></trkpt><trkpt lat="42.64159682436788" lon="13.145006878393161"><ele>1346.5</ele><time>2026-04-29T09:21:09.061Z</time></trkpt><trkpt lat="42.64159139518848" lon="13.144903977961501"><ele>1346.0</ele><time>2026-04-29T09:21:11.061Z</time></trkpt><trkpt lat="42.64162117071164" lon="13.144745169323402"><ele>1344.0</ele><time>2026-04-29T09:21:13.061Z</time></trkpt><trkpt lat="42.64163427605849" lon="13.144653685158493"><ele>1342.0</ele><time>2026-04-29T09:21:14.061Z</time></trkpt><trkpt lat="42.64165146832866" lon="13.144484547788286"><ele>1340.0</ele><time>2026-04-29T09:21:16.061Z</time></trkpt><trkpt lat="42.64166114276421" lon="13.144318429719014"><ele>1338.0</ele><time>2026-04-29T09:21:18.061Z</time></trkpt><trkpt lat="42.64166824870371" lon="13.144152997856555"><ele>1336.0</ele><time>2026-04-29T09:21:20.061Z</time></trkpt><trkpt lat="42.64168088668932" lon="13.14397645397623"><ele>1334.8</ele><time>2026-04-29T09:21:22.061Z</time></trkpt><trkpt lat="42.64168510958684" lon="13.14386621658721"><ele>1333.6</ele><time>2026-04-29T09:21:23.061Z</time></trkpt><trkpt lat="42.641672944882444" lon="13.143743134300466"><ele>1332.4</ele><time>2026-04-29T09:21:24.061Z</time></trkpt><trkpt lat="42.641653741091304" lon="13.143612246399487"><ele>1331.2</ele><time>2026-04-29T09:21:25.061Z</time></trkpt><trkpt lat="42.641644284206926" lon="13.14346863027459"><ele>1330.0</ele><time>2026-04-29T09:21:26.061Z</time></trkpt><trkpt lat="42.64163866439532" lon="13.14336011425618"><ele>1330.0</ele><time>2026-04-29T09:21:27.061Z</time></trkpt><trkpt lat="42.64161681864696" lon="13.143249710056372"><ele>1330.0</ele><time>2026-04-29T09:21:28.061Z</time></trkpt><trkpt lat="42.641593789435774" lon="13.143142512487511"><ele>1330.0</ele><time>2026-04-29T09:21:29.061Z</time></trkpt><trkpt lat="42.64157041470801" lon="13.143040398241498"><ele>1330.0</ele><time>2026-04-29T09:21:30.061Z</time></trkpt><trkpt lat="42.64152693767204" lon="13.142950018191609"><ele>1330.0</ele><time>2026-04-29T09:21:31.061Z</time></trkpt><trkpt lat="42.64148655269134" lon="13.142864048704533"><ele>1330.0</ele><time>2026-04-29T09:21:32.061Z</time></trkpt><trkpt lat="42.641436361084075" lon="13.14278389749179"><ele>1331.1666666666665</ele><time>2026-04-29T09:21:33.061Z</time></trkpt><trkpt lat="42.64137083260292" lon="13.142719812724595"><ele>1332.3333333333333</ele><time>2026-04-29T09:21:34.061Z</time></trkpt><trkpt lat="42.64128155161686" lon="13.142668410022013"><ele>1333.5</ele><time>2026-04-29T09:21:35.061Z</time></trkpt><trkpt lat="42.64120473959698" lon="13.142635122517012"><ele>1334.6666666666667</ele><time>2026-04-29T09:21:36.061Z</time></trkpt><trkpt lat="42.64112216455567" lon="13.142605735329704"><ele>1335.8333333333335</ele><time>2026-04-29T09:21:37.061Z</time></trkpt><trkpt lat="42.64105268496986" lon="13.142566219334848"><ele>1337.0</ele><time>2026-04-29T09:21:38.061Z</time></trkpt><trkpt lat="42.640985987269865" lon="13.14249799523008"><ele>1333.0</ele><time>2026-04-29T09:21:39.061Z</time></trkpt><trkpt lat="42.64090127547296" lon="13.142397200239037"><ele>1329.0</ele><time>2026-04-29T09:21:40.061Z</time></trkpt><trkpt lat="42.64081750353149" lon="13.142269468804292"><ele>1325.0</ele><time>2026-04-29T09:21:41.061Z</time></trkpt><trkpt lat="42.640767113644586" lon="13.142134782094544"><ele>1321.0</ele><time>2026-04-29T09:21:42.061Z</time></trkpt><trkpt lat="42.64072263318763" lon="13.142031713598666"><ele>1317.0</ele><time>2026-04-29T09:21:43.061Z</time></trkpt><trkpt lat="42.64068335985164" lon="13.14192905409166"><ele>1317.0</ele><time>2026-04-29T09:21:44.061Z</time></trkpt><trkpt lat="42.64069000234996" lon="13.141789880793478"><ele>1317.0</ele><time>2026-04-29T09:21:46.061Z</time></trkpt><trkpt lat="42.640742823518586" lon="13.141713073356339"><ele>1317.0</ele><time>2026-04-29T09:21:47.061Z</time></trkpt><trkpt lat="42.640826561162704" lon="13.141634335344268"><ele>1317.0</ele><time>2026-04-29T09:21:48.061Z</time></trkpt><trkpt lat="42.64089307142013" lon="13.141543238623928"><ele>1317.0</ele><time>2026-04-29T09:21:49.061Z</time></trkpt><trkpt lat="42.640936906300624" lon="13.141449190610487"><ele>1318.0</ele><time>2026-04-29T09:21:50.061Z</time></trkpt><trkpt lat="42.64096918045555" lon="13.14136826291392"><ele>1319.0</ele><time>2026-04-29T09:21:51.061Z</time></trkpt><trkpt lat="42.6409862581418" lon="13.141268754874911"><ele>1320.0</ele><time>2026-04-29T09:21:52.061Z</time></trkpt><trkpt lat="42.64095226448922" lon="13.141109375724863"><ele>1321.0</ele><time>2026-04-29T09:21:54.061Z</time></trkpt><trkpt lat="42.64089562628491" lon="13.141050382967155"><ele>1322.0</ele><time>2026-04-29T09:21:55.061Z</time></trkpt><trkpt lat="42.64078813345939" lon="13.14097746761755"><ele>1322.0</ele><time>2026-04-29T09:21:56.061Z</time></trkpt><trkpt lat="42.64064899763317" lon="13.140935791555352"><ele>1322.0</ele><time>2026-04-29T09:21:57.061Z</time></trkpt><trkpt lat="42.64051300575851" lon="13.140912401596388"><ele>1322.0</ele><time>2026-04-29T09:21:58.061Z</time></trkpt><trkpt lat="42.64040712170947" lon="13.140889898535578"><ele>1322.0</ele><time>2026-04-29T09:21:59.061Z</time></trkpt><trkpt lat="42.6403211389608" lon="13.140843728141297"><ele>1320.1999999999998</ele><time>2026-04-29T09:22:00.061Z</time></trkpt><trkpt lat="42.640239683868394" lon="13.140804611456343"><ele>1318.4</ele><time>2026-04-29T09:22:01.061Z</time></trkpt><trkpt lat="42.640162546210334" lon="13.140740649719007"><ele>1316.6</ele><time>2026-04-29T09:22:02.061Z</time></trkpt><trkpt lat="42.64008221439595" lon="13.140700496792578"><ele>1314.8000000000002</ele><time>2026-04-29T09:22:03.061Z</time></trkpt><trkpt lat="42.64000237455215" lon="13.140631992224602"><ele>1313.0</ele><time>2026-04-29T09:22:04.061Z</time></trkpt><trkpt lat="42.639898842314864" lon="13.140531233447483"><ele>1313.0</ele><time>2026-04-29T09:22:05.061Z</time></trkpt><trkpt lat="42.639802297747586" lon="13.140429088663055"><ele>1313.0</ele><time>2026-04-29T09:22:06.061Z</time></trkpt><trkpt lat="42.63972757238822" lon="13.140343717900096"><ele>1313.0</ele><time>2026-04-29T09:22:07.061Z</time></trkpt><trkpt lat="42.63964710982172" lon="13.140275848307153"><ele>1313.0</ele><time>2026-04-29T09:22:08.061Z</time></trkpt><trkpt lat="42.63957000021432" lon="13.140220977318316"><ele>1313.0</ele><time>2026-04-29T09:22:09.061Z</time></trkpt><trkpt lat="42.63949307501286" lon="13.140191664982535"><ele>1309.3333333333335</ele><time>2026-04-29T09:22:10.061Z</time></trkpt><trkpt lat="42.63942005636556" lon="13.140155925671383"><ele>1305.6666666666667</ele><time>2026-04-29T09:22:11.061Z</time></trkpt><trkpt lat="42.63935316540978" lon="13.140106361535711"><ele>1302.0</ele><time>2026-04-29T09:22:12.061Z</time></trkpt><trkpt lat="42.639298968658615" lon="13.139988452045825"><ele>1298.3333333333333</ele><time>2026-04-29T09:22:14.061Z</time></trkpt><trkpt lat="42.63922706333412" lon="13.13994977902933"><ele>1294.6666666666665</ele><time>2026-04-29T09:22:17.061Z</time></trkpt><trkpt lat="42.63918959860319" lon="13.14005229497719"><ele>1291.0</ele><time>2026-04-29T09:22:19.061Z</time></trkpt><trkpt lat="42.639183467683154" lon="13.140145819391932"><ele>1291.0</ele><time>2026-04-29T09:22:21.064Z</time></trkpt><trkpt lat="42.63910613286075" lon="13.140173919071708"><ele>1291.0</ele><time>2026-04-29T09:22:23.064Z</time></trkpt><trkpt lat="42.63904370142926" lon="13.140149308841822"><ele>1291.0</ele><time>2026-04-29T09:22:25.063Z</time></trkpt><trkpt lat="42.63899493828872" lon="13.140059433584485"><ele>1291.0</ele><time>2026-04-29T09:22:28.063Z</time></trkpt><trkpt lat="42.63895484289835" lon="13.139983682112826"><ele>1291.0</ele><time>2026-04-29T09:22:30.064Z</time></trkpt><trkpt lat="42.63896282699802" lon="13.139837005496005"><ele>1291.0</ele><time>2026-04-29T09:22:32.064Z</time></trkpt><trkpt lat="42.63898082554801" lon="13.139739140162222"><ele>1291.8</ele><time>2026-04-29T09:22:33.063Z</time></trkpt><trkpt lat="42.63899567607227" lon="13.139643449466028"><ele>1292.6</ele><time>2026-04-29T09:22:34.063Z</time></trkpt><trkpt lat="42.63899669233544" lon="13.139478728888905"><ele>1293.4</ele><time>2026-04-29T09:22:36.063Z</time></trkpt><trkpt lat="42.63892121643782" lon="13.139352109529844"><ele>1294.2</ele><time>2026-04-29T09:22:38.063Z</time></trkpt><trkpt lat="42.6388212396853" lon="13.139275266180334"><ele>1295.0</ele><time>2026-04-29T09:22:40.063Z</time></trkpt><trkpt lat="42.63870394264693" lon="13.139253723087936"><ele>1295.0</ele><time>2026-04-29T09:22:42.063Z</time></trkpt><trkpt lat="42.638641329019954" lon="13.139284965896964"><ele>1295.0</ele><time>2026-04-29T09:22:43.063Z</time></trkpt><trkpt lat="42.63857229039462" lon="13.139302388892489"><ele>1295.0</ele><time>2026-04-29T09:22:44.063Z</time></trkpt><trkpt lat="42.63850360428237" lon="13.13932259036803"><ele>1295.0</ele><time>2026-04-29T09:22:45.063Z</time></trkpt><trkpt lat="42.63839092853369" lon="13.139330103761644"><ele>1295.0</ele><time>2026-04-29T09:22:47.063Z</time></trkpt><trkpt lat="42.6382833656105" lon="13.139363370701764"><ele>1295.0</ele><time>2026-04-29T09:22:49.063Z</time></trkpt><trkpt lat="42.63816386061992" lon="13.139383577625155"><ele>1292.4</ele><time>2026-04-29T09:22:51.063Z</time></trkpt><trkpt lat="42.63804755836028" lon="13.139369275788766"><ele>1289.8</ele><time>2026-04-29T09:22:53.063Z</time></trkpt><trkpt lat="42.6379427514193" lon="13.139327750909075"><ele>1287.1999999999998</ele><time>2026-04-29T09:22:55.063Z</time></trkpt><trkpt lat="42.63785268539526" lon="13.13925857946396"><ele>1284.6</ele><time>2026-04-29T09:22:57.063Z</time></trkpt><trkpt lat="42.63778488827927" lon="13.139268369959957"><ele>1282.0</ele><time>2026-04-29T09:23:00.063Z</time></trkpt><trkpt lat="42.63782636545279" lon="13.139363942419818"><ele>1282.0</ele><time>2026-04-29T09:23:02.063Z</time></trkpt><trkpt lat="42.637912465949626" lon="13.139457214960848"><ele>1282.0</ele><time>2026-04-29T09:23:03.063Z</time></trkpt><trkpt lat="42.638007372846445" lon="13.139533176124333"><ele>1282.0</ele><time>2026-04-29T09:23:04.063Z</time></trkpt><trkpt lat="42.6381271527696" lon="13.139611372157383"><ele>1282.0</ele><time>2026-04-29T09:23:05.063Z</time></trkpt><trkpt lat="42.63823954401268" lon="13.139658238835294"><ele>1282.0</ele><time>2026-04-29T09:23:06.063Z</time></trkpt><trkpt lat="42.63832294961776" lon="13.139724741312648"><ele>1282.0</ele><time>2026-04-29T09:23:07.063Z</time></trkpt><trkpt lat="42.63839026542184" lon="13.13980158922244"><ele>1282.0</ele><time>2026-04-29T09:23:08.063Z</time></trkpt><trkpt lat="42.63842375038398" lon="13.139916359326138"><ele>1282.0</ele><time>2026-04-29T09:23:09.063Z</time></trkpt><trkpt lat="42.63840362174026" lon="13.140067639647794"><ele>1282.0</ele><time>2026-04-29T09:23:10.063Z</time></trkpt><trkpt lat="42.63835259723868" lon="13.14021660012528"><ele>1278.5</ele><time>2026-04-29T09:23:11.063Z</time></trkpt><trkpt lat="42.638294914492896" lon="13.140356774446436"><ele>1275.0</ele><time>2026-04-29T09:23:12.063Z</time></trkpt><trkpt lat="42.63823367261748" lon="13.140506032887721"><ele>1271.5</ele><time>2026-04-29T09:23:13.063Z</time></trkpt><trkpt lat="42.638164877516985" lon="13.140645411045842"><ele>1268.0</ele><time>2026-04-29T09:23:14.063Z</time></trkpt><trkpt lat="42.63809625014499" lon="13.140775019138127"><ele>1267.0</ele><time>2026-04-29T09:23:15.063Z</time></trkpt><trkpt lat="42.6380543181206" lon="13.140907793876828"><ele>1266.0</ele><time>2026-04-29T09:23:16.063Z</time></trkpt><trkpt lat="42.63804495324761" lon="13.141044370227977"><ele>1265.0</ele><time>2026-04-29T09:23:17.063Z</time></trkpt><trkpt lat="42.638063205019684" lon="13.141169251790915"><ele>1264.0</ele><time>2026-04-29T09:23:18.063Z</time></trkpt><trkpt lat="42.63811676424062" lon="13.141282525985726"><ele>1263.0</ele><time>2026-04-29T09:23:19.063Z</time></trkpt><trkpt lat="42.63821733458056" lon="13.141381467522635"><ele>1263.0</ele><time>2026-04-29T09:23:20.063Z</time></trkpt><trkpt lat="42.638345575205435" lon="13.141427797307605"><ele>1263.0</ele><time>2026-04-29T09:23:21.063Z</time></trkpt><trkpt lat="42.63843717717394" lon="13.141483345797342"><ele>1263.0</ele><time>2026-04-29T09:23:22.063Z</time></trkpt><trkpt lat="42.63849203283567" lon="13.141580467936741"><ele>1263.0</ele><time>2026-04-29T09:23:23.063Z</time></trkpt><trkpt lat="42.638501894945286" lon="13.141716528204112"><ele>1263.0</ele><time>2026-04-29T09:23:24.063Z</time></trkpt><trkpt lat="42.6384617098974" lon="13.14184984895132"><ele>1261.5</ele><time>2026-04-29T09:23:25.063Z</time></trkpt><trkpt lat="42.638398884284534" lon="13.141979433694347"><ele>1260.0</ele><time>2026-04-29T09:23:26.063Z</time></trkpt><trkpt lat="42.638313677260875" lon="13.142103530900254"><ele>1258.5</ele><time>2026-04-29T09:23:27.063Z</time></trkpt><trkpt lat="42.63818867240018" lon="13.142217725589298"><ele>1257.0</ele><time>2026-04-29T09:23:28.063Z</time></trkpt><trkpt lat="42.638061168046214" lon="13.142306888775066"><ele>1257.0</ele><time>2026-04-29T09:23:29.063Z</time></trkpt><trkpt lat="42.637970881547524" lon="13.142414217041868"><ele>1257.0</ele><time>2026-04-29T09:23:30.063Z</time></trkpt><trkpt lat="42.63789972242252" lon="13.142503088355259"><ele>1257.0</ele><time>2026-04-29T09:23:31.063Z</time></trkpt><trkpt lat="42.637834766069865" lon="13.142599579409652"><ele>1257.0</ele><time>2026-04-29T09:23:32.063Z</time></trkpt><trkpt lat="42.63775768893393" lon="13.142687891940685"><ele>1257.0</ele><time>2026-04-29T09:23:33.063Z</time></trkpt><trkpt lat="42.637686991690565" lon="13.142791188481796"><ele>1257.0</ele><time>2026-04-29T09:23:34.063Z</time></trkpt><trkpt lat="42.637668098553874" lon="13.142947263148283"><ele>1257.0</ele><time>2026-04-29T09:23:35.063Z</time></trkpt><trkpt lat="42.63766245038101" lon="13.143118897049794"><ele>1257.0</ele><time>2026-04-29T09:23:36.063Z</time></trkpt><trkpt lat="42.63767215356049" lon="13.14328729884802"><ele>1257.0</ele><time>2026-04-29T09:23:37.063Z</time></trkpt><trkpt lat="42.63768012280855" lon="13.143469948415678"><ele>1256.75</ele><time>2026-04-29T09:23:38.063Z</time></trkpt><trkpt lat="42.63767330803917" lon="13.143652966767165"><ele>1256.5</ele><time>2026-04-29T09:23:39.063Z</time></trkpt><trkpt lat="42.63766491350147" lon="13.14384605799254"><ele>1256.25</ele><time>2026-04-29T09:23:40.063Z</time></trkpt><trkpt lat="42.63766030368412" lon="13.144044263596475"><ele>1256.0</ele><time>2026-04-29T09:23:41.063Z</time></trkpt><trkpt lat="42.63764868461355" lon="13.14424749018494"><ele>1254.0</ele><time>2026-04-29T09:23:42.063Z</time></trkpt><trkpt lat="42.637637370198796" lon="13.144484839882953"><ele>1252.0</ele><time>2026-04-29T09:23:43.063Z</time></trkpt><trkpt lat="42.63762238273049" lon="13.144744072320105"><ele>1250.0</ele><time>2026-04-29T09:23:44.063Z</time></trkpt><trkpt lat="42.6376021350559" lon="13.144998438389658"><ele>1249.0</ele><time>2026-04-29T09:23:45.063Z</time></trkpt><trkpt lat="42.637585069783675" lon="13.145222640501828"><ele>1248.0</ele><time>2026-04-29T09:23:46.063Z</time></trkpt><trkpt lat="42.63756129218708" lon="13.145425747725598"><ele>1247.0</ele><time>2026-04-29T09:23:47.063Z</time></trkpt><trkpt lat="42.637500903907" lon="13.14561384796226"><ele>1247.3333333333335</ele><time>2026-04-29T09:23:48.063Z</time></trkpt><trkpt lat="42.63742559995044" lon="13.145796510636131"><ele>1247.6666666666667</ele><time>2026-04-29T09:23:49.063Z</time></trkpt><trkpt lat="42.63736373176816" lon="13.145999739644664"><ele>1248.0</ele><time>2026-04-29T09:23:50.063Z</time></trkpt><trkpt lat="42.637306686353966" lon="13.14619367934633"><ele>1248.0</ele><time>2026-04-29T09:23:51.063Z</time></trkpt><trkpt lat="42.63725694536478" lon="13.146374234550766"><ele>1248.0</ele><time>2026-04-29T09:23:52.063Z</time></trkpt><trkpt lat="42.63720185074894" lon="13.146531654230198"><ele>1248.0</ele><time>2026-04-29T09:23:53.063Z</time></trkpt><trkpt lat="42.63715000056243" lon="13.146686416074946"><ele>1248.0</ele><time>2026-04-29T09:23:54.063Z</time></trkpt><trkpt lat="42.637099010720995" lon="13.146843086426612"><ele>1247.4</ele><time>2026-04-29T09:23:55.063Z</time></trkpt><trkpt lat="42.63705498536078" lon="13.146995897116556"><ele>1246.8</ele><time>2026-04-29T09:23:56.063Z</time></trkpt><trkpt lat="42.63700409459076" lon="13.147114255582629"><ele>1246.2</ele><time>2026-04-29T09:23:57.063Z</time></trkpt><trkpt lat="42.63694520755156" lon="13.147220226647617"><ele>1245.6</ele><time>2026-04-29T09:23:58.063Z</time></trkpt><trkpt lat="42.63687865769736" lon="13.147296150478413"><ele>1245.0</ele><time>2026-04-29T09:23:59.063Z</time></trkpt><trkpt lat="42.63680443476516" lon="13.147349927413751"><ele>1245.0</ele><time>2026-04-29T09:24:00.063Z</time></trkpt><trkpt lat="42.63670890295015" lon="13.147369473188594"><ele>1245.0</ele><time>2026-04-29T09:24:01.063Z</time></trkpt><trkpt lat="42.63658760896129" lon="13.14734901590712"><ele>1245.0</ele><time>2026-04-29T09:24:02.063Z</time></trkpt><trkpt lat="42.63646493746982" lon="13.147299308163849"><ele>1245.0</ele><time>2026-04-29T09:24:03.063Z</time></trkpt><trkpt lat="42.63637699286936" lon="13.14728719848701"><ele>1245.0</ele><time>2026-04-29T09:24:04.063Z</time></trkpt><trkpt lat="42.63629601835082" lon="13.14734713122746"><ele>1245.0</ele><time>2026-04-29T09:24:06.063Z</time></trkpt><trkpt lat="42.6362217725072" lon="13.147361716273466"><ele>1245.0</ele><time>2026-04-29T09:24:08.063Z</time></trkpt><trkpt lat="42.636156273739566" lon="13.147319597453382"><ele>1245.0</ele><time>2026-04-29T09:24:11.063Z</time></trkpt><trkpt lat="42.63606303604136" lon="13.147221633343909"><ele>1245.0</ele><time>2026-04-29T09:25:44.066Z</time></trkpt><trkpt lat="42.635996177791924" lon="13.14716828171315"><ele>1245.0</ele><time>2026-04-29T09:25:45.066Z</time></trkpt><trkpt lat="42.63592534046611" lon="13.147117169372066"><ele>1245.0</ele><time>2026-04-29T09:25:46.066Z</time></trkpt><trkpt lat="42.63583868174447" lon="13.147091854285575"><ele>1247.25</ele><time>2026-04-29T09:25:47.066Z</time></trkpt><trkpt lat="42.63573744095587" lon="13.147072755231882"><ele>1249.5</ele><time>2026-04-29T09:25:48.066Z</time></trkpt><trkpt lat="42.63563028851573" lon="13.147055927351364"><ele>1251.75</ele><time>2026-04-29T09:25:49.066Z</time></trkpt><trkpt lat="42.63551871886505" lon="13.147019682625967"><ele>1254.0</ele><time>2026-04-29T09:25:50.066Z</time></trkpt><trkpt lat="42.63541051248759" lon="13.14693020191036"><ele>1252.75</ele><time>2026-04-29T09:25:51.066Z</time></trkpt><trkpt lat="42.635297723958246" lon="13.14685720508253"><ele>1251.5</ele><time>2026-04-29T09:25:52.066Z</time></trkpt><trkpt lat="42.635187422759614" lon="13.146782353466289"><ele>1250.25</ele><time>2026-04-29T09:25:53.066Z</time></trkpt><trkpt lat="42.63508081898172" lon="13.146717079671859"><ele>1249.0</ele><time>2026-04-29T09:25:54.066Z</time></trkpt><trkpt lat="42.63495399857379" lon="13.146694863702885"><ele>1249.0</ele><time>2026-04-29T09:25:55.066Z</time></trkpt><trkpt lat="42.63483064730847" lon="13.146687288211503"><ele>1249.0</ele><time>2026-04-29T09:25:56.066Z</time></trkpt><trkpt lat="42.63469993572463" lon="13.146696668013568"><ele>1249.0</ele><time>2026-04-29T09:25:57.066Z</time></trkpt><trkpt lat="42.634576293797544" lon="13.146737249183982"><ele>1249.0</ele><time>2026-04-29T09:25:58.066Z</time></trkpt><trkpt lat="42.63445840953926" lon="13.146780456213465"><ele>1249.5</ele><time>2026-04-29T09:25:59.066Z</time></trkpt><trkpt lat="42.63434470466972" lon="13.14680896727848"><ele>1250.0</ele><time>2026-04-29T09:26:00.066Z</time></trkpt><trkpt lat="42.63422863698532" lon="13.14683107910305"><ele>1250.5</ele><time>2026-04-29T09:26:01.066Z</time></trkpt><trkpt lat="42.6341175382014" lon="13.146829519052378"><ele>1251.0</ele><time>2026-04-29T09:26:02.066Z</time></trkpt><trkpt lat="42.633998440434674" lon="13.14681964053559"><ele>1251.0</ele><time>2026-04-29T09:26:03.066Z</time></trkpt><trkpt lat="42.633878999535554" lon="13.146832774121343"><ele>1251.0</ele><time>2026-04-29T09:26:04.066Z</time></trkpt><trkpt lat="42.63375847568988" lon="13.146784304992222"><ele>1251.0</ele><time>2026-04-29T09:26:05.066Z</time></trkpt><trkpt lat="42.63363440372384" lon="13.146776013360851"><ele>1251.0</ele><time>2026-04-29T09:26:06.066Z</time></trkpt><trkpt lat="42.6335142408992" lon="13.146795148705058"><ele>1251.5</ele><time>2026-04-29T09:26:07.066Z</time></trkpt><trkpt lat="42.633385963253325" lon="13.146823451007823"><ele>1252.0</ele><time>2026-04-29T09:26:08.066Z</time></trkpt><trkpt lat="42.633249689437406" lon="13.146866576672215"><ele>1252.5</ele><time>2026-04-29T09:26:09.066Z</time></trkpt><trkpt lat="42.633127975073634" lon="13.146902710178852"><ele>1253.0</ele><time>2026-04-29T09:26:10.066Z</time></trkpt><trkpt lat="42.633011671180356" lon="13.14694087910116"><ele>1253.0</ele><time>2026-04-29T09:26:11.066Z</time></trkpt><trkpt lat="42.63290798123929" lon="13.146972640996987"><ele>1253.0</ele><time>2026-04-29T09:26:12.066Z</time></trkpt><trkpt lat="42.632803759949745" lon="13.1469978274094"><ele>1253.0</ele><time>2026-04-29T09:26:13.066Z</time></trkpt><trkpt lat="42.63268999972706" lon="13.147040373372544"><ele>1253.0</ele><time>2026-04-29T09:26:14.066Z</time></trkpt><trkpt lat="42.63256922743039" lon="13.147077614312517"><ele>1253.75</ele><time>2026-04-29T09:26:15.066Z</time></trkpt><trkpt lat="42.632428864466625" lon="13.147101846613067"><ele>1254.5</ele><time>2026-04-29T09:26:16.066Z</time></trkpt><trkpt lat="42.63227379712488" lon="13.147107659578811"><ele>1255.25</ele><time>2026-04-29T09:26:17.066Z</time></trkpt><trkpt lat="42.63212947728453" lon="13.147104363464884"><ele>1256.0</ele><time>2026-04-29T09:26:18.066Z</time></trkpt><trkpt lat="42.63197063312135" lon="13.147101984766646"><ele>1256.3333333333335</ele><time>2026-04-29T09:26:19.066Z</time></trkpt><trkpt lat="42.631811085998116" lon="13.147107420683762"><ele>1256.6666666666667</ele><time>2026-04-29T09:26:20.066Z</time></trkpt><trkpt lat="42.631664035937995" lon="13.147122016962165"><ele>1257.0</ele><time>2026-04-29T09:26:21.066Z</time></trkpt><trkpt lat="42.63151631707082" lon="13.147164150693975"><ele>1257.0</ele><time>2026-04-29T09:26:22.066Z</time></trkpt><trkpt lat="42.631384899229566" lon="13.147270525395859"><ele>1257.0</ele><time>2026-04-29T09:26:23.066Z</time></trkpt><trkpt lat="42.631255866119105" lon="13.147404380101912"><ele>1257.0</ele><time>2026-04-29T09:26:24.066Z</time></trkpt><trkpt lat="42.63113265242254" lon="13.147581382648786"><ele>1258.0</ele><time>2026-04-29T09:26:25.066Z</time></trkpt><trkpt lat="42.630982825083436" lon="13.147729217294412"><ele>1259.0</ele><time>2026-04-29T09:26:26.066Z</time></trkpt><trkpt lat="42.63086569907514" lon="13.147923317082126"><ele>1260.0</ele><time>2026-04-29T09:26:27.066Z</time></trkpt><trkpt lat="42.630757978637405" lon="13.148124514732825"><ele>1261.6666666666667</ele><time>2026-04-29T09:26:28.066Z</time></trkpt><trkpt lat="42.630676860204055" lon="13.148344292974384"><ele>1263.3333333333335</ele><time>2026-04-29T09:26:29.066Z</time></trkpt><trkpt lat="42.63060365968845" lon="13.148552041638492"><ele>1265.0</ele><time>2026-04-29T09:26:30.066Z</time></trkpt><trkpt lat="42.63056098934444" lon="13.148744865076692"><ele>1265.0</ele><time>2026-04-29T09:26:31.066Z</time></trkpt><trkpt lat="42.63052960382757" lon="13.148930194060542"><ele>1265.0</ele><time>2026-04-29T09:26:32.066Z</time></trkpt><trkpt lat="42.63042848858387" lon="13.149082186015923"><ele>1265.0</ele><time>2026-04-29T09:26:33.068Z</time></trkpt><trkpt lat="42.63030794231096" lon="13.14920708120811"><ele>1265.0</ele><time>2026-04-29T09:26:34.068Z</time></trkpt><trkpt lat="42.63017398200943" lon="13.149320999401338"><ele>1265.6666666666667</ele><time>2026-04-29T09:26:35.068Z</time></trkpt><trkpt lat="42.63002996499419" lon="13.149461459076713"><ele>1266.3333333333333</ele><time>2026-04-29T09:26:36.068Z</time></trkpt><trkpt lat="42.62990339151588" lon="13.149618650259026"><ele>1267.0</ele><time>2026-04-29T09:26:37.069Z</time></trkpt><trkpt lat="42.629787886740985" lon="13.149808626298023"><ele>1266.6666666666665</ele><time>2026-04-29T09:26:38.069Z</time></trkpt><trkpt lat="42.6296851685187" lon="13.149990631538722"><ele>1266.3333333333333</ele><time>2026-04-29T09:26:39.068Z</time></trkpt><trkpt lat="42.6295499166848" lon="13.150140366795993"><ele>1266.0</ele><time>2026-04-29T09:26:40.068Z</time></trkpt><trkpt lat="42.629387878293954" lon="13.150265789196785"><ele>1269.0</ele><time>2026-04-29T09:26:41.068Z</time></trkpt><trkpt lat="42.62920303438799" lon="13.150353565875735"><ele>1272.0</ele><time>2026-04-29T09:26:42.069Z</time></trkpt><trkpt lat="42.62899354029061" lon="13.150417349728924"><ele>1275.0</ele><time>2026-04-29T09:26:43.069Z</time></trkpt><trkpt lat="42.62878000856051" lon="13.150472682567523"><ele>1276.3333333333333</ele><time>2026-04-29T09:26:44.069Z</time></trkpt><trkpt lat="42.62859421108089" lon="13.15051789776962"><ele>1277.6666666666665</ele><time>2026-04-29T09:26:45.068Z</time></trkpt><trkpt lat="42.62842760126421" lon="13.150555736308453"><ele>1279.0</ele><time>2026-04-29T09:26:46.068Z</time></trkpt><trkpt lat="42.628266411269266" lon="13.150616515237006"><ele>1279.0</ele><time>2026-04-29T09:26:47.068Z</time></trkpt><trkpt lat="42.628088671472284" lon="13.150595290646315"><ele>1279.0</ele><time>2026-04-29T09:26:48.068Z</time></trkpt><trkpt lat="42.62791535225555" lon="13.15055360506767"><ele>1279.0</ele><time>2026-04-29T09:26:49.068Z</time></trkpt><trkpt lat="42.62776506500031" lon="13.150480237793232"><ele>1281.75</ele><time>2026-04-29T09:26:50.068Z</time></trkpt><trkpt lat="42.62764443558689" lon="13.150393698063741"><ele>1284.5</ele><time>2026-04-29T09:26:51.068Z</time></trkpt><trkpt lat="42.62753130721647" lon="13.150291488439974"><ele>1287.25</ele><time>2026-04-29T09:26:52.068Z</time></trkpt><trkpt lat="42.627422204647935" lon="13.150196779354344"><ele>1290.0</ele><time>2026-04-29T09:26:53.068Z</time></trkpt><trkpt lat="42.62733242935946" lon="13.150129519547903"><ele>1290.0</ele><time>2026-04-29T09:26:54.068Z</time></trkpt><trkpt lat="42.627268699781794" lon="13.15001389902163"><ele>1290.0</ele><time>2026-04-29T09:26:55.068Z</time></trkpt><trkpt lat="42.627227972546585" lon="13.149875695454442"><ele>1290.0</ele><time>2026-04-29T09:26:56.068Z</time></trkpt><trkpt lat="42.62722789502824" lon="13.149718875468578"><ele>1290.0</ele><time>2026-04-29T09:26:57.068Z</time></trkpt><trkpt lat="42.62726152416632" lon="13.149568860824756"><ele>1290.0</ele><time>2026-04-29T09:26:58.068Z</time></trkpt><trkpt lat="42.627332290147464" lon="13.14943419278958"><ele>1291.6</ele><time>2026-04-29T09:26:59.068Z</time></trkpt><trkpt lat="42.627392245285684" lon="13.149333064316998"><ele>1293.2</ele><time>2026-04-29T09:27:00.068Z</time></trkpt><trkpt lat="42.62743563865372" lon="13.149236491612628"><ele>1294.8000000000002</ele><time>2026-04-29T09:27:01.068Z</time></trkpt><trkpt lat="42.62746195856981" lon="13.149151523154245"><ele>1296.4</ele><time>2026-04-29T09:27:02.068Z</time></trkpt><trkpt lat="42.62742727859168" lon="13.148977454820974"><ele>1298.0</ele><time>2026-04-29T09:27:04.068Z</time></trkpt><trkpt lat="42.62734458032819" lon="13.148904179905754"><ele>1298.0</ele><time>2026-04-29T09:27:05.068Z</time></trkpt><trkpt lat="42.62724957980904" lon="13.14887543072259"><ele>1298.0</ele><time>2026-04-29T09:27:06.068Z</time></trkpt><trkpt lat="42.627161242311566" lon="13.148932794770054"><ele>1298.0</ele><time>2026-04-29T09:27:07.068Z</time></trkpt><trkpt lat="42.62708818975385" lon="13.149021295693757"><ele>1298.0</ele><time>2026-04-29T09:27:08.068Z</time></trkpt><trkpt lat="42.62701092462139" lon="13.149111924873273"><ele>1298.0</ele><time>2026-04-29T09:27:09.068Z</time></trkpt><trkpt lat="42.62692036889307" lon="13.149226570070931"><ele>1301.5</ele><time>2026-04-29T09:27:10.068Z</time></trkpt><trkpt lat="42.626824138456755" lon="13.149314428083963"><ele>1305.0</ele><time>2026-04-29T09:27:11.068Z</time></trkpt><trkpt lat="42.62672208044769" lon="13.149363849659801"><ele>1308.5</ele><time>2026-04-29T09:27:12.068Z</time></trkpt><trkpt lat="42.62660649734234" lon="13.149384019390748"><ele>1312.0</ele><time>2026-04-29T09:27:13.068Z</time></trkpt><trkpt lat="42.626491258034925" lon="13.149372182177608"><ele>1312.0</ele><time>2026-04-29T09:27:14.068Z</time></trkpt><trkpt lat="42.626381875236454" lon="13.14933449496302"><ele>1312.0</ele><time>2026-04-29T09:27:15.068Z</time></trkpt><trkpt lat="42.62627001333399" lon="13.149273006009242"><ele>1312.0</ele><time>2026-04-29T09:27:16.068Z</time></trkpt><trkpt lat="42.62614594146019" lon="13.149202578292847"><ele>1312.0</ele><time>2026-04-29T09:27:17.068Z</time></trkpt><trkpt lat="42.626024004854315" lon="13.149143871148334"><ele>1312.75</ele><time>2026-04-29T09:27:18.068Z</time></trkpt><trkpt lat="42.6259000017743" lon="13.149104414104569"><ele>1313.5</ele><time>2026-04-29T09:27:19.068Z</time></trkpt><trkpt lat="42.625781084112276" lon="13.149053999404318"><ele>1314.25</ele><time>2026-04-29T09:27:20.068Z</time></trkpt><trkpt lat="42.62566741940397" lon="13.148987419642028"><ele>1315.0</ele><time>2026-04-29T09:27:21.068Z</time></trkpt><trkpt lat="42.62556637776743" lon="13.148875786339065"><ele>1315.0</ele><time>2026-04-29T09:27:22.068Z</time></trkpt><trkpt lat="42.625488427047884" lon="13.148732205868248"><ele>1315.0</ele><time>2026-04-29T09:27:23.068Z</time></trkpt><trkpt lat="42.625443709786694" lon="13.148555648390666"><ele>1315.0</ele><time>2026-04-29T09:27:24.068Z</time></trkpt><trkpt lat="42.62542049308386" lon="13.14837179146042"><ele>1315.0</ele><time>2026-04-29T09:27:25.068Z</time></trkpt><trkpt lat="42.62540308358667" lon="13.148193774495542"><ele>1314.25</ele><time>2026-04-29T09:27:26.068Z</time></trkpt><trkpt lat="42.62538646215079" lon="13.148018477049126"><ele>1313.5</ele><time>2026-04-29T09:27:27.068Z</time></trkpt><trkpt lat="42.62535930315776" lon="13.147850638368167"><ele>1312.75</ele><time>2026-04-29T09:27:28.068Z</time></trkpt><trkpt lat="42.62532517533432" lon="13.14768301717587"><ele>1312.0</ele><time>2026-04-29T09:27:29.068Z</time></trkpt><trkpt lat="42.62528697427497" lon="13.147518305365288"><ele>1313.5</ele><time>2026-04-29T09:27:30.068Z</time></trkpt><trkpt lat="42.625232220573785" lon="13.147359197673822"><ele>1315.0</ele><time>2026-04-29T09:27:31.068Z</time></trkpt><trkpt lat="42.62517504586278" lon="13.147201740901108"><ele>1316.5</ele><time>2026-04-29T09:27:32.068Z</time></trkpt><trkpt lat="42.62511702971237" lon="13.147044247389806"><ele>1318.0</ele><time>2026-04-29T09:27:33.068Z</time></trkpt><trkpt lat="42.62506264493939" lon="13.146886473516345"><ele>1318.0</ele><time>2026-04-29T09:27:34.068Z</time></trkpt><trkpt lat="42.62501301760951" lon="13.146725410204784"><ele>1318.0</ele><time>2026-04-29T09:27:35.068Z</time></trkpt><trkpt lat="42.62496576968345" lon="13.146557239100783"><ele>1318.0</ele><time>2026-04-29T09:27:36.068Z</time></trkpt><trkpt lat="42.624927613682246" lon="13.146363589837907"><ele>1318.0</ele><time>2026-04-29T09:27:37.068Z</time></trkpt><trkpt lat="42.624897626349764" lon="13.146183705887237"><ele>1319.0</ele><time>2026-04-29T09:27:38.068Z</time></trkpt><trkpt lat="42.62486367584524" lon="13.146017199311851"><ele>1320.0</ele><time>2026-04-29T09:27:39.068Z</time></trkpt><trkpt lat="42.62483774028873" lon="13.145842853627814"><ele>1321.0</ele><time>2026-04-29T09:27:40.068Z</time></trkpt><trkpt lat="42.624806702489764" lon="13.145673546813741"><ele>1322.0</ele><time>2026-04-29T09:27:41.068Z</time></trkpt><trkpt lat="42.6247796719212" lon="13.145501348973529"><ele>1322.0</ele><time>2026-04-29T09:27:42.068Z</time></trkpt><trkpt lat="42.62475201238708" lon="13.145320858906832"><ele>1322.0</ele><time>2026-04-29T09:27:43.068Z</time></trkpt><trkpt lat="42.62472091435269" lon="13.145152030461894"><ele>1322.0</ele><time>2026-04-29T09:27:44.068Z</time></trkpt><trkpt lat="42.62469240610012" lon="13.144986906394266"><ele>1322.0</ele><time>2026-04-29T09:27:45.068Z</time></trkpt><trkpt lat="42.62465357601513" lon="13.144829864999442"><ele>1321.75</ele><time>2026-04-29T09:27:46.068Z</time></trkpt><trkpt lat="42.62459474356088" lon="13.144671575269822"><ele>1321.5</ele><time>2026-04-29T09:27:47.068Z</time></trkpt><trkpt lat="42.62452541619375" lon="13.14450944791175"><ele>1321.25</ele><time>2026-04-29T09:27:48.068Z</time></trkpt><trkpt lat="42.624463722889324" lon="13.144353420998598"><ele>1321.0</ele><time>2026-04-29T09:27:49.068Z</time></trkpt><trkpt lat="42.62441771211003" lon="13.14426869331614"><ele>1322.5</ele><time>2026-04-29T09:27:50.068Z</time></trkpt><trkpt lat="42.62435546038613" lon="13.144243851109994"><ele>1324.0</ele><time>2026-04-29T09:27:52.068Z</time></trkpt><trkpt lat="42.62425930298613" lon="13.144304068918858"><ele>1325.5</ele><time>2026-04-29T09:27:54.068Z</time></trkpt><trkpt lat="42.624181357568766" lon="13.144348087635997"><ele>1327.0</ele><time>2026-04-29T09:27:55.068Z</time></trkpt><trkpt lat="42.62408523728039" lon="13.144377589864767"><ele>1328.5</ele><time>2026-04-29T09:27:56.068Z</time></trkpt><trkpt lat="42.62399880033491" lon="13.14440537630608"><ele>1330.0</ele><time>2026-04-29T09:27:57.068Z</time></trkpt><trkpt lat="42.62387586343684" lon="13.144404937994244"><ele>1330.0</ele><time>2026-04-29T09:27:58.068Z</time></trkpt><trkpt lat="42.62376209888663" lon="13.144356437934391"><ele>1330.0</ele><time>2026-04-29T09:27:59.068Z</time></trkpt><trkpt lat="42.62366213393509" lon="13.144308144451552"><ele>1330.0</ele><time>2026-04-29T09:28:00.068Z</time></trkpt><trkpt lat="42.623577155372914" lon="13.144254115841232"><ele>1330.0</ele><time>2026-04-29T09:28:01.068Z</time></trkpt><trkpt lat="42.62349417880046" lon="13.14419357404401"><ele>1330.0</ele><time>2026-04-29T09:28:02.068Z</time></trkpt><trkpt lat="42.62341346864017" lon="13.14412464273777"><ele>1328.8</ele><time>2026-04-29T09:28:03.068Z</time></trkpt><trkpt lat="42.623335794935" lon="13.144040197646142"><ele>1327.6</ele><time>2026-04-29T09:28:04.068Z</time></trkpt><trkpt lat="42.62326185452505" lon="13.143960222167985"><ele>1326.4</ele><time>2026-04-29T09:28:05.068Z</time></trkpt><trkpt lat="42.6232011689144" lon="13.143863899497422"><ele>1325.2</ele><time>2026-04-29T09:28:06.068Z</time></trkpt><trkpt lat="42.62313852218668" lon="13.143768895423925"><ele>1324.0</ele><time>2026-04-29T09:28:07.068Z</time></trkpt><trkpt lat="42.623068683736676" lon="13.143687379502563"><ele>1324.0</ele><time>2026-04-29T09:28:08.068Z</time></trkpt><trkpt lat="42.62299079847636" lon="13.143629476529046"><ele>1324.0</ele><time>2026-04-29T09:28:09.068Z</time></trkpt><trkpt lat="42.622909771910734" lon="13.14357165198868"><ele>1324.0</ele><time>2026-04-29T09:28:10.068Z</time></trkpt><trkpt lat="42.622819567786806" lon="13.14350266085407"><ele>1324.0</ele><time>2026-04-29T09:28:11.068Z</time></trkpt><trkpt lat="42.62274224357833" lon="13.143389410214956"><ele>1324.0</ele><time>2026-04-29T09:28:12.068Z</time></trkpt><trkpt lat="42.622685537785905" lon="13.143242900678255"><ele>1322.4</ele><time>2026-04-29T09:28:13.068Z</time></trkpt><trkpt lat="42.62263642426565" lon="13.143124918677959"><ele>1320.8000000000002</ele><time>2026-04-29T09:28:14.068Z</time></trkpt><trkpt lat="42.622570692728914" lon="13.143024536394975"><ele>1319.1999999999998</ele><time>2026-04-29T09:28:15.068Z</time></trkpt><trkpt lat="42.62249992703997" lon="13.14292451207196"><ele>1317.6</ele><time>2026-04-29T09:28:16.068Z</time></trkpt><trkpt lat="42.622418930056995" lon="13.142827613849795"><ele>1316.0</ele><time>2026-04-29T09:28:17.068Z</time></trkpt><trkpt lat="42.62234360853258" lon="13.14273333919335"><ele>1316.0</ele><time>2026-04-29T09:28:18.068Z</time></trkpt><trkpt lat="42.62226840583981" lon="13.142628580380002"><ele>1316.0</ele><time>2026-04-29T09:28:19.068Z</time></trkpt><trkpt lat="42.62218228454323" lon="13.142495074075697"><ele>1316.0</ele><time>2026-04-29T09:28:20.068Z</time></trkpt><trkpt lat="42.622101194400074" lon="13.142347483076462"><ele>1316.0</ele><time>2026-04-29T09:28:21.068Z</time></trkpt><trkpt lat="42.622024958880296" lon="13.142221148215961"><ele>1309.25</ele><time>2026-04-29T09:28:22.068Z</time></trkpt><trkpt lat="42.621947770101485" lon="13.142095729078136"><ele>1302.5</ele><time>2026-04-29T09:28:23.068Z</time></trkpt><trkpt lat="42.62186778708912" lon="13.141980641580519"><ele>1295.75</ele><time>2026-04-29T09:28:24.068Z</time></trkpt><trkpt lat="42.621804688511354" lon="13.141853043894285"><ele>1289.0</ele><time>2026-04-29T09:28:25.068Z</time></trkpt><trkpt lat="42.62173601429755" lon="13.141733993815517"><ele>1289.0</ele><time>2026-04-29T09:28:26.068Z</time></trkpt><trkpt lat="42.62166002141275" lon="13.141599299949938"><ele>1289.0</ele><time>2026-04-29T09:28:27.068Z</time></trkpt><trkpt lat="42.62159245922859" lon="13.141465288007423"><ele>1289.0</ele><time>2026-04-29T09:28:28.068Z</time></trkpt><trkpt lat="42.621534381801524" lon="13.141332331329512"><ele>1289.0</ele><time>2026-04-29T09:28:29.068Z</time></trkpt><trkpt lat="42.621478473159684" lon="13.141188253096166"><ele>1292.75</ele><time>2026-04-29T09:28:30.068Z</time></trkpt><trkpt lat="42.62142163996678" lon="13.141027538868189"><ele>1296.5</ele><time>2026-04-29T09:28:31.068Z</time></trkpt><trkpt lat="42.621340533248826" lon="13.140886788555127"><ele>1300.25</ele><time>2026-04-29T09:28:32.068Z</time></trkpt><trkpt lat="42.621267795602336" lon="13.140744833597454"><ele>1304.0</ele><time>2026-04-29T09:28:33.068Z</time></trkpt><trkpt lat="42.621218794923536" lon="13.140582747634362"><ele>1306.2</ele><time>2026-04-29T09:28:34.068Z</time></trkpt><trkpt lat="42.62117592636653" lon="13.140424914071119"><ele>1308.4</ele><time>2026-04-29T09:28:35.068Z</time></trkpt><trkpt lat="42.621146765115206" lon="13.140265627890448"><ele>1310.6</ele><time>2026-04-29T09:28:36.068Z</time></trkpt><trkpt lat="42.62113892572886" lon="13.140119319664569"><ele>1312.8</ele><time>2026-04-29T09:28:37.068Z</time></trkpt><trkpt lat="42.621139736183096" lon="13.1400002322911"><ele>1315.0</ele><time>2026-04-29T09:28:38.068Z</time></trkpt><trkpt lat="42.62114263971704" lon="13.13989945514945"><ele>1311.2</ele><time>2026-04-29T09:28:39.07Z</time></trkpt><trkpt lat="42.6210776629311" lon="13.139759179450413"><ele>1307.4</ele><time>2026-04-29T09:28:41.071Z</time></trkpt><trkpt lat="42.6210024519963" lon="13.139704249730125"><ele>1303.6</ele><time>2026-04-29T09:28:42.071Z</time></trkpt><trkpt lat="42.62090269036447" lon="13.139673870978628"><ele>1299.8</ele><time>2026-04-29T09:28:43.071Z</time></trkpt><trkpt lat="42.62083187387893" lon="13.13961587680802"><ele>1296.0</ele><time>2026-04-29T09:28:44.071Z</time></trkpt><trkpt lat="42.62074859939955" lon="13.139503336701502"><ele>1296.0</ele><time>2026-04-29T09:28:45.071Z</time></trkpt><trkpt lat="42.620663528004805" lon="13.139363575308499"><ele>1296.0</ele><time>2026-04-29T09:28:46.071Z</time></trkpt><trkpt lat="42.62056204993992" lon="13.139248646270884"><ele>1296.0</ele><time>2026-04-29T09:28:47.071Z</time></trkpt><trkpt lat="42.62045143439336" lon="13.139112577870241"><ele>1296.0</ele><time>2026-04-29T09:28:48.071Z</time></trkpt><trkpt lat="42.62037180197133" lon="13.138960337875389"><ele>1296.8333333333333</ele><time>2026-04-29T09:28:49.071Z</time></trkpt><trkpt lat="42.6203045712723" lon="13.138865013568665"><ele>1297.6666666666667</ele><time>2026-04-29T09:28:50.071Z</time></trkpt><trkpt lat="42.62025952830305" lon="13.138796073219877"><ele>1298.5</ele><time>2026-04-29T09:28:51.071Z</time></trkpt><trkpt lat="42.62015624871899" lon="13.138766576227876"><ele>1299.3333333333335</ele><time>2026-04-29T09:28:53.071Z</time></trkpt><trkpt lat="42.62008537996879" lon="13.13879668957927"><ele>1300.1666666666667</ele><time>2026-04-29T09:28:54.071Z</time></trkpt><trkpt lat="42.62001336026549" lon="13.138884092848233"><ele>1301.0</ele><time>2026-04-29T09:28:55.071Z</time></trkpt><trkpt lat="42.619955498807734" lon="13.13895786229647"><ele>1301.0</ele><time>2026-04-29T09:28:56.071Z</time></trkpt><trkpt lat="42.61988397000429" lon="13.139008591547944"><ele>1301.0</ele><time>2026-04-29T09:28:57.071Z</time></trkpt><trkpt lat="42.61982462483642" lon="13.139042479715238"><ele>1301.0</ele><time>2026-04-29T09:28:58.071Z</time></trkpt><trkpt lat="42.61979634313171" lon="13.139123758923262"><ele>1301.0</ele><time>2026-04-29T09:28:59.071Z</time></trkpt><trkpt lat="42.619777535095096" lon="13.139279697195"><ele>1301.0</ele><time>2026-04-29T09:29:00.071Z</time></trkpt><trkpt lat="42.61976768953058" lon="13.13946128261475"><ele>1297.4</ele><time>2026-04-29T09:29:01.071Z</time></trkpt><trkpt lat="42.61976236914258" lon="13.139648543760067"><ele>1293.8</ele><time>2026-04-29T09:29:02.071Z</time></trkpt><trkpt lat="42.61975854646946" lon="13.139786201920254"><ele>1290.2</ele><time>2026-04-29T09:29:03.071Z</time></trkpt><trkpt lat="42.61979391348568" lon="13.139921893143416"><ele>1286.6000000000001</ele><time>2026-04-29T09:29:04.071Z</time></trkpt><trkpt lat="42.61980230847478" lon="13.140021556545848"><ele>1283.0</ele><time>2026-04-29T09:29:05.071Z</time></trkpt><trkpt lat="42.619728782213976" lon="13.140149640400862"><ele>1282.8000000000002</ele><time>2026-04-29T09:29:07.071Z</time></trkpt><trkpt lat="42.61966116747098" lon="13.140201256037841"><ele>1282.6</ele><time>2026-04-29T09:29:08.071Z</time></trkpt><trkpt lat="42.619561013984" lon="13.14020730993081"><ele>1282.4</ele><time>2026-04-29T09:29:09.071Z</time></trkpt><trkpt lat="42.619447756988954" lon="13.140181401527613"><ele>1282.1999999999998</ele><time>2026-04-29T09:29:10.071Z</time></trkpt><trkpt lat="42.61933253038084" lon="13.140137290492905"><ele>1282.0</ele><time>2026-04-29T09:29:11.071Z</time></trkpt><trkpt lat="42.61921828949959" lon="13.140040614789248"><ele>1282.0</ele><time>2026-04-29T09:29:12.071Z</time></trkpt><trkpt lat="42.619134803313635" lon="13.139946703261007"><ele>1282.0</ele><time>2026-04-29T09:29:13.071Z</time></trkpt><trkpt lat="42.61905238255234" lon="13.139860563853915"><ele>1282.0</ele><time>2026-04-29T09:29:14.071Z</time></trkpt><trkpt lat="42.61895393625365" lon="13.139753570340602"><ele>1282.0</ele><time>2026-04-29T09:29:15.071Z</time></trkpt><trkpt lat="42.6188538714748" lon="13.139625430058514"><ele>1286.3999999999999</ele><time>2026-04-29T09:29:16.071Z</time></trkpt><trkpt lat="42.618771806452294" lon="13.139501007326356"><ele>1290.8</ele><time>2026-04-29T09:29:17.071Z</time></trkpt><trkpt lat="42.61870287129637" lon="13.139411903255654"><ele>1295.2</ele><time>2026-04-29T09:29:18.071Z</time></trkpt><trkpt lat="42.61862940854613" lon="13.139343546187149"><ele>1299.6</ele><time>2026-04-29T09:29:19.071Z</time></trkpt><trkpt lat="42.61854011341543" lon="13.139290447452105"><ele>1304.0</ele><time>2026-04-29T09:29:20.071Z</time></trkpt><trkpt lat="42.61842836531923" lon="13.13926939511089"><ele>1304.0</ele><time>2026-04-29T09:29:21.071Z</time></trkpt><trkpt lat="42.61831041075088" lon="13.139253056455965"><ele>1304.0</ele><time>2026-04-29T09:29:22.071Z</time></trkpt><trkpt lat="42.61822639548416" lon="13.139201981014292"><ele>1304.0</ele><time>2026-04-29T09:29:23.071Z</time></trkpt><trkpt lat="42.618153456590385" lon="13.139125608954052"><ele>1304.0</ele><time>2026-04-29T09:29:24.071Z</time></trkpt><trkpt lat="42.618075055710065" lon="13.139028331198196"><ele>1304.0</ele><time>2026-04-29T09:29:25.071Z</time></trkpt><trkpt lat="42.61799101383109" lon="13.138934565764044"><ele>1309.75</ele><time>2026-04-29T09:29:26.071Z</time></trkpt><trkpt lat="42.61790698796437" lon="13.138819360210992"><ele>1315.5</ele><time>2026-04-29T09:29:27.071Z</time></trkpt><trkpt lat="42.61782270279652" lon="13.138713952344103"><ele>1321.25</ele><time>2026-04-29T09:29:28.071Z</time></trkpt><trkpt lat="42.61773656013998" lon="13.138600586391668"><ele>1327.0</ele><time>2026-04-29T09:29:29.071Z</time></trkpt><trkpt lat="42.61766171262266" lon="13.138501705855735"><ele>1327.0</ele><time>2026-04-29T09:29:30.071Z</time></trkpt><trkpt lat="42.61761119459219" lon="13.138419953676054"><ele>1327.0</ele><time>2026-04-29T09:29:31.071Z</time></trkpt><trkpt lat="42.61756805396088" lon="13.138356104118603"><ele>1327.0</ele><time>2026-04-29T09:29:32.071Z</time></trkpt><trkpt lat="42.617503097148045" lon="13.13826637064785"><ele>1327.0</ele><time>2026-04-29T09:29:34.071Z</time></trkpt><trkpt lat="42.617416736371666" lon="13.138320935274674"><ele>1327.0</ele><time>2026-04-29T09:29:36.071Z</time></trkpt><trkpt lat="42.61739662811939" lon="13.13841709618934"><ele>1327.0</ele><time>2026-04-29T09:29:37.071Z</time></trkpt><trkpt lat="42.61739071016476" lon="13.138561278022188"><ele>1327.0</ele><time>2026-04-29T09:29:38.071Z</time></trkpt><trkpt lat="42.61741171767741" lon="13.138739992851649"><ele>1327.0</ele><time>2026-04-29T09:29:39.071Z</time></trkpt><trkpt lat="42.617431993690566" lon="13.138894945520535"><ele>1327.0</ele><time>2026-04-29T09:29:40.071Z</time></trkpt><trkpt lat="42.61744541595305" lon="13.139037536201316"><ele>1327.0</ele><time>2026-04-29T09:29:41.071Z</time></trkpt><trkpt lat="42.61743592261847" lon="13.139161296588915"><ele>1327.0</ele><time>2026-04-29T09:29:42.071Z</time></trkpt><trkpt lat="42.61743542315881" lon="13.139262710292623"><ele>1324.3999999999999</ele><time>2026-04-29T09:29:43.071Z</time></trkpt><trkpt lat="42.617414030890096" lon="13.139374097942106"><ele>1321.8</ele><time>2026-04-29T09:29:44.071Z</time></trkpt><trkpt lat="42.61736692479231" lon="13.139518225990704"><ele>1319.2</ele><time>2026-04-29T09:29:45.071Z</time></trkpt><trkpt lat="42.61730843751026" lon="13.139672488571398"><ele>1316.6</ele><time>2026-04-29T09:29:46.071Z</time></trkpt><trkpt lat="42.61727168630038" lon="13.139814379990057"><ele>1314.0</ele><time>2026-04-29T09:29:47.071Z</time></trkpt><trkpt lat="42.61724468483024" lon="13.139914569876355"><ele>1313.4</ele><time>2026-04-29T09:29:48.071Z</time></trkpt><trkpt lat="42.617239980392604" lon="13.140061388580813"><ele>1312.8000000000002</ele><time>2026-04-29T09:29:50.071Z</time></trkpt><trkpt lat="42.61719393751567" lon="13.14019251546439"><ele>1312.1999999999998</ele><time>2026-04-29T09:29:52.071Z</time></trkpt><trkpt lat="42.61712935832289" lon="13.140216071803554"><ele>1311.6</ele><time>2026-04-29T09:29:53.071Z</time></trkpt><trkpt lat="42.617039743415525" lon="13.140196880325357"><ele>1311.0</ele><time>2026-04-29T09:29:54.071Z</time></trkpt><trkpt lat="42.616942413942645" lon="13.14013897150208"><ele>1311.6</ele><time>2026-04-29T09:29:55.071Z</time></trkpt><trkpt lat="42.61684579662562" lon="13.14006018658153"><ele>1312.1999999999998</ele><time>2026-04-29T09:29:56.071Z</time></trkpt><trkpt lat="42.616748857465076" lon="13.13998162840073"><ele>1312.8000000000002</ele><time>2026-04-29T09:29:57.071Z</time></trkpt><trkpt lat="42.61667566221262" lon="13.13991421975362"><ele>1313.4</ele><time>2026-04-29T09:29:58.071Z</time></trkpt><trkpt lat="42.616616820985385" lon="13.139821829826328"><ele>1314.0</ele><time>2026-04-29T09:29:59.071Z</time></trkpt><trkpt lat="42.616582092098355" lon="13.139700631528648"><ele>1314.0</ele><time>2026-04-29T09:30:00.071Z</time></trkpt><trkpt lat="42.61656244653055" lon="13.139585291855262"><ele>1314.0</ele><time>2026-04-29T09:30:01.071Z</time></trkpt><trkpt lat="42.616549543488304" lon="13.139469874655534"><ele>1314.0</ele><time>2026-04-29T09:30:02.071Z</time></trkpt><trkpt lat="42.61653001532663" lon="13.139353698123028"><ele>1314.0</ele><time>2026-04-29T09:30:03.071Z</time></trkpt><trkpt lat="42.61648047983699" lon="13.139251474283483"><ele>1314.0</ele><time>2026-04-29T09:30:04.071Z</time></trkpt><trkpt lat="42.616398241257286" lon="13.13915972579422"><ele>1314.0</ele><time>2026-04-29T09:30:05.071Z</time></trkpt><trkpt lat="42.61627370812839" lon="13.139071620461854"><ele>1314.0</ele><time>2026-04-29T09:30:06.071Z</time></trkpt><trkpt lat="42.616180694753524" lon="13.139005536943241"><ele>1314.0</ele><time>2026-04-29T09:30:07.071Z</time></trkpt><trkpt lat="42.61609666120409" lon="13.138942265233352"><ele>1314.0</ele><time>2026-04-29T09:30:08.071Z</time></trkpt><trkpt lat="42.61601961950717" lon="13.138861024236613"><ele>1314.0</ele><time>2026-04-29T09:30:09.071Z</time></trkpt><trkpt lat="42.61594253008299" lon="13.138781004375325"><ele>1311.0</ele><time>2026-04-29T09:30:10.071Z</time></trkpt><trkpt lat="42.61587238004958" lon="13.138682642336164"><ele>1308.0</ele><time>2026-04-29T09:30:11.071Z</time></trkpt><trkpt lat="42.6157921539726" lon="13.138568930184457"><ele>1305.0</ele><time>2026-04-29T09:30:12.071Z</time></trkpt><trkpt lat="42.61572173441345" lon="13.138428389931383"><ele>1302.0</ele><time>2026-04-29T09:30:13.071Z</time></trkpt><trkpt lat="42.61563834660014" lon="13.13830489751422"><ele>1307.0</ele><time>2026-04-29T09:30:14.071Z</time></trkpt><trkpt lat="42.61556850160203" lon="13.138163264261804"><ele>1312.0</ele><time>2026-04-29T09:30:15.071Z</time></trkpt><trkpt lat="42.61548899989044" lon="13.138005994954733"><ele>1317.0</ele><time>2026-04-29T09:30:16.071Z</time></trkpt><trkpt lat="42.61540710207132" lon="13.137854075951218"><ele>1322.0</ele><time>2026-04-29T09:30:17.071Z</time></trkpt><trkpt lat="42.615338461171405" lon="13.137714850416396"><ele>1317.0</ele><time>2026-04-29T09:30:18.071Z</time></trkpt><trkpt lat="42.615281234632334" lon="13.137571226436826"><ele>1312.0</ele><time>2026-04-29T09:30:19.071Z</time></trkpt><trkpt lat="42.615220268121924" lon="13.137445038674503"><ele>1307.0</ele><time>2026-04-29T09:30:20.071Z</time></trkpt><trkpt lat="42.615137184439064" lon="13.137330619962487"><ele>1302.0</ele><time>2026-04-29T09:30:21.071Z</time></trkpt><trkpt lat="42.61504836204723" lon="13.1372280209043"><ele>1302.0</ele><time>2026-04-29T09:30:22.071Z</time></trkpt><trkpt lat="42.614961816781864" lon="13.137119729423889"><ele>1302.0</ele><time>2026-04-29T09:30:23.071Z</time></trkpt><trkpt lat="42.61488551075017" lon="13.13699802237551"><ele>1302.0</ele><time>2026-04-29T09:30:24.071Z</time></trkpt><trkpt lat="42.614814178638774" lon="13.13687802044204"><ele>1302.0</ele><time>2026-04-29T09:30:25.071Z</time></trkpt><trkpt lat="42.61474518583286" lon="13.13677248388953"><ele>1302.0</ele><time>2026-04-29T09:30:26.071Z</time></trkpt><trkpt lat="42.61467215570137" lon="13.136674783088345"><ele>1302.0</ele><time>2026-04-29T09:30:27.071Z</time></trkpt><trkpt lat="42.614597160867696" lon="13.13659399989332"><ele>1302.0</ele><time>2026-04-29T09:30:28.071Z</time></trkpt><trkpt lat="42.614518366105195" lon="13.136527916177863"><ele>1302.0</ele><time>2026-04-29T09:30:29.071Z</time></trkpt><trkpt lat="42.614446728206545" lon="13.136469443061943"><ele>1302.0</ele><time>2026-04-29T09:30:30.071Z</time></trkpt><trkpt lat="42.61440446941325" lon="13.136391931727411"><ele>1302.0</ele><time>2026-04-29T09:30:31.071Z</time></trkpt><trkpt lat="42.614383892738005" lon="13.136290978553294"><ele>1302.1999999999998</ele><time>2026-04-29T09:30:32.071Z</time></trkpt><trkpt lat="42.61436625789961" lon="13.13615614746118"><ele>1302.4</ele><time>2026-04-29T09:30:33.071Z</time></trkpt><trkpt lat="42.614350530645126" lon="13.136003111952277"><ele>1302.6</ele><time>2026-04-29T09:30:34.071Z</time></trkpt><trkpt lat="42.614327835750714" lon="13.135874669758673"><ele>1302.8000000000002</ele><time>2026-04-29T09:30:35.071Z</time></trkpt><trkpt lat="42.61429218968665" lon="13.135772127229638"><ele>1303.0</ele><time>2026-04-29T09:30:36.071Z</time></trkpt><trkpt lat="42.61424224234949" lon="13.135667666877552"><ele>1303.0</ele><time>2026-04-29T09:30:37.071Z</time></trkpt><trkpt lat="42.61417789522043" lon="13.135579843998029"><ele>1303.0</ele><time>2026-04-29T09:30:38.071Z</time></trkpt><trkpt lat="42.61409628268085" lon="13.135517392840507"><ele>1303.0</ele><time>2026-04-29T09:30:39.071Z</time></trkpt><trkpt lat="42.614018616290664" lon="13.135471685566298"><ele>1303.0</ele><time>2026-04-29T09:30:40.071Z</time></trkpt><trkpt lat="42.61394098972192" lon="13.135429529568688"><ele>1303.0</ele><time>2026-04-29T09:30:41.071Z</time></trkpt><trkpt lat="42.613858192072094" lon="13.13540927822709"><ele>1303.0</ele><time>2026-04-29T09:30:42.071Z</time></trkpt><trkpt lat="42.61376734510795" lon="13.135410191401606"><ele>1303.0</ele><time>2026-04-29T09:30:43.071Z</time></trkpt><trkpt lat="42.613694948188744" lon="13.135398210396367"><ele>1303.0</ele><time>2026-04-29T09:30:44.071Z</time></trkpt><trkpt lat="42.61362514129061" lon="13.135343873456003"><ele>1303.0</ele><time>2026-04-29T09:30:45.073Z</time></trkpt><trkpt lat="42.613560717139315" lon="13.135285792787853"><ele>1303.0</ele><time>2026-04-29T09:30:46.073Z</time></trkpt><trkpt lat="42.613502396145364" lon="13.135242851777097"><ele>1303.0</ele><time>2026-04-29T09:30:47.073Z</time></trkpt><trkpt lat="42.61340073021429" lon="13.135248779670391"><ele>1303.0</ele><time>2026-04-29T09:30:49.073Z</time></trkpt><trkpt lat="42.613318716419855" lon="13.135346077381369"><ele>1299.5</ele><time>2026-04-29T09:30:51.074Z</time></trkpt><trkpt lat="42.61330645232447" lon="13.135433836280056"><ele>1296.0</ele><time>2026-04-29T09:30:52.073Z</time></trkpt><trkpt lat="42.61331878048171" lon="13.135537765241903"><ele>1292.5</ele><time>2026-04-29T09:30:53.073Z</time></trkpt><trkpt lat="42.61335278540769" lon="13.13564683438599"><ele>1289.0</ele><time>2026-04-29T09:30:54.074Z</time></trkpt><trkpt lat="42.613413443571524" lon="13.135751474487158"><ele>1285.5</ele><time>2026-04-29T09:30:55.073Z</time></trkpt><trkpt lat="42.61347855536857" lon="13.135861110248939"><ele>1282.0</ele><time>2026-04-29T09:30:56.073Z</time></trkpt><trkpt lat="42.61352814998707" lon="13.135980085251907"><ele>1280.8</ele><time>2026-04-29T09:30:57.073Z</time></trkpt><trkpt lat="42.613534575898676" lon="13.13611466625161"><ele>1279.6</ele><time>2026-04-29T09:30:58.073Z</time></trkpt><trkpt lat="42.613540052816276" lon="13.136215950394044"><ele>1278.3999999999999</ele><time>2026-04-29T09:30:59.073Z</time></trkpt><trkpt lat="42.61351195110345" lon="13.13631663076453"><ele>1277.1999999999998</ele><time>2026-04-29T09:31:00.073Z</time></trkpt><trkpt lat="42.6134883973131" lon="13.136433602697897"><ele>1276.0</ele><time>2026-04-29T09:31:01.073Z</time></trkpt><trkpt lat="42.61343841794874" lon="13.136573776879388"><ele>1275.8</ele><time>2026-04-29T09:31:02.073Z</time></trkpt><trkpt lat="42.6133893472087" lon="13.136701126295296"><ele>1275.6</ele><time>2026-04-29T09:31:03.073Z</time></trkpt><trkpt lat="42.61335710043278" lon="13.136817532295868"><ele>1275.4</ele><time>2026-04-29T09:31:04.073Z</time></trkpt><trkpt lat="42.613354667809624" lon="13.13693796232968"><ele>1275.2</ele><time>2026-04-29T09:31:05.073Z</time></trkpt><trkpt lat="42.613378259201575" lon="13.137074589974334"><ele>1275.0</ele><time>2026-04-29T09:31:06.073Z</time></trkpt><trkpt lat="42.61343356521262" lon="13.137240844623685"><ele>1274.0</ele><time>2026-04-29T09:31:07.073Z</time></trkpt><trkpt lat="42.6135002581903" lon="13.137409519148468"><ele>1273.0</ele><time>2026-04-29T09:31:08.073Z</time></trkpt><trkpt lat="42.61354831241965" lon="13.137539518329605"><ele>1272.0</ele><time>2026-04-29T09:31:09.073Z</time></trkpt><trkpt lat="42.6135881037348" lon="13.137677278558368"><ele>1271.0</ele><time>2026-04-29T09:31:10.073Z</time></trkpt><trkpt lat="42.613627112295426" lon="13.137800270283897"><ele>1267.1666666666667</ele><time>2026-04-29T09:31:11.073Z</time></trkpt><trkpt lat="42.613657669174714" lon="13.137906456666064"><ele>1263.3333333333335</ele><time>2026-04-29T09:31:12.073Z</time></trkpt><trkpt lat="42.61368604396473" lon="13.138020774382813"><ele>1259.5</ele><time>2026-04-29T09:31:13.073Z</time></trkpt><trkpt lat="42.61368702160139" lon="13.138116370647287"><ele>1255.6666666666667</ele><time>2026-04-29T09:31:14.073Z</time></trkpt><trkpt lat="42.613691325927604" lon="13.138222039430254"><ele>1251.8333333333333</ele><time>2026-04-29T09:31:15.073Z</time></trkpt><trkpt lat="42.61369475352311" lon="13.138346780171684"><ele>1248.0</ele><time>2026-04-29T09:31:16.073Z</time></trkpt><trkpt lat="42.613704918587" lon="13.138478518917388"><ele>1246.6666666666667</ele><time>2026-04-29T09:31:17.073Z</time></trkpt><trkpt lat="42.61370676614821" lon="13.138605614466499"><ele>1245.3333333333333</ele><time>2026-04-29T09:31:18.073Z</time></trkpt><trkpt lat="42.61371458236236" lon="13.138698285089246"><ele>1244.0</ele><time>2026-04-29T09:31:19.073Z</time></trkpt><trkpt lat="42.61369930038259" lon="13.138794054320046"><ele>1242.6666666666665</ele><time>2026-04-29T09:31:20.073Z</time></trkpt><trkpt lat="42.61366444346718" lon="13.138892686882745"><ele>1241.3333333333333</ele><time>2026-04-29T09:31:21.073Z</time></trkpt><trkpt lat="42.61362562411787" lon="13.138989299545532"><ele>1240.0</ele><time>2026-04-29T09:31:22.073Z</time></trkpt><trkpt lat="42.61359557408764" lon="13.139071650323782"><ele>1244.2</ele><time>2026-04-29T09:31:23.073Z</time></trkpt><trkpt lat="42.61353516573345" lon="13.139200983479045"><ele>1248.4</ele><time>2026-04-29T09:31:25.073Z</time></trkpt><trkpt lat="42.613495613750956" lon="13.139295517847545"><ele>1252.6</ele><time>2026-04-29T09:31:28.073Z</time></trkpt><trkpt lat="42.61358262505502" lon="13.13924862440758"><ele>1256.8</ele><time>2026-04-29T09:31:31.073Z</time></trkpt><trkpt lat="42.613595235641434" lon="13.139131293586695"><ele>1261.0</ele><time>2026-04-29T09:31:32.073Z</time></trkpt><trkpt lat="42.6136219131516" lon="13.13899762247217"><ele>1257.5</ele><time>2026-04-29T09:31:33.073Z</time></trkpt><trkpt lat="42.613666829070105" lon="13.138878900142432"><ele>1254.0</ele><time>2026-04-29T09:31:34.073Z</time></trkpt><trkpt lat="42.61369991425473" lon="13.138791837895912"><ele>1250.5</ele><time>2026-04-29T09:31:35.073Z</time></trkpt><trkpt lat="42.613722081819276" lon="13.138695486296664"><ele>1247.0</ele><time>2026-04-29T09:31:36.073Z</time></trkpt><trkpt lat="42.61373714565264" lon="13.138602556381649"><ele>1243.5</ele><time>2026-04-29T09:31:37.073Z</time></trkpt><trkpt lat="42.61373809740182" lon="13.138461468349762"><ele>1240.0</ele><time>2026-04-29T09:31:38.073Z</time></trkpt><trkpt lat="42.61370874652882" lon="13.138291592367459"><ele>1241.6</ele><time>2026-04-29T09:31:39.073Z</time></trkpt><trkpt lat="42.61369512300212" lon="13.138161768250654"><ele>1243.2</ele><time>2026-04-29T09:31:40.073Z</time></trkpt><trkpt lat="42.61368211942026" lon="13.138035880755083"><ele>1244.8</ele><time>2026-04-29T09:31:41.073Z</time></trkpt><trkpt lat="42.61366968596033" lon="13.13791765700295"><ele>1246.4</ele><time>2026-04-29T09:31:42.073Z</time></trkpt><trkpt lat="42.61365155943292" lon="13.13780669379765"><ele>1248.0</ele><time>2026-04-29T09:31:43.073Z</time></trkpt><trkpt lat="42.61361440294846" lon="13.137676387747417"><ele>1253.75</ele><time>2026-04-29T09:31:44.073Z</time></trkpt><trkpt lat="42.613557041736925" lon="13.137534036050345"><ele>1259.5</ele><time>2026-04-29T09:31:45.073Z</time></trkpt><trkpt lat="42.613501222194174" lon="13.13739211803479"><ele>1265.25</ele><time>2026-04-29T09:31:46.073Z</time></trkpt><trkpt lat="42.6134527733013" lon="13.137211686773757"><ele>1271.0</ele><time>2026-04-29T09:31:47.073Z</time></trkpt><trkpt lat="42.613406111447546" lon="13.137045713278887"><ele>1271.8</ele><time>2026-04-29T09:31:48.073Z</time></trkpt><trkpt lat="42.61336563505879" lon="13.136919827022266"><ele>1272.6</ele><time>2026-04-29T09:31:49.073Z</time></trkpt><trkpt lat="42.61336095096464" lon="13.136801634537786"><ele>1273.4</ele><time>2026-04-29T09:31:50.073Z</time></trkpt><trkpt lat="42.61338176805724" lon="13.136666583837078"><ele>1274.2</ele><time>2026-04-29T09:31:51.073Z</time></trkpt><trkpt lat="42.61343152196679" lon="13.13652565498135"><ele>1275.0</ele><time>2026-04-29T09:31:52.073Z</time></trkpt><trkpt lat="42.61349411659002" lon="13.136396162901274"><ele>1275.2</ele><time>2026-04-29T09:31:53.073Z</time></trkpt><trkpt lat="42.613548551604616" lon="13.136276358726995"><ele>1275.4</ele><time>2026-04-29T09:31:54.073Z</time></trkpt><trkpt lat="42.61357709997447" lon="13.136171317965783"><ele>1275.6</ele><time>2026-04-29T09:31:55.073Z</time></trkpt><trkpt lat="42.61358595770524" lon="13.136053442299838"><ele>1275.8</ele><time>2026-04-29T09:31:56.073Z</time></trkpt><trkpt lat="42.61358978890228" lon="13.135929025057203"><ele>1276.0</ele><time>2026-04-29T09:31:57.073Z</time></trkpt><trkpt lat="42.61355520485822" lon="13.135786112460886"><ele>1277.0</ele><time>2026-04-29T09:31:58.073Z</time></trkpt><trkpt lat="42.61349604609118" lon="13.135647272754143"><ele>1278.0</ele><time>2026-04-29T09:31:59.073Z</time></trkpt><trkpt lat="42.61343696597771" lon="13.13557194903416"><ele>1279.0</ele><time>2026-04-29T09:32:00.073Z</time></trkpt><trkpt lat="42.613396756699544" lon="13.13550403567249"><ele>1280.0</ele><time>2026-04-29T09:32:01.073Z</time></trkpt><trkpt lat="42.61347166388088" lon="13.135487360557082"><ele>1281.0</ele><time>2026-04-29T09:32:07.073Z</time></trkpt><trkpt lat="42.61353527882636" lon="13.135565240238726"><ele>1282.0</ele><time>2026-04-29T09:32:09.073Z</time></trkpt><trkpt lat="42.61356626738849" lon="13.135643401056313"><ele>1282.0</ele><time>2026-04-29T09:32:12.073Z</time></trkpt><trkpt lat="42.613619608652094" lon="13.135718149837917"><ele>1282.0</ele><time>2026-04-29T09:32:16.073Z</time></trkpt><trkpt lat="42.61369728119384" lon="13.135772335947655"><ele>1282.0</ele><time>2026-04-29T09:32:19.073Z</time></trkpt><trkpt lat="42.613730360778646" lon="13.135867053693762"><ele>1282.0</ele><time>2026-04-29T09:32:24.073Z</time></trkpt><trkpt lat="42.613772878955565" lon="13.135945246956139"><ele>1282.0</ele><time>2026-04-29T09:32:28.073Z</time></trkpt><trkpt lat="42.61379536174878" lon="13.136027843277288"><ele>1282.0</ele><time>2026-04-29T09:32:35.073Z</time></trkpt><trkpt lat="42.613825622513744" lon="13.136127933832501"><ele>1281.7142857142858</ele><time>2026-04-29T09:32:42.073Z</time></trkpt><trkpt lat="42.61380312621182" lon="13.136210845767769"><ele>1281.4285714285713</ele><time>2026-04-29T09:32:47.073Z</time></trkpt><trkpt lat="42.61373688255345" lon="13.136290673316337"><ele>1281.142857142857</ele><time>2026-04-29T09:32:49.073Z</time></trkpt><trkpt lat="42.61371075492781" lon="13.136369147062197"><ele>1280.857142857143</ele><time>2026-04-29T09:32:51.075Z</time></trkpt><trkpt lat="42.613713077935586" lon="13.136458030130475"><ele>1280.5714285714287</ele><time>2026-04-29T09:32:54.076Z</time></trkpt><trkpt lat="42.61372281410183" lon="13.136563316216959"><ele>1280.2857142857142</ele><time>2026-04-29T09:32:57.075Z</time></trkpt><trkpt lat="42.61369874163084" lon="13.1366659361331"><ele>1280.0</ele><time>2026-04-29T09:33:00.076Z</time></trkpt><trkpt lat="42.61372976757191" lon="13.136767139251"><ele>1277.1666666666667</ele><time>2026-04-29T09:33:03.075Z</time></trkpt><trkpt lat="42.61376873217472" lon="13.136861336694777"><ele>1274.3333333333335</ele><time>2026-04-29T09:33:07.076Z</time></trkpt><trkpt lat="42.61379102707241" lon="13.136966960027735"><ele>1271.5</ele><time>2026-04-29T09:33:11.076Z</time></trkpt><trkpt lat="42.61381888881649" lon="13.137063103244301"><ele>1268.6666666666667</ele><time>2026-04-29T09:33:13.076Z</time></trkpt><trkpt lat="42.613889925726774" lon="13.137121713186309"><ele>1265.8333333333333</ele><time>2026-04-29T09:33:16.076Z</time></trkpt><trkpt lat="42.613908570419206" lon="13.13721957932319"><ele>1263.0</ele><time>2026-04-29T09:33:20.076Z</time></trkpt><trkpt lat="42.61394602482396" lon="13.137320677774863"><ele>1260.5</ele><time>2026-04-29T09:33:23.076Z</time></trkpt><trkpt lat="42.61394877939771" lon="13.137418245601266"><ele>1258.0</ele><time>2026-04-29T09:33:25.076Z</time></trkpt><trkpt lat="42.61398067384869" lon="13.137511395753044"><ele>1255.5</ele><time>2026-04-29T09:33:27.076Z</time></trkpt><trkpt lat="42.61398636768209" lon="13.137625162156114"><ele>1253.0</ele><time>2026-04-29T09:33:29.076Z</time></trkpt><trkpt lat="42.614018048497" lon="13.137722223061989"><ele>1250.5</ele><time>2026-04-29T09:33:31.076Z</time></trkpt><trkpt lat="42.61401533987965" lon="13.13783458415146"><ele>1248.0</ele><time>2026-04-29T09:33:32.076Z</time></trkpt><trkpt lat="42.61403351914052" lon="13.137932471200454"><ele>1248.0</ele><time>2026-04-29T09:33:33.076Z</time></trkpt><trkpt lat="42.614038511677876" lon="13.138042314381181"><ele>1248.0</ele><time>2026-04-29T09:33:34.076Z</time></trkpt><trkpt lat="42.61405221816168" lon="13.138135476313998"><ele>1248.0</ele><time>2026-04-29T09:33:35.076Z</time></trkpt><trkpt lat="42.614098423711766" lon="13.138277343331229"><ele>1248.0</ele><time>2026-04-29T09:33:37.076Z</time></trkpt><trkpt lat="42.61414272223717" lon="13.138437815581707"><ele>1248.0</ele><time>2026-04-29T09:33:39.076Z</time></trkpt><trkpt lat="42.61414871807563" lon="13.138528275554837"><ele>1246.4</ele><time>2026-04-29T09:33:40.076Z</time></trkpt><trkpt lat="42.61415544826407" lon="13.138650499179167"><ele>1244.8</ele><time>2026-04-29T09:33:41.076Z</time></trkpt><trkpt lat="42.61413548346159" lon="13.138793520563725"><ele>1243.2</ele><time>2026-04-29T09:33:43.076Z</time></trkpt><trkpt lat="42.61411604232024" lon="13.138945095493654"><ele>1241.6</ele><time>2026-04-29T09:33:45.076Z</time></trkpt><trkpt lat="42.61410156469564" lon="13.13908205484027"><ele>1240.0</ele><time>2026-04-29T09:33:47.076Z</time></trkpt><trkpt lat="42.61409224141605" lon="13.139194517539782"><ele>1238.8333333333333</ele><time>2026-04-29T09:33:49.076Z</time></trkpt><trkpt lat="42.61413793805768" lon="13.139316630310237"><ele>1237.6666666666665</ele><time>2026-04-29T09:33:51.076Z</time></trkpt><trkpt lat="42.614188004712865" lon="13.139384746891587"><ele>1236.5</ele><time>2026-04-29T09:33:52.076Z</time></trkpt><trkpt lat="42.61424569415136" lon="13.13946917447746"><ele>1235.3333333333333</ele><time>2026-04-29T09:33:54.076Z</time></trkpt><trkpt lat="42.61427884514105" lon="13.139554336898533"><ele>1234.1666666666667</ele><time>2026-04-29T09:33:56.076Z</time></trkpt><trkpt lat="42.61427688401" lon="13.139663368510337"><ele>1233.0</ele><time>2026-04-29T09:33:58.076Z</time></trkpt><trkpt lat="42.61426617764808" lon="13.139776587289537"><ele>1232.8333333333333</ele><time>2026-04-29T09:34:00.076Z</time></trkpt><trkpt lat="42.614248358532144" lon="13.139894817800245"><ele>1232.6666666666667</ele><time>2026-04-29T09:34:02.076Z</time></trkpt><trkpt lat="42.614206094970555" lon="13.139985289562713"><ele>1232.5</ele><time>2026-04-29T09:34:04.076Z</time></trkpt><trkpt lat="42.614143462957294" lon="13.140055503879903"><ele>1232.3333333333335</ele><time>2026-04-29T09:34:07.076Z</time></trkpt><trkpt lat="42.614095646693" lon="13.14014480234942"><ele>1232.1666666666667</ele><time>2026-04-29T09:34:09.076Z</time></trkpt><trkpt lat="42.6140761921133" lon="13.140259725313081"><ele>1232.0</ele><time>2026-04-29T09:34:11.076Z</time></trkpt><trkpt lat="42.614009204359924" lon="13.140343775897408"><ele>1232.0</ele><time>2026-04-29T09:34:13.076Z</time></trkpt><trkpt lat="42.6139548077092" lon="13.14046730035908"><ele>1232.0</ele><time>2026-04-29T09:34:16.076Z</time></trkpt><trkpt lat="42.613896879967776" lon="13.140549460410915"><ele>1232.0</ele><time>2026-04-29T09:34:18.076Z</time></trkpt><trkpt lat="42.613857511403815" lon="13.14066740777674"><ele>1232.0</ele><time>2026-04-29T09:34:20.076Z</time></trkpt><trkpt lat="42.61379161550838" lon="13.140734327058155"><ele>1232.0</ele><time>2026-04-29T09:34:22.076Z</time></trkpt><trkpt lat="42.613726648140855" lon="13.140790065215619"><ele>1232.0</ele><time>2026-04-29T09:34:24.076Z</time></trkpt><trkpt lat="42.61365487088256" lon="13.140830276243387"><ele>1231.1666666666667</ele><time>2026-04-29T09:34:26.076Z</time></trkpt><trkpt lat="42.6135894196686" lon="13.140893980053688"><ele>1230.3333333333335</ele><time>2026-04-29T09:34:28.076Z</time></trkpt><trkpt lat="42.6135317872115" lon="13.140932252149453"><ele>1229.5</ele><time>2026-04-29T09:34:30.076Z</time></trkpt><trkpt lat="42.61345332126263" lon="13.140984288015158"><ele>1228.6666666666667</ele><time>2026-04-29T09:34:32.076Z</time></trkpt><trkpt lat="42.61339914090779" lon="13.141061331459396"><ele>1227.8333333333333</ele><time>2026-04-29T09:34:34.076Z</time></trkpt><trkpt lat="42.61336539273684" lon="13.1411857114147"><ele>1227.0</ele><time>2026-04-29T09:34:36.076Z</time></trkpt><trkpt lat="42.613315088405" lon="13.141255827008248"><ele>1227.0</ele><time>2026-04-29T09:34:38.076Z</time></trkpt><trkpt lat="42.61327584235277" lon="13.141337299860915"><ele>1227.0</ele><time>2026-04-29T09:34:40.076Z</time></trkpt><trkpt lat="42.613239913365" lon="13.141444504235741"><ele>1227.0</ele><time>2026-04-29T09:34:42.076Z</time></trkpt><trkpt lat="42.61320377327516" lon="13.141527749905727"><ele>1227.0</ele><time>2026-04-29T09:34:44.076Z</time></trkpt><trkpt lat="42.61316377023529" lon="13.141604144545157"><ele>1227.0</ele><time>2026-04-29T09:34:46.076Z</time></trkpt><trkpt lat="42.613138302375" lon="13.14168790989126"><ele>1227.0</ele><time>2026-04-29T09:34:48.076Z</time></trkpt><trkpt lat="42.61314122072433" lon="13.141775579128378"><ele>1227.0</ele><time>2026-04-29T09:34:51.076Z</time></trkpt><trkpt lat="42.61321632372777" lon="13.141828735044937"><ele>1224.6666666666667</ele><time>2026-04-29T09:34:57.078Z</time></trkpt><trkpt lat="42.61323022115492" lon="13.141949413541276"><ele>1222.3333333333333</ele><time>2026-04-29T09:35:00.077Z</time></trkpt><trkpt lat="42.61323511900995" lon="13.142037511064816"><ele>1220.0</ele><time>2026-04-29T09:35:02.078Z</time></trkpt><trkpt lat="42.61324696120474" lon="13.142133072354497"><ele>1217.6666666666665</ele><time>2026-04-29T09:35:05.078Z</time></trkpt><trkpt lat="42.61328586280651" lon="13.142206104040627"><ele>1215.3333333333333</ele><time>2026-04-29T09:35:09.078Z</time></trkpt><trkpt lat="42.61333822268601" lon="13.142287602964076"><ele>1213.0</ele><time>2026-04-29T09:35:14.078Z</time></trkpt><trkpt lat="42.61339675478455" lon="13.142359780475047"><ele>1208.857142857143</ele><time>2026-04-29T09:35:19.078Z</time></trkpt><trkpt lat="42.613433627358404" lon="13.142440388709602"><ele>1204.7142857142856</ele><time>2026-04-29T09:35:23.078Z</time></trkpt><trkpt lat="42.613477972803075" lon="13.142519647211198"><ele>1200.5714285714284</ele><time>2026-04-29T09:35:27.078Z</time></trkpt><trkpt lat="42.61352147651933" lon="13.142608034136705"><ele>1196.4285714285716</ele><time>2026-04-29T09:35:30.078Z</time></trkpt><trkpt lat="42.61354899357432" lon="13.14269160957481"><ele>1192.2857142857142</ele><time>2026-04-29T09:35:33.078Z</time></trkpt><trkpt lat="42.613558504139085" lon="13.142782848205426"><ele>1188.142857142857</ele><time>2026-04-29T09:35:37.078Z</time></trkpt><trkpt lat="42.613571007379704" lon="13.142868922044315"><ele>1184.0</ele><time>2026-04-29T09:35:41.078Z</time></trkpt><trkpt lat="42.61358833326897" lon="13.142980501467319"><ele>1184.0</ele><time>2026-04-29T09:35:45.078Z</time></trkpt><trkpt lat="42.61360415619297" lon="13.143103031064253"><ele>1184.0</ele><time>2026-04-29T09:35:49.078Z</time></trkpt><trkpt lat="42.613627220678104" lon="13.143212066123782"><ele>1184.0</ele><time>2026-04-29T09:35:51.078Z</time></trkpt><trkpt lat="42.61367168104469" lon="13.14331709068991"><ele>1184.0</ele><time>2026-04-29T09:35:54.078Z</time></trkpt><trkpt lat="42.61370968562872" lon="13.143398651755374"><ele>1184.0</ele><time>2026-04-29T09:35:57.078Z</time></trkpt><trkpt lat="42.61375370570427" lon="13.143460627087984"><ele>1184.0</ele><time>2026-04-29T09:36:00.078Z</time></trkpt><trkpt lat="42.61378614676727" lon="13.14355418467775"><ele>1185.1666666666667</ele><time>2026-04-29T09:36:04.078Z</time></trkpt><trkpt lat="42.61381951296694" lon="13.143632880519641"><ele>1186.3333333333335</ele><time>2026-04-29T09:36:07.078Z</time></trkpt><trkpt lat="42.61383850054414" lon="13.143747939016816"><ele>1187.5</ele><time>2026-04-29T09:36:11.078Z</time></trkpt><trkpt lat="42.61385456866212" lon="13.143851536263456"><ele>1188.6666666666667</ele><time>2026-04-29T09:36:14.078Z</time></trkpt><trkpt lat="42.613875804674066" lon="13.143935478395765"><ele>1189.8333333333333</ele><time>2026-04-29T09:36:17.078Z</time></trkpt><trkpt lat="42.61385090614621" lon="13.144047351903511"><ele>1191.0</ele><time>2026-04-29T09:36:20.078Z</time></trkpt><trkpt lat="42.61384347796795" lon="13.14415523353057"><ele>1187.0</ele><time>2026-04-29T09:36:24.078Z</time></trkpt><trkpt lat="42.61382388308981" lon="13.14424686817903"><ele>1183.0</ele><time>2026-04-29T09:36:27.078Z</time></trkpt><trkpt lat="42.613813982351" lon="13.14434025768633"><ele>1179.0</ele><time>2026-04-29T09:36:29.078Z</time></trkpt><trkpt lat="42.6138302556282" lon="13.144440138236849"><ele>1175.0</ele><time>2026-04-29T09:36:33.078Z</time></trkpt><trkpt lat="42.61383977692953" lon="13.14453237786622"><ele>1171.0</ele><time>2026-04-29T09:36:36.078Z</time></trkpt><trkpt lat="42.61385450212207" lon="13.144640305376292"><ele>1167.0</ele><time>2026-04-29T09:36:39.078Z</time></trkpt><trkpt lat="42.613861914702646" lon="13.144742116695067"><ele>1163.0</ele><time>2026-04-29T09:36:41.078Z</time></trkpt><trkpt lat="42.613862138650575" lon="13.14485016869787"><ele>1159.0</ele><time>2026-04-29T09:36:45.078Z</time></trkpt><trkpt lat="42.613890670351346" lon="13.14496294698885"><ele>1155.0</ele><time>2026-04-29T09:36:48.078Z</time></trkpt><trkpt lat="42.613885971438435" lon="13.145077304424712"><ele>1151.0</ele><time>2026-04-29T09:36:51.078Z</time></trkpt><trkpt lat="42.61388830109965" lon="13.145174205042503"><ele>1147.0</ele><time>2026-04-29T09:36:53.078Z</time></trkpt><trkpt lat="42.61388435779636" lon="13.145294689595248"><ele>1143.0</ele><time>2026-04-29T09:36:56.078Z</time></trkpt><trkpt lat="42.6138942466413" lon="13.145416200829313"><ele>1139.0</ele><time>2026-04-29T09:36:58.078Z</time></trkpt><trkpt lat="42.61394375363613" lon="13.14554814864833"><ele>1139.0</ele><time>2026-04-29T09:37:00.078Z</time></trkpt><trkpt lat="42.61399534695709" lon="13.14568516006172"><ele>1139.0</ele><time>2026-04-29T09:37:02.08Z</time></trkpt><trkpt lat="42.614075297395694" lon="13.145800125579322"><ele>1139.0</ele><time>2026-04-29T09:37:04.08Z</time></trkpt><trkpt lat="42.61415633266678" lon="13.145894971502711"><ele>1139.0</ele><time>2026-04-29T09:37:06.081Z</time></trkpt><trkpt lat="42.61419626301215" lon="13.146037122606955"><ele>1139.0</ele><time>2026-04-29T09:37:08.081Z</time></trkpt><trkpt lat="42.614210829308455" lon="13.14613950201245"><ele>1141.5</ele><time>2026-04-29T09:37:09.081Z</time></trkpt><trkpt lat="42.61430609091212" lon="13.146237751277315"><ele>1144.0</ele><time>2026-04-29T09:37:11.081Z</time></trkpt><trkpt lat="42.61440543371134" lon="13.14633037849243"><ele>1146.5</ele><time>2026-04-29T09:37:13.08Z</time></trkpt><trkpt lat="42.6145195280432" lon="13.146399951775393"><ele>1149.0</ele><time>2026-04-29T09:37:15.08Z</time></trkpt><trkpt lat="42.614627629092865" lon="13.14644934707962"><ele>1149.0</ele><time>2026-04-29T09:37:17.08Z</time></trkpt><trkpt lat="42.61472409882507" lon="13.146530909563078"><ele>1149.0</ele><time>2026-04-29T09:37:19.08Z</time></trkpt><trkpt lat="42.614773885659126" lon="13.146660776359715"><ele>1149.0</ele><time>2026-04-29T09:37:21.08Z</time></trkpt><trkpt lat="42.61481345745047" lon="13.146730085659907"><ele>1149.0</ele><time>2026-04-29T09:37:22.08Z</time></trkpt><trkpt lat="42.61487716244654" lon="13.146833315453804"><ele>1149.0</ele><time>2026-04-29T09:37:24.08Z</time></trkpt><trkpt lat="42.614922641796724" lon="13.14693570164811"><ele>1141.5</ele><time>2026-04-29T09:37:26.08Z</time></trkpt><trkpt lat="42.61500008323403" lon="13.147015279786586"><ele>1134.0</ele><time>2026-04-29T09:37:28.08Z</time></trkpt><trkpt lat="42.61505067511003" lon="13.147122125383452"><ele>1126.5</ele><time>2026-04-29T09:37:30.08Z</time></trkpt><trkpt lat="42.615094795932045" lon="13.147203178982382"><ele>1119.0</ele><time>2026-04-29T09:37:31.08Z</time></trkpt><trkpt lat="42.61514914359109" lon="13.147289530617831"><ele>1111.5</ele><time>2026-04-29T09:37:32.08Z</time></trkpt><trkpt lat="42.61519588728904" lon="13.147399108455131"><ele>1104.0</ele><time>2026-04-29T09:37:33.08Z</time></trkpt><trkpt lat="42.615250938103095" lon="13.147522410967188"><ele>1102.5</ele><time>2026-04-29T09:37:34.08Z</time></trkpt><trkpt lat="42.615299965625816" lon="13.147633262081657"><ele>1101.0</ele><time>2026-04-29T09:37:35.08Z</time></trkpt><trkpt lat="42.61532083793277" lon="13.147751067979785"><ele>1099.5</ele><time>2026-04-29T09:37:36.08Z</time></trkpt><trkpt lat="42.61533215114327" lon="13.147862886728072"><ele>1098.0</ele><time>2026-04-29T09:37:37.08Z</time></trkpt><trkpt lat="42.615349000601384" lon="13.14797149079489"><ele>1096.5</ele><time>2026-04-29T09:37:38.08Z</time></trkpt><trkpt lat="42.61537482973287" lon="13.148079349693193"><ele>1095.0</ele><time>2026-04-29T09:37:39.08Z</time></trkpt><trkpt lat="42.61540380761448" lon="13.148183431195774"><ele>1091.5714285714284</ele><time>2026-04-29T09:37:40.08Z</time></trkpt><trkpt lat="42.615437190691466" lon="13.148266656386253"><ele>1088.142857142857</ele><time>2026-04-29T09:37:41.08Z</time></trkpt><trkpt lat="42.61547471216945" lon="13.148345262996315"><ele>1084.7142857142858</ele><time>2026-04-29T09:37:42.08Z</time></trkpt><trkpt lat="42.61552513688799" lon="13.148415731040187"><ele>1081.2857142857142</ele><time>2026-04-29T09:37:43.08Z</time></trkpt><trkpt lat="42.61557718753412" lon="13.148475740508653"><ele>1077.857142857143</ele><time>2026-04-29T09:37:44.08Z</time></trkpt><trkpt lat="42.615627200086294" lon="13.148554527443"><ele>1074.4285714285713</ele><time>2026-04-29T09:37:45.08Z</time></trkpt><trkpt lat="42.615661411299676" lon="13.148637084759555"><ele>1071.0</ele><time>2026-04-29T09:37:46.08Z</time></trkpt><trkpt lat="42.61569314104813" lon="13.148716745372703"><ele>1071.0</ele><time>2026-04-29T09:37:47.08Z</time></trkpt><trkpt lat="42.61573728097013" lon="13.148778322550612"><ele>1071.0</ele><time>2026-04-29T09:37:48.08Z</time></trkpt><trkpt lat="42.61578464989241" lon="13.148838999012137"><ele>1071.0</ele><time>2026-04-29T09:37:49.08Z</time></trkpt><trkpt lat="42.615840384102796" lon="13.148916023809333"><ele>1071.0</ele><time>2026-04-29T09:37:50.08Z</time></trkpt><trkpt lat="42.61586955260301" lon="13.149021866685803"><ele>1071.0</ele><time>2026-04-29T09:37:51.08Z</time></trkpt><trkpt lat="42.61591226642213" lon="13.149114249114167"><ele>1071.0</ele><time>2026-04-29T09:37:52.08Z</time></trkpt><trkpt lat="42.6159905066995" lon="13.14921403250207"><ele>1072.0</ele><time>2026-04-29T09:37:53.08Z</time></trkpt><trkpt lat="42.61607491200623" lon="13.149323070846041"><ele>1073.0</ele><time>2026-04-29T09:37:54.08Z</time></trkpt><trkpt lat="42.61615470150967" lon="13.14944826397744"><ele>1074.0</ele><time>2026-04-29T09:37:55.08Z</time></trkpt><trkpt lat="42.6162229112122" lon="13.149589772879107"><ele>1075.0</ele><time>2026-04-29T09:37:56.08Z</time></trkpt><trkpt lat="42.616283515748506" lon="13.149703232065193"><ele>1075.0</ele><time>2026-04-29T09:37:57.08Z</time></trkpt><trkpt lat="42.616345625661815" lon="13.14984300977479"><ele>1075.0</ele><time>2026-04-29T09:37:58.08Z</time></trkpt><trkpt lat="42.616408287772" lon="13.149997054507944"><ele>1075.0</ele><time>2026-04-29T09:37:59.08Z</time></trkpt><trkpt lat="42.61646733791675" lon="13.150122263814207"><ele>1075.0</ele><time>2026-04-29T09:38:00.08Z</time></trkpt><trkpt lat="42.616517211716044" lon="13.150232066215628"><ele>1071.0</ele><time>2026-04-29T09:38:01.08Z</time></trkpt><trkpt lat="42.61655352002691" lon="13.15032247231741"><ele>1067.0</ele><time>2026-04-29T09:38:02.08Z</time></trkpt><trkpt lat="42.616607649265184" lon="13.150399939233672"><ele>1063.0</ele><time>2026-04-29T09:38:03.08Z</time></trkpt><trkpt lat="42.6166767151179" lon="13.15049437481725"><ele>1059.0</ele><time>2026-04-29T09:38:04.08Z</time></trkpt><trkpt lat="42.6167833172096" lon="13.15058344582855"><ele>1055.0</ele><time>2026-04-29T09:38:05.08Z</time></trkpt><trkpt lat="42.61689204910762" lon="13.150672117848746"><ele>1054.0</ele><time>2026-04-29T09:38:06.08Z</time></trkpt><trkpt lat="42.61696302270709" lon="13.150767273041827"><ele>1053.0</ele><time>2026-04-29T09:38:07.08Z</time></trkpt><trkpt lat="42.61702649173323" lon="13.15084391500252"><ele>1052.0</ele><time>2026-04-29T09:38:08.08Z</time></trkpt><trkpt lat="42.6170860274338" lon="13.15089209364588"><ele>1051.0</ele><time>2026-04-29T09:38:09.08Z</time></trkpt><trkpt lat="42.61723235540968" lon="13.150901756995156"><ele>1050.0</ele><time>2026-04-29T09:38:11.08Z</time></trkpt><trkpt lat="42.61736316543489" lon="13.150892041812078"><ele>1050.0</ele><time>2026-04-29T09:38:12.08Z</time></trkpt><trkpt lat="42.617493786945005" lon="13.15089581029462"><ele>1050.0</ele><time>2026-04-29T09:38:13.08Z</time></trkpt><trkpt lat="42.61760797399758" lon="13.150919764283167"><ele>1050.0</ele><time>2026-04-29T09:38:14.08Z</time></trkpt><trkpt lat="42.61770354657666" lon="13.150938657033496"><ele>1050.0</ele><time>2026-04-29T09:38:15.08Z</time></trkpt><trkpt lat="42.61782384610714" lon="13.150920327530583"><ele>1049.0</ele><time>2026-04-29T09:38:17.08Z</time></trkpt><trkpt lat="42.61789736383181" lon="13.150907376261294"><ele>1048.0</ele><time>2026-04-29T09:38:18.08Z</time></trkpt><trkpt lat="42.61798672915786" lon="13.150875737295735"><ele>1047.0</ele><time>2026-04-29T09:38:19.08Z</time></trkpt><trkpt lat="42.61806552844476" lon="13.150855683551653"><ele>1046.0</ele><time>2026-04-29T09:38:20.08Z</time></trkpt><trkpt lat="42.618142011727315" lon="13.150826575266988"><ele>1045.0</ele><time>2026-04-29T09:38:21.08Z</time></trkpt><trkpt lat="42.618210567093016" lon="13.150797806258549"><ele>1044.0</ele><time>2026-04-29T09:38:22.08Z</time></trkpt><trkpt lat="42.61827659465809" lon="13.150764466755756"><ele>1044.0</ele><time>2026-04-29T09:38:23.08Z</time></trkpt><trkpt lat="42.61837508640757" lon="13.150720215649836"><ele>1044.0</ele><time>2026-04-29T09:38:25.08Z</time></trkpt><trkpt lat="42.61858306460813" lon="13.150743225201552"><ele>1044.0</ele><time>2026-04-29T09:38:30.08Z</time></trkpt><trkpt lat="42.61869384297022" lon="13.150761191343872"><ele>1044.0</ele><time>2026-04-29T09:38:32.08Z</time></trkpt><trkpt lat="42.61880400444845" lon="13.150733901039908"><ele>1042.5</ele><time>2026-04-29T09:38:34.08Z</time></trkpt><trkpt lat="42.618900176202686" lon="13.150725105486378"><ele>1041.0</ele><time>2026-04-29T09:38:36.08Z</time></trkpt><trkpt lat="42.61896780127051" lon="13.150719010833445"><ele>1039.5</ele><time>2026-04-29T09:38:37.08Z</time></trkpt><trkpt lat="42.61908158264414" lon="13.150699544422393"><ele>1038.0</ele><time>2026-04-29T09:38:39.08Z</time></trkpt><trkpt lat="42.61914815777959" lon="13.150687100143815"><ele>1036.5</ele><time>2026-04-29T09:38:40.08Z</time></trkpt><trkpt lat="42.61921890791348" lon="13.150678848715607"><ele>1035.0</ele><time>2026-04-29T09:38:41.08Z</time></trkpt><trkpt lat="42.61929406735695" lon="13.150671242799202"><ele>1033.8</ele><time>2026-04-29T09:38:42.08Z</time></trkpt><trkpt lat="42.619377618917156" lon="13.150665653695059"><ele>1032.6</ele><time>2026-04-29T09:38:43.08Z</time></trkpt><trkpt lat="42.61946400149932" lon="13.150677793069175"><ele>1031.4</ele><time>2026-04-29T09:38:44.08Z</time></trkpt><trkpt lat="42.61954262813471" lon="13.150702513684035"><ele>1030.2</ele><time>2026-04-29T09:38:45.08Z</time></trkpt><trkpt lat="42.619641970965475" lon="13.150719501933382"><ele>1029.0</ele><time>2026-04-29T09:38:46.08Z</time></trkpt><trkpt lat="42.61975562606286" lon="13.15073943414551"><ele>1029.0</ele><time>2026-04-29T09:38:47.08Z</time></trkpt><trkpt lat="42.61986403020301" lon="13.150750005920294"><ele>1029.0</ele><time>2026-04-29T09:38:48.08Z</time></trkpt><trkpt lat="42.619951593671566" lon="13.150747236725959"><ele>1029.0</ele><time>2026-04-29T09:38:49.08Z</time></trkpt><trkpt lat="42.62003592261375" lon="13.150732006673659"><ele>1029.0</ele><time>2026-04-29T09:38:50.08Z</time></trkpt><trkpt lat="42.62011694952768" lon="13.150715986392672"><ele>1029.0</ele><time>2026-04-29T09:38:51.08Z</time></trkpt><trkpt lat="42.620201116417434" lon="13.150700320115341"><ele>1029.0</ele><time>2026-04-29T09:38:52.08Z</time></trkpt><trkpt lat="42.620308050343944" lon="13.150697302674912"><ele>1032.3333333333333</ele><time>2026-04-29T09:38:53.08Z</time></trkpt><trkpt lat="42.62040103154298" lon="13.150707386001189"><ele>1035.6666666666667</ele><time>2026-04-29T09:38:54.08Z</time></trkpt><trkpt lat="42.62048751536984" lon="13.150704137453989"><ele>1039.0</ele><time>2026-04-29T09:38:55.08Z</time></trkpt><trkpt lat="42.62057113103343" lon="13.15067982172434"><ele>1042.3333333333335</ele><time>2026-04-29T09:38:56.08Z</time></trkpt><trkpt lat="42.62064663885218" lon="13.150644685549551"><ele>1045.6666666666667</ele><time>2026-04-29T09:38:57.08Z</time></trkpt><trkpt lat="42.62071785075299" lon="13.150603331870375"><ele>1049.0</ele><time>2026-04-29T09:38:58.08Z</time></trkpt><trkpt lat="42.620800220864744" lon="13.150553274216794"><ele>1049.0</ele><time>2026-04-29T09:38:59.08Z</time></trkpt><trkpt lat="42.6208639930358" lon="13.150520250268734"><ele>1049.0</ele><time>2026-04-29T09:39:00.08Z</time></trkpt><trkpt lat="42.62092849011481" lon="13.150528092581578"><ele>1049.0</ele><time>2026-04-29T09:39:01.08Z</time></trkpt><trkpt lat="42.62099342475783" lon="13.150531451932764"><ele>1049.0</ele><time>2026-04-29T09:39:02.08Z</time></trkpt><trkpt lat="42.621077291582736" lon="13.150523519770225"><ele>1049.0</ele><time>2026-04-29T09:39:03.08Z</time></trkpt><trkpt lat="42.621175036851135" lon="13.150475588405309"><ele>1049.0</ele><time>2026-04-29T09:39:04.08Z</time></trkpt><trkpt lat="42.62123820769246" lon="13.15038015253447"><ele>1051.0</ele><time>2026-04-29T09:39:05.08Z</time></trkpt><trkpt lat="42.621294452029275" lon="13.150280193781002"><ele>1053.0</ele><time>2026-04-29T09:39:06.08Z</time></trkpt><trkpt lat="42.62133010980576" lon="13.150118577953526"><ele>1055.0</ele><time>2026-04-29T09:39:07.082Z</time></trkpt><trkpt lat="42.62135728994221" lon="13.149928430126398"><ele>1057.0</ele><time>2026-04-29T09:39:08.082Z</time></trkpt><trkpt lat="42.62138051851163" lon="13.149736125714757"><ele>1060.5</ele><time>2026-04-29T09:39:09.082Z</time></trkpt><trkpt lat="42.621395435062006" lon="13.149538065336786"><ele>1064.0</ele><time>2026-04-29T09:39:10.083Z</time></trkpt><trkpt lat="42.62141041592527" lon="13.14936121735266"><ele>1067.5</ele><time>2026-04-29T09:39:11.082Z</time></trkpt><trkpt lat="42.62142880392464" lon="13.149196803163516"><ele>1071.0</ele><time>2026-04-29T09:39:12.082Z</time></trkpt><trkpt lat="42.62143483899094" lon="13.149053097194502"><ele>1072.1666666666667</ele><time>2026-04-29T09:39:13.082Z</time></trkpt><trkpt lat="42.621438804776936" lon="13.14894854462386"><ele>1073.3333333333333</ele><time>2026-04-29T09:39:14.082Z</time></trkpt><trkpt lat="42.621387042854785" lon="13.148817194730585"><ele>1074.5</ele><time>2026-04-29T09:39:16.082Z</time></trkpt><trkpt lat="42.62134107929122" lon="13.14874860252098"><ele>1075.6666666666665</ele><time>2026-04-29T09:39:17.082Z</time></trkpt><trkpt lat="42.62128256289422" lon="13.14868471089506"><ele>1076.8333333333333</ele><time>2026-04-29T09:39:18.082Z</time></trkpt><trkpt lat="42.62118894852102" lon="13.148615395766964"><ele>1078.0</ele><time>2026-04-29T09:39:19.083Z</time></trkpt><trkpt lat="42.6210870752782" lon="13.148522040485416"><ele>1078.0</ele><time>2026-04-29T09:39:20.083Z</time></trkpt><trkpt lat="42.621011361082" lon="13.148440720059332"><ele>1078.0</ele><time>2026-04-29T09:39:21.083Z</time></trkpt><trkpt lat="42.6209577606032" lon="13.148382186707424"><ele>1078.0</ele><time>2026-04-29T09:39:22.083Z</time></trkpt><trkpt lat="42.620903850249924" lon="13.148268783371645"><ele>1078.0</ele><time>2026-04-29T09:39:24.083Z</time></trkpt><trkpt lat="42.62084110821365" lon="13.14825912494039"><ele>1078.0</ele><time>2026-04-29T09:39:27.083Z</time></trkpt><trkpt lat="42.6208112292445" lon="13.148361901339657"><ele>1078.0</ele><time>2026-04-29T09:39:30.083Z</time></trkpt><trkpt lat="42.62084261902107" lon="13.148437294698544"><ele>1078.0</ele><time>2026-04-29T09:44:42.029Z</time></trkpt><trkpt lat="42.62090304309611" lon="13.1484054564985"><ele>1078.0</ele><time>2026-04-29T09:45:27.03Z</time></trkpt><trkpt lat="42.62098968862242" lon="13.148437490466183"><ele>1078.0</ele><time>2026-04-29T09:46:25.029Z</time></trkpt><trkpt lat="42.62105301146514" lon="13.14844267330717"><ele>1078.0</ele><time>2026-04-29T09:46:26.029Z</time></trkpt><trkpt lat="42.62114525914727" lon="13.148500069063264"><ele>1078.0</ele><time>2026-04-29T09:46:28.029Z</time></trkpt><trkpt lat="42.621221473658196" lon="13.148573276118093"><ele>1078.0</ele><time>2026-04-29T09:46:30.029Z</time></trkpt><trkpt lat="42.62131440905656" lon="13.14865957451353"><ele>1076.8333333333333</ele><time>2026-04-29T09:46:32.029Z</time></trkpt><trkpt lat="42.62138564686514" lon="13.14872491242015"><ele>1075.6666666666665</ele><time>2026-04-29T09:46:34.029Z</time></trkpt><trkpt lat="42.621436306003204" lon="13.14879458878894"><ele>1074.5</ele><time>2026-04-29T09:46:36.029Z</time></trkpt><trkpt lat="42.621483282481606" lon="13.148913246777097"><ele>1073.3333333333333</ele><time>2026-04-29T09:46:38.029Z</time></trkpt><trkpt lat="42.6214853254158" lon="13.149073031431614"><ele>1072.1666666666667</ele><time>2026-04-29T09:46:40.029Z</time></trkpt><trkpt lat="42.621484189031904" lon="13.149160739257068"><ele>1071.0</ele><time>2026-04-29T09:46:41.029Z</time></trkpt><trkpt lat="42.62146996219249" lon="13.149260384150853"><ele>1071.0</ele><time>2026-04-29T09:46:42.029Z</time></trkpt><trkpt lat="42.62144483248907" lon="13.149381611839027"><ele>1071.0</ele><time>2026-04-29T09:46:43.029Z</time></trkpt><trkpt lat="42.62142735709474" lon="13.149516573769626"><ele>1071.0</ele><time>2026-04-29T09:46:44.029Z</time></trkpt><trkpt lat="42.62141425043722" lon="13.149645583468669"><ele>1071.0</ele><time>2026-04-29T09:46:45.029Z</time></trkpt><trkpt lat="42.62140932121353" lon="13.149777794215998"><ele>1071.0</ele><time>2026-04-29T09:46:46.029Z</time></trkpt><trkpt lat="42.621392136550746" lon="13.14990274294447"><ele>1068.6666666666667</ele><time>2026-04-29T09:46:47.029Z</time></trkpt><trkpt lat="42.62136899084188" lon="13.15002056650736"><ele>1066.3333333333333</ele><time>2026-04-29T09:46:48.029Z</time></trkpt><trkpt lat="42.62134450364552" lon="13.150138334794898"><ele>1064.0</ele><time>2026-04-29T09:46:49.029Z</time></trkpt><trkpt lat="42.621300876880134" lon="13.150243677418267"><ele>1061.6666666666665</ele><time>2026-04-29T09:46:50.029Z</time></trkpt><trkpt lat="42.62126007115399" lon="13.15033969425269"><ele>1059.3333333333333</ele><time>2026-04-29T09:46:51.029Z</time></trkpt><trkpt lat="42.62122263510743" lon="13.150413350282511"><ele>1057.0</ele><time>2026-04-29T09:46:52.029Z</time></trkpt><trkpt lat="42.62112704047039" lon="13.150479878272266"><ele>1054.3333333333333</ele><time>2026-04-29T09:46:54.029Z</time></trkpt><trkpt lat="42.62096372102337" lon="13.150610368130677"><ele>1051.6666666666667</ele><time>2026-04-29T09:47:53.031Z</time></trkpt><trkpt lat="42.62088536122646" lon="13.150803002777444"><ele>1049.0</ele><time>2026-04-29T09:47:55.031Z</time></trkpt><trkpt lat="42.620842195526684" lon="13.151008071740568"><ele>1041.6666666666667</ele><time>2026-04-29T09:47:56.031Z</time></trkpt><trkpt lat="42.62079624064925" lon="13.151248981884859"><ele>1034.3333333333333</ele><time>2026-04-29T09:47:57.031Z</time></trkpt><trkpt lat="42.62074509612313" lon="13.15148616709821"><ele>1027.0</ele><time>2026-04-29T09:47:58.031Z</time></trkpt><trkpt lat="42.620692647524606" lon="13.15166107759324"><ele>1024.4</ele><time>2026-04-29T09:47:59.031Z</time></trkpt><trkpt lat="42.6206407221463" lon="13.151820823314885"><ele>1021.8000000000001</ele><time>2026-04-29T09:48:00.031Z</time></trkpt><trkpt lat="42.620592015506006" lon="13.151962515344737"><ele>1019.2</ele><time>2026-04-29T09:48:01.031Z</time></trkpt><trkpt lat="42.62054755252763" lon="13.152091864243388"><ele>1016.6</ele><time>2026-04-29T09:48:02.031Z</time></trkpt><trkpt lat="42.620502255619826" lon="13.152209908880826"><ele>1014.0</ele><time>2026-04-29T09:48:03.031Z</time></trkpt><trkpt lat="42.62046095987325" lon="13.152330296716752"><ele>1011.6</ele><time>2026-04-29T09:48:04.031Z</time></trkpt><trkpt lat="42.620454762069265" lon="13.152447488906324"><ele>1009.2</ele><time>2026-04-29T09:48:05.031Z</time></trkpt><trkpt lat="42.62046239619193" lon="13.152557018749981"><ele>1006.8000000000001</ele><time>2026-04-29T09:48:06.031Z</time></trkpt><trkpt lat="42.6205037724675" lon="13.152665021139756"><ele>1004.4000000000001</ele><time>2026-04-29T09:48:07.031Z</time></trkpt><trkpt lat="42.620573062342935" lon="13.152783136541052"><ele>1002.0</ele><time>2026-04-29T09:48:08.031Z</time></trkpt><trkpt lat="42.620678466213725" lon="13.152945750003367"><ele>1002.0</ele><time>2026-04-29T09:48:09.031Z</time></trkpt><trkpt lat="42.62078295876813" lon="13.153081442917513"><ele>1002.0</ele><time>2026-04-29T09:48:10.031Z</time></trkpt><trkpt lat="42.620862767863926" lon="13.153195927437537"><ele>1002.0</ele><time>2026-04-29T09:48:11.031Z</time></trkpt><trkpt lat="42.6209180751514" lon="13.153292532920258"><ele>1002.0</ele><time>2026-04-29T09:48:12.031Z</time></trkpt><trkpt lat="42.62094867670636" lon="13.153408640905765"><ele>1002.0</ele><time>2026-04-29T09:48:13.031Z</time></trkpt><trkpt lat="42.62090155589359" lon="13.153540178321505"><ele>1000.0</ele><time>2026-04-29T09:48:14.031Z</time></trkpt><trkpt lat="42.62085599872144" lon="13.153678171059607"><ele>998.0</ele><time>2026-04-29T09:48:15.031Z</time></trkpt><trkpt lat="42.62079425727864" lon="13.153833214656933"><ele>996.0</ele><time>2026-04-29T09:48:16.031Z</time></trkpt><trkpt lat="42.62072795056444" lon="13.15399655447608"><ele>994.0</ele><time>2026-04-29T09:48:17.031Z</time></trkpt><trkpt lat="42.62067129058379" lon="13.154136491180243"><ele>993.3333333333333</ele><time>2026-04-29T09:48:18.031Z</time></trkpt><trkpt lat="42.62062727976387" lon="13.154261798090918"><ele>992.6666666666666</ele><time>2026-04-29T09:48:19.031Z</time></trkpt><trkpt lat="42.62059737365322" lon="13.154385907504345"><ele>992.0</ele><time>2026-04-29T09:48:20.031Z</time></trkpt><trkpt lat="42.62061209869539" lon="13.154494024324707"><ele>991.3333333333333</ele><time>2026-04-29T09:48:21.031Z</time></trkpt><trkpt lat="42.620629755327286" lon="13.154591742315416"><ele>990.6666666666666</ele><time>2026-04-29T09:48:22.031Z</time></trkpt><trkpt lat="42.62066176168555" lon="13.154689234800703"><ele>990.0</ele><time>2026-04-29T09:48:23.031Z</time></trkpt><trkpt lat="42.62071914345597" lon="13.154759424497351"><ele>990.0</ele><time>2026-04-29T09:48:24.031Z</time></trkpt><trkpt lat="42.62080548918823" lon="13.154792486689317"><ele>990.0</ele><time>2026-04-29T09:48:25.031Z</time></trkpt><trkpt lat="42.62089219525197" lon="13.154829326001888"><ele>990.0</ele><time>2026-04-29T09:48:26.031Z</time></trkpt><trkpt lat="42.620991746340884" lon="13.154883767943305"><ele>990.0</ele><time>2026-04-29T09:48:27.031Z</time></trkpt><trkpt lat="42.62108564025372" lon="13.154905322580175"><ele>990.0</ele><time>2026-04-29T09:48:28.031Z</time></trkpt><trkpt lat="42.62116169007019" lon="13.154932562973118"><ele>990.7142857142856</ele><time>2026-04-29T09:48:29.031Z</time></trkpt><trkpt lat="42.62122945821711" lon="13.15499312484542"><ele>991.4285714285713</ele><time>2026-04-29T09:48:30.031Z</time></trkpt><trkpt lat="42.62123386164183" lon="13.155088196315221"><ele>992.1428571428571</ele><time>2026-04-29T09:48:31.031Z</time></trkpt><trkpt lat="42.621245895012805" lon="13.155175979264326"><ele>992.8571428571428</ele><time>2026-04-29T09:48:32.031Z</time></trkpt><trkpt lat="42.621261979683474" lon="13.155263106456905"><ele>993.5714285714284</ele><time>2026-04-29T09:48:33.031Z</time></trkpt><trkpt lat="42.621251353415275" lon="13.155358372328903"><ele>994.2857142857143</ele><time>2026-04-29T09:48:34.031Z</time></trkpt><trkpt lat="42.62119027294988" lon="13.155431784879843"><ele>995.0</ele><time>2026-04-29T09:48:35.031Z</time></trkpt><trkpt lat="42.621096120550646" lon="13.155401832584424"><ele>992.5</ele><time>2026-04-29T09:48:36.03Z</time></trkpt><trkpt lat="42.62100162152373" lon="13.155405615281234"><ele>990.0</ele><time>2026-04-29T09:48:37.03Z</time></trkpt><trkpt lat="42.620863561897735" lon="13.155405025565177"><ele>987.5</ele><time>2026-04-29T09:48:38.03Z</time></trkpt><trkpt lat="42.620716985801316" lon="13.155431221401011"><ele>985.0</ele><time>2026-04-29T09:48:39.03Z</time></trkpt><trkpt lat="42.62056752305539" lon="13.155411487468854"><ele>985.0</ele><time>2026-04-29T09:48:40.03Z</time></trkpt><trkpt lat="42.62044192008779" lon="13.155407540091856"><ele>985.0</ele><time>2026-04-29T09:48:41.03Z</time></trkpt><trkpt lat="42.620334820292804" lon="13.155399503416994"><ele>985.0</ele><time>2026-04-29T09:48:42.03Z</time></trkpt><trkpt lat="42.620244882896564" lon="13.15535529804605"><ele>985.0</ele><time>2026-04-29T09:48:43.03Z</time></trkpt><trkpt lat="42.620159376102016" lon="13.155350072762932"><ele>985.0</ele><time>2026-04-29T09:48:44.03Z</time></trkpt><trkpt lat="42.620085981031124" lon="13.155349357773215"><ele>984.4999999999999</ele><time>2026-04-29T09:48:45.03Z</time></trkpt><trkpt lat="42.620026546009235" lon="13.155383108558366"><ele>984.0</ele><time>2026-04-29T09:48:46.03Z</time></trkpt><trkpt lat="42.619972513534975" lon="13.15544009025527"><ele>983.5</ele><time>2026-04-29T09:48:47.03Z</time></trkpt><trkpt lat="42.6199710352281" lon="13.15556339270448"><ele>983.0</ele><time>2026-04-29T09:48:48.03Z</time></trkpt><trkpt lat="42.619937475769376" lon="13.155663274753154"><ele>982.4999999999999</ele><time>2026-04-29T09:48:49.03Z</time></trkpt><trkpt lat="42.61993237907286" lon="13.155789135641083"><ele>982.0</ele><time>2026-04-29T09:48:50.03Z</time></trkpt><trkpt lat="42.6199003759407" lon="13.155903845478742"><ele>981.9999999999999</ele><time>2026-04-29T09:48:51.03Z</time></trkpt><trkpt lat="42.61988395902249" lon="13.156017178532961"><ele>982.0</ele><time>2026-04-29T09:48:52.03Z</time></trkpt><trkpt lat="42.61987182680894" lon="13.156129782537352"><ele>982.0</ele><time>2026-04-29T09:48:53.03Z</time></trkpt><trkpt lat="42.619865928505476" lon="13.156224931346433"><ele>982.0</ele><time>2026-04-29T09:48:54.03Z</time></trkpt><trkpt lat="42.61985789033629" lon="13.156318262089803"><ele>981.9999999999999</ele><time>2026-04-29T09:48:55.03Z</time></trkpt><trkpt lat="42.61985182002407" lon="13.156477959666699"><ele>982.0</ele><time>2026-04-29T09:48:57.03Z</time></trkpt><trkpt lat="42.619803544004796" lon="13.156612565065904"><ele>983.2</ele><time>2026-04-29T09:48:59.03Z</time></trkpt><trkpt lat="42.61980474942806" lon="13.156729467610841"><ele>984.4000000000001</ele><time>2026-04-29T09:49:01.03Z</time></trkpt><trkpt lat="42.61977910599918" lon="13.156866379756122"><ele>985.5999999999999</ele><time>2026-04-29T09:49:03.03Z</time></trkpt><trkpt lat="42.619755331909126" lon="13.156969732504896"><ele>986.8</ele><time>2026-04-29T09:49:05.03Z</time></trkpt><trkpt lat="42.61962026174728" lon="13.156873416690686"><ele>988.0</ele><time>2026-04-29T09:49:06.03Z</time></trkpt><trkpt lat="42.6195209665127" lon="13.156880057981454"><ele>984.0</ele><time>2026-04-29T09:49:07.03Z</time></trkpt><trkpt lat="42.619377009373785" lon="13.156939807458318"><ele>980.0</ele><time>2026-04-29T09:49:08.03Z</time></trkpt><trkpt lat="42.61919837080847" lon="13.156995877126468"><ele>976.0</ele><time>2026-04-29T09:49:09.03Z</time></trkpt><trkpt lat="42.61903837752537" lon="13.157045973540253"><ele>976.0</ele><time>2026-04-29T09:49:10.03Z</time></trkpt><trkpt lat="42.61888520401197" lon="13.157091233509261"><ele>976.0</ele><time>2026-04-29T09:49:11.03Z</time></trkpt><trkpt lat="42.6187385962048" lon="13.157111452809175"><ele>976.0</ele><time>2026-04-29T09:49:12.03Z</time></trkpt><trkpt lat="42.61859896796164" lon="13.157150582364045"><ele>976.0</ele><time>2026-04-29T09:49:13.03Z</time></trkpt><trkpt lat="42.618465680079176" lon="13.157179398986266"><ele>973.25</ele><time>2026-04-29T09:49:14.03Z</time></trkpt><trkpt lat="42.6183412024041" lon="13.15720513536071"><ele>970.5</ele><time>2026-04-29T09:49:15.03Z</time></trkpt><trkpt lat="42.61821855275045" lon="13.157232136267837"><ele>967.75</ele><time>2026-04-29T09:49:16.03Z</time></trkpt><trkpt lat="42.61809831590968" lon="13.1572572292568"><ele>965.0</ele><time>2026-04-29T09:49:17.03Z</time></trkpt><trkpt lat="42.61798400276769" lon="13.157269543730889"><ele>965.0</ele><time>2026-04-29T09:49:18.03Z</time></trkpt><trkpt lat="42.617861267458466" lon="13.157270051922248"><ele>965.0</ele><time>2026-04-29T09:49:19.03Z</time></trkpt><trkpt lat="42.617731044291645" lon="13.157253860177628"><ele>965.0</ele><time>2026-04-29T09:49:20.03Z</time></trkpt><trkpt lat="42.617610428481235" lon="13.1572354065101"><ele>965.0</ele><time>2026-04-29T09:49:21.03Z</time></trkpt><trkpt lat="42.617491620264566" lon="13.157217940452178"><ele>962.8</ele><time>2026-04-29T09:49:22.03Z</time></trkpt><trkpt lat="42.61738122677228" lon="13.157199408078345"><ele>960.6</ele><time>2026-04-29T09:49:23.03Z</time></trkpt><trkpt lat="42.61727823299816" lon="13.157183259801025"><ele>958.4000000000001</ele><time>2026-04-29T09:49:24.03Z</time></trkpt><trkpt lat="42.61717873549564" lon="13.157173221528906"><ele>956.2</ele><time>2026-04-29T09:49:25.03Z</time></trkpt><trkpt lat="42.61708779365421" lon="13.15716773035776"><ele>954.0</ele><time>2026-04-29T09:49:26.03Z</time></trkpt><trkpt lat="42.616998860137535" lon="13.157181709701952"><ele>953.3333333333334</ele><time>2026-04-29T09:49:27.03Z</time></trkpt><trkpt lat="42.61691477086837" lon="13.157213528096548"><ele>952.6666666666667</ele><time>2026-04-29T09:49:28.03Z</time></trkpt><trkpt lat="42.61683237476576" lon="13.157256075053686"><ele>952.0</ele><time>2026-04-29T09:49:29.03Z</time></trkpt><trkpt lat="42.61675935988043" lon="13.15730038638169"><ele>951.3333333333334</ele><time>2026-04-29T09:49:30.03Z</time></trkpt><trkpt lat="42.616687743341835" lon="13.157344191009226"><ele>950.6666666666667</ele><time>2026-04-29T09:49:31.03Z</time></trkpt><trkpt lat="42.61662487591503" lon="13.157385685965046"><ele>950.0</ele><time>2026-04-29T09:49:32.03Z</time></trkpt><trkpt lat="42.616539296974686" lon="13.15742631123558"><ele>949.3333333333334</ele><time>2026-04-29T09:49:34.03Z</time></trkpt><trkpt lat="42.61642875759994" lon="13.157346113207579"><ele>948.6666666666667</ele><time>2026-04-29T09:49:36.032Z</time></trkpt><trkpt lat="42.61637919762064" lon="13.157273990402159"><ele>948.0</ele><time>2026-04-29T09:49:37.032Z</time></trkpt><trkpt lat="42.616311937454576" lon="13.157225958695074"><ele>947.3333333333333</ele><time>2026-04-29T09:49:38.032Z</time></trkpt><trkpt lat="42.61626268459971" lon="13.157159829001204"><ele>946.6666666666666</ele><time>2026-04-29T09:49:39.032Z</time></trkpt><trkpt lat="42.616180768557086" lon="13.157178721341044"><ele>946.0</ele><time>2026-04-29T09:49:40.031Z</time></trkpt><trkpt lat="42.61611210842242" lon="13.157197878065308"><ele>944.3333333333333</ele><time>2026-04-29T09:49:41.031Z</time></trkpt><trkpt lat="42.61604179303187" lon="13.15722284335316"><ele>942.6666666666666</ele><time>2026-04-29T09:49:42.032Z</time></trkpt><trkpt lat="42.615970235601274" lon="13.157243487944827"><ele>941.0</ele><time>2026-04-29T09:49:43.031Z</time></trkpt><trkpt lat="42.61590332452008" lon="13.157247531228647"><ele>939.3333333333333</ele><time>2026-04-29T09:49:44.031Z</time></trkpt><trkpt lat="42.61582385449562" lon="13.157244627420848"><ele>937.6666666666666</ele><time>2026-04-29T09:49:45.032Z</time></trkpt><trkpt lat="42.61573627191797" lon="13.15722925318363"><ele>936.0</ele><time>2026-04-29T09:49:46.031Z</time></trkpt><trkpt lat="42.61565492859995" lon="13.157203398462192"><ele>936.0</ele><time>2026-04-29T09:49:47.031Z</time></trkpt><trkpt lat="42.61557636820212" lon="13.15717667037553"><ele>936.0</ele><time>2026-04-29T09:49:48.032Z</time></trkpt><trkpt lat="42.61550748357793" lon="13.157120350768876"><ele>936.0</ele><time>2026-04-29T09:49:49.032Z</time></trkpt><trkpt lat="42.61542355886933" lon="13.15707355169924"><ele>936.0</ele><time>2026-04-29T09:49:50.032Z</time></trkpt><trkpt lat="42.615346189796355" lon="13.157041143315649"><ele>936.0</ele><time>2026-04-29T09:49:51.032Z</time></trkpt><trkpt lat="42.61526628943288" lon="13.157014917466217"><ele>936.0</ele><time>2026-04-29T09:49:52.032Z</time></trkpt><trkpt lat="42.61519144996103" lon="13.156992289283435"><ele>934.3333333333334</ele><time>2026-04-29T09:49:53.032Z</time></trkpt><trkpt lat="42.61511763267268" lon="13.156973319745255"><ele>932.6666666666667</ele><time>2026-04-29T09:49:54.032Z</time></trkpt><trkpt lat="42.615045854612376" lon="13.156947450275101"><ele>931.0</ele><time>2026-04-29T09:49:55.032Z</time></trkpt><trkpt lat="42.61495735625052" lon="13.15693661535198"><ele>929.3333333333334</ele><time>2026-04-29T09:49:56.032Z</time></trkpt><trkpt lat="42.61486951921885" lon="13.156943874941648"><ele>927.6666666666667</ele><time>2026-04-29T09:49:57.032Z</time></trkpt><trkpt lat="42.61478680794521" lon="13.156949560925847"><ele>926.0</ele><time>2026-04-29T09:49:58.032Z</time></trkpt><trkpt lat="42.61470872317201" lon="13.156948199444404"><ele>926.0000000000001</ele><time>2026-04-29T09:49:59.032Z</time></trkpt><trkpt lat="42.614630399493485" lon="13.156960174270033"><ele>926.0</ele><time>2026-04-29T09:50:00.032Z</time></trkpt><trkpt lat="42.61455602246813" lon="13.156978736631224"><ele>926.0</ele><time>2026-04-29T09:50:01.032Z</time></trkpt><trkpt lat="42.6144700460106" lon="13.156992763101648"><ele>926.0</ele><time>2026-04-29T09:50:02.032Z</time></trkpt><trkpt lat="42.61439404617034" lon="13.157020561427924"><ele>926.0000000000001</ele><time>2026-04-29T09:50:03.032Z</time></trkpt><trkpt lat="42.61432125132576" lon="13.157052888728936"><ele>926.0</ele><time>2026-04-29T09:50:04.032Z</time></trkpt><trkpt lat="42.61423102833472" lon="13.15709863109373"><ele>925.2857142857142</ele><time>2026-04-29T09:50:06.032Z</time></trkpt><trkpt lat="42.6141542919049" lon="13.157113498275166"><ele>924.5714285714284</ele><time>2026-04-29T09:50:10.032Z</time></trkpt><trkpt lat="42.614065854872194" lon="13.157155361700505"><ele>923.8571428571429</ele><time>2026-04-29T09:50:12.032Z</time></trkpt><trkpt lat="42.61400882386691" lon="13.157193340043012"><ele>923.1428571428571</ele><time>2026-04-29T09:50:13.032Z</time></trkpt><trkpt lat="42.613949995647864" lon="13.157226395495544"><ele>922.4285714285714</ele><time>2026-04-29T09:50:14.032Z</time></trkpt><trkpt lat="42.613888206149156" lon="13.157248770705218"><ele>921.7142857142858</ele><time>2026-04-29T09:50:15.032Z</time></trkpt><trkpt lat="42.61382743371496" lon="13.15727627475875"><ele>921.0000000000001</ele><time>2026-04-29T09:50:16.032Z</time></trkpt><trkpt lat="42.613730419345295" lon="13.157367678878343"><ele>920.5</ele><time>2026-04-29T09:50:18.032Z</time></trkpt><trkpt lat="42.61366511704337" lon="13.157472434788133"><ele>920.0</ele><time>2026-04-29T09:50:20.032Z</time></trkpt><trkpt lat="42.61365395469761" lon="13.15757088883904"><ele>919.5</ele><time>2026-04-29T09:50:21.032Z</time></trkpt><trkpt lat="42.613659288641" lon="13.157676054169356"><ele>919.0</ele><time>2026-04-29T09:50:22.032Z</time></trkpt><trkpt lat="42.613652465751706" lon="13.15783033150354"><ele>918.5</ele><time>2026-04-29T09:50:24.032Z</time></trkpt><trkpt lat="42.61363337068621" lon="13.15791306020951"><ele>918.0</ele><time>2026-04-29T09:50:25.032Z</time></trkpt><trkpt lat="42.61359342766545" lon="13.157990453827178"><ele>917.6666666666666</ele><time>2026-04-29T09:50:26.032Z</time></trkpt><trkpt lat="42.61354285594988" lon="13.158079257830252"><ele>917.3333333333333</ele><time>2026-04-29T09:50:27.032Z</time></trkpt><trkpt lat="42.61349690781513" lon="13.158164492299315"><ele>917.0</ele><time>2026-04-29T09:50:28.032Z</time></trkpt><trkpt lat="42.61344825865076" lon="13.158257365400527"><ele>916.6666666666666</ele><time>2026-04-29T09:50:29.032Z</time></trkpt><trkpt lat="42.613402618147134" lon="13.158357980162693"><ele>916.3333333333333</ele><time>2026-04-29T09:50:30.031Z</time></trkpt><trkpt lat="42.61336014100419" lon="13.158469799205436"><ele>916.0</ele><time>2026-04-29T09:50:31.031Z</time></trkpt><trkpt lat="42.61331708613808" lon="13.158586612406944"><ele>914.5999999999999</ele><time>2026-04-29T09:50:32.031Z</time></trkpt><trkpt lat="42.61326888452632" lon="13.158703814368499"><ele>913.1999999999999</ele><time>2026-04-29T09:50:33.031Z</time></trkpt><trkpt lat="42.61321049611278" lon="13.15881772943052"><ele>911.8000000000001</ele><time>2026-04-29T09:50:34.031Z</time></trkpt><trkpt lat="42.613145989883336" lon="13.158928785389316"><ele>910.4000000000001</ele><time>2026-04-29T09:50:35.031Z</time></trkpt><trkpt lat="42.61308038914929" lon="13.159037418618656"><ele>909.0</ele><time>2026-04-29T09:50:36.031Z</time></trkpt><trkpt lat="42.61302263597266" lon="13.159146188418882"><ele>909.0</ele><time>2026-04-29T09:50:37.031Z</time></trkpt><trkpt lat="42.61296272732005" lon="13.159251350955607"><ele>909.0000000000001</ele><time>2026-04-29T09:50:38.031Z</time></trkpt><trkpt lat="42.61288953295455" lon="13.159363026429011"><ele>909.0000000000001</ele><time>2026-04-29T09:50:39.031Z</time></trkpt><trkpt lat="42.612830610012985" lon="13.159471976150083"><ele>909.0</ele><time>2026-04-29T09:50:40.031Z</time></trkpt><trkpt lat="42.61277182047983" lon="13.159583435287304"><ele>909.0</ele><time>2026-04-29T09:50:41.031Z</time></trkpt><trkpt lat="42.61271549233692" lon="13.159698298217071"><ele>908.2</ele><time>2026-04-29T09:50:42.031Z</time></trkpt><trkpt lat="42.61265004429017" lon="13.159802643942019"><ele>907.4000000000001</ele><time>2026-04-29T09:50:43.031Z</time></trkpt><trkpt lat="42.612570112262574" lon="13.15988841093671"><ele>906.6</ele><time>2026-04-29T09:50:44.031Z</time></trkpt><trkpt lat="42.61248591740451" lon="13.159961171111725"><ele>905.8</ele><time>2026-04-29T09:50:45.031Z</time></trkpt><trkpt lat="42.612400501108915" lon="13.16003443763255"><ele>905.0</ele><time>2026-04-29T09:50:46.031Z</time></trkpt><trkpt lat="42.61232398240258" lon="13.160123860792597"><ele>903.75</ele><time>2026-04-29T09:50:47.031Z</time></trkpt><trkpt lat="42.61225792447053" lon="13.160259747329633"><ele>902.5</ele><time>2026-04-29T09:50:48.031Z</time></trkpt><trkpt lat="42.612211656410096" lon="13.160423920959177"><ele>901.25</ele><time>2026-04-29T09:50:49.031Z</time></trkpt><trkpt lat="42.612174561655365" lon="13.160584038463465"><ele>900.0</ele><time>2026-04-29T09:50:50.031Z</time></trkpt><trkpt lat="42.61213445114724" lon="13.160717306393906"><ele>899.4</ele><time>2026-04-29T09:50:51.031Z</time></trkpt><trkpt lat="42.61209372515559" lon="13.160840013540785"><ele>898.8</ele><time>2026-04-29T09:50:52.031Z</time></trkpt><trkpt lat="42.61205334843103" lon="13.160950354141942"><ele>898.2</ele><time>2026-04-29T09:50:53.031Z</time></trkpt><trkpt lat="42.61200495018024" lon="13.161047658926009"><ele>897.6</ele><time>2026-04-29T09:50:54.031Z</time></trkpt><trkpt lat="42.61192981446328" lon="13.161106738288485"><ele>897.0</ele><time>2026-04-29T09:50:55.031Z</time></trkpt><trkpt lat="42.611826898988205" lon="13.161108216164303"><ele>896.75</ele><time>2026-04-29T09:50:56.031Z</time></trkpt><trkpt lat="42.61170594183037" lon="13.161108762511786"><ele>896.5</ele><time>2026-04-29T09:50:57.031Z</time></trkpt><trkpt lat="42.611571624985146" lon="13.161136992000896"><ele>896.25</ele><time>2026-04-29T09:50:58.031Z</time></trkpt><trkpt lat="42.61141677343703" lon="13.161132510984693"><ele>896.0</ele><time>2026-04-29T09:50:59.031Z</time></trkpt><trkpt lat="42.611263447424754" lon="13.161148368613782"><ele>895.25</ele><time>2026-04-29T09:51:00.031Z</time></trkpt><trkpt lat="42.61111518391291" lon="13.161166881482805"><ele>894.5</ele><time>2026-04-29T09:51:01.031Z</time></trkpt><trkpt lat="42.61097982357233" lon="13.16118477515215"><ele>893.75</ele><time>2026-04-29T09:51:02.031Z</time></trkpt><trkpt lat="42.61084601904722" lon="13.161205056929251"><ele>893.0</ele><time>2026-04-29T09:51:03.031Z</time></trkpt><trkpt lat="42.61069787123383" lon="13.161236714923863"><ele>893.0</ele><time>2026-04-29T09:51:04.031Z</time></trkpt><trkpt lat="42.6105388238275" lon="13.161262932281888"><ele>893.0</ele><time>2026-04-29T09:51:05.031Z</time></trkpt><trkpt lat="42.61037811137536" lon="13.16128567650847"><ele>893.0</ele><time>2026-04-29T09:51:06.031Z</time></trkpt><trkpt lat="42.610229426779476" lon="13.161309061559269"><ele>891.25</ele><time>2026-04-29T09:51:07.031Z</time></trkpt><trkpt lat="42.61009390208703" lon="13.161337477027178"><ele>889.5</ele><time>2026-04-29T09:51:08.031Z</time></trkpt><trkpt lat="42.609963491079796" lon="13.161363480845008"><ele>887.75</ele><time>2026-04-29T09:51:09.031Z</time></trkpt><trkpt lat="42.60983988268302" lon="13.161384628905507"><ele>886.0</ele><time>2026-04-29T09:51:10.031Z</time></trkpt><trkpt lat="42.60972731391628" lon="13.16140364628489"><ele>886.0</ele><time>2026-04-29T09:51:11.031Z</time></trkpt><trkpt lat="42.60961386133773" lon="13.161425139965901"><ele>885.9999999999999</ele><time>2026-04-29T09:51:12.031Z</time></trkpt><trkpt lat="42.60951051019583" lon="13.161450504163934"><ele>885.9999999999999</ele><time>2026-04-29T09:51:13.031Z</time></trkpt><trkpt lat="42.60941660199858" lon="13.161512499222882"><ele>886.0</ele><time>2026-04-29T09:51:14.031Z</time></trkpt><trkpt lat="42.60933988419671" lon="13.161609194188435"><ele>886.0</ele><time>2026-04-29T09:51:15.031Z</time></trkpt><trkpt lat="42.609256217327534" lon="13.161694486840576"><ele>884.75</ele><time>2026-04-29T09:51:16.031Z</time></trkpt><trkpt lat="42.609138298865076" lon="13.161743253261267"><ele>883.5</ele><time>2026-04-29T09:51:17.031Z</time></trkpt><trkpt lat="42.60900244512609" lon="13.161744819263888"><ele>882.25</ele><time>2026-04-29T09:51:18.031Z</time></trkpt><trkpt lat="42.60885048948101" lon="13.16176295169243"><ele>881.0</ele><time>2026-04-29T09:51:19.031Z</time></trkpt><trkpt lat="42.608676906215265" lon="13.16178158963771"><ele>880.25</ele><time>2026-04-29T09:51:20.031Z</time></trkpt><trkpt lat="42.608519165630945" lon="13.161820431463186"><ele>879.5</ele><time>2026-04-29T09:51:21.031Z</time></trkpt><trkpt lat="42.6083782570083" lon="13.161845133877227"><ele>878.75</ele><time>2026-04-29T09:51:22.031Z</time></trkpt><trkpt lat="42.6082489109028" lon="13.161845035273455"><ele>878.0</ele><time>2026-04-29T09:51:23.031Z</time></trkpt><trkpt lat="42.608136532073495" lon="13.161883307373838"><ele>878.0</ele><time>2026-04-29T09:51:24.031Z</time></trkpt><trkpt lat="42.60801707337428" lon="13.161874378055765"><ele>878.0</ele><time>2026-04-29T09:51:25.031Z</time></trkpt><trkpt lat="42.60789923300282" lon="13.161864753457502"><ele>878.0</ele><time>2026-04-29T09:51:26.031Z</time></trkpt><trkpt lat="42.60778068547592" lon="13.161856727714492"><ele>878.0</ele><time>2026-04-29T09:51:27.031Z</time></trkpt><trkpt lat="42.607664036246064" lon="13.161851950401195"><ele>877.5</ele><time>2026-04-29T09:51:28.031Z</time></trkpt><trkpt lat="42.60753965762993" lon="13.161885984283959"><ele>877.0</ele><time>2026-04-29T09:51:29.031Z</time></trkpt><trkpt lat="42.60740644757667" lon="13.16195482082108"><ele>876.5</ele><time>2026-04-29T09:51:30.031Z</time></trkpt><trkpt lat="42.60726602893255" lon="13.162073623975227"><ele>876.0</ele><time>2026-04-29T09:51:31.031Z</time></trkpt><trkpt lat="42.60713308879301" lon="13.162198330746897"><ele>876.0</ele><time>2026-04-29T09:51:32.031Z</time></trkpt><trkpt lat="42.60700265892787" lon="13.16230582993471"><ele>876.0</ele><time>2026-04-29T09:51:33.031Z</time></trkpt><trkpt lat="42.60686965037274" lon="13.162390504049178"><ele>876.0</ele><time>2026-04-29T09:51:34.031Z</time></trkpt><trkpt lat="42.60671939515771" lon="13.162459796607552"><ele>875.0</ele><time>2026-04-29T09:51:35.031Z</time></trkpt><trkpt lat="42.60654509645455" lon="13.162515405245136"><ele>874.0</ele><time>2026-04-29T09:51:36.031Z</time></trkpt><trkpt lat="42.60635700702368" lon="13.162582526949388"><ele>873.0</ele><time>2026-04-29T09:51:37.031Z</time></trkpt><trkpt lat="42.60615285997563" lon="13.162666737813055"><ele>870.5</ele><time>2026-04-29T09:51:38.031Z</time></trkpt><trkpt lat="42.60594200793728" lon="13.162767846552434"><ele>868.0</ele><time>2026-04-29T09:51:39.031Z</time></trkpt><trkpt lat="42.6057129206959" lon="13.162867868927696"><ele>868.0</ele><time>2026-04-29T09:51:40.031Z</time></trkpt><trkpt lat="42.60548434874531" lon="13.163030535236487"><ele>868.0</ele><time>2026-04-29T09:51:41.031Z</time></trkpt><trkpt lat="42.60524689160297" lon="13.163178165323165"><ele>866.0</ele><time>2026-04-29T09:51:42.033Z</time></trkpt><trkpt lat="42.60502910599574" lon="13.163310553784656"><ele>864.0</ele><time>2026-04-29T09:51:43.032Z</time></trkpt><trkpt lat="42.604822453118544" lon="13.163416394458604"><ele>864.0</ele><time>2026-04-29T09:51:44.032Z</time></trkpt><trkpt lat="42.60463326219423" lon="13.163509235670794"><ele>864.0</ele><time>2026-04-29T09:51:45.033Z</time></trkpt><trkpt lat="42.60445540485904" lon="13.163605132669607"><ele>864.0</ele><time>2026-04-29T09:51:46.033Z</time></trkpt><trkpt lat="42.60429248156272" lon="13.163695502104614"><ele>862.3333333333333</ele><time>2026-04-29T09:51:47.033Z</time></trkpt><trkpt lat="42.60414062536415" lon="13.163771153828733"><ele>860.6666666666666</ele><time>2026-04-29T09:51:48.032Z</time></trkpt><trkpt lat="42.6039965629795" lon="13.163854412268131"><ele>859.0</ele><time>2026-04-29T09:51:49.032Z</time></trkpt><trkpt lat="42.60386341804067" lon="13.16394236039694"><ele>859.75</ele><time>2026-04-29T09:51:50.032Z</time></trkpt><trkpt lat="42.603739747418246" lon="13.164033454823398"><ele>860.5</ele><time>2026-04-29T09:51:51.033Z</time></trkpt><trkpt lat="42.60363010664127" lon="13.16412124824899"><ele>861.25</ele><time>2026-04-29T09:51:52.033Z</time></trkpt><trkpt lat="42.603535249957275" lon="13.164221300665956"><ele>862.0</ele><time>2026-04-29T09:51:53.033Z</time></trkpt><trkpt lat="42.6034466026379" lon="13.164303582024223"><ele>860.9999999999999</ele><time>2026-04-29T09:51:54.033Z</time></trkpt><trkpt lat="42.603369915473365" lon="13.164386908237573"><ele>860.0</ele><time>2026-04-29T09:51:55.033Z</time></trkpt><trkpt lat="42.603305768832435" lon="13.164462518630316"><ele>859.0</ele><time>2026-04-29T09:51:56.033Z</time></trkpt><trkpt lat="42.60325669357228" lon="13.164535237150394"><ele>858.0</ele><time>2026-04-29T09:51:57.033Z</time></trkpt><trkpt lat="42.60321695938494" lon="13.164616913170118"><ele>856.9999999999999</ele><time>2026-04-29T09:51:58.033Z</time></trkpt><trkpt lat="42.6031864857671" lon="13.164716637314992"><ele>856.0</ele><time>2026-04-29T09:51:59.033Z</time></trkpt><trkpt lat="42.60317278957104" lon="13.164829243526105"><ele>856.25</ele><time>2026-04-29T09:52:00.033Z</time></trkpt><trkpt lat="42.603161496873696" lon="13.16497833938423"><ele>856.5</ele><time>2026-04-29T09:52:01.033Z</time></trkpt><trkpt lat="42.60312884423023" lon="13.165182955799894"><ele>856.75</ele><time>2026-04-29T09:52:02.033Z</time></trkpt><trkpt lat="42.60305885056485" lon="13.165394345960308"><ele>857.0</ele><time>2026-04-29T09:52:03.033Z</time></trkpt><trkpt lat="42.6029544475667" lon="13.165593786959015"><ele>857.5</ele><time>2026-04-29T09:52:04.033Z</time></trkpt><trkpt lat="42.60288814205604" lon="13.165788294465647"><ele>858.0</ele><time>2026-04-29T09:52:05.033Z</time></trkpt><trkpt lat="42.60282438920266" lon="13.16596767790968"><ele>858.5</ele><time>2026-04-29T09:52:06.033Z</time></trkpt><trkpt lat="42.60277285119581" lon="13.166137109089854"><ele>859.0</ele><time>2026-04-29T09:52:07.033Z</time></trkpt><trkpt lat="42.60270846192342" lon="13.166302165341412"><ele>857.75</ele><time>2026-04-29T09:52:08.033Z</time></trkpt><trkpt lat="42.60263943160867" lon="13.166474538855269"><ele>856.5</ele><time>2026-04-29T09:52:09.033Z</time></trkpt><trkpt lat="42.6025715659357" lon="13.166637085149732"><ele>855.25</ele><time>2026-04-29T09:52:10.033Z</time></trkpt><trkpt lat="42.60251400095223" lon="13.166835397301512"><ele>854.0</ele><time>2026-04-29T09:52:11.033Z</time></trkpt><trkpt lat="42.602450279218836" lon="13.167057862662215"><ele>854.0</ele><time>2026-04-29T09:52:12.033Z</time></trkpt><trkpt lat="42.602390036484906" lon="13.16726298613884"><ele>854.0</ele><time>2026-04-29T09:52:13.033Z</time></trkpt><trkpt lat="42.60233557526377" lon="13.167449692153975"><ele>854.0</ele><time>2026-04-29T09:52:14.032Z</time></trkpt><trkpt lat="42.60228901648914" lon="13.167613195141179"><ele>854.0</ele><time>2026-04-29T09:52:15.032Z</time></trkpt><trkpt lat="42.60222489627972" lon="13.167769108236655"><ele>854.75</ele><time>2026-04-29T09:52:16.032Z</time></trkpt><trkpt lat="42.60216503637177" lon="13.167936568362991"><ele>855.5</ele><time>2026-04-29T09:52:17.032Z</time></trkpt><trkpt lat="42.60212267920833" lon="13.168121274950396"><ele>856.25</ele><time>2026-04-29T09:52:18.032Z</time></trkpt><trkpt lat="42.60207447003101" lon="13.168266410758605"><ele>857.0</ele><time>2026-04-29T09:52:19.032Z</time></trkpt><trkpt lat="42.602038361695286" lon="13.16841335975114"><ele>857.0</ele><time>2026-04-29T09:52:20.032Z</time></trkpt><trkpt lat="42.60201346424545" lon="13.168570429811309"><ele>857.0</ele><time>2026-04-29T09:52:21.032Z</time></trkpt><trkpt lat="42.60198460315019" lon="13.168739526455605"><ele>857.0</ele><time>2026-04-29T09:52:22.032Z</time></trkpt><trkpt lat="42.60195746468214" lon="13.168893445171575"><ele>857.0</ele><time>2026-04-29T09:52:23.032Z</time></trkpt><trkpt lat="42.60192863553118" lon="13.169027068800577"><ele>856.1666666666667</ele><time>2026-04-29T09:52:24.032Z</time></trkpt><trkpt lat="42.60191313732785" lon="13.169122787447593"><ele>855.3333333333334</ele><time>2026-04-29T09:52:25.032Z</time></trkpt><trkpt lat="42.60190586922236" lon="13.169208090340856"><ele>854.5</ele><time>2026-04-29T09:52:28.032Z</time></trkpt><trkpt lat="42.60189260476569" lon="13.169308024516798"><ele>853.6666666666667</ele><time>2026-04-29T09:52:31.032Z</time></trkpt><trkpt lat="42.60193502681163" lon="13.16923249518802"><ele>852.8333333333334</ele><time>2026-04-29T09:52:34.032Z</time></trkpt><trkpt lat="42.601913034986865" lon="13.169081968377832"><ele>852.0</ele><time>2026-04-29T09:52:36.032Z</time></trkpt><trkpt lat="42.60191422690266" lon="13.168953055437912"><ele>851.8333333333334</ele><time>2026-04-29T09:52:38.032Z</time></trkpt><trkpt lat="42.60198396781377" lon="13.168838945552839"><ele>851.6666666666667</ele><time>2026-04-29T09:52:40.032Z</time></trkpt><trkpt lat="42.602006251135485" lon="13.168726318406469"><ele>851.5</ele><time>2026-04-29T09:52:42.032Z</time></trkpt><trkpt lat="42.602011487025266" lon="13.168622821731049"><ele>851.3333333333334</ele><time>2026-04-29T09:52:44.032Z</time></trkpt><trkpt lat="42.60206533425192" lon="13.168515423146514"><ele>851.1666666666667</ele><time>2026-04-29T09:52:47.032Z</time></trkpt><trkpt lat="42.60208213937967" lon="13.168423495048671"><ele>851.0</ele><time>2026-04-29T09:52:48.032Z</time></trkpt><trkpt lat="42.602124688008566" lon="13.168296446474242"><ele>852.0000000000001</ele><time>2026-04-29T09:52:49.032Z</time></trkpt><trkpt lat="42.60215200487324" lon="13.168183818577633"><ele>853.0</ele><time>2026-04-29T09:52:50.032Z</time></trkpt><trkpt lat="42.60217335224087" lon="13.16804893083122"><ele>854.0</ele><time>2026-04-29T09:52:51.032Z</time></trkpt><trkpt lat="42.60220237471352" lon="13.167941917007553"><ele>855.0</ele><time>2026-04-29T09:52:52.032Z</time></trkpt><trkpt lat="42.60223416044339" lon="13.167846405503314"><ele>856.0000000000001</ele><time>2026-04-29T09:52:53.032Z</time></trkpt><trkpt lat="42.602263371569784" lon="13.167750723260886"><ele>857.0</ele><time>2026-04-29T09:52:54.032Z</time></trkpt><trkpt lat="42.60229901289226" lon="13.167659090374585"><ele>857.0000000000001</ele><time>2026-04-29T09:52:55.032Z</time></trkpt><trkpt lat="42.602330765383705" lon="13.167555696904412"><ele>857.0</ele><time>2026-04-29T09:52:56.032Z</time></trkpt><trkpt lat="42.60236541693568" lon="13.167456570410303"><ele>857.0</ele><time>2026-04-29T09:52:57.032Z</time></trkpt><trkpt lat="42.60239786860966" lon="13.167354142697391"><ele>857.0</ele><time>2026-04-29T09:52:58.032Z</time></trkpt><trkpt lat="42.60243366153438" lon="13.167251085314597"><ele>857.0000000000001</ele><time>2026-04-29T09:52:59.032Z</time></trkpt><trkpt lat="42.6024567721542" lon="13.167166102454747"><ele>857.0</ele><time>2026-04-29T09:53:00.032Z</time></trkpt><trkpt lat="42.602420870559534" lon="13.167250443779036"><ele>857.0000000000001</ele><time>2026-04-29T09:53:08.032Z</time></trkpt><trkpt lat="42.602395924400476" lon="13.167364234717034"><ele>857.0</ele><time>2026-04-29T09:53:10.032Z</time></trkpt><trkpt lat="42.602364455714174" lon="13.167470507544422"><ele>857.0</ele><time>2026-04-29T09:53:12.032Z</time></trkpt><trkpt lat="42.60233381119425" lon="13.167561773422593"><ele>857.0</ele><time>2026-04-29T09:53:14.032Z</time></trkpt><trkpt lat="42.602302581515595" lon="13.167643669139231"><ele>857.0000000000001</ele><time>2026-04-29T09:53:18.032Z</time></trkpt><trkpt lat="42.602272507102896" lon="13.167744184978856"><ele>857.0</ele><time>2026-04-29T09:53:23.032Z</time></trkpt><trkpt lat="42.60224312012743" lon="13.16782814565659"><ele>857.0</ele><time>2026-04-29T09:53:26.032Z</time></trkpt><trkpt lat="42.60219623518697" lon="13.167962770195249"><ele>857.0</ele><time>2026-04-29T09:53:28.031Z</time></trkpt><trkpt lat="42.60214468715476" lon="13.168109510167957"><ele>857.0</ele><time>2026-04-29T09:53:29.031Z</time></trkpt><trkpt lat="42.60209947779555" lon="13.168257032112672"><ele>857.0</ele><time>2026-04-29T09:53:30.031Z</time></trkpt><trkpt lat="42.60205279044842" lon="13.168434699693915"><ele>857.0</ele><time>2026-04-29T09:53:31.031Z</time></trkpt><trkpt lat="42.60202049328687" lon="13.168627594324244"><ele>857.0</ele><time>2026-04-29T09:53:32.031Z</time></trkpt><trkpt lat="42.601982880737594" lon="13.168824807591285"><ele>857.0</ele><time>2026-04-29T09:53:33.031Z</time></trkpt><trkpt lat="42.60195518740897" lon="13.168977105907283"><ele>857.0</ele><time>2026-04-29T09:53:34.031Z</time></trkpt><trkpt lat="42.60194097017201" lon="13.169115946201146"><ele>857.75</ele><time>2026-04-29T09:53:35.031Z</time></trkpt><trkpt lat="42.60194803757848" lon="13.169265748408565"><ele>858.5</ele><time>2026-04-29T09:53:36.031Z</time></trkpt><trkpt lat="42.6019728619705" lon="13.169444997085208"><ele>859.25</ele><time>2026-04-29T09:53:37.031Z</time></trkpt><trkpt lat="42.60199390048184" lon="13.16961065429627"><ele>860.0</ele><time>2026-04-29T09:53:38.031Z</time></trkpt><trkpt lat="42.602001413846104" lon="13.169767804439877"><ele>859.1666666666667</ele><time>2026-04-29T09:53:39.031Z</time></trkpt><trkpt lat="42.602001179170266" lon="13.169908436984807"><ele>858.3333333333334</ele><time>2026-04-29T09:53:40.031Z</time></trkpt><trkpt lat="42.601990582040465" lon="13.170036299874651"><ele>857.5</ele><time>2026-04-29T09:53:41.031Z</time></trkpt><trkpt lat="42.60195241782918" lon="13.170133286939441"><ele>856.6666666666667</ele><time>2026-04-29T09:53:42.031Z</time></trkpt><trkpt lat="42.60190330212687" lon="13.170215331725268"><ele>855.8333333333334</ele><time>2026-04-29T09:53:43.031Z</time></trkpt><trkpt lat="42.60184613336645" lon="13.170296749892055"><ele>855.0</ele><time>2026-04-29T09:53:44.031Z</time></trkpt><trkpt lat="42.60177625639435" lon="13.170373142835912"><ele>855.0</ele><time>2026-04-29T09:53:45.031Z</time></trkpt><trkpt lat="42.601702533211" lon="13.170440161575275"><ele>855.0</ele><time>2026-04-29T09:53:46.031Z</time></trkpt><trkpt lat="42.60163569914444" lon="13.170516314026166"><ele>855.0</ele><time>2026-04-29T09:53:47.031Z</time></trkpt><trkpt lat="42.6015707757427" lon="13.170591673643418"><ele>855.0</ele><time>2026-04-29T09:53:48.033Z</time></trkpt><trkpt lat="42.60148812072039" lon="13.170642583482763"><ele>855.0</ele><time>2026-04-29T09:53:49.033Z</time></trkpt><trkpt lat="42.601447906619704" lon="13.170774376309012"><ele>855.75</ele><time>2026-04-29T09:53:50.033Z</time></trkpt><trkpt lat="42.60138568282308" lon="13.170945905140625"><ele>856.5</ele><time>2026-04-29T09:53:51.034Z</time></trkpt><trkpt lat="42.601319970142335" lon="13.171091161973276"><ele>857.25</ele><time>2026-04-29T09:53:52.033Z</time></trkpt><trkpt lat="42.601251239044146" lon="13.171241637884526"><ele>858.0</ele><time>2026-04-29T09:53:53.033Z</time></trkpt><trkpt lat="42.60117680604511" lon="13.171402408708149"><ele>859.0</ele><time>2026-04-29T09:53:54.034Z</time></trkpt><trkpt lat="42.60110281783481" lon="13.171543205890776"><ele>860.0</ele><time>2026-04-29T09:53:55.033Z</time></trkpt><trkpt lat="42.60103042001787" lon="13.171664695343361"><ele>861.0</ele><time>2026-04-29T09:53:56.033Z</time></trkpt><trkpt lat="42.60095155454669" lon="13.171766392593481"><ele>862.0</ele><time>2026-04-29T09:53:57.034Z</time></trkpt><trkpt lat="42.60085907376328" lon="13.171857262382387"><ele>862.0</ele><time>2026-04-29T09:53:58.034Z</time></trkpt><trkpt lat="42.60073031264366" lon="13.171950465676648"><ele>862.0</ele><time>2026-04-29T09:53:59.034Z</time></trkpt><trkpt lat="42.60059481518792" lon="13.172044342149201"><ele>862.0</ele><time>2026-04-29T09:54:00.033Z</time></trkpt><trkpt lat="42.60047079879333" lon="13.172140304968073"><ele>862.0</ele><time>2026-04-29T09:54:01.033Z</time></trkpt><trkpt lat="42.60035909526942" lon="13.17222852941451"><ele>861.5</ele><time>2026-04-29T09:54:02.033Z</time></trkpt><trkpt lat="42.600253772878055" lon="13.172308029536353"><ele>861.0</ele><time>2026-04-29T09:54:03.033Z</time></trkpt><trkpt lat="42.60014613324771" lon="13.172410082515038"><ele>860.5</ele><time>2026-04-29T09:54:04.033Z</time></trkpt><trkpt lat="42.60002136626252" lon="13.172497842525585"><ele>860.0</ele><time>2026-04-29T09:54:05.033Z</time></trkpt><trkpt lat="42.5998930188587" lon="13.172559930870914"><ele>864.5</ele><time>2026-04-29T09:54:06.033Z</time></trkpt><trkpt lat="42.599767528533825" lon="13.172626273910296"><ele>869.0</ele><time>2026-04-29T09:54:07.033Z</time></trkpt><trkpt lat="42.59964595363478" lon="13.172707708820738"><ele>873.5</ele><time>2026-04-29T09:54:08.033Z</time></trkpt><trkpt lat="42.599529348838004" lon="13.172809283990102"><ele>878.0</ele><time>2026-04-29T09:54:09.033Z</time></trkpt><trkpt lat="42.59939380198802" lon="13.172927128990974"><ele>878.0</ele><time>2026-04-29T09:54:10.033Z</time></trkpt><trkpt lat="42.59926490141901" lon="13.1730079216445"><ele>878.0</ele><time>2026-04-29T09:54:11.033Z</time></trkpt><trkpt lat="42.59912829307277" lon="13.173092657459884"><ele>878.0</ele><time>2026-04-29T09:54:12.033Z</time></trkpt><trkpt lat="42.59896564616658" lon="13.173202151583764"><ele>881.6666666666667</ele><time>2026-04-29T09:54:13.033Z</time></trkpt><trkpt lat="42.59881276998828" lon="13.173357620360619"><ele>885.3333333333333</ele><time>2026-04-29T09:54:14.033Z</time></trkpt><trkpt lat="42.59865860576777" lon="13.173524108583301"><ele>889.0</ele><time>2026-04-29T09:54:15.033Z</time></trkpt><trkpt lat="42.5985190820661" lon="13.173665982743346"><ele>889.0</ele><time>2026-04-29T09:54:16.033Z</time></trkpt><trkpt lat="42.598363428106495" lon="13.173791130820383"><ele>889.0</ele><time>2026-04-29T09:54:17.033Z</time></trkpt><trkpt lat="42.598178767425" lon="13.173928214207878"><ele>889.0</ele><time>2026-04-29T09:54:18.033Z</time></trkpt><trkpt lat="42.597980176085265" lon="13.174038463826644"><ele>891.6666666666666</ele><time>2026-04-29T09:54:19.033Z</time></trkpt><trkpt lat="42.597807699627744" lon="13.174147306833424"><ele>894.3333333333333</ele><time>2026-04-29T09:54:20.033Z</time></trkpt><trkpt lat="42.597669807096175" lon="13.174226646084488"><ele>897.0</ele><time>2026-04-29T09:54:21.033Z</time></trkpt><trkpt lat="42.597542536301546" lon="13.174313950806393"><ele>897.0</ele><time>2026-04-29T09:54:22.033Z</time></trkpt><trkpt lat="42.59743467845192" lon="13.174394728828734"><ele>897.0</ele><time>2026-04-29T09:54:23.033Z</time></trkpt><trkpt lat="42.59734152371128" lon="13.174458949635557"><ele>897.0</ele><time>2026-04-29T09:54:24.033Z</time></trkpt><trkpt lat="42.597258702435504" lon="13.17451083473971"><ele>897.0</ele><time>2026-04-29T09:54:25.033Z</time></trkpt><trkpt lat="42.59718948198186" lon="13.174554938027505"><ele>897.0</ele><time>2026-04-29T09:54:26.033Z</time></trkpt><trkpt lat="42.59712067118942" lon="13.174624350571028"><ele>897.0</ele><time>2026-04-29T09:54:27.033Z</time></trkpt><trkpt lat="42.59704768037143" lon="13.174732923106788"><ele>897.0</ele><time>2026-04-29T09:54:28.033Z</time></trkpt><trkpt lat="42.596995972767765" lon="13.1748265209989"><ele>897.0</ele><time>2026-04-29T09:54:29.033Z</time></trkpt><trkpt lat="42.596926573359816" lon="13.174920591630361"><ele>897.0</ele><time>2026-04-29T09:54:31.033Z</time></trkpt><trkpt lat="42.59684415144074" lon="13.17491627476869"><ele>897.0</ele><time>2026-04-29T09:54:33.033Z</time></trkpt><trkpt lat="42.59672686558631" lon="13.174902995840748"><ele>896.6666666666666</ele><time>2026-04-29T09:54:35.033Z</time></trkpt><trkpt lat="42.59664679724018" lon="13.174917364292785"><ele>896.3333333333333</ele><time>2026-04-29T09:54:36.033Z</time></trkpt><trkpt lat="42.59655493565118" lon="13.174932835284016"><ele>896.0</ele><time>2026-04-29T09:54:37.033Z</time></trkpt><trkpt lat="42.59646658223147" lon="13.17493613570197"><ele>895.6666666666666</ele><time>2026-04-29T09:54:38.033Z</time></trkpt><trkpt lat="42.59639211978072" lon="13.174914605424048"><ele>895.3333333333333</ele><time>2026-04-29T09:54:39.033Z</time></trkpt><trkpt lat="42.59630055339945" lon="13.174891443571488"><ele>895.0</ele><time>2026-04-29T09:54:40.033Z</time></trkpt><trkpt lat="42.59620095563888" lon="13.174841144613673"><ele>891.2</ele><time>2026-04-29T09:54:41.033Z</time></trkpt><trkpt lat="42.59610762911243" lon="13.17477945509001"><ele>887.4</ele><time>2026-04-29T09:54:42.033Z</time></trkpt><trkpt lat="42.596028379826265" lon="13.174728576109773"><ele>883.5999999999999</ele><time>2026-04-29T09:54:43.033Z</time></trkpt><trkpt lat="42.595947155691775" lon="13.174687566134887"><ele>879.8</ele><time>2026-04-29T09:54:44.033Z</time></trkpt><trkpt lat="42.59586634767242" lon="13.174651407935716"><ele>876.0</ele><time>2026-04-29T09:54:45.033Z</time></trkpt><trkpt lat="42.5957787707449" lon="13.174596329518085"><ele>876.0</ele><time>2026-04-29T09:54:46.033Z</time></trkpt><trkpt lat="42.595686119125126" lon="13.174539448853782"><ele>875.9999999999999</ele><time>2026-04-29T09:54:47.033Z</time></trkpt><trkpt lat="42.59560305265196" lon="13.174482137064931"><ele>875.9999999999999</ele><time>2026-04-29T09:54:48.033Z</time></trkpt><trkpt lat="42.59551655716328" lon="13.174422919817523"><ele>876.0</ele><time>2026-04-29T09:54:49.033Z</time></trkpt><trkpt lat="42.59542846854615" lon="13.174359051659739"><ele>876.0</ele><time>2026-04-29T09:54:50.033Z</time></trkpt><trkpt lat="42.595326778997865" lon="13.174307023612462"><ele>874.25</ele><time>2026-04-29T09:54:51.033Z</time></trkpt><trkpt lat="42.595218982169285" lon="13.174272693089588"><ele>872.5</ele><time>2026-04-29T09:54:52.033Z</time></trkpt><trkpt lat="42.595119785800996" lon="13.174229282952817"><ele>870.75</ele><time>2026-04-29T09:54:53.033Z</time></trkpt><trkpt lat="42.59499097940985" lon="13.17417303009717"><ele>869.0</ele><time>2026-04-29T09:54:54.033Z</time></trkpt><trkpt lat="42.59485751548865" lon="13.1741239398699"><ele>869.0</ele><time>2026-04-29T09:54:55.033Z</time></trkpt><trkpt lat="42.59473854054212" lon="13.174088264874662"><ele>869.0</ele><time>2026-04-29T09:54:56.033Z</time></trkpt><trkpt lat="42.59461628803714" lon="13.174062960542944"><ele>869.0</ele><time>2026-04-29T09:54:57.033Z</time></trkpt><trkpt lat="42.594489765723765" lon="13.17403449610334"><ele>869.0</ele><time>2026-04-29T09:54:58.033Z</time></trkpt><trkpt lat="42.59437897323841" lon="13.17399237386991"><ele>865.4000000000001</ele><time>2026-04-29T09:54:59.033Z</time></trkpt><trkpt lat="42.59427828262132" lon="13.173953192663506"><ele>861.8000000000001</ele><time>2026-04-29T09:55:00.033Z</time></trkpt><trkpt lat="42.5941875558103" lon="13.173899767378218"><ele>858.2</ele><time>2026-04-29T09:55:01.032Z</time></trkpt><trkpt lat="42.59408765389241" lon="13.173812377471483"><ele>854.5999999999999</ele><time>2026-04-29T09:55:02.032Z</time></trkpt><trkpt lat="42.593993805336886" lon="13.173719250041088"><ele>851.0</ele><time>2026-04-29T09:55:03.032Z</time></trkpt><trkpt lat="42.59389363749788" lon="13.173644445208614"><ele>851.0000000000001</ele><time>2026-04-29T09:55:04.032Z</time></trkpt><trkpt lat="42.5938184817868" lon="13.173580011204974"><ele>851.0</ele><time>2026-04-29T09:55:05.032Z</time></trkpt><trkpt lat="42.593744522123245" lon="13.173521238258033"><ele>851.0</ele><time>2026-04-29T09:55:06.032Z</time></trkpt><trkpt lat="42.59368499462384" lon="13.173470401995562"><ele>851.0</ele><time>2026-04-29T09:55:07.032Z</time></trkpt><trkpt lat="42.59359779914322" lon="13.173366046120671"><ele>851.0000000000001</ele><time>2026-04-29T09:55:09.032Z</time></trkpt><trkpt lat="42.59355304303451" lon="13.1733035880638"><ele>851.0</ele><time>2026-04-29T09:55:10.032Z</time></trkpt><trkpt lat="42.59350981215594" lon="13.173234260796693"><ele>847.6666666666667</ele><time>2026-04-29T09:55:11.032Z</time></trkpt><trkpt lat="42.59347304174451" lon="13.173151650749295"><ele>844.3333333333334</ele><time>2026-04-29T09:55:12.032Z</time></trkpt><trkpt lat="42.59343535156457" lon="13.173067712040352"><ele>841.0</ele><time>2026-04-29T09:55:13.032Z</time></trkpt><trkpt lat="42.59339117697368" lon="13.172937818851812"><ele>837.6666666666667</ele><time>2026-04-29T09:55:15.032Z</time></trkpt><trkpt lat="42.59337866610314" lon="13.172823419437282"><ele>834.3333333333334</ele><time>2026-04-29T09:55:17.032Z</time></trkpt><trkpt lat="42.593386355324675" lon="13.172706883438362"><ele>831.0</ele><time>2026-04-29T09:55:19.032Z</time></trkpt><trkpt lat="42.593376106765696" lon="13.17260548243824"><ele>831.0</ele><time>2026-04-29T09:55:21.032Z</time></trkpt><trkpt lat="42.59329741371516" lon="13.172538132685322"><ele>831.0</ele><time>2026-04-29T09:55:23.032Z</time></trkpt><trkpt lat="42.59322192345301" lon="13.172481527891623"><ele>831.0</ele><time>2026-04-29T09:55:25.032Z</time></trkpt><trkpt lat="42.593106302659265" lon="13.172466833408407"><ele>831.0</ele><time>2026-04-29T09:55:27.032Z</time></trkpt><trkpt lat="42.5930530312077" lon="13.172412834206774"><ele>831.0</ele><time>2026-04-29T09:55:29.032Z</time></trkpt></trkseg></trk></gpx>